<?xml version='1.0' encoding='UTF-8'?><gpx version="1.1" creator="JPX - https://github.com/jenetics/jpx" xmlns="http://www.topografix.com/GPX/1/1"><trk><trkseg><trkpt lat="42.14892448306148" lon="11.936080731275478"><ele>470.0</ele><time>2026-03-24T14:05:56Z</time></trkpt><trkpt lat="42.148955493736416" lon="11.936243786242429"><ele>470.0</ele><time>2026-03-24T14:05:58Z</time></trkpt><trkpt lat="42.14897701460575" lon="11.936350296639123"><ele>470.0</ele><time>2026-03-24T14:05:59Z</time></trkpt><trkpt lat="42.1490244879475" lon="11.936463265926037"><ele>470.0</ele><time>2026-03-24T14:06:01Z</time></trkpt><trkpt lat="42.1491082587238" lon="11.936484570626572"><ele>470.0</ele><time>2026-03-24T14:06:03Z</time></trkpt><trkpt lat="42.1491537850167" lon="11.936598757735444"><ele>470.8</ele><time>2026-03-24T14:06:05Z</time></trkpt><trkpt lat="42.14920924801932" lon="11.936712614746929"><ele>471.6</ele><time>2026-03-24T14:06:07Z</time></trkpt><trkpt lat="42.149299305311395" lon="11.93680041641119"><ele>472.4</ele><time>2026-03-24T14:06:09Z</time></trkpt><trkpt lat="42.1493873575824" lon="11.936906109070817"><ele>473.2</ele><time>2026-03-24T14:06:11Z</time></trkpt><trkpt lat="42.14937515275559" lon="11.937014924266503"><ele>474.0</ele><time>2026-03-24T14:06:12Z</time></trkpt><trkpt lat="42.14943501825361" lon="11.937114330890466"><ele>473.79999999999995</ele><time>2026-03-24T14:06:14Z</time></trkpt><trkpt lat="42.149499133526284" lon="11.937223639273956"><ele>473.59999999999997</ele><time>2026-03-24T14:06:16Z</time></trkpt><trkpt lat="42.14953972975689" lon="11.937360980217015"><ele>473.4</ele><time>2026-03-24T14:06:17.999Z</time></trkpt><trkpt lat="42.14954521834501" lon="11.937502223205922"><ele>473.2</ele><time>2026-03-24T14:06:19.999Z</time></trkpt><trkpt lat="42.1495819703022" lon="11.937637804807622"><ele>473.0</ele><time>2026-03-24T14:06:21.999Z</time></trkpt><trkpt lat="42.149611590617354" lon="11.937773543973014"><ele>472.99999999999994</ele><time>2026-03-24T14:06:23.999Z</time></trkpt><trkpt lat="42.14962534772544" lon="11.937904802106873"><ele>473.0</ele><time>2026-03-24T14:06:25.999Z</time></trkpt><trkpt lat="42.1496479141863" lon="11.938059235243433"><ele>473.0</ele><time>2026-03-24T14:06:27.999Z</time></trkpt><trkpt lat="42.149665223883105" lon="11.938153755584938"><ele>473.0</ele><time>2026-03-24T14:06:28.999Z</time></trkpt><trkpt lat="42.14971147692928" lon="11.938213031826127"><ele>472.99999999999994</ele><time>2026-03-24T14:06:29.999Z</time></trkpt><trkpt lat="42.14976561055335" lon="11.938281124590496"><ele>473.0</ele><time>2026-03-24T14:06:30.999Z</time></trkpt><trkpt lat="42.14981488737264" lon="11.938338333287417"><ele>473.4</ele><time>2026-03-24T14:06:31.999Z</time></trkpt><trkpt lat="42.14986533544372" lon="11.938393684429448"><ele>473.79999999999995</ele><time>2026-03-24T14:06:32.999Z</time></trkpt><trkpt lat="42.149953307474135" lon="11.938484607984897"><ele>474.2</ele><time>2026-03-24T14:06:34.999Z</time></trkpt><trkpt lat="42.150034267842834" lon="11.938564755623194"><ele>474.6</ele><time>2026-03-24T14:06:36.999Z</time></trkpt><trkpt lat="42.15010006147103" lon="11.938617878615783"><ele>475.0</ele><time>2026-03-24T14:06:38.999Z</time></trkpt><trkpt lat="42.15015956008101" lon="11.938730619621529"><ele>475.0</ele><time>2026-03-24T14:06:40.999Z</time></trkpt><trkpt lat="42.15020625719556" lon="11.938828379742464"><ele>475.0</ele><time>2026-03-24T14:06:42.999Z</time></trkpt><trkpt lat="42.15028418547264" lon="11.938914782712258"><ele>475.0</ele><time>2026-03-24T14:06:45.999Z</time></trkpt><trkpt lat="42.15036208276268" lon="11.938961071688237"><ele>475.0</ele><time>2026-03-24T14:06:47.999Z</time></trkpt><trkpt lat="42.15045176720289" lon="11.939059921898734"><ele>475.0</ele><time>2026-03-24T14:06:49.999Z</time></trkpt><trkpt lat="42.15053849657235" lon="11.939122935461057"><ele>475.0</ele><time>2026-03-24T14:06:51.999Z</time></trkpt><trkpt lat="42.150642596743694" lon="11.939173962365956"><ele>475.0</ele><time>2026-03-24T14:06:53.999Z</time></trkpt><trkpt lat="42.15075485312056" lon="11.93927005599845"><ele>475.0</ele><time>2026-03-24T14:06:55.999Z</time></trkpt><trkpt lat="42.150814418265576" lon="11.9393217532618"><ele>475.0</ele><time>2026-03-24T14:06:56.999Z</time></trkpt><trkpt lat="42.150873609941165" lon="11.939369676442308"><ele>475.0</ele><time>2026-03-24T14:06:57.999Z</time></trkpt><trkpt lat="42.150980838885225" lon="11.939455748005637"><ele>472.50000000000006</ele><time>2026-03-24T14:06:59.999Z</time></trkpt><trkpt lat="42.15103797470312" lon="11.939500203947398"><ele>470.0</ele><time>2026-03-24T14:07:00.999Z</time></trkpt><trkpt lat="42.15113894266686" lon="11.939589665930736"><ele>467.5</ele><time>2026-03-24T14:07:02.999Z</time></trkpt><trkpt lat="42.151193766280535" lon="11.939641616090752"><ele>465.0</ele><time>2026-03-24T14:07:04.001Z</time></trkpt><trkpt lat="42.1512810659758" lon="11.939728997746526"><ele>462.50000000000006</ele><time>2026-03-24T14:07:06.001Z</time></trkpt><trkpt lat="42.151331064734876" lon="11.939782826578435"><ele>460.0</ele><time>2026-03-24T14:07:07.001Z</time></trkpt><trkpt lat="42.15140059796213" lon="11.939852653106392"><ele>460.00000000000006</ele><time>2026-03-24T14:07:09.001Z</time></trkpt><trkpt lat="42.15147013507145" lon="11.939938462638372"><ele>460.0</ele><time>2026-03-24T14:07:12.001Z</time></trkpt><trkpt lat="42.15152850741121" lon="11.939998674849734"><ele>460.0</ele><time>2026-03-24T14:07:14.001Z</time></trkpt><trkpt lat="42.151595520196366" lon="11.940067799851299"><ele>460.0</ele><time>2026-03-24T14:07:16.001Z</time></trkpt><trkpt lat="42.15165666379687" lon="11.940131829187123"><ele>460.00000000000006</ele><time>2026-03-24T14:07:18.001Z</time></trkpt><trkpt lat="42.15174022958771" lon="11.940223732681327"><ele>460.0</ele><time>2026-03-24T14:07:20.001Z</time></trkpt><trkpt lat="42.15182758448096" lon="11.94030730947189"><ele>460.8</ele><time>2026-03-24T14:07:22Z</time></trkpt><trkpt lat="42.15190070926224" lon="11.940368496543423"><ele>461.6</ele><time>2026-03-24T14:07:24Z</time></trkpt><trkpt lat="42.151967244829" lon="11.9404205185115"><ele>462.4</ele><time>2026-03-24T14:07:27Z</time></trkpt><trkpt lat="42.15204935234508" lon="11.940481687373723"><ele>463.2</ele><time>2026-03-24T14:07:30Z</time></trkpt><trkpt lat="42.15211584935066" lon="11.940530051200492"><ele>464.0</ele><time>2026-03-24T14:07:34Z</time></trkpt><trkpt lat="42.15234409492121" lon="11.939879625103867"><ele>466.4285714285715</ele><time>2026-03-24T14:07:38Z</time></trkpt><trkpt lat="42.15231443253921" lon="11.939798023418746"><ele>468.8571428571429</ele><time>2026-03-24T14:07:40Z</time></trkpt><trkpt lat="42.15227753687697" lon="11.939714119747197"><ele>471.2857142857143</ele><time>2026-03-24T14:07:42Z</time></trkpt><trkpt lat="42.15226116555629" lon="11.939621364882653"><ele>473.7142857142857</ele><time>2026-03-24T14:07:44Z</time></trkpt><trkpt lat="42.15223724164567" lon="11.93952522524314"><ele>476.1428571428571</ele><time>2026-03-24T14:07:47Z</time></trkpt><trkpt lat="42.15225286224078" lon="11.939433983940681"><ele>478.5714285714285</ele><time>2026-03-24T14:07:52Z</time></trkpt><trkpt lat="42.15229983336922" lon="11.93937704264422"><ele>480.99999999999994</ele><time>2026-03-24T14:07:55Z</time></trkpt><trkpt lat="42.152363648445515" lon="11.939352388883385"><ele>482.50000000000006</ele><time>2026-03-24T14:07:58Z</time></trkpt><trkpt lat="42.1524362895719" lon="11.939307527988205"><ele>484.0</ele><time>2026-03-24T14:08:03Z</time></trkpt><trkpt lat="42.152498000496735" lon="11.9392782182327"><ele>485.5</ele><time>2026-03-24T14:08:06Z</time></trkpt><trkpt lat="42.15257531204647" lon="11.93933787845557"><ele>487.0</ele><time>2026-03-24T14:08:10Z</time></trkpt><trkpt lat="42.152592556098845" lon="11.939419910702547"><ele>488.50000000000006</ele><time>2026-03-24T14:08:12Z</time></trkpt><trkpt lat="42.15270066439848" lon="11.939387431437787"><ele>490.0</ele><time>2026-03-24T14:08:15Z</time></trkpt><trkpt lat="42.152767114852324" lon="11.939395203341153"><ele>490.00000000000006</ele><time>2026-03-24T14:08:16Z</time></trkpt><trkpt lat="42.152824164962674" lon="11.939341833893893"><ele>490.0</ele><time>2026-03-24T14:08:17Z</time></trkpt><trkpt lat="42.152875855245725" lon="11.939292730259144"><ele>490.0</ele><time>2026-03-24T14:08:18Z</time></trkpt><trkpt lat="42.15293849854387" lon="11.939232395493276"><ele>490.0</ele><time>2026-03-24T14:08:19Z</time></trkpt><trkpt lat="42.15299744726369" lon="11.939149519398278"><ele>490.00000000000006</ele><time>2026-03-24T14:08:20Z</time></trkpt><trkpt lat="42.15306984466874" lon="11.939098640291816"><ele>490.0</ele><time>2026-03-24T14:08:21Z</time></trkpt><trkpt lat="42.15314272276221" lon="11.93904091955037"><ele>487.0</ele><time>2026-03-24T14:08:22Z</time></trkpt><trkpt lat="42.15321944971652" lon="11.938978497363408"><ele>484.0</ele><time>2026-03-24T14:08:23Z</time></trkpt><trkpt lat="42.15330020377418" lon="11.938903093756348"><ele>481.0</ele><time>2026-03-24T14:08:24Z</time></trkpt><trkpt lat="42.15337028464671" lon="11.938845033893845"><ele>478.0</ele><time>2026-03-24T14:08:25Z</time></trkpt><trkpt lat="42.15343753589832" lon="11.938805129465916"><ele>475.0</ele><time>2026-03-24T14:08:26Z</time></trkpt><trkpt lat="42.1535481466688" lon="11.938777269237098"><ele>475.00000000000006</ele><time>2026-03-24T14:08:28Z</time></trkpt><trkpt lat="42.15363403495737" lon="11.938766408465096"><ele>475.0</ele><time>2026-03-24T14:08:30Z</time></trkpt><trkpt lat="42.15373066617222" lon="11.938734764263163"><ele>475.0</ele><time>2026-03-24T14:08:31.999Z</time></trkpt><trkpt lat="42.15379916075846" lon="11.938716413599767"><ele>475.0</ele><time>2026-03-24T14:08:35.999Z</time></trkpt><trkpt lat="42.15389844283128" lon="11.938683976010008"><ele>475.00000000000006</ele><time>2026-03-24T14:08:38.999Z</time></trkpt><trkpt lat="42.15398699440629" lon="11.93868056134258"><ele>475.0</ele><time>2026-03-24T14:08:40.999Z</time></trkpt><trkpt lat="42.15408388360978" lon="11.938686715359275"><ele>472.0</ele><time>2026-03-24T14:08:42.999Z</time></trkpt><trkpt lat="42.154194767048516" lon="11.938676902125557"><ele>469.0</ele><time>2026-03-24T14:08:44.999Z</time></trkpt><trkpt lat="42.15429497467491" lon="11.938648677403094"><ele>466.0</ele><time>2026-03-24T14:08:46.999Z</time></trkpt><trkpt lat="42.15438524459291" lon="11.938613662490223"><ele>463.0</ele><time>2026-03-24T14:08:48.999Z</time></trkpt><trkpt lat="42.15445780857409" lon="11.938561361119712"><ele>460.0</ele><time>2026-03-24T14:08:50.999Z</time></trkpt><trkpt lat="42.15452435388793" lon="11.938498388972675"><ele>460.00000000000006</ele><time>2026-03-24T14:08:52.999Z</time></trkpt><trkpt lat="42.1546055379275" lon="11.93843476431767"><ele>460.0</ele><time>2026-03-24T14:08:54.999Z</time></trkpt><trkpt lat="42.15471011304979" lon="11.93841132986714"><ele>460.0</ele><time>2026-03-24T14:08:56.999Z</time></trkpt><trkpt lat="42.15479795349218" lon="11.938408962138459"><ele>460.0</ele><time>2026-03-24T14:08:58.999Z</time></trkpt><trkpt lat="42.15487240401589" lon="11.938399240727335"><ele>460.00000000000006</ele><time>2026-03-24T14:09:00.999Z</time></trkpt><trkpt lat="42.154929611255284" lon="11.938447931225989"><ele>460.0</ele><time>2026-03-24T14:09:03.999Z</time></trkpt><trkpt lat="42.15493617986286" lon="11.938655657719641"><ele>460.00000000000006</ele><time>2026-03-24T14:09:10.001Z</time></trkpt><trkpt lat="42.15489022113995" lon="11.938752226000254"><ele>460.0</ele><time>2026-03-24T14:09:13.001Z</time></trkpt><trkpt lat="42.15482625783024" lon="11.938769234372371"><ele>460.0</ele><time>2026-03-24T14:09:14.001Z</time></trkpt><trkpt lat="42.1547866907441" lon="11.938911324239832"><ele>460.0</ele><time>2026-03-24T14:09:16.001Z</time></trkpt><trkpt lat="42.15479855747729" lon="11.939010517747251"><ele>460.00000000000006</ele><time>2026-03-24T14:09:17.001Z</time></trkpt><trkpt lat="42.154811474306854" lon="11.939111682058524"><ele>460.0</ele><time>2026-03-24T14:09:18.001Z</time></trkpt><trkpt lat="42.15481581338263" lon="11.939199729912952"><ele>458.33333333333337</ele><time>2026-03-24T14:09:19.001Z</time></trkpt><trkpt lat="42.15476659051516" lon="11.939326943169185"><ele>456.6666666666667</ele><time>2026-03-24T14:09:21.001Z</time></trkpt><trkpt lat="42.15470363550635" lon="11.939393204903496"><ele>455.0</ele><time>2026-03-24T14:09:23.001Z</time></trkpt><trkpt lat="42.15462860873265" lon="11.93941657836222"><ele>453.33333333333337</ele><time>2026-03-24T14:09:25.001Z</time></trkpt><trkpt lat="42.15457744765902" lon="11.939494035722792"><ele>451.6666666666667</ele><time>2026-03-24T14:09:27.001Z</time></trkpt><trkpt lat="42.15462398008881" lon="11.939596869670149"><ele>450.0</ele><time>2026-03-24T14:09:29.001Z</time></trkpt><trkpt lat="42.15466805967707" lon="11.939725315669945"><ele>450.0</ele><time>2026-03-24T14:09:31.001Z</time></trkpt><trkpt lat="42.15467294182248" lon="11.939814700883435"><ele>450.0</ele><time>2026-03-24T14:09:32.001Z</time></trkpt><trkpt lat="42.1546823277741" lon="11.939899636519462"><ele>450.0</ele><time>2026-03-24T14:09:33.001Z</time></trkpt><trkpt lat="42.15471125422749" lon="11.940046877787108"><ele>450.0</ele><time>2026-03-24T14:09:35.001Z</time></trkpt><trkpt lat="42.154738251581655" lon="11.94016536611453"><ele>450.0</ele><time>2026-03-24T14:09:37Z</time></trkpt><trkpt lat="42.15472814894518" lon="11.940277198825079"><ele>450.0</ele><time>2026-03-24T14:09:39Z</time></trkpt><trkpt lat="42.15468288994091" lon="11.94033709983235"><ele>449.0</ele><time>2026-03-24T14:09:41Z</time></trkpt><trkpt lat="42.15467975580822" lon="11.940504601056029"><ele>448.0</ele><time>2026-03-24T14:09:43Z</time></trkpt><trkpt lat="42.1547128146117" lon="11.940613729211655"><ele>447.0</ele><time>2026-03-24T14:09:44Z</time></trkpt><trkpt lat="42.154761373462016" lon="11.940706619998757"><ele>446.0</ele><time>2026-03-24T14:09:45Z</time></trkpt><trkpt lat="42.154804684463116" lon="11.940788230043786"><ele>445.0</ele><time>2026-03-24T14:09:46Z</time></trkpt><trkpt lat="42.15484194681857" lon="11.940861019555095"><ele>444.0</ele><time>2026-03-24T14:09:47Z</time></trkpt><trkpt lat="42.15488587896575" lon="11.940946907906325"><ele>442.3333333333333</ele><time>2026-03-24T14:09:49Z</time></trkpt><trkpt lat="42.154919557562216" lon="11.941040286675124"><ele>440.66666666666663</ele><time>2026-03-24T14:10:02Z</time></trkpt><trkpt lat="42.154967881499005" lon="11.941109322324975"><ele>439.0</ele><time>2026-03-24T14:10:02.999Z</time></trkpt><trkpt lat="42.155022581692954" lon="11.941192453698651"><ele>437.3333333333333</ele><time>2026-03-24T14:10:03.999Z</time></trkpt><trkpt lat="42.155084540720324" lon="11.941281510333205"><ele>435.66666666666663</ele><time>2026-03-24T14:10:04.999Z</time></trkpt><trkpt lat="42.155149290814435" lon="11.941382843654067"><ele>434.0</ele><time>2026-03-24T14:10:05.999Z</time></trkpt><trkpt lat="42.1552170051547" lon="11.94149022435504"><ele>434.0</ele><time>2026-03-24T14:10:06.999Z</time></trkpt><trkpt lat="42.15529632321409" lon="11.941604484998821"><ele>434.0</ele><time>2026-03-24T14:10:07.999Z</time></trkpt><trkpt lat="42.15538047456536" lon="11.941722748509799"><ele>434.0</ele><time>2026-03-24T14:10:08.999Z</time></trkpt><trkpt lat="42.155465923560136" lon="11.941832775764325"><ele>434.0</ele><time>2026-03-24T14:10:09.999Z</time></trkpt><trkpt lat="42.1555484486461" lon="11.941927932811149"><ele>432.75</ele><time>2026-03-24T14:10:10.999Z</time></trkpt><trkpt lat="42.155634084565634" lon="11.94202551419897"><ele>431.5</ele><time>2026-03-24T14:10:11.999Z</time></trkpt><trkpt lat="42.155730164647046" lon="11.942127746616993"><ele>430.25</ele><time>2026-03-24T14:10:12.999Z</time></trkpt><trkpt lat="42.155827983266924" lon="11.9422460534875"><ele>429.0</ele><time>2026-03-24T14:10:13.999Z</time></trkpt><trkpt lat="42.15588177611869" lon="11.942405883379896"><ele>422.75</ele><time>2026-03-24T14:10:14.999Z</time></trkpt><trkpt lat="42.155966981213346" lon="11.94255606769569"><ele>416.5</ele><time>2026-03-24T14:10:15.999Z</time></trkpt><trkpt lat="42.15604276656315" lon="11.94272605021531"><ele>410.25</ele><time>2026-03-24T14:10:16.999Z</time></trkpt><trkpt lat="42.156150869416095" lon="11.942847449274325"><ele>404.0</ele><time>2026-03-24T14:10:17.999Z</time></trkpt><trkpt lat="42.156267241155206" lon="11.942929977351369"><ele>404.0</ele><time>2026-03-24T14:10:18.999Z</time></trkpt><trkpt lat="42.15638294460565" lon="11.942986073834218"><ele>404.0</ele><time>2026-03-24T14:10:19.999Z</time></trkpt><trkpt lat="42.15650442759079" lon="11.94300569590417"><ele>404.0</ele><time>2026-03-24T14:10:20.999Z</time></trkpt><trkpt lat="42.15663935421733" lon="11.943001203921375"><ele>404.0</ele><time>2026-03-24T14:10:21.999Z</time></trkpt><trkpt lat="42.15678005917603" lon="11.942955844485878"><ele>408.0</ele><time>2026-03-24T14:10:22.999Z</time></trkpt><trkpt lat="42.15691348615315" lon="11.942873666111312"><ele>412.0</ele><time>2026-03-24T14:10:23.999Z</time></trkpt><trkpt lat="42.15704814652739" lon="11.942769964976293"><ele>416.0</ele><time>2026-03-24T14:10:24.999Z</time></trkpt><trkpt lat="42.15717172314206" lon="11.942630052977227"><ele>419.3333333333333</ele><time>2026-03-24T14:10:25.999Z</time></trkpt><trkpt lat="42.15727889627706" lon="11.942446380690226"><ele>422.66666666666663</ele><time>2026-03-24T14:10:26.999Z</time></trkpt><trkpt lat="42.157363474567546" lon="11.942267374308786"><ele>426.0</ele><time>2026-03-24T14:10:27.999Z</time></trkpt><trkpt lat="42.15744443365846" lon="11.942122505521466"><ele>426.0</ele><time>2026-03-24T14:10:28.999Z</time></trkpt><trkpt lat="42.15756378849875" lon="11.94201964433215"><ele>426.0</ele><time>2026-03-24T14:10:29.999Z</time></trkpt><trkpt lat="42.15771497038826" lon="11.941951055447596"><ele>426.0</ele><time>2026-03-24T14:10:30.999Z</time></trkpt><trkpt lat="42.15787567805652" lon="11.941884399333388"><ele>426.0</ele><time>2026-03-24T14:10:31.999Z</time></trkpt><trkpt lat="42.15803757271509" lon="11.941809799452606"><ele>426.0</ele><time>2026-03-24T14:10:32.999Z</time></trkpt><trkpt lat="42.15817755959506" lon="11.9417484311072"><ele>426.0</ele><time>2026-03-24T14:10:33.999Z</time></trkpt><trkpt lat="42.15829861966841" lon="11.941715652762522"><ele>426.0</ele><time>2026-03-24T14:10:34.999Z</time></trkpt><trkpt lat="42.15842661824655" lon="11.941721138838805"><ele>419.75</ele><time>2026-03-24T14:10:35.999Z</time></trkpt><trkpt lat="42.15856493966817" lon="11.941764664880173"><ele>413.5</ele><time>2026-03-24T14:10:36.999Z</time></trkpt><trkpt lat="42.158693938256405" lon="11.941856264701459"><ele>407.25</ele><time>2026-03-24T14:10:37.999Z</time></trkpt><trkpt lat="42.15881283780352" lon="11.941998348512275"><ele>401.0</ele><time>2026-03-24T14:10:38.999Z</time></trkpt><trkpt lat="42.15890453578399" lon="11.942132455090382"><ele>401.0</ele><time>2026-03-24T14:10:39.999Z</time></trkpt><trkpt lat="42.15899821420092" lon="11.942251951425517"><ele>401.0</ele><time>2026-03-24T14:10:40.999Z</time></trkpt><trkpt lat="42.15909097379793" lon="11.942334464187546"><ele>401.0</ele><time>2026-03-24T14:10:41.999Z</time></trkpt><trkpt lat="42.15919620605307" lon="11.942367060271188"><ele>401.0</ele><time>2026-03-24T14:10:42.999Z</time></trkpt><trkpt lat="42.15932051970472" lon="11.942351524872231"><ele>400.25</ele><time>2026-03-24T14:10:43.999Z</time></trkpt><trkpt lat="42.159448325359904" lon="11.942288934496418"><ele>399.5</ele><time>2026-03-24T14:10:44.999Z</time></trkpt><trkpt lat="42.159564137243784" lon="11.942184993149285"><ele>398.75</ele><time>2026-03-24T14:10:45.999Z</time></trkpt><trkpt lat="42.15967376417787" lon="11.942055362436559"><ele>398.0</ele><time>2026-03-24T14:10:46.999Z</time></trkpt><trkpt lat="42.159768434461384" lon="11.94195323299004"><ele>398.0</ele><time>2026-03-24T14:10:47.999Z</time></trkpt><trkpt lat="42.15986282025423" lon="11.941855017294733"><ele>398.0</ele><time>2026-03-24T14:10:48.998Z</time></trkpt><trkpt lat="42.15995379952122" lon="11.94172786760202"><ele>398.0</ele><time>2026-03-24T14:10:49.998Z</time></trkpt><trkpt lat="42.16003165045641" lon="11.941578669123443"><ele>398.0</ele><time>2026-03-24T14:10:50.998Z</time></trkpt><trkpt lat="42.1600932003238" lon="11.941421719271577"><ele>397.5</ele><time>2026-03-24T14:10:51.998Z</time></trkpt><trkpt lat="42.16014622147009" lon="11.941254922318874"><ele>397.0</ele><time>2026-03-24T14:10:52.998Z</time></trkpt><trkpt lat="42.16019576982114" lon="11.941079241648154"><ele>396.5</ele><time>2026-03-24T14:10:53.998Z</time></trkpt><trkpt lat="42.160242059512456" lon="11.940898445769157"><ele>396.0</ele><time>2026-03-24T14:10:54.998Z</time></trkpt><trkpt lat="42.16028017580579" lon="11.940728105349965"><ele>395.4</ele><time>2026-03-24T14:10:55.998Z</time></trkpt><trkpt lat="42.16031708579438" lon="11.940569327754462"><ele>394.8</ele><time>2026-03-24T14:10:56.998Z</time></trkpt><trkpt lat="42.16035458051605" lon="11.940434981567346"><ele>394.2</ele><time>2026-03-24T14:10:57.998Z</time></trkpt><trkpt lat="42.16040097737706" lon="11.940316437801703"><ele>393.59999999999997</ele><time>2026-03-24T14:10:58.998Z</time></trkpt><trkpt lat="42.16046606373315" lon="11.940216776781034"><ele>393.0</ele><time>2026-03-24T14:10:59.998Z</time></trkpt><trkpt lat="42.160551067078785" lon="11.94013769670914"><ele>393.0</ele><time>2026-03-24T14:11:00.998Z</time></trkpt><trkpt lat="42.16064908410469" lon="11.94007593655354"><ele>393.0</ele><time>2026-03-24T14:11:01.998Z</time></trkpt><trkpt lat="42.160767426077726" lon="11.940036057159489"><ele>393.0</ele><time>2026-03-24T14:11:02.998Z</time></trkpt><trkpt lat="42.16090326137457" lon="11.940006115601276"><ele>393.0</ele><time>2026-03-24T14:11:03.998Z</time></trkpt><trkpt lat="42.16104358933656" lon="11.93998138329473"><ele>390.25</ele><time>2026-03-24T14:11:04.998Z</time></trkpt><trkpt lat="42.16120019548091" lon="11.939952026350207"><ele>387.5</ele><time>2026-03-24T14:11:05.998Z</time></trkpt><trkpt lat="42.161343070999656" lon="11.939932956098755"><ele>384.75</ele><time>2026-03-24T14:11:06.998Z</time></trkpt><trkpt lat="42.161458134546876" lon="11.93994828507982"><ele>382.0</ele><time>2026-03-24T14:11:07.998Z</time></trkpt><trkpt lat="42.16154464644292" lon="11.939992935672203"><ele>384.75</ele><time>2026-03-24T14:11:08.998Z</time></trkpt><trkpt lat="42.1616135296734" lon="11.940099614201227"><ele>387.5</ele><time>2026-03-24T14:11:09.998Z</time></trkpt><trkpt lat="42.161690882763565" lon="11.94024028713244"><ele>390.25</ele><time>2026-03-24T14:11:10.998Z</time></trkpt><trkpt lat="42.161758943719214" lon="11.940407857553776"><ele>393.0</ele><time>2026-03-24T14:11:11.998Z</time></trkpt><trkpt lat="42.16182564143125" lon="11.940586835607506"><ele>393.0</ele><time>2026-03-24T14:11:12.998Z</time></trkpt><trkpt lat="42.161907036620164" lon="11.940779136813823"><ele>393.0</ele><time>2026-03-24T14:11:13.998Z</time></trkpt><trkpt lat="42.1619971500445" lon="11.940976455982662"><ele>393.0</ele><time>2026-03-24T14:11:14.998Z</time></trkpt><trkpt lat="42.162096093049776" lon="11.941175752815692"><ele>392.0</ele><time>2026-03-24T14:11:16Z</time></trkpt><trkpt lat="42.16217738129475" lon="11.94135433247484"><ele>391.0</ele><time>2026-03-24T14:11:17Z</time></trkpt><trkpt lat="42.16224732988946" lon="11.941522788890198"><ele>390.0</ele><time>2026-03-24T14:11:18Z</time></trkpt><trkpt lat="42.16230418249238" lon="11.941669150263102"><ele>389.0</ele><time>2026-03-24T14:11:19Z</time></trkpt><trkpt lat="42.16235270474407" lon="11.941805982980618"><ele>384.0</ele><time>2026-03-24T14:11:20Z</time></trkpt><trkpt lat="42.16237598935407" lon="11.941939480041219"><ele>379.0</ele><time>2026-03-24T14:11:21Z</time></trkpt><trkpt lat="42.16239502248015" lon="11.942070847094692"><ele>374.0</ele><time>2026-03-24T14:11:22Z</time></trkpt><trkpt lat="42.16238629020498" lon="11.942163139168898"><ele>369.0</ele><time>2026-03-24T14:11:23Z</time></trkpt><trkpt lat="42.16238464574891" lon="11.942260044776422"><ele>364.0</ele><time>2026-03-24T14:11:25Z</time></trkpt><trkpt lat="42.162511942726205" lon="11.942249990525031"><ele>364.0</ele><time>2026-03-24T14:11:26Z</time></trkpt><trkpt lat="42.16257946492449" lon="11.942216637553612"><ele>364.0</ele><time>2026-03-24T14:11:27Z</time></trkpt><trkpt lat="42.16265657092026" lon="11.942207680034265"><ele>364.0</ele><time>2026-03-24T14:11:28Z</time></trkpt><trkpt lat="42.16274452957411" lon="11.94217088144338"><ele>364.0</ele><time>2026-03-24T14:11:29Z</time></trkpt><trkpt lat="42.16283664526861" lon="11.94214080038413"><ele>364.0</ele><time>2026-03-24T14:11:30Z</time></trkpt><trkpt lat="42.1629328341213" lon="11.942076091356595"><ele>364.0</ele><time>2026-03-24T14:11:31Z</time></trkpt><trkpt lat="42.1630242378388" lon="11.941990555699357"><ele>364.0</ele><time>2026-03-24T14:11:32Z</time></trkpt><trkpt lat="42.16310467700485" lon="11.941899429767895"><ele>364.0</ele><time>2026-03-24T14:11:33Z</time></trkpt><trkpt lat="42.16317813972639" lon="11.941817831328047"><ele>364.0</ele><time>2026-03-24T14:11:34Z</time></trkpt><trkpt lat="42.16325173175954" lon="11.941742731593083"><ele>364.0</ele><time>2026-03-24T14:11:35Z</time></trkpt><trkpt lat="42.16334148998829" lon="11.941668326807362"><ele>364.0</ele><time>2026-03-24T14:11:36Z</time></trkpt><trkpt lat="42.16344311356586" lon="11.941618075267721"><ele>362.4</ele><time>2026-03-24T14:11:37Z</time></trkpt><trkpt lat="42.16356105214054" lon="11.941597590701512"><ele>360.79999999999995</ele><time>2026-03-24T14:11:38Z</time></trkpt><trkpt lat="42.16367646665558" lon="11.941594872885467"><ele>359.20000000000005</ele><time>2026-03-24T14:11:39Z</time></trkpt><trkpt lat="42.163781491012585" lon="11.941600287362759"><ele>357.6</ele><time>2026-03-24T14:11:40Z</time></trkpt><trkpt lat="42.16387787918602" lon="11.941621929868484"><ele>356.0</ele><time>2026-03-24T14:11:41Z</time></trkpt><trkpt lat="42.16397342790706" lon="11.94166626672776"><ele>355.25</ele><time>2026-03-24T14:11:42Z</time></trkpt><trkpt lat="42.164075992104024" lon="11.941741716969164"><ele>354.5</ele><time>2026-03-24T14:11:43Z</time></trkpt><trkpt lat="42.16417999394727" lon="11.941818260280577"><ele>353.75</ele><time>2026-03-24T14:11:44Z</time></trkpt><trkpt lat="42.16428355724837" lon="11.94186111084219"><ele>353.0</ele><time>2026-03-24T14:11:45Z</time></trkpt><trkpt lat="42.1643951768524" lon="11.941885899582271"><ele>353.0</ele><time>2026-03-24T14:11:46Z</time></trkpt><trkpt lat="42.16452003580173" lon="11.941917540801649"><ele>353.0</ele><time>2026-03-24T14:11:47Z</time></trkpt><trkpt lat="42.1646464806538" lon="11.941938151210733"><ele>353.0</ele><time>2026-03-24T14:11:48Z</time></trkpt><trkpt lat="42.164764595952946" lon="11.941945342797611"><ele>353.0</ele><time>2026-03-24T14:11:48.999Z</time></trkpt><trkpt lat="42.16488391219007" lon="11.941915697960383"><ele>351.75</ele><time>2026-03-24T14:11:49.999Z</time></trkpt><trkpt lat="42.16500674530344" lon="11.941847415972381"><ele>350.5</ele><time>2026-03-24T14:11:50.999Z</time></trkpt><trkpt lat="42.165128636444486" lon="11.941758420903234"><ele>349.25</ele><time>2026-03-24T14:11:51.999Z</time></trkpt><trkpt lat="42.16524279464129" lon="11.941687642295562"><ele>348.0</ele><time>2026-03-24T14:11:52.999Z</time></trkpt><trkpt lat="42.16536176839877" lon="11.941624114196053"><ele>346.75</ele><time>2026-03-24T14:11:53.999Z</time></trkpt><trkpt lat="42.16549429899018" lon="11.94156619274485"><ele>345.5</ele><time>2026-03-24T14:11:54.999Z</time></trkpt><trkpt lat="42.165626612416794" lon="11.941515041216318"><ele>344.25</ele><time>2026-03-24T14:11:55.999Z</time></trkpt><trkpt lat="42.16575761972684" lon="11.941479296112684"><ele>343.0</ele><time>2026-03-24T14:11:56.999Z</time></trkpt><trkpt lat="42.16588829422923" lon="11.94145929218169"><ele>343.0</ele><time>2026-03-24T14:11:57.999Z</time></trkpt><trkpt lat="42.16600961817541" lon="11.941450491123797"><ele>343.0</ele><time>2026-03-24T14:11:58.999Z</time></trkpt><trkpt lat="42.166109348969385" lon="11.941427482998543"><ele>343.0</ele><time>2026-03-24T14:11:59.999Z</time></trkpt><trkpt lat="42.16620935197727" lon="11.94139176280117"><ele>343.0</ele><time>2026-03-24T14:12:00.999Z</time></trkpt><trkpt lat="42.16631249927345" lon="11.941339126084271"><ele>343.0</ele><time>2026-03-24T14:12:01.999Z</time></trkpt><trkpt lat="42.166418214416105" lon="11.941284790606826"><ele>343.0</ele><time>2026-03-24T14:12:02.999Z</time></trkpt><trkpt lat="42.1665190874574" lon="11.941234068632387"><ele>343.0</ele><time>2026-03-24T14:12:03.999Z</time></trkpt><trkpt lat="42.166621554950964" lon="11.94118346935369"><ele>343.0</ele><time>2026-03-24T14:12:04.999Z</time></trkpt><trkpt lat="42.16672607901463" lon="11.94113647051819"><ele>343.0</ele><time>2026-03-24T14:12:05.999Z</time></trkpt><trkpt lat="42.16682602466018" lon="11.941103104758835"><ele>343.0</ele><time>2026-03-24T14:12:06.999Z</time></trkpt><trkpt lat="42.16693772712263" lon="11.94108466125598"><ele>343.5</ele><time>2026-03-24T14:12:07.999Z</time></trkpt><trkpt lat="42.16706166594358" lon="11.941076653050047"><ele>344.0</ele><time>2026-03-24T14:12:08.999Z</time></trkpt><trkpt lat="42.16719405673933" lon="11.94108498259428"><ele>344.5</ele><time>2026-03-24T14:12:09.999Z</time></trkpt><trkpt lat="42.167335392515845" lon="11.941105506206204"><ele>345.0</ele><time>2026-03-24T14:12:10.999Z</time></trkpt><trkpt lat="42.16747317671996" lon="11.941133849135909"><ele>345.0</ele><time>2026-03-24T14:12:11.999Z</time></trkpt><trkpt lat="42.167610354838374" lon="11.941172900165181"><ele>345.0</ele><time>2026-03-24T14:12:12.999Z</time></trkpt><trkpt lat="42.16775681195967" lon="11.941207920828038"><ele>345.0</ele><time>2026-03-24T14:12:13.999Z</time></trkpt><trkpt lat="42.167900827184624" lon="11.94122937181323"><ele>345.0</ele><time>2026-03-24T14:12:14.999Z</time></trkpt><trkpt lat="42.16804596373778" lon="11.941239513556619"><ele>345.0</ele><time>2026-03-24T14:12:15.999Z</time></trkpt><trkpt lat="42.16817975640176" lon="11.941241055875903"><ele>345.0</ele><time>2026-03-24T14:12:16.999Z</time></trkpt><trkpt lat="42.16831017034915" lon="11.94122885755805"><ele>345.0</ele><time>2026-03-24T14:12:17.999Z</time></trkpt><trkpt lat="42.1684271267682" lon="11.941186815744919"><ele>345.0</ele><time>2026-03-24T14:12:18.999Z</time></trkpt><trkpt lat="42.168538201537984" lon="11.941142075277815"><ele>342.75</ele><time>2026-03-24T14:12:19.999Z</time></trkpt><trkpt lat="42.16864746745574" lon="11.941119557692717"><ele>340.5</ele><time>2026-03-24T14:12:20.999Z</time></trkpt><trkpt lat="42.16875379672932" lon="11.941134897774834"><ele>338.25</ele><time>2026-03-24T14:12:21.999Z</time></trkpt><trkpt lat="42.168878980883825" lon="11.941177230306684"><ele>336.0</ele><time>2026-03-24T14:12:22.999Z</time></trkpt><trkpt lat="42.169003808773724" lon="11.941245466299828"><ele>331.75</ele><time>2026-03-24T14:12:23.999Z</time></trkpt><trkpt lat="42.169138234369164" lon="11.941333039831076"><ele>327.5</ele><time>2026-03-24T14:12:24.999Z</time></trkpt><trkpt lat="42.16925892111587" lon="11.941420526074443"><ele>323.25</ele><time>2026-03-24T14:12:25.999Z</time></trkpt><trkpt lat="42.16936380990371" lon="11.941514104638205"><ele>319.0</ele><time>2026-03-24T14:12:26.999Z</time></trkpt><trkpt lat="42.16947058420031" lon="11.94161513642938"><ele>324.25</ele><time>2026-03-24T14:12:27.999Z</time></trkpt><trkpt lat="42.16956686164725" lon="11.941733522193184"><ele>329.5</ele><time>2026-03-24T14:12:28.999Z</time></trkpt><trkpt lat="42.169644303155174" lon="11.941860726070539"><ele>334.75</ele><time>2026-03-24T14:12:29.999Z</time></trkpt><trkpt lat="42.16969965055812" lon="11.942001314764536"><ele>340.0</ele><time>2026-03-24T14:12:30.999Z</time></trkpt><trkpt lat="42.16973412196321" lon="11.942150007826696"><ele>340.0</ele><time>2026-03-24T14:12:31.999Z</time></trkpt><trkpt lat="42.169767234795074" lon="11.94227986143947"><ele>340.0</ele><time>2026-03-24T14:12:32.999Z</time></trkpt><trkpt lat="42.16979257400807" lon="11.942358006506886"><ele>340.0</ele><time>2026-03-24T14:12:33.999Z</time></trkpt><trkpt lat="42.16985844822569" lon="11.942388044943748"><ele>340.0</ele><time>2026-03-24T14:12:34.999Z</time></trkpt><trkpt lat="42.16993516856029" lon="11.94237912650306"><ele>340.0</ele><time>2026-03-24T14:12:35.999Z</time></trkpt><trkpt lat="42.1699961248998" lon="11.942356219148342"><ele>340.0</ele><time>2026-03-24T14:12:36.999Z</time></trkpt><trkpt lat="42.17009240889659" lon="11.942397553536285"><ele>337.8</ele><time>2026-03-24T14:12:38.999Z</time></trkpt><trkpt lat="42.17014951571044" lon="11.942461391832731"><ele>335.6</ele><time>2026-03-24T14:12:39.999Z</time></trkpt><trkpt lat="42.1702235280204" lon="11.942538771417007"><ele>333.4</ele><time>2026-03-24T14:12:40.999Z</time></trkpt><trkpt lat="42.17031309663059" lon="11.942615612531178"><ele>331.2</ele><time>2026-03-24T14:12:41.999Z</time></trkpt><trkpt lat="42.17041259849727" lon="11.942680235647947"><ele>329.0</ele><time>2026-03-24T14:12:42.999Z</time></trkpt><trkpt lat="42.170528423422226" lon="11.942737235531846"><ele>329.0</ele><time>2026-03-24T14:12:43.999Z</time></trkpt><trkpt lat="42.170652684724246" lon="11.942796868658943"><ele>329.0</ele><time>2026-03-24T14:12:44.999Z</time></trkpt><trkpt lat="42.17077576370119" lon="11.942857399482092"><ele>329.0</ele><time>2026-03-24T14:12:45.999Z</time></trkpt><trkpt lat="42.170883455039416" lon="11.94293345320815"><ele>329.0</ele><time>2026-03-24T14:12:46.999Z</time></trkpt><trkpt lat="42.17098310019659" lon="11.943057449881907"><ele>329.0</ele><time>2026-03-24T14:12:47.999Z</time></trkpt><trkpt lat="42.171076359729526" lon="11.943206168987826"><ele>329.0</ele><time>2026-03-24T14:12:48.999Z</time></trkpt><trkpt lat="42.171188185183645" lon="11.943328180194031"><ele>329.0</ele><time>2026-03-24T14:12:49.999Z</time></trkpt><trkpt lat="42.171330693993625" lon="11.94342492999604"><ele>329.0</ele><time>2026-03-24T14:12:50.999Z</time></trkpt><trkpt lat="42.171463119983066" lon="11.943501950409402"><ele>324.75</ele><time>2026-03-24T14:12:51.999Z</time></trkpt><trkpt lat="42.17157509093089" lon="11.943582148857649"><ele>320.5</ele><time>2026-03-24T14:12:52.999Z</time></trkpt><trkpt lat="42.17167837975037" lon="11.943677533234917"><ele>316.25</ele><time>2026-03-24T14:12:53.999Z</time></trkpt><trkpt lat="42.17176703929879" lon="11.943791574761589"><ele>312.0</ele><time>2026-03-24T14:12:54.999Z</time></trkpt><trkpt lat="42.171845208188394" lon="11.943934651266122"><ele>312.0</ele><time>2026-03-24T14:12:55.999Z</time></trkpt><trkpt lat="42.17189425870229" lon="11.94411404287488"><ele>312.0</ele><time>2026-03-24T14:12:56.999Z</time></trkpt><trkpt lat="42.1719752775481" lon="11.944269539950515"><ele>312.0</ele><time>2026-03-24T14:12:57.998Z</time></trkpt><trkpt lat="42.17207309637331" lon="11.944414660476776"><ele>312.0</ele><time>2026-03-24T14:12:58.998Z</time></trkpt><trkpt lat="42.17218899711777" lon="11.944550306580162"><ele>312.5</ele><time>2026-03-24T14:12:59.998Z</time></trkpt><trkpt lat="42.17229237998621" lon="11.94467459250681"><ele>313.0</ele><time>2026-03-24T14:13:00.998Z</time></trkpt><trkpt lat="42.17237677769975" lon="11.944810890345346"><ele>313.5</ele><time>2026-03-24T14:13:01.998Z</time></trkpt><trkpt lat="42.17242107968117" lon="11.944969341318936"><ele>314.0</ele><time>2026-03-24T14:13:02.998Z</time></trkpt><trkpt lat="42.17247384159926" lon="11.94508374678968"><ele>314.0</ele><time>2026-03-24T14:13:03.998Z</time></trkpt><trkpt lat="42.172531705044996" lon="11.945167727677152"><ele>314.0</ele><time>2026-03-24T14:13:04.998Z</time></trkpt><trkpt lat="42.17256546990896" lon="11.945248381154531"><ele>314.0</ele><time>2026-03-24T14:13:05.998Z</time></trkpt><trkpt lat="42.1726001014529" lon="11.945357519874214"><ele>314.0</ele><time>2026-03-24T14:13:07.998Z</time></trkpt><trkpt lat="42.172705050258706" lon="11.945299744830168"><ele>314.0</ele><time>2026-03-24T14:13:12.998Z</time></trkpt><trkpt lat="42.172689782988" lon="11.945180066035407"><ele>314.0</ele><time>2026-03-24T14:14:06.999Z</time></trkpt><trkpt lat="42.17264682132416" lon="11.945016323254846"><ele>315.83333333333337</ele><time>2026-03-24T14:14:08.999Z</time></trkpt><trkpt lat="42.172630390069834" lon="11.944915495174797"><ele>317.6666666666667</ele><time>2026-03-24T14:14:09.999Z</time></trkpt><trkpt lat="42.17263468534778" lon="11.94479968201074"><ele>319.5</ele><time>2026-03-24T14:14:10.999Z</time></trkpt><trkpt lat="42.17260296858897" lon="11.94468630862665"><ele>321.3333333333333</ele><time>2026-03-24T14:14:11.999Z</time></trkpt><trkpt lat="42.172590917482616" lon="11.944585388036458"><ele>323.16666666666663</ele><time>2026-03-24T14:14:12.999Z</time></trkpt><trkpt lat="42.172601921393245" lon="11.944440321235186"><ele>325.0</ele><time>2026-03-24T14:14:14.999Z</time></trkpt><trkpt lat="42.172674174924154" lon="11.944364594604558"><ele>325.0</ele><time>2026-03-24T14:14:16.999Z</time></trkpt><trkpt lat="42.17276506335249" lon="11.944421515000483"><ele>325.0</ele><time>2026-03-24T14:14:18.999Z</time></trkpt><trkpt lat="42.17279188432439" lon="11.944514172663164"><ele>325.0</ele><time>2026-03-24T14:14:19.999Z</time></trkpt><trkpt lat="42.172850115674045" lon="11.944596388617274"><ele>325.0</ele><time>2026-03-24T14:14:20.999Z</time></trkpt><trkpt lat="42.172889173609754" lon="11.944731506713135"><ele>325.0</ele><time>2026-03-24T14:14:21.999Z</time></trkpt><trkpt lat="42.17293043186962" lon="11.944871878223056"><ele>325.0</ele><time>2026-03-24T14:14:22.999Z</time></trkpt><trkpt lat="42.172979364591555" lon="11.94495840330045"><ele>325.0</ele><time>2026-03-24T14:14:23.999Z</time></trkpt><trkpt lat="42.173036711491505" lon="11.945039995530543"><ele>325.0</ele><time>2026-03-24T14:14:24.999Z</time></trkpt><trkpt lat="42.17308895295781" lon="11.94511255500343"><ele>325.0</ele><time>2026-03-24T14:14:25.999Z</time></trkpt><trkpt lat="42.173157362630356" lon="11.945178542720663"><ele>325.0</ele><time>2026-03-24T14:14:26.999Z</time></trkpt><trkpt lat="42.17322991607428" lon="11.945227096636529"><ele>325.0</ele><time>2026-03-24T14:14:27.999Z</time></trkpt><trkpt lat="42.17330949199828" lon="11.945259288050412"><ele>327.0</ele><time>2026-03-24T14:14:28.999Z</time></trkpt><trkpt lat="42.17340887848147" lon="11.945283938490359"><ele>329.0</ele><time>2026-03-24T14:14:29.999Z</time></trkpt><trkpt lat="42.17352242621562" lon="11.945302878162654"><ele>331.0</ele><time>2026-03-24T14:14:30.999Z</time></trkpt><trkpt lat="42.1736277234106" lon="11.945359935348733"><ele>333.0</ele><time>2026-03-24T14:14:31.999Z</time></trkpt><trkpt lat="42.173730345075896" lon="11.945403732207867"><ele>335.0</ele><time>2026-03-24T14:14:32.999Z</time></trkpt><trkpt lat="42.17383906320881" lon="11.945449868549124"><ele>335.0</ele><time>2026-03-24T14:14:33.999Z</time></trkpt><trkpt lat="42.173951130193764" lon="11.945493748815702"><ele>335.0</ele><time>2026-03-24T14:14:34.999Z</time></trkpt><trkpt lat="42.17404746591379" lon="11.945531184937668"><ele>335.0</ele><time>2026-03-24T14:14:35.999Z</time></trkpt><trkpt lat="42.17415081471987" lon="11.945577004727138"><ele>335.0</ele><time>2026-03-24T14:14:36.999Z</time></trkpt><trkpt lat="42.17425045589953" lon="11.945623203925697"><ele>335.0</ele><time>2026-03-24T14:14:37.999Z</time></trkpt><trkpt lat="42.17435095798198" lon="11.945673843600883"><ele>339.0</ele><time>2026-03-24T14:14:38.999Z</time></trkpt><trkpt lat="42.17446223045269" lon="11.945733701434357"><ele>343.0</ele><time>2026-03-24T14:14:39.999Z</time></trkpt><trkpt lat="42.17457505441476" lon="11.945792496825879"><ele>347.0</ele><time>2026-03-24T14:14:40.999Z</time></trkpt><trkpt lat="42.174659991862626" lon="11.94585624408928"><ele>351.0</ele><time>2026-03-24T14:14:41.999Z</time></trkpt><trkpt lat="42.1747255894514" lon="11.945910669372477"><ele>355.0</ele><time>2026-03-24T14:14:42.999Z</time></trkpt><trkpt lat="42.174774524592166" lon="11.945969031102067"><ele>355.66666666666663</ele><time>2026-03-24T14:14:43.999Z</time></trkpt><trkpt lat="42.174818741798035" lon="11.946045382109034"><ele>356.3333333333333</ele><time>2026-03-24T14:14:44.999Z</time></trkpt><trkpt lat="42.174838839062545" lon="11.946139163524792"><ele>357.0</ele><time>2026-03-24T14:14:45.999Z</time></trkpt><trkpt lat="42.174869404212934" lon="11.946217152714198"><ele>357.6666666666667</ele><time>2026-03-24T14:14:46.999Z</time></trkpt><trkpt lat="42.17491077031901" lon="11.946313653897223"><ele>358.33333333333337</ele><time>2026-03-24T14:14:47.999Z</time></trkpt><trkpt lat="42.17498712871813" lon="11.946377018181943"><ele>359.0</ele><time>2026-03-24T14:14:49.999Z</time></trkpt><trkpt lat="42.17511171451249" lon="11.946299421562339"><ele>361.4</ele><time>2026-03-24T14:14:51.999Z</time></trkpt><trkpt lat="42.175156988867464" lon="11.946226176527713"><ele>363.79999999999995</ele><time>2026-03-24T14:14:52.999Z</time></trkpt><trkpt lat="42.175181552531384" lon="11.946133372460366"><ele>366.20000000000005</ele><time>2026-03-24T14:14:53.999Z</time></trkpt><trkpt lat="42.175247946031305" lon="11.946043181774797"><ele>368.6</ele><time>2026-03-24T14:14:54.999Z</time></trkpt><trkpt lat="42.175296515490125" lon="11.945906760471834"><ele>371.0</ele><time>2026-03-24T14:14:55.999Z</time></trkpt><trkpt lat="42.175350289967376" lon="11.945777943423447"><ele>371.0</ele><time>2026-03-24T14:14:56.999Z</time></trkpt><trkpt lat="42.17539549585706" lon="11.945695506587526"><ele>371.0</ele><time>2026-03-24T14:14:57.999Z</time></trkpt><trkpt lat="42.17550533259351" lon="11.945621723333648"><ele>371.0</ele><time>2026-03-24T14:14:59.999Z</time></trkpt><trkpt lat="42.175565162184164" lon="11.94556959449518"><ele>371.0</ele><time>2026-03-24T14:15:00.999Z</time></trkpt><trkpt lat="42.17564731188232" lon="11.945532448760597"><ele>371.0</ele><time>2026-03-24T14:15:01.998Z</time></trkpt><trkpt lat="42.175726373673896" lon="11.945470982752315"><ele>371.0</ele><time>2026-03-24T14:15:02.998Z</time></trkpt><trkpt lat="42.175795971379685" lon="11.945376309099457"><ele>375.0</ele><time>2026-03-24T14:15:03.998Z</time></trkpt><trkpt lat="42.17587275030297" lon="11.94526376409968"><ele>379.0</ele><time>2026-03-24T14:15:04.998Z</time></trkpt><trkpt lat="42.17595825244115" lon="11.94514175136141"><ele>383.0</ele><time>2026-03-24T14:15:05.998Z</time></trkpt><trkpt lat="42.17604570874536" lon="11.945017820235323"><ele>387.0</ele><time>2026-03-24T14:15:06.998Z</time></trkpt><trkpt lat="42.17610618391448" lon="11.944910961031125"><ele>388.0</ele><time>2026-03-24T14:15:07.998Z</time></trkpt><trkpt lat="42.176155902223094" lon="11.94481252760651"><ele>389.0</ele><time>2026-03-24T14:15:08.998Z</time></trkpt><trkpt lat="42.17618671878548" lon="11.944734983536847"><ele>390.0</ele><time>2026-03-24T14:15:09.998Z</time></trkpt><trkpt lat="42.17620339508318" lon="11.944649747619648"><ele>391.0</ele><time>2026-03-24T14:15:10.998Z</time></trkpt><trkpt lat="42.176205301007066" lon="11.944562446140253"><ele>392.0</ele><time>2026-03-24T14:15:11.998Z</time></trkpt><trkpt lat="42.17619634877565" lon="11.94445686984087"><ele>393.0</ele><time>2026-03-24T14:15:12.998Z</time></trkpt><trkpt lat="42.176167970100764" lon="11.944342064669984"><ele>393.0</ele><time>2026-03-24T14:15:13.998Z</time></trkpt><trkpt lat="42.176130507244046" lon="11.944234431735762"><ele>393.0</ele><time>2026-03-24T14:15:14.998Z</time></trkpt><trkpt lat="42.17608522528103" lon="11.944124680751093"><ele>393.0</ele><time>2026-03-24T14:15:15.998Z</time></trkpt><trkpt lat="42.1760336602986" lon="11.94400074039285"><ele>393.0</ele><time>2026-03-24T14:15:16.998Z</time></trkpt><trkpt lat="42.175972278312265" lon="11.943867709814286"><ele>393.0</ele><time>2026-03-24T14:15:17.998Z</time></trkpt><trkpt lat="42.17590649166272" lon="11.943729396014326"><ele>394.0</ele><time>2026-03-24T14:15:18.998Z</time></trkpt><trkpt lat="42.175853378366796" lon="11.943592479718358"><ele>395.0</ele><time>2026-03-24T14:15:19.998Z</time></trkpt><trkpt lat="42.175817509645285" lon="11.94345043710453"><ele>396.0</ele><time>2026-03-24T14:15:20.998Z</time></trkpt><trkpt lat="42.1758191656141" lon="11.94329343329948"><ele>397.0</ele><time>2026-03-24T14:15:21.998Z</time></trkpt><trkpt lat="42.17579817717575" lon="11.94316549695268"><ele>398.0</ele><time>2026-03-24T14:15:22.998Z</time></trkpt><trkpt lat="42.175819239410124" lon="11.943024580976646"><ele>398.79999999999995</ele><time>2026-03-24T14:15:23.998Z</time></trkpt><trkpt lat="42.17583473422801" lon="11.942885777879383"><ele>399.6</ele><time>2026-03-24T14:15:24.998Z</time></trkpt><trkpt lat="42.175859298199754" lon="11.942753178418485"><ele>400.4</ele><time>2026-03-24T14:15:25.998Z</time></trkpt><trkpt lat="42.17589586881961" lon="11.942645887440479"><ele>401.20000000000005</ele><time>2026-03-24T14:15:26.998Z</time></trkpt><trkpt lat="42.17592682170516" lon="11.942542026656314"><ele>402.0</ele><time>2026-03-24T14:15:28Z</time></trkpt><trkpt lat="42.175988219746046" lon="11.942449204943978"><ele>402.0</ele><time>2026-03-24T14:15:29Z</time></trkpt><trkpt lat="42.176075795643314" lon="11.942375670439452"><ele>402.0</ele><time>2026-03-24T14:15:30Z</time></trkpt><trkpt lat="42.17616557672666" lon="11.942283654227694"><ele>402.0</ele><time>2026-03-24T14:15:31Z</time></trkpt><trkpt lat="42.17626644145582" lon="11.942197934018028"><ele>402.0</ele><time>2026-03-24T14:15:32Z</time></trkpt><trkpt lat="42.176356789917534" lon="11.942137078316446"><ele>402.0</ele><time>2026-03-24T14:15:33Z</time></trkpt><trkpt lat="42.17645762307907" lon="11.942077200792719"><ele>403.3333333333333</ele><time>2026-03-24T14:15:34Z</time></trkpt><trkpt lat="42.1765644588819" lon="11.942026425678147"><ele>404.66666666666663</ele><time>2026-03-24T14:15:35Z</time></trkpt><trkpt lat="42.17666097535984" lon="11.941999652502963"><ele>406.0</ele><time>2026-03-24T14:15:36Z</time></trkpt><trkpt lat="42.17674454402407" lon="11.941984281115284"><ele>407.3333333333333</ele><time>2026-03-24T14:15:37Z</time></trkpt><trkpt lat="42.1768110553313" lon="11.941984172083677"><ele>408.66666666666663</ele><time>2026-03-24T14:15:38Z</time></trkpt><trkpt lat="42.17688345832521" lon="11.941981322471445"><ele>410.0</ele><time>2026-03-24T14:15:40Z</time></trkpt><trkpt lat="42.176989880625186" lon="11.941971840657871"><ele>409.99999999999994</ele><time>2026-03-24T14:16:10.999Z</time></trkpt><trkpt lat="42.17706616309055" lon="11.941976242324884"><ele>410.0</ele><time>2026-03-24T14:16:11.999Z</time></trkpt><trkpt lat="42.17715422785541" lon="11.941978069289128"><ele>410.0</ele><time>2026-03-24T14:16:12.999Z</time></trkpt><trkpt lat="42.17724145820673" lon="11.94201770597912"><ele>410.0</ele><time>2026-03-24T14:16:13.999Z</time></trkpt><trkpt lat="42.17733380173152" lon="11.942030107252608"><ele>409.99999999999994</ele><time>2026-03-24T14:16:14.999Z</time></trkpt><trkpt lat="42.1774315423552" lon="11.942032691751894"><ele>410.0</ele><time>2026-03-24T14:16:15.999Z</time></trkpt><trkpt lat="42.17753014990366" lon="11.942062036587453"><ele>409.8</ele><time>2026-03-24T14:16:16.999Z</time></trkpt><trkpt lat="42.177631854088865" lon="11.942092650948746"><ele>409.6</ele><time>2026-03-24T14:16:17.999Z</time></trkpt><trkpt lat="42.17774041552183" lon="11.942119070246061"><ele>409.4</ele><time>2026-03-24T14:16:18.999Z</time></trkpt><trkpt lat="42.17784661921306" lon="11.94213642223133"><ele>409.2</ele><time>2026-03-24T14:16:19.999Z</time></trkpt><trkpt lat="42.17795246114344" lon="11.94214823858811"><ele>409.0</ele><time>2026-03-24T14:16:20.999Z</time></trkpt><trkpt lat="42.17806274775839" lon="11.942159910852979"><ele>409.0</ele><time>2026-03-24T14:16:21.999Z</time></trkpt><trkpt lat="42.17817434707778" lon="11.942171018529658"><ele>409.0</ele><time>2026-03-24T14:16:22.999Z</time></trkpt><trkpt lat="42.17828163870342" lon="11.942185118262483"><ele>409.0</ele><time>2026-03-24T14:16:23.999Z</time></trkpt><trkpt lat="42.17839604519139" lon="11.94219432861448"><ele>409.0</ele><time>2026-03-24T14:16:24.999Z</time></trkpt><trkpt lat="42.178518491166" lon="11.942196908728324"><ele>410.75</ele><time>2026-03-24T14:16:25.999Z</time></trkpt><trkpt lat="42.17864297055507" lon="11.942193961016752"><ele>412.5</ele><time>2026-03-24T14:16:26.999Z</time></trkpt><trkpt lat="42.178765420229475" lon="11.942192677257582"><ele>414.25</ele><time>2026-03-24T14:16:27.999Z</time></trkpt><trkpt lat="42.17888596477661" lon="11.942199832724159"><ele>416.0</ele><time>2026-03-24T14:16:28.999Z</time></trkpt><trkpt lat="42.179013404288064" lon="11.942202022479561"><ele>417.75</ele><time>2026-03-24T14:16:29.999Z</time></trkpt><trkpt lat="42.17913956901679" lon="11.94220233409404"><ele>419.5</ele><time>2026-03-24T14:16:30.999Z</time></trkpt><trkpt lat="42.179255962911704" lon="11.942201320136979"><ele>421.25</ele><time>2026-03-24T14:16:31.999Z</time></trkpt><trkpt lat="42.17936799282266" lon="11.942222371938717"><ele>423.0</ele><time>2026-03-24T14:16:32.999Z</time></trkpt><trkpt lat="42.179491532075026" lon="11.942201069961529"><ele>423.0</ele><time>2026-03-24T14:16:33.999Z</time></trkpt><trkpt lat="42.179624415067146" lon="11.942216883632192"><ele>423.0</ele><time>2026-03-24T14:16:34.999Z</time></trkpt><trkpt lat="42.17976230214677" lon="11.942218948575247"><ele>423.0</ele><time>2026-03-24T14:16:35.999Z</time></trkpt><trkpt lat="42.17990305485426" lon="11.942214763108044"><ele>423.0</ele><time>2026-03-24T14:16:36.999Z</time></trkpt><trkpt lat="42.1800391078125" lon="11.942198152925073"><ele>425.5</ele><time>2026-03-24T14:16:37.999Z</time></trkpt><trkpt lat="42.18016184870779" lon="11.942176170189036"><ele>428.0</ele><time>2026-03-24T14:16:38.999Z</time></trkpt><trkpt lat="42.18027971554413" lon="11.94215093689752"><ele>430.5</ele><time>2026-03-24T14:16:39.999Z</time></trkpt><trkpt lat="42.18039360959127" lon="11.942126015817122"><ele>433.0</ele><time>2026-03-24T14:16:40.999Z</time></trkpt><trkpt lat="42.180501470749334" lon="11.942089747831327"><ele>433.0</ele><time>2026-03-24T14:16:41.999Z</time></trkpt><trkpt lat="42.180614579542194" lon="11.942049968706991"><ele>432.99999999999994</ele><time>2026-03-24T14:16:42.999Z</time></trkpt><trkpt lat="42.18072415584108" lon="11.942019991441683"><ele>432.99999999999994</ele><time>2026-03-24T14:16:43.999Z</time></trkpt><trkpt lat="42.180808421320606" lon="11.942005500610561"><ele>433.0</ele><time>2026-03-24T14:16:44.999Z</time></trkpt><trkpt lat="42.18088313687124" lon="11.941982323051942"><ele>433.0</ele><time>2026-03-24T14:16:45.999Z</time></trkpt><trkpt lat="42.18095191072644" lon="11.941943455082207"><ele>433.83333333333337</ele><time>2026-03-24T14:16:46.999Z</time></trkpt><trkpt lat="42.18101274962959" lon="11.941907736231165"><ele>434.6666666666667</ele><time>2026-03-24T14:16:47.999Z</time></trkpt><trkpt lat="42.1811040277781" lon="11.941880026886537"><ele>435.5</ele><time>2026-03-24T14:16:49.999Z</time></trkpt><trkpt lat="42.18114910178809" lon="11.941796803039598"><ele>436.33333333333337</ele><time>2026-03-24T14:17:36Z</time></trkpt><trkpt lat="42.18120773677807" lon="11.941717541877912"><ele>437.1666666666667</ele><time>2026-03-24T14:17:38Z</time></trkpt><trkpt lat="42.1812945083914" lon="11.941666348294564"><ele>438.0</ele><time>2026-03-24T14:17:40Z</time></trkpt><trkpt lat="42.181392570618335" lon="11.941649506556518"><ele>438.0</ele><time>2026-03-24T14:17:42Z</time></trkpt><trkpt lat="42.18150968438573" lon="11.941623839831312"><ele>437.99999999999994</ele><time>2026-03-24T14:17:44Z</time></trkpt><trkpt lat="42.18158560291443" lon="11.941742466271464"><ele>437.99999999999994</ele><time>2026-03-24T14:17:45Z</time></trkpt><trkpt lat="42.181678315625085" lon="11.941777911169703"><ele>438.0</ele><time>2026-03-24T14:17:47Z</time></trkpt><trkpt lat="42.18177046208685" lon="11.941807969391572"><ele>438.0</ele><time>2026-03-24T14:17:49Z</time></trkpt><trkpt lat="42.181959285703066" lon="11.941390007010146"><ele>438.2</ele><time>2026-03-24T14:17:51Z</time></trkpt><trkpt lat="42.18206389383422" lon="11.94129298494907"><ele>438.4</ele><time>2026-03-24T14:17:53Z</time></trkpt><trkpt lat="42.18212449742047" lon="11.941236307739292"><ele>438.59999999999997</ele><time>2026-03-24T14:17:54Z</time></trkpt><trkpt lat="42.18219522006622" lon="11.941176101177225"><ele>438.79999999999995</ele><time>2026-03-24T14:17:55Z</time></trkpt><trkpt lat="42.18227784442397" lon="11.941131243477866"><ele>439.0</ele><time>2026-03-24T14:17:56Z</time></trkpt><trkpt lat="42.182365280546804" lon="11.941084850008693"><ele>438.1666666666667</ele><time>2026-03-24T14:17:57Z</time></trkpt><trkpt lat="42.18244422061415" lon="11.941046082775495"><ele>437.33333333333337</ele><time>2026-03-24T14:17:58Z</time></trkpt><trkpt lat="42.1825182397201" lon="11.941019013096025"><ele>436.5</ele><time>2026-03-24T14:17:59Z</time></trkpt><trkpt lat="42.18259307880993" lon="11.940997127165051"><ele>435.66666666666663</ele><time>2026-03-24T14:18:00Z</time></trkpt><trkpt lat="42.18271538599041" lon="11.940936129491005"><ele>434.8333333333333</ele><time>2026-03-24T14:18:02Z</time></trkpt><trkpt lat="42.18278220307047" lon="11.940881870091204"><ele>434.0</ele><time>2026-03-24T14:18:03Z</time></trkpt><trkpt lat="42.1828315922438" lon="11.940817843668466"><ele>433.99999999999994</ele><time>2026-03-24T14:18:04Z</time></trkpt><trkpt lat="42.182881142972704" lon="11.940749102539911"><ele>434.0</ele><time>2026-03-24T14:18:05Z</time></trkpt><trkpt lat="42.18292995598183" lon="11.940682408133938"><ele>434.0</ele><time>2026-03-24T14:18:06Z</time></trkpt><trkpt lat="42.18298382843497" lon="11.940626906402862"><ele>434.0</ele><time>2026-03-24T14:18:07Z</time></trkpt><trkpt lat="42.183056333211724" lon="11.940593791745547"><ele>433.99999999999994</ele><time>2026-03-24T14:18:08Z</time></trkpt><trkpt lat="42.18311898068311" lon="11.940575915403828"><ele>434.0</ele><time>2026-03-24T14:18:10Z</time></trkpt><trkpt lat="42.18322442571188" lon="11.940526587014567"><ele>431.66666666666663</ele><time>2026-03-24T14:18:46.999Z</time></trkpt><trkpt lat="42.18333921517514" lon="11.940525777645455"><ele>429.3333333333333</ele><time>2026-03-24T14:18:48.999Z</time></trkpt><trkpt lat="42.18340862332079" lon="11.94054826298704"><ele>427.0</ele><time>2026-03-24T14:18:49.999Z</time></trkpt><trkpt lat="42.18347165237973" lon="11.940573704117504"><ele>424.66666666666663</ele><time>2026-03-24T14:18:50.999Z</time></trkpt><trkpt lat="42.18354327631106" lon="11.940593006033511"><ele>422.3333333333333</ele><time>2026-03-24T14:18:51.999Z</time></trkpt><trkpt lat="42.18361102379789" lon="11.940608621756917"><ele>420.0</ele><time>2026-03-24T14:18:52.999Z</time></trkpt><trkpt lat="42.18368610608583" lon="11.940595908917041"><ele>420.0</ele><time>2026-03-24T14:18:53.999Z</time></trkpt><trkpt lat="42.183759118246286" lon="11.9405788205791"><ele>420.0</ele><time>2026-03-24T14:18:54.999Z</time></trkpt><trkpt lat="42.18385240827446" lon="11.940554104259904"><ele>420.0</ele><time>2026-03-24T14:18:55.999Z</time></trkpt><trkpt lat="42.18395022365541" lon="11.940510919494475"><ele>420.0</ele><time>2026-03-24T14:18:56.999Z</time></trkpt><trkpt lat="42.1840370887903" lon="11.940463035381205"><ele>420.0</ele><time>2026-03-24T14:18:57.999Z</time></trkpt><trkpt lat="42.18411468047117" lon="11.940426541507472"><ele>420.0</ele><time>2026-03-24T14:18:58.999Z</time></trkpt><trkpt lat="42.1841845667234" lon="11.940412043584306"><ele>418.0</ele><time>2026-03-24T14:18:59.999Z</time></trkpt><trkpt lat="42.18425035768789" lon="11.9404018311866"><ele>416.0</ele><time>2026-03-24T14:19:00.999Z</time></trkpt><trkpt lat="42.18432431169511" lon="11.940361670315244"><ele>414.0</ele><time>2026-03-24T14:19:01.999Z</time></trkpt><trkpt lat="42.18441044556436" lon="11.940309860445113"><ele>412.0</ele><time>2026-03-24T14:19:02.999Z</time></trkpt><trkpt lat="42.184486258069256" lon="11.940260524005891"><ele>410.0</ele><time>2026-03-24T14:19:03.999Z</time></trkpt><trkpt lat="42.18455204274004" lon="11.940221513046234"><ele>408.0</ele><time>2026-03-24T14:19:04.999Z</time></trkpt><trkpt lat="42.184612047480165" lon="11.94018932633631"><ele>408.0</ele><time>2026-03-24T14:19:05.999Z</time></trkpt><trkpt lat="42.1847007914184" lon="11.940116763406973"><ele>408.0</ele><time>2026-03-24T14:19:07.999Z</time></trkpt><trkpt lat="42.18477514729526" lon="11.939991679576178"><ele>408.0</ele><time>2026-03-24T14:19:09.999Z</time></trkpt><trkpt lat="42.18480883925235" lon="11.939915135329732"><ele>408.0</ele><time>2026-03-24T14:19:10.999Z</time></trkpt><trkpt lat="42.18482865130068" lon="11.939826733789667"><ele>408.0</ele><time>2026-03-24T14:19:11.999Z</time></trkpt><trkpt lat="42.184848837320345" lon="11.939716944231014"><ele>408.0</ele><time>2026-03-24T14:19:12.999Z</time></trkpt><trkpt lat="42.18485614915071" lon="11.939625138985932"><ele>407.0</ele><time>2026-03-24T14:19:13.999Z</time></trkpt><trkpt lat="42.18485060589127" lon="11.939533517226524"><ele>406.0</ele><time>2026-03-24T14:19:14.999Z</time></trkpt><trkpt lat="42.18483233763481" lon="11.93937826586836"><ele>405.0</ele><time>2026-03-24T14:19:16.999Z</time></trkpt><trkpt lat="42.184819833487296" lon="11.939203475660927"><ele>404.0</ele><time>2026-03-24T14:19:18.998Z</time></trkpt><trkpt lat="42.18480073075186" lon="11.939115143155947"><ele>403.0</ele><time>2026-03-24T14:19:19.998Z</time></trkpt><trkpt lat="42.184776716759444" lon="11.938997367142305"><ele>403.33333333333337</ele><time>2026-03-24T14:19:20.998Z</time></trkpt><trkpt lat="42.1847707298699" lon="11.938890956327352"><ele>403.6666666666667</ele><time>2026-03-24T14:19:21.998Z</time></trkpt><trkpt lat="42.18478947969874" lon="11.938761327123858"><ele>404.0</ele><time>2026-03-24T14:19:23.998Z</time></trkpt><trkpt lat="42.184863081083584" lon="11.938663747435408"><ele>404.33333333333337</ele><time>2026-03-24T14:19:25.998Z</time></trkpt><trkpt lat="42.184923963097816" lon="11.938640304971136"><ele>404.6666666666667</ele><time>2026-03-24T14:19:26.998Z</time></trkpt><trkpt lat="42.18499031228377" lon="11.938644206465955"><ele>405.0</ele><time>2026-03-24T14:19:27.998Z</time></trkpt><trkpt lat="42.185071793067536" lon="11.938663509999055"><ele>405.0</ele><time>2026-03-24T14:19:28.998Z</time></trkpt><trkpt lat="42.185159695306886" lon="11.938676245396438"><ele>405.0</ele><time>2026-03-24T14:19:29.998Z</time></trkpt><trkpt lat="42.18528966927583" lon="11.93866877143342"><ele>405.0</ele><time>2026-03-24T14:19:31.998Z</time></trkpt><trkpt lat="42.18540195081228" lon="11.938646654968657"><ele>405.0</ele><time>2026-03-24T14:19:33.998Z</time></trkpt><trkpt lat="42.185516670117934" lon="11.938603024390465"><ele>405.0</ele><time>2026-03-24T14:19:34.998Z</time></trkpt><trkpt lat="42.18564023656731" lon="11.938534518311197"><ele>405.0</ele><time>2026-03-24T14:19:35.998Z</time></trkpt><trkpt lat="42.18575602359571" lon="11.938491170376698"><ele>405.0</ele><time>2026-03-24T14:19:36.998Z</time></trkpt><trkpt lat="42.185891499843784" lon="11.938441869757193"><ele>405.0</ele><time>2026-03-24T14:19:38.998Z</time></trkpt><trkpt lat="42.18596407719533" lon="11.938434169288678"><ele>403.1666666666667</ele><time>2026-03-24T14:19:40Z</time></trkpt><trkpt lat="42.18604039011897" lon="11.938436250069321"><ele>401.33333333333337</ele><time>2026-03-24T14:19:41Z</time></trkpt><trkpt lat="42.186107120522564" lon="11.938440244153218"><ele>399.5</ele><time>2026-03-24T14:19:42Z</time></trkpt><trkpt lat="42.18619965846954" lon="11.938515589182067"><ele>397.6666666666667</ele><time>2026-03-24T14:19:44Z</time></trkpt><trkpt lat="42.186244428719284" lon="11.938592889999367"><ele>395.83333333333337</ele><time>2026-03-24T14:19:45Z</time></trkpt><trkpt lat="42.18627888453744" lon="11.938691370147072"><ele>394.0</ele><time>2026-03-24T14:19:46Z</time></trkpt><trkpt lat="42.18629617145575" lon="11.938784509331176"><ele>394.00000000000006</ele><time>2026-03-24T14:19:47Z</time></trkpt><trkpt lat="42.18632726040079" lon="11.938875783977469"><ele>394.0</ele><time>2026-03-24T14:19:48Z</time></trkpt><trkpt lat="42.18636809171729" lon="11.938973884019305"><ele>394.0</ele><time>2026-03-24T14:19:49Z</time></trkpt><trkpt lat="42.18641664823046" lon="11.93907126238067"><ele>394.0</ele><time>2026-03-24T14:19:50Z</time></trkpt><trkpt lat="42.186462261853144" lon="11.939177699156572"><ele>394.00000000000006</ele><time>2026-03-24T14:19:51Z</time></trkpt><trkpt lat="42.18650549240137" lon="11.939270299490124"><ele>394.0</ele><time>2026-03-24T14:19:52Z</time></trkpt><trkpt lat="42.18653972784925" lon="11.939347481568104"><ele>392.2</ele><time>2026-03-24T14:19:53Z</time></trkpt><trkpt lat="42.18659764993757" lon="11.939470797318549"><ele>390.4</ele><time>2026-03-24T14:19:55Z</time></trkpt><trkpt lat="42.186703188243854" lon="11.939538633480067"><ele>388.6</ele><time>2026-03-24T14:19:57Z</time></trkpt><trkpt lat="42.18677084352881" lon="11.939550508676486"><ele>386.8</ele><time>2026-03-24T14:19:58Z</time></trkpt><trkpt lat="42.18685348438306" lon="11.939566175337724"><ele>385.0</ele><time>2026-03-24T14:19:59Z</time></trkpt><trkpt lat="42.186927517250005" lon="11.939579577330546"><ele>385.00000000000006</ele><time>2026-03-24T14:20:00Z</time></trkpt><trkpt lat="42.18699163675925" lon="11.939608883966232"><ele>385.0</ele><time>2026-03-24T14:20:01Z</time></trkpt><trkpt lat="42.18709381110283" lon="11.939596815312683"><ele>385.0</ele><time>2026-03-24T14:20:03Z</time></trkpt><trkpt lat="42.187175090207006" lon="11.939513696193039"><ele>385.0</ele><time>2026-03-24T14:20:05Z</time></trkpt><trkpt lat="42.187207283032656" lon="11.939395735471303"><ele>385.00000000000006</ele><time>2026-03-24T14:20:07Z</time></trkpt><trkpt lat="42.1872114902037" lon="11.9393067670466"><ele>385.0</ele><time>2026-03-24T14:20:08Z</time></trkpt><trkpt lat="42.1872330886005" lon="11.93919951702028"><ele>388.1666666666667</ele><time>2026-03-24T14:20:09Z</time></trkpt><trkpt lat="42.18724078940934" lon="11.93908346691596"><ele>391.33333333333337</ele><time>2026-03-24T14:20:10Z</time></trkpt><trkpt lat="42.18725144107468" lon="11.93895812215539"><ele>394.5</ele><time>2026-03-24T14:20:11Z</time></trkpt><trkpt lat="42.1872694361986" lon="11.93883807374638"><ele>397.66666666666663</ele><time>2026-03-24T14:20:12Z</time></trkpt><trkpt lat="42.187279816208346" lon="11.938728902613082"><ele>400.8333333333333</ele><time>2026-03-24T14:20:13Z</time></trkpt><trkpt lat="42.18727665359827" lon="11.938612942131858"><ele>404.0</ele><time>2026-03-24T14:20:14Z</time></trkpt><trkpt lat="42.18728446055764" lon="11.93850287888641"><ele>404.0</ele><time>2026-03-24T14:20:15Z</time></trkpt><trkpt lat="42.18730440671631" lon="11.938404861788054"><ele>404.0</ele><time>2026-03-24T14:20:16Z</time></trkpt><trkpt lat="42.18731328768593" lon="11.93831401458142"><ele>404.0</ele><time>2026-03-24T14:20:17Z</time></trkpt><trkpt lat="42.18732137392587" lon="11.938216797176262"><ele>404.0</ele><time>2026-03-24T14:20:18Z</time></trkpt><trkpt lat="42.187316320198455" lon="11.938115269129119"><ele>404.0</ele><time>2026-03-24T14:20:19Z</time></trkpt><trkpt lat="42.18731508704491" lon="11.938021542586723"><ele>404.0</ele><time>2026-03-24T14:20:20Z</time></trkpt><trkpt lat="42.1873062647401" lon="11.937931525112091"><ele>404.0</ele><time>2026-03-24T14:20:21Z</time></trkpt><trkpt lat="42.1872848811708" lon="11.937850111163716"><ele>403.66666666666663</ele><time>2026-03-24T14:20:21.999Z</time></trkpt><trkpt lat="42.1872564950448" lon="11.937752751529462"><ele>403.3333333333333</ele><time>2026-03-24T14:20:22.999Z</time></trkpt><trkpt lat="42.187222689729886" lon="11.937672613301482"><ele>403.0</ele><time>2026-03-24T14:20:23.999Z</time></trkpt><trkpt lat="42.187180934183495" lon="11.937605066773198"><ele>402.66666666666663</ele><time>2026-03-24T14:20:24.999Z</time></trkpt><trkpt lat="42.18713194231544" lon="11.937542005355025"><ele>402.3333333333333</ele><time>2026-03-24T14:20:25.999Z</time></trkpt><trkpt lat="42.18706691150954" lon="11.937478042709595"><ele>402.0</ele><time>2026-03-24T14:20:26.999Z</time></trkpt><trkpt lat="42.18698604354224" lon="11.937401540530434"><ele>402.0</ele><time>2026-03-24T14:20:27.999Z</time></trkpt><trkpt lat="42.186909977338445" lon="11.937319347846678"><ele>402.0</ele><time>2026-03-24T14:20:28.999Z</time></trkpt><trkpt lat="42.18684445503682" lon="11.937268392163649"><ele>402.0</ele><time>2026-03-24T14:20:29.999Z</time></trkpt><trkpt lat="42.18679474861648" lon="11.93720320430614"><ele>402.0</ele><time>2026-03-24T14:20:30.999Z</time></trkpt><trkpt lat="42.18676690214809" lon="11.937115154418079"><ele>402.0</ele><time>2026-03-24T14:20:31.999Z</time></trkpt><trkpt lat="42.18676176910068" lon="11.93701935902179"><ele>402.0</ele><time>2026-03-24T14:20:32.999Z</time></trkpt><trkpt lat="42.186774679932455" lon="11.936929665682522"><ele>402.0</ele><time>2026-03-24T14:20:33.999Z</time></trkpt><trkpt lat="42.18679703898027" lon="11.93682235801973"><ele>402.0</ele><time>2026-03-24T14:20:34.999Z</time></trkpt><trkpt lat="42.18684405292482" lon="11.9367077687653"><ele>402.0</ele><time>2026-03-24T14:20:35.999Z</time></trkpt><trkpt lat="42.186904798954714" lon="11.936601496465327"><ele>402.0</ele><time>2026-03-24T14:20:36.999Z</time></trkpt><trkpt lat="42.18696881656624" lon="11.936498698342735"><ele>402.0</ele><time>2026-03-24T14:20:37.999Z</time></trkpt><trkpt lat="42.18703772899357" lon="11.936406081810203"><ele>401.6666666666667</ele><time>2026-03-24T14:20:38.999Z</time></trkpt><trkpt lat="42.18710165752192" lon="11.936325377603298"><ele>401.33333333333337</ele><time>2026-03-24T14:20:39.999Z</time></trkpt><trkpt lat="42.187160473003985" lon="11.936261850298855"><ele>401.0</ele><time>2026-03-24T14:20:40.999Z</time></trkpt><trkpt lat="42.187211716186276" lon="11.936190693697558"><ele>400.6666666666667</ele><time>2026-03-24T14:20:41.999Z</time></trkpt><trkpt lat="42.18727037930577" lon="11.936101490641231"><ele>400.33333333333337</ele><time>2026-03-24T14:20:42.999Z</time></trkpt><trkpt lat="42.18731509837492" lon="11.936020488730339"><ele>400.0</ele><time>2026-03-24T14:20:43.999Z</time></trkpt><trkpt lat="42.187386997845586" lon="11.935918124149115"><ele>394.4</ele><time>2026-03-24T14:20:45.999Z</time></trkpt><trkpt lat="42.18749189305701" lon="11.935898492097381"><ele>388.8</ele><time>2026-03-24T14:20:47.999Z</time></trkpt><trkpt lat="42.187558966823374" lon="11.935908778958142"><ele>383.20000000000005</ele><time>2026-03-24T14:20:48.999Z</time></trkpt><trkpt lat="42.187671921572914" lon="11.93593781671219"><ele>377.6</ele><time>2026-03-24T14:20:50.999Z</time></trkpt><trkpt lat="42.18776519667009" lon="11.935964162171652"><ele>372.0</ele><time>2026-03-24T14:20:52.999Z</time></trkpt><trkpt lat="42.187881142660956" lon="11.93597362567377"><ele>372.0</ele><time>2026-03-24T14:20:54.999Z</time></trkpt><trkpt lat="42.18799968647138" lon="11.936000250801234"><ele>372.0</ele><time>2026-03-24T14:20:56.999Z</time></trkpt><trkpt lat="42.18806435505633" lon="11.936010976074792"><ele>372.0</ele><time>2026-03-24T14:20:57.999Z</time></trkpt><trkpt lat="42.18812685065965" lon="11.936021498184047"><ele>372.0</ele><time>2026-03-24T14:20:58.999Z</time></trkpt><trkpt lat="42.1881905020219" lon="11.93603063460307"><ele>372.0</ele><time>2026-03-24T14:20:59.999Z</time></trkpt><trkpt lat="42.18825212295432" lon="11.936056303642376"><ele>372.0</ele><time>2026-03-24T14:21:00.999Z</time></trkpt><trkpt lat="42.18833579796252" lon="11.936058893748967"><ele>371.5</ele><time>2026-03-24T14:21:02.999Z</time></trkpt><trkpt lat="42.188368546549356" lon="11.935984996045958"><ele>371.0</ele><time>2026-03-24T14:21:05.999Z</time></trkpt><trkpt lat="42.1883797387523" lon="11.935874826969139"><ele>370.5</ele><time>2026-03-24T14:21:52Z</time></trkpt><trkpt lat="42.188397658218705" lon="11.935746948380949"><ele>370.0</ele><time>2026-03-24T14:21:54Z</time></trkpt><trkpt lat="42.18838566044865" lon="11.935618361905743"><ele>369.5</ele><time>2026-03-24T14:21:56Z</time></trkpt><trkpt lat="42.188363119606585" lon="11.935486594952021"><ele>369.0</ele><time>2026-03-24T14:21:58Z</time></trkpt><trkpt lat="42.18831707377154" lon="11.935308713294692"><ele>369.0</ele><time>2026-03-24T14:22:00Z</time></trkpt><trkpt lat="42.18829808693246" lon="11.9351759132664"><ele>369.0</ele><time>2026-03-24T14:22:01Z</time></trkpt><trkpt lat="42.18828322601195" lon="11.935047041281937"><ele>369.0</ele><time>2026-03-24T14:22:02Z</time></trkpt><trkpt lat="42.18827253245472" lon="11.934912976712663"><ele>369.0</ele><time>2026-03-24T14:22:03Z</time></trkpt><trkpt lat="42.18827827687247" lon="11.93477324068691"><ele>369.0</ele><time>2026-03-24T14:22:04Z</time></trkpt><trkpt lat="42.188282499361435" lon="11.934639114299074"><ele>368.0</ele><time>2026-03-24T14:22:05Z</time></trkpt><trkpt lat="42.188293861388686" lon="11.934516916318783"><ele>367.0</ele><time>2026-03-24T14:22:06Z</time></trkpt><trkpt lat="42.188289515099456" lon="11.934417767922225"><ele>366.0</ele><time>2026-03-24T14:22:07Z</time></trkpt><trkpt lat="42.18826374954178" lon="11.934316900915064"><ele>365.0</ele><time>2026-03-24T14:22:08Z</time></trkpt><trkpt lat="42.18823155841451" lon="11.934230217846373"><ele>364.0</ele><time>2026-03-24T14:22:09Z</time></trkpt><trkpt lat="42.188203697128756" lon="11.934149004758225"><ele>363.0</ele><time>2026-03-24T14:22:10Z</time></trkpt><trkpt lat="42.18819711032589" lon="11.934056855058618"><ele>361.8333333333333</ele><time>2026-03-24T14:22:11Z</time></trkpt><trkpt lat="42.1882128509575" lon="11.933972296616849"><ele>360.6666666666667</ele><time>2026-03-24T14:22:12Z</time></trkpt><trkpt lat="42.18823064105" lon="11.933863822290384"><ele>359.5</ele><time>2026-03-24T14:22:13Z</time></trkpt><trkpt lat="42.18824707360487" lon="11.93375727063177"><ele>358.33333333333337</ele><time>2026-03-24T14:22:14Z</time></trkpt><trkpt lat="42.188262782712336" lon="11.933654282413046"><ele>357.1666666666667</ele><time>2026-03-24T14:22:15Z</time></trkpt><trkpt lat="42.188272090230136" lon="11.93354349340019"><ele>356.0</ele><time>2026-03-24T14:22:17Z</time></trkpt><trkpt lat="42.18838190703975" lon="11.933530690376642"><ele>356.0</ele><time>2026-03-24T14:22:20Z</time></trkpt><trkpt lat="42.18845220899085" lon="11.933570913014295"><ele>356.0</ele><time>2026-03-24T14:22:22Z</time></trkpt><trkpt lat="42.188548149707835" lon="11.933654315672985"><ele>356.0</ele><time>2026-03-24T14:22:24Z</time></trkpt><trkpt lat="42.18862440806081" lon="11.933708918273478"><ele>356.0</ele><time>2026-03-24T14:22:25Z</time></trkpt><trkpt lat="42.18867875934451" lon="11.933763822895799"><ele>356.0</ele><time>2026-03-24T14:22:25.999Z</time></trkpt><trkpt lat="42.18875752919779" lon="11.933806639185487"><ele>356.0</ele><time>2026-03-24T14:22:27.999Z</time></trkpt><trkpt lat="42.18888826963355" lon="11.933791656056004"><ele>356.0</ele><time>2026-03-24T14:22:29.999Z</time></trkpt><trkpt lat="42.18896933255957" lon="11.933813521359323"><ele>356.0</ele><time>2026-03-24T14:22:30.999Z</time></trkpt><trkpt lat="42.189045102156456" lon="11.933820632738822"><ele>356.0</ele><time>2026-03-24T14:22:31.999Z</time></trkpt><trkpt lat="42.18911729937456" lon="11.933829047499408"><ele>356.0</ele><time>2026-03-24T14:22:32.999Z</time></trkpt><trkpt lat="42.18918212738227" lon="11.933821522355673"><ele>356.0</ele><time>2026-03-24T14:22:33.999Z</time></trkpt><trkpt lat="42.18925627916604" lon="11.93378616508975"><ele>356.0</ele><time>2026-03-24T14:22:34.999Z</time></trkpt><trkpt lat="42.18934593869813" lon="11.933749265205257"><ele>355.4</ele><time>2026-03-24T14:22:35.999Z</time></trkpt><trkpt lat="42.189418960946846" lon="11.933716536621166"><ele>354.8</ele><time>2026-03-24T14:22:36.999Z</time></trkpt><trkpt lat="42.189475005382825" lon="11.933676407910252"><ele>354.2</ele><time>2026-03-24T14:22:37.999Z</time></trkpt><trkpt lat="42.18956300808643" lon="11.933580375147674"><ele>353.59999999999997</ele><time>2026-03-24T14:22:39.999Z</time></trkpt><trkpt lat="42.18959094787829" lon="11.933401879969626"><ele>353.0</ele><time>2026-03-24T14:22:41.999Z</time></trkpt><trkpt lat="42.18961566916097" lon="11.933292476777448"><ele>353.0</ele><time>2026-03-24T14:22:42.999Z</time></trkpt><trkpt lat="42.1896941480569" lon="11.933198466625294"><ele>353.0</ele><time>2026-03-24T14:22:44.999Z</time></trkpt><trkpt lat="42.18976985308882" lon="11.933240984854637"><ele>353.0</ele><time>2026-03-24T14:22:46.999Z</time></trkpt><trkpt lat="42.189827056004326" lon="11.933295752159767"><ele>353.0</ele><time>2026-03-24T14:22:47.999Z</time></trkpt><trkpt lat="42.18987630721532" lon="11.933364281630963"><ele>353.0</ele><time>2026-03-24T14:22:48.999Z</time></trkpt><trkpt lat="42.18991696535949" lon="11.933453668013517"><ele>353.0</ele><time>2026-03-24T14:22:49.999Z</time></trkpt><trkpt lat="42.18996653354281" lon="11.933560936258283"><ele>349.4</ele><time>2026-03-24T14:22:50.999Z</time></trkpt><trkpt lat="42.190028576164806" lon="11.933630125891751"><ele>345.79999999999995</ele><time>2026-03-24T14:22:51.999Z</time></trkpt><trkpt lat="42.19012383359596" lon="11.933657844393435"><ele>342.2</ele><time>2026-03-24T14:22:53.999Z</time></trkpt><trkpt lat="42.19025215386859" lon="11.933630165645948"><ele>338.6</ele><time>2026-03-24T14:22:55.999Z</time></trkpt><trkpt lat="42.190344570660855" lon="11.933603917048767"><ele>335.0</ele><time>2026-03-24T14:22:56.999Z</time></trkpt><trkpt lat="42.19043268955641" lon="11.933594264822496"><ele>335.0</ele><time>2026-03-24T14:22:57.999Z</time></trkpt><trkpt lat="42.19052123449931" lon="11.933598820357709"><ele>335.0</ele><time>2026-03-24T14:22:58.999Z</time></trkpt><trkpt lat="42.1906032885636" lon="11.933627186046756"><ele>335.0</ele><time>2026-03-24T14:22:59.999Z</time></trkpt><trkpt lat="42.1906654036903" lon="11.933650530687355"><ele>335.0</ele><time>2026-03-24T14:23:00.999Z</time></trkpt><trkpt lat="42.190727809752204" lon="11.933685135253567"><ele>335.0</ele><time>2026-03-24T14:23:01.999Z</time></trkpt><trkpt lat="42.19079801228224" lon="11.93373026407241"><ele>335.0</ele><time>2026-03-24T14:23:02.999Z</time></trkpt><trkpt lat="42.19087032863091" lon="11.933771351556615"><ele>335.5</ele><time>2026-03-24T14:23:03.999Z</time></trkpt><trkpt lat="42.19092352472192" lon="11.93387587130259"><ele>336.0</ele><time>2026-03-24T14:23:05.999Z</time></trkpt><trkpt lat="42.19095532784498" lon="11.93395562326483"><ele>336.5</ele><time>2026-03-24T14:23:06.999Z</time></trkpt><trkpt lat="42.19101273904809" lon="11.934046346627701"><ele>337.0</ele><time>2026-03-24T14:23:07.999Z</time></trkpt><trkpt lat="42.191066788055565" lon="11.934128945947155"><ele>337.5</ele><time>2026-03-24T14:23:08.999Z</time></trkpt><trkpt lat="42.19114261975491" lon="11.934176340813107"><ele>338.0</ele><time>2026-03-24T14:23:10.999Z</time></trkpt><trkpt lat="42.19122240816307" lon="11.934102008876192"><ele>338.0</ele><time>2026-03-24T14:23:12.999Z</time></trkpt><trkpt lat="42.19129293355006" lon="11.933970967621052"><ele>338.0</ele><time>2026-03-24T14:23:14.999Z</time></trkpt><trkpt lat="42.19133454296201" lon="11.93388438012142"><ele>338.0</ele><time>2026-03-24T14:23:15.999Z</time></trkpt><trkpt lat="42.1913766447007" lon="11.933793639390455"><ele>338.0</ele><time>2026-03-24T14:23:16.999Z</time></trkpt><trkpt lat="42.19141317816752" lon="11.93370162304285"><ele>338.0</ele><time>2026-03-24T14:23:17.999Z</time></trkpt><trkpt lat="42.191433657749634" lon="11.933604694794585"><ele>338.0</ele><time>2026-03-24T14:23:18.999Z</time></trkpt><trkpt lat="42.191439262695056" lon="11.933491168340389"><ele>340.5</ele><time>2026-03-24T14:23:19.999Z</time></trkpt><trkpt lat="42.191427834770096" lon="11.933385126182987"><ele>343.0</ele><time>2026-03-24T14:23:20.999Z</time></trkpt><trkpt lat="42.191416728250424" lon="11.933277139242364"><ele>345.5</ele><time>2026-03-24T14:23:21.999Z</time></trkpt><trkpt lat="42.19138862672201" lon="11.933173283703288"><ele>348.0</ele><time>2026-03-24T14:23:22.999Z</time></trkpt><trkpt lat="42.191358035806836" lon="11.93306123151693"><ele>350.5</ele><time>2026-03-24T14:23:23.999Z</time></trkpt><trkpt lat="42.19133574015609" lon="11.932939816294981"><ele>353.0</ele><time>2026-03-24T14:23:24.999Z</time></trkpt><trkpt lat="42.19131810112679" lon="11.932815208513075"><ele>353.0</ele><time>2026-03-24T14:23:25.999Z</time></trkpt><trkpt lat="42.19130107141836" lon="11.932693689084118"><ele>353.0</ele><time>2026-03-24T14:23:26.999Z</time></trkpt><trkpt lat="42.19130355376577" lon="11.932602420229607"><ele>353.0</ele><time>2026-03-24T14:23:27.998Z</time></trkpt><trkpt lat="42.19128954814296" lon="11.93251806664435"><ele>353.0</ele><time>2026-03-24T14:23:28.998Z</time></trkpt><trkpt lat="42.19127864797081" lon="11.932392058576045"><ele>353.0</ele><time>2026-03-24T14:23:30.998Z</time></trkpt><trkpt lat="42.19136065670939" lon="11.932319529325023"><ele>353.0</ele><time>2026-03-24T14:23:34.998Z</time></trkpt><trkpt lat="42.19144718417569" lon="11.932339509905345"><ele>353.2</ele><time>2026-03-24T14:23:36.998Z</time></trkpt><trkpt lat="42.19154803420093" lon="11.932413634643982"><ele>353.4</ele><time>2026-03-24T14:23:38.998Z</time></trkpt><trkpt lat="42.191666181554545" lon="11.932495792565568"><ele>353.59999999999997</ele><time>2026-03-24T14:23:40.998Z</time></trkpt><trkpt lat="42.191739126325785" lon="11.932521742422669"><ele>353.79999999999995</ele><time>2026-03-24T14:23:41.998Z</time></trkpt><trkpt lat="42.191809266603634" lon="11.93256118268478"><ele>354.0</ele><time>2026-03-24T14:23:42.998Z</time></trkpt><trkpt lat="42.191890970268716" lon="11.932609471266703"><ele>352.2</ele><time>2026-03-24T14:23:43.998Z</time></trkpt><trkpt lat="42.19196464266779" lon="11.932671997164483"><ele>350.4</ele><time>2026-03-24T14:23:44.998Z</time></trkpt><trkpt lat="42.19203249920921" lon="11.93278972166842"><ele>348.6</ele><time>2026-03-24T14:23:46.998Z</time></trkpt><trkpt lat="42.19206152667171" lon="11.932957375959854"><ele>346.8</ele><time>2026-03-24T14:23:48.998Z</time></trkpt><trkpt lat="42.19206858766947" lon="11.933042394204616"><ele>345.0</ele><time>2026-03-24T14:23:49.998Z</time></trkpt><trkpt lat="42.19207147019607" lon="11.93313321087289"><ele>345.0</ele><time>2026-03-24T14:23:51Z</time></trkpt><trkpt lat="42.192080831569015" lon="11.933222259757851"><ele>345.0</ele><time>2026-03-24T14:23:52Z</time></trkpt><trkpt lat="42.19211393012673" lon="11.933351241864699"><ele>345.0</ele><time>2026-03-24T14:23:54Z</time></trkpt><trkpt lat="42.19213895053783" lon="11.933485218305384"><ele>345.0</ele><time>2026-03-24T14:23:56Z</time></trkpt><trkpt lat="42.19214987405458" lon="11.933629824014853"><ele>345.0</ele><time>2026-03-24T14:23:58Z</time></trkpt><trkpt lat="42.19218507572203" lon="11.933783405647594"><ele>344.2</ele><time>2026-03-24T14:24:00Z</time></trkpt><trkpt lat="42.19220632459619" lon="11.93391673264884"><ele>343.4</ele><time>2026-03-24T14:24:02Z</time></trkpt><trkpt lat="42.19222396411735" lon="11.934060019541867"><ele>342.6</ele><time>2026-03-24T14:24:04Z</time></trkpt><trkpt lat="42.19222583446792" lon="11.934148172206545"><ele>341.8</ele><time>2026-03-24T14:24:05Z</time></trkpt><trkpt lat="42.192281064776836" lon="11.934276544299957"><ele>341.0</ele><time>2026-03-24T14:24:07Z</time></trkpt><trkpt lat="42.192366507226374" lon="11.934365007940666"><ele>343.6666666666667</ele><time>2026-03-24T14:24:09Z</time></trkpt><trkpt lat="42.19243287749413" lon="11.934374055780188"><ele>346.33333333333337</ele><time>2026-03-24T14:24:11Z</time></trkpt><trkpt lat="42.19251590505293" lon="11.934355980963138"><ele>349.0</ele><time>2026-03-24T14:28:23Z</time></trkpt><trkpt lat="42.19255776165407" lon="11.934267474171373"><ele>351.6666666666667</ele><time>2026-03-24T14:28:25Z</time></trkpt><trkpt lat="42.192589648171335" lon="11.934148041422297"><ele>354.3333333333333</ele><time>2026-03-24T14:28:27Z</time></trkpt><trkpt lat="42.192617240151655" lon="11.934016409660753"><ele>357.0</ele><time>2026-03-24T14:28:29Z</time></trkpt><trkpt lat="42.19263043044354" lon="11.933895371175906"><ele>357.5</ele><time>2026-03-24T14:28:31Z</time></trkpt><trkpt lat="42.19262902968375" lon="11.933805620639601"><ele>358.0</ele><time>2026-03-24T14:28:33Z</time></trkpt><trkpt lat="42.1926366620648" lon="11.933705878290308"><ele>358.5</ele><time>2026-03-24T14:28:35Z</time></trkpt><trkpt lat="42.19265109103086" lon="11.933609089794517"><ele>359.0</ele><time>2026-03-24T14:28:37Z</time></trkpt><trkpt lat="42.1926625737714" lon="11.933504717432067"><ele>359.5</ele><time>2026-03-24T14:28:39Z</time></trkpt><trkpt lat="42.192690614059195" lon="11.933411398146069"><ele>360.0</ele><time>2026-03-24T14:28:41Z</time></trkpt><trkpt lat="42.19273436878535" lon="11.93330885391196"><ele>360.4</ele><time>2026-03-24T14:28:43.999Z</time></trkpt><trkpt lat="42.19276823427871" lon="11.933223782660459"><ele>360.8</ele><time>2026-03-24T14:28:45.999Z</time></trkpt><trkpt lat="42.19283438824607" lon="11.933149192480892"><ele>361.20000000000005</ele><time>2026-03-24T14:28:47.999Z</time></trkpt><trkpt lat="42.192906543735205" lon="11.93304099739071"><ele>361.6</ele><time>2026-03-24T14:28:49.999Z</time></trkpt><trkpt lat="42.19296099332498" lon="11.932915419615556"><ele>362.0</ele><time>2026-03-24T14:28:51.999Z</time></trkpt><trkpt lat="42.19299169606494" lon="11.932767243551533"><ele>362.0</ele><time>2026-03-24T14:28:53.999Z</time></trkpt><trkpt lat="42.19303489084462" lon="11.932642934599178"><ele>362.0</ele><time>2026-03-24T14:28:55.999Z</time></trkpt><trkpt lat="42.192992201070886" lon="11.932554204690357"><ele>362.0</ele><time>2026-03-24T14:28:57.999Z</time></trkpt><trkpt lat="42.192927288798145" lon="11.932467206292182"><ele>362.0</ele><time>2026-03-24T14:28:59.999Z</time></trkpt><trkpt lat="42.19286891614983" lon="11.932370238672705"><ele>362.0</ele><time>2026-03-24T14:29:01.999Z</time></trkpt><trkpt lat="42.19283899474734" lon="11.932264375117958"><ele>362.0</ele><time>2026-03-24T14:29:03.999Z</time></trkpt><trkpt lat="42.19281462693579" lon="11.932167160335688"><ele>362.6666666666667</ele><time>2026-03-24T14:29:05.999Z</time></trkpt><trkpt lat="42.192814844483024" lon="11.932057451485004"><ele>363.33333333333337</ele><time>2026-03-24T14:29:08.999Z</time></trkpt><trkpt lat="42.19281916295915" lon="11.93194620439177"><ele>364.0</ele><time>2026-03-24T14:29:10.999Z</time></trkpt><trkpt lat="42.192813456634056" lon="11.931829722716966"><ele>364.6666666666667</ele><time>2026-03-24T14:29:12.999Z</time></trkpt><trkpt lat="42.19278735992241" lon="11.931696999800437"><ele>365.3333333333333</ele><time>2026-03-24T14:29:14.999Z</time></trkpt><trkpt lat="42.19275122380132" lon="11.9315937838537"><ele>366.0</ele><time>2026-03-24T14:29:16.999Z</time></trkpt><trkpt lat="42.19270947193337" lon="11.931512943913042"><ele>367.6666666666667</ele><time>2026-03-24T14:29:18.999Z</time></trkpt><trkpt lat="42.192665751811354" lon="11.931443038055916"><ele>369.3333333333333</ele><time>2026-03-24T14:29:20.999Z</time></trkpt><trkpt lat="42.192623868188484" lon="11.931368814259882"><ele>371.0</ele><time>2026-03-24T14:29:22.999Z</time></trkpt><trkpt lat="42.1925744850542" lon="11.931279907037993"><ele>372.66666666666663</ele><time>2026-03-24T14:29:24.999Z</time></trkpt><trkpt lat="42.19251628199283" lon="11.93121614150845"><ele>374.3333333333333</ele><time>2026-03-24T14:29:26.999Z</time></trkpt><trkpt lat="42.192441716737605" lon="11.931131913735399"><ele>376.0</ele><time>2026-03-24T14:29:28.999Z</time></trkpt><trkpt lat="42.192385509425506" lon="11.93109187095742"><ele>376.8333333333333</ele><time>2026-03-24T14:29:30.999Z</time></trkpt><trkpt lat="42.1923113387377" lon="11.931030494556056"><ele>377.66666666666663</ele><time>2026-03-24T14:29:33.999Z</time></trkpt><trkpt lat="42.19224813701987" lon="11.930985579156538"><ele>378.5</ele><time>2026-03-24T14:29:35.999Z</time></trkpt><trkpt lat="42.19218788675571" lon="11.93095852769217"><ele>379.3333333333333</ele><time>2026-03-24T14:29:39.999Z</time></trkpt><trkpt lat="42.19212282072973" lon="11.930912621831014"><ele>380.1666666666667</ele><time>2026-03-24T14:30:57Z</time></trkpt><trkpt lat="42.19204844904342" lon="11.930878467252576"><ele>381.0</ele><time>2026-03-24T14:31:03Z</time></trkpt><trkpt lat="42.19197830631863" lon="11.930838643700763"><ele>381.0</ele><time>2026-03-24T14:31:05Z</time></trkpt><trkpt lat="42.191912587015985" lon="11.930786920756356"><ele>381.0</ele><time>2026-03-24T14:31:10.999Z</time></trkpt><trkpt lat="42.19184150349052" lon="11.930721197444358"><ele>381.0</ele><time>2026-03-24T14:31:13.999Z</time></trkpt><trkpt lat="42.19175322584885" lon="11.930661406074883"><ele>381.0</ele><time>2026-03-24T14:31:16.999Z</time></trkpt><trkpt lat="42.19168565102344" lon="11.930598339678522"><ele>381.0</ele><time>2026-03-24T14:31:18.999Z</time></trkpt><trkpt lat="42.19161417053812" lon="11.930542450372755"><ele>381.0</ele><time>2026-03-24T14:31:20.999Z</time></trkpt><trkpt lat="42.19153243576886" lon="11.930477553661447"><ele>381.1666666666667</ele><time>2026-03-24T14:31:22.999Z</time></trkpt><trkpt lat="42.19142356731736" lon="11.93040620337887"><ele>381.3333333333333</ele><time>2026-03-24T14:31:24.999Z</time></trkpt><trkpt lat="42.191358061032375" lon="11.930364585664025"><ele>381.5</ele><time>2026-03-24T14:31:25.999Z</time></trkpt><trkpt lat="42.19129887948849" lon="11.930313164560202"><ele>381.66666666666663</ele><time>2026-03-24T14:31:26.999Z</time></trkpt><trkpt lat="42.19123420694137" lon="11.93026814431656"><ele>381.8333333333333</ele><time>2026-03-24T14:31:27.999Z</time></trkpt><trkpt lat="42.1911665963354" lon="11.930147141300322"><ele>382.0</ele><time>2026-03-24T14:31:29.999Z</time></trkpt><trkpt lat="42.191081561129586" lon="11.930050409505013"><ele>382.0</ele><time>2026-03-24T14:31:31.999Z</time></trkpt><trkpt lat="42.191009653863865" lon="11.929951831555753"><ele>382.0</ele><time>2026-03-24T14:31:33.999Z</time></trkpt><trkpt lat="42.19095639279975" lon="11.929879564870957"><ele>382.0</ele><time>2026-03-24T14:31:36.999Z</time></trkpt><trkpt lat="42.19090412131383" lon="11.929813057137714"><ele>382.0</ele><time>2026-03-24T14:31:38.999Z</time></trkpt><trkpt lat="42.19085874433016" lon="11.929703494369074"><ele>382.0</ele><time>2026-03-24T14:31:40.999Z</time></trkpt><trkpt lat="42.190827609821795" lon="11.929572342424116"><ele>382.0</ele><time>2026-03-24T14:31:42.999Z</time></trkpt><trkpt lat="42.19081411389067" lon="11.929438800896879"><ele>382.0</ele><time>2026-03-24T14:31:44.999Z</time></trkpt><trkpt lat="42.19081293875498" lon="11.929284742901515"><ele>382.0</ele><time>2026-03-24T14:31:46.999Z</time></trkpt><trkpt lat="42.190818072292515" lon="11.929127546281245"><ele>382.0</ele><time>2026-03-24T14:31:48.999Z</time></trkpt><trkpt lat="42.190815288528015" lon="11.92903954352732"><ele>382.0</ele><time>2026-03-24T14:31:49.999Z</time></trkpt><trkpt lat="42.19081344884999" lon="11.928943898255028"><ele>382.0</ele><time>2026-03-24T14:31:50.999Z</time></trkpt><trkpt lat="42.19083085936124" lon="11.928830098394883"><ele>383.6</ele><time>2026-03-24T14:31:51.999Z</time></trkpt><trkpt lat="42.19083809545608" lon="11.9287198459581"><ele>385.20000000000005</ele><time>2026-03-24T14:31:52.999Z</time></trkpt><trkpt lat="42.190840768308064" lon="11.928626704641061"><ele>386.8</ele><time>2026-03-24T14:31:53.999Z</time></trkpt><trkpt lat="42.1908307920036" lon="11.92846931741287"><ele>388.4</ele><time>2026-03-24T14:31:55.999Z</time></trkpt><trkpt lat="42.19081707584291" lon="11.928302399761156"><ele>390.0</ele><time>2026-03-24T14:31:57.999Z</time></trkpt><trkpt lat="42.19081791622934" lon="11.928212578491289"><ele>390.2</ele><time>2026-03-24T14:31:58.999Z</time></trkpt><trkpt lat="42.19082344925717" lon="11.92811514194174"><ele>390.4</ele><time>2026-03-24T14:31:59.999Z</time></trkpt><trkpt lat="42.19083733644943" lon="11.928005361266443"><ele>390.6</ele><time>2026-03-24T14:32:00.999Z</time></trkpt><trkpt lat="42.190840846806196" lon="11.927897000232266"><ele>390.8</ele><time>2026-03-24T14:32:01.999Z</time></trkpt><trkpt lat="42.190842761378896" lon="11.927735043426242"><ele>391.0</ele><time>2026-03-24T14:32:03.999Z</time></trkpt><trkpt lat="42.19085396428107" lon="11.92757667439847"><ele>391.00000000000006</ele><time>2026-03-24T14:32:05.999Z</time></trkpt><trkpt lat="42.190910162598314" lon="11.927520759751433"><ele>391.0</ele><time>2026-03-24T14:32:06.999Z</time></trkpt><trkpt lat="42.19094211680372" lon="11.927431891948808"><ele>391.0</ele><time>2026-03-24T14:32:07.999Z</time></trkpt><trkpt lat="42.190963156058274" lon="11.927342475168158"><ele>391.0</ele><time>2026-03-24T14:32:08.999Z</time></trkpt><trkpt lat="42.19094445553516" lon="11.927182619668432"><ele>391.00000000000006</ele><time>2026-03-24T14:32:10.999Z</time></trkpt><trkpt lat="42.190921125236166" lon="11.927052593753473"><ele>391.0</ele><time>2026-03-24T14:32:12.998Z</time></trkpt><trkpt lat="42.19091341790833" lon="11.926919124365119"><ele>391.0</ele><time>2026-03-24T14:32:15Z</time></trkpt><trkpt lat="42.19090384433883" lon="11.926808197214378"><ele>391.0</ele><time>2026-03-24T14:32:17Z</time></trkpt><trkpt lat="42.19097928851088" lon="11.926745081242876"><ele>391.0</ele><time>2026-03-24T14:32:20Z</time></trkpt><trkpt lat="42.19096708038022" lon="11.926644611237505"><ele>391.0</ele><time>2026-03-24T14:32:23Z</time></trkpt><trkpt lat="42.1908871266988" lon="11.926506494375264"><ele>391.0</ele><time>2026-03-24T14:32:25Z</time></trkpt><trkpt lat="42.1908458685797" lon="11.92640375754611"><ele>391.4</ele><time>2026-03-24T14:32:26Z</time></trkpt><trkpt lat="42.19087053353163" lon="11.926312800150397"><ele>391.8</ele><time>2026-03-24T14:32:27Z</time></trkpt><trkpt lat="42.190850960454945" lon="11.92618615230457"><ele>392.2</ele><time>2026-03-24T14:32:29Z</time></trkpt><trkpt lat="42.1908420646798" lon="11.926023927206819"><ele>392.59999999999997</ele><time>2026-03-24T14:32:31Z</time></trkpt><trkpt lat="42.19081341860854" lon="11.925870729932297"><ele>393.0</ele><time>2026-03-24T14:32:33Z</time></trkpt><trkpt lat="42.190786009083276" lon="11.925736838915556"><ele>393.2</ele><time>2026-03-24T14:32:35Z</time></trkpt><trkpt lat="42.1907820874814" lon="11.92559715220069"><ele>393.4</ele><time>2026-03-24T14:32:37Z</time></trkpt><trkpt lat="42.19078735653743" lon="11.92551009936155"><ele>393.59999999999997</ele><time>2026-03-24T14:32:38Z</time></trkpt><trkpt lat="42.19080407338697" lon="11.925360073666356"><ele>393.79999999999995</ele><time>2026-03-24T14:32:40Z</time></trkpt><trkpt lat="42.190830541710575" lon="11.925211896367749"><ele>394.0</ele><time>2026-03-24T14:32:42Z</time></trkpt><trkpt lat="42.190859302003325" lon="11.92506178259699"><ele>395.0</ele><time>2026-03-24T14:32:44Z</time></trkpt><trkpt lat="42.19087059856865" lon="11.924934576806658"><ele>396.0</ele><time>2026-03-24T14:32:46Z</time></trkpt><trkpt lat="42.190851573052946" lon="11.92476167199974"><ele>397.0</ele><time>2026-03-24T14:32:48Z</time></trkpt><trkpt lat="42.19080899744343" lon="11.924615229889497"><ele>398.0</ele><time>2026-03-24T14:32:50Z</time></trkpt><trkpt lat="42.190748092330814" lon="11.924473983096782"><ele>397.99999999999994</ele><time>2026-03-24T14:32:52Z</time></trkpt><trkpt lat="42.19070723308684" lon="11.924397531932541"><ele>398.0</ele><time>2026-03-24T14:32:53Z</time></trkpt><trkpt lat="42.190660602919955" lon="11.924338174963165"><ele>398.0</ele><time>2026-03-24T14:32:54Z</time></trkpt><trkpt lat="42.19060229852739" lon="11.92428876701569"><ele>398.0</ele><time>2026-03-24T14:32:55Z</time></trkpt><trkpt lat="42.190522353635544" lon="11.92425714473744"><ele>398.0</ele><time>2026-03-24T14:32:56Z</time></trkpt><trkpt lat="42.19044120569426" lon="11.924242512187526"><ele>397.99999999999994</ele><time>2026-03-24T14:32:57Z</time></trkpt><trkpt lat="42.1903775264123" lon="11.924237246227786"><ele>398.0</ele><time>2026-03-24T14:32:58Z</time></trkpt><trkpt lat="42.190301923834696" lon="11.924228799320842"><ele>398.49999999999994</ele><time>2026-03-24T14:33:00Z</time></trkpt><trkpt lat="42.19019693562869" lon="11.924204018330647"><ele>399.0</ele><time>2026-03-24T14:33:02Z</time></trkpt><trkpt lat="42.19012670661073" lon="11.9241855070968"><ele>399.5</ele><time>2026-03-24T14:33:03Z</time></trkpt><trkpt lat="42.190025255457" lon="11.924145037305825"><ele>400.0</ele><time>2026-03-24T14:33:05Z</time></trkpt><trkpt lat="42.18996188164469" lon="11.924119636130724"><ele>400.49999999999994</ele><time>2026-03-24T14:33:06Z</time></trkpt><trkpt lat="42.189899293553765" lon="11.924089858760572"><ele>401.0</ele><time>2026-03-24T14:33:07Z</time></trkpt><trkpt lat="42.1898302688044" lon="11.924056399500671"><ele>401.6</ele><time>2026-03-24T14:33:08Z</time></trkpt><trkpt lat="42.18971780118654" lon="11.924001881602447"><ele>402.20000000000005</ele><time>2026-03-24T14:33:10Z</time></trkpt><trkpt lat="42.189593553639256" lon="11.923941653475335"><ele>402.79999999999995</ele><time>2026-03-24T14:33:12Z</time></trkpt><trkpt lat="42.18952954782171" lon="11.923911107761434"><ele>403.4</ele><time>2026-03-24T14:33:13Z</time></trkpt><trkpt lat="42.18945338643632" lon="11.923875906206677"><ele>404.0</ele><time>2026-03-24T14:33:14Z</time></trkpt><trkpt lat="42.18938918838194" lon="11.923854198957477"><ele>403.99999999999994</ele><time>2026-03-24T14:33:15Z</time></trkpt><trkpt lat="42.18932044869979" lon="11.923830956068864"><ele>404.0</ele><time>2026-03-24T14:33:16Z</time></trkpt><trkpt lat="42.18923191615993" lon="11.923857420509812"><ele>404.0</ele><time>2026-03-24T14:33:17Z</time></trkpt><trkpt lat="42.18915920996535" lon="11.923845257869841"><ele>404.0</ele><time>2026-03-24T14:33:17.999Z</time></trkpt><trkpt lat="42.1890860336002" lon="11.9238317328607"><ele>403.99999999999994</ele><time>2026-03-24T14:33:18.999Z</time></trkpt><trkpt lat="42.18899940650348" lon="11.923810520655424"><ele>404.0</ele><time>2026-03-24T14:33:19.999Z</time></trkpt><trkpt lat="42.188926845445266" lon="11.923789400509742"><ele>405.0</ele><time>2026-03-24T14:33:20.999Z</time></trkpt><trkpt lat="42.188860052162646" lon="11.92377738668299"><ele>406.0</ele><time>2026-03-24T14:33:21.999Z</time></trkpt><trkpt lat="42.18878452416061" lon="11.923764997524637"><ele>407.0</ele><time>2026-03-24T14:33:22.999Z</time></trkpt><trkpt lat="42.18870823330119" lon="11.923754281619724"><ele>408.0</ele><time>2026-03-24T14:33:23.999Z</time></trkpt><trkpt lat="42.188642961576726" lon="11.923745113482795"><ele>409.0</ele><time>2026-03-24T14:33:24.999Z</time></trkpt><trkpt lat="42.188571916765916" lon="11.923735134451352"><ele>410.0</ele><time>2026-03-24T14:33:25.999Z</time></trkpt><trkpt lat="42.188500134339726" lon="11.92372505181502"><ele>411.0</ele><time>2026-03-24T14:33:26.999Z</time></trkpt><trkpt lat="42.18842751334581" lon="11.923788775476448"><ele>411.0</ele><time>2026-03-24T14:33:27.999Z</time></trkpt><trkpt lat="42.188355829491954" lon="11.92379949236849"><ele>411.0</ele><time>2026-03-24T14:33:28.999Z</time></trkpt><trkpt lat="42.18827873995183" lon="11.923808586609258"><ele>411.0</ele><time>2026-03-24T14:33:29.999Z</time></trkpt><trkpt lat="42.18820034613657" lon="11.923813672135873"><ele>411.0</ele><time>2026-03-24T14:33:30.999Z</time></trkpt><trkpt lat="42.18811320450337" lon="11.923802821799411"><ele>411.0</ele><time>2026-03-24T14:33:31.999Z</time></trkpt><trkpt lat="42.188026661444184" lon="11.923809522543104"><ele>411.0</ele><time>2026-03-24T14:33:32.999Z</time></trkpt><trkpt lat="42.18793477852867" lon="11.923792095172756"><ele>411.8333333333333</ele><time>2026-03-24T14:33:33.999Z</time></trkpt><trkpt lat="42.18785430514477" lon="11.923764317225176"><ele>412.66666666666663</ele><time>2026-03-24T14:33:34.999Z</time></trkpt><trkpt lat="42.18779246321313" lon="11.923737806463288"><ele>413.5</ele><time>2026-03-24T14:33:35.999Z</time></trkpt><trkpt lat="42.18772563397598" lon="11.923703731869745"><ele>414.3333333333333</ele><time>2026-03-24T14:33:36.999Z</time></trkpt><trkpt lat="42.187648665983545" lon="11.923654118513232"><ele>415.16666666666663</ele><time>2026-03-24T14:33:37.999Z</time></trkpt><trkpt lat="42.187569374802344" lon="11.92362215723467"><ele>416.0</ele><time>2026-03-24T14:33:38.999Z</time></trkpt><trkpt lat="42.18747738232553" lon="11.923618581105444"><ele>416.0</ele><time>2026-03-24T14:33:39.999Z</time></trkpt><trkpt lat="42.18737399333121" lon="11.923632848595343"><ele>416.0</ele><time>2026-03-24T14:33:40.999Z</time></trkpt><trkpt lat="42.18726708353004" lon="11.9236632788138"><ele>416.0</ele><time>2026-03-24T14:33:41.999Z</time></trkpt><trkpt lat="42.18716646968192" lon="11.923679257543531"><ele>416.0</ele><time>2026-03-24T14:33:42.999Z</time></trkpt><trkpt lat="42.187084946438105" lon="11.923675071240929"><ele>416.0</ele><time>2026-03-24T14:33:43.999Z</time></trkpt><trkpt lat="42.18700099366294" lon="11.92365779889449"><ele>416.20000000000005</ele><time>2026-03-24T14:33:44.999Z</time></trkpt><trkpt lat="42.18693136481689" lon="11.923620786498054"><ele>416.40000000000003</ele><time>2026-03-24T14:33:45.999Z</time></trkpt><trkpt lat="42.18681636341287" lon="11.92352021701658"><ele>416.6</ele><time>2026-03-24T14:33:47.999Z</time></trkpt><trkpt lat="42.18675240026126" lon="11.923432953683742"><ele>416.8</ele><time>2026-03-24T14:33:48.999Z</time></trkpt><trkpt lat="42.18667890240897" lon="11.923324083631805"><ele>417.0</ele><time>2026-03-24T14:33:49.999Z</time></trkpt><trkpt lat="42.186592103084514" lon="11.923243229415926"><ele>419.20000000000005</ele><time>2026-03-24T14:33:50.999Z</time></trkpt><trkpt lat="42.18650879694426" lon="11.92315352284259"><ele>421.4</ele><time>2026-03-24T14:33:51.999Z</time></trkpt><trkpt lat="42.18642432174215" lon="11.923069250821786"><ele>423.59999999999997</ele><time>2026-03-24T14:33:52.999Z</time></trkpt><trkpt lat="42.18634241630585" lon="11.92297882522061"><ele>425.79999999999995</ele><time>2026-03-24T14:33:53.999Z</time></trkpt><trkpt lat="42.1862685727234" lon="11.922882772123046"><ele>428.0</ele><time>2026-03-24T14:33:54.999Z</time></trkpt><trkpt lat="42.18621293904007" lon="11.922810029167799"><ele>428.0</ele><time>2026-03-24T14:33:55.999Z</time></trkpt><trkpt lat="42.1861514283095" lon="11.922754606760943"><ele>427.99999999999994</ele><time>2026-03-24T14:33:56.999Z</time></trkpt><trkpt lat="42.18609436346913" lon="11.922710483916765"><ele>427.99999999999994</ele><time>2026-03-24T14:33:57.999Z</time></trkpt><trkpt lat="42.186038857077534" lon="11.922635781356718"><ele>428.0</ele><time>2026-03-24T14:33:59.999Z</time></trkpt><trkpt lat="42.18592370016287" lon="11.922586190620507"><ele>428.0</ele><time>2026-03-24T14:34:27Z</time></trkpt><trkpt lat="42.1858036818618" lon="11.922589022458293"><ele>427.66666666666663</ele><time>2026-03-24T14:34:29Z</time></trkpt><trkpt lat="42.18573823089137" lon="11.922477017988461"><ele>427.3333333333333</ele><time>2026-03-24T14:34:30Z</time></trkpt><trkpt lat="42.18566463638679" lon="11.922457080847913"><ele>427.0</ele><time>2026-03-24T14:34:31Z</time></trkpt><trkpt lat="42.18559637354593" lon="11.922434528991381"><ele>426.66666666666663</ele><time>2026-03-24T14:34:32Z</time></trkpt><trkpt lat="42.18552950461042" lon="11.922396591071248"><ele>426.3333333333333</ele><time>2026-03-24T14:34:33Z</time></trkpt><trkpt lat="42.18546043624996" lon="11.922330480102277"><ele>426.0</ele><time>2026-03-24T14:34:34Z</time></trkpt><trkpt lat="42.18539596661745" lon="11.92225943834344"><ele>427.1428571428571</ele><time>2026-03-24T14:34:35Z</time></trkpt><trkpt lat="42.18533265092838" lon="11.92221150485637"><ele>428.2857142857143</ele><time>2026-03-24T14:34:36Z</time></trkpt><trkpt lat="42.18527152250395" lon="11.922169145416378"><ele>429.42857142857144</ele><time>2026-03-24T14:34:37Z</time></trkpt><trkpt lat="42.18520831002796" lon="11.922130359037988"><ele>430.57142857142856</ele><time>2026-03-24T14:34:38Z</time></trkpt><trkpt lat="42.185135759225005" lon="11.922094402884214"><ele>431.7142857142857</ele><time>2026-03-24T14:34:39Z</time></trkpt><trkpt lat="42.18506223233234" lon="11.922075590174762"><ele>432.85714285714283</ele><time>2026-03-24T14:34:40Z</time></trkpt><trkpt lat="42.18498018749168" lon="11.922042041306078"><ele>434.0</ele><time>2026-03-24T14:34:41Z</time></trkpt><trkpt lat="42.18488560201334" lon="11.922011399906644"><ele>434.16666666666663</ele><time>2026-03-24T14:34:42Z</time></trkpt><trkpt lat="42.18479107092434" lon="11.921977458443413"><ele>434.3333333333333</ele><time>2026-03-24T14:34:43Z</time></trkpt><trkpt lat="42.18473330091415" lon="11.9219411528746"><ele>434.5</ele><time>2026-03-24T14:34:44Z</time></trkpt><trkpt lat="42.184646774155496" lon="11.921831176282863"><ele>434.66666666666663</ele><time>2026-03-24T14:34:46Z</time></trkpt><trkpt lat="42.18460474958193" lon="11.921748020266426"><ele>434.8333333333333</ele><time>2026-03-24T14:34:47Z</time></trkpt><trkpt lat="42.184555732681645" lon="11.921646605011638"><ele>435.0</ele><time>2026-03-24T14:34:48Z</time></trkpt><trkpt lat="42.18450522772022" lon="11.921547289883128"><ele>435.0</ele><time>2026-03-24T14:34:49Z</time></trkpt><trkpt lat="42.1844631987498" lon="11.921430062832414"><ele>435.0</ele><time>2026-03-24T14:34:50Z</time></trkpt><trkpt lat="42.18442981123574" lon="11.921312554241357"><ele>435.0</ele><time>2026-03-24T14:34:51Z</time></trkpt><trkpt lat="42.18439898618298" lon="11.921195677256273"><ele>435.0</ele><time>2026-03-24T14:34:52Z</time></trkpt><trkpt lat="42.18437538983067" lon="11.921093967923895"><ele>435.0</ele><time>2026-03-24T14:34:53Z</time></trkpt><trkpt lat="42.18434137205602" lon="11.920995362406453"><ele>435.0</ele><time>2026-03-24T14:34:54Z</time></trkpt><trkpt lat="42.18429168792924" lon="11.920906069924431"><ele>434.5</ele><time>2026-03-24T14:34:55Z</time></trkpt><trkpt lat="42.1842273765952" lon="11.920819676434672"><ele>434.0</ele><time>2026-03-24T14:34:56Z</time></trkpt><trkpt lat="42.18415817101021" lon="11.920745488896547"><ele>433.5</ele><time>2026-03-24T14:34:57Z</time></trkpt><trkpt lat="42.184091258150936" lon="11.920683317245205"><ele>433.0</ele><time>2026-03-24T14:34:58Z</time></trkpt><trkpt lat="42.184027068668165" lon="11.92061687824558"><ele>432.5</ele><time>2026-03-24T14:34:59Z</time></trkpt><trkpt lat="42.183976551952966" lon="11.920537761582267"><ele>432.0</ele><time>2026-03-24T14:35:00Z</time></trkpt><trkpt lat="42.18394508351197" lon="11.92044188531138"><ele>435.6</ele><time>2026-03-24T14:35:01Z</time></trkpt><trkpt lat="42.18391155167861" lon="11.920332742880264"><ele>439.20000000000005</ele><time>2026-03-24T14:35:02Z</time></trkpt><trkpt lat="42.18387423223715" lon="11.92020222323692"><ele>442.8</ele><time>2026-03-24T14:35:03Z</time></trkpt><trkpt lat="42.18383077942315" lon="11.920072271786244"><ele>446.4</ele><time>2026-03-24T14:35:04Z</time></trkpt><trkpt lat="42.18379028492559" lon="11.919945912749679"><ele>450.0</ele><time>2026-03-24T14:35:05Z</time></trkpt><trkpt lat="42.18374858233879" lon="11.919828411253171"><ele>450.0</ele><time>2026-03-24T14:35:06Z</time></trkpt><trkpt lat="42.18369686065604" lon="11.919723336039828"><ele>450.0</ele><time>2026-03-24T14:35:07Z</time></trkpt><trkpt lat="42.18364053138093" lon="11.91965274326659"><ele>450.0</ele><time>2026-03-24T14:35:08Z</time></trkpt><trkpt lat="42.183577551667135" lon="11.919592154731946"><ele>450.0</ele><time>2026-03-24T14:35:09Z</time></trkpt><trkpt lat="42.183525508497084" lon="11.919512509523623"><ele>450.0</ele><time>2026-03-24T14:35:10Z</time></trkpt><trkpt lat="42.18348869889199" lon="11.919407044795783"><ele>450.0</ele><time>2026-03-24T14:35:11Z</time></trkpt><trkpt lat="42.18345809457781" lon="11.919302378278871"><ele>450.8333333333333</ele><time>2026-03-24T14:35:12Z</time></trkpt><trkpt lat="42.18343067217596" lon="11.919209196279603"><ele>451.66666666666663</ele><time>2026-03-24T14:35:13Z</time></trkpt><trkpt lat="42.18340325152429" lon="11.919114195355862"><ele>452.5</ele><time>2026-03-24T14:35:14Z</time></trkpt><trkpt lat="42.18337028111863" lon="11.919010182465357"><ele>453.3333333333333</ele><time>2026-03-24T14:35:15Z</time></trkpt><trkpt lat="42.18331747236029" lon="11.918928437906724"><ele>454.16666666666663</ele><time>2026-03-24T14:35:16Z</time></trkpt><trkpt lat="42.183247504195315" lon="11.918859098933368"><ele>455.0</ele><time>2026-03-24T14:35:17Z</time></trkpt><trkpt lat="42.183180154381496" lon="11.918791753213164"><ele>454.99999999999994</ele><time>2026-03-24T14:35:18Z</time></trkpt><trkpt lat="42.18311285802199" lon="11.918741723927416"><ele>455.0</ele><time>2026-03-24T14:35:19Z</time></trkpt><trkpt lat="42.18302024319977" lon="11.9186479499999"><ele>455.0</ele><time>2026-03-24T14:35:21Z</time></trkpt><trkpt lat="42.1829589019735" lon="11.918582864912887"><ele>455.0</ele><time>2026-03-24T14:35:23Z</time></trkpt><trkpt lat="42.18289866964446" lon="11.918526748556848"><ele>454.99999999999994</ele><time>2026-03-24T14:35:25Z</time></trkpt><trkpt lat="42.18287719412035" lon="11.918443471391956"><ele>455.0</ele><time>2026-03-24T14:35:58.999Z</time></trkpt><trkpt lat="42.18299474920773" lon="11.918357106729312"><ele>453.4</ele><time>2026-03-24T14:36:01.999Z</time></trkpt><trkpt lat="42.183079385304005" lon="11.91833828486827"><ele>451.8</ele><time>2026-03-24T14:36:02.999Z</time></trkpt><trkpt lat="42.183167140068555" lon="11.918308789758232"><ele>450.20000000000005</ele><time>2026-03-24T14:36:03.999Z</time></trkpt><trkpt lat="42.183261518983805" lon="11.918295039671868"><ele>448.6</ele><time>2026-03-24T14:36:04.999Z</time></trkpt><trkpt lat="42.1833577806064" lon="11.918240225437248"><ele>447.0</ele><time>2026-03-24T14:36:05.999Z</time></trkpt><trkpt lat="42.183442998476856" lon="11.918191019143986"><ele>444.6</ele><time>2026-03-24T14:36:06.999Z</time></trkpt><trkpt lat="42.1835106700801" lon="11.918155898928607"><ele>442.20000000000005</ele><time>2026-03-24T14:36:07.999Z</time></trkpt><trkpt lat="42.18358830014665" lon="11.918125487277907"><ele>439.8</ele><time>2026-03-24T14:36:08.999Z</time></trkpt><trkpt lat="42.18368187118751" lon="11.918076069165142"><ele>437.4</ele><time>2026-03-24T14:36:09.999Z</time></trkpt><trkpt lat="42.183790218547486" lon="11.91806083063653"><ele>435.0</ele><time>2026-03-24T14:36:10.999Z</time></trkpt><trkpt lat="42.18388714898889" lon="11.918055799476466"><ele>435.0</ele><time>2026-03-24T14:36:11.999Z</time></trkpt><trkpt lat="42.1839858343788" lon="11.918061888909596"><ele>435.0</ele><time>2026-03-24T14:36:12.999Z</time></trkpt><trkpt lat="42.18409034992945" lon="11.918077456946232"><ele>435.0</ele><time>2026-03-24T14:36:13.999Z</time></trkpt><trkpt lat="42.184198040708644" lon="11.918103585328435"><ele>435.0</ele><time>2026-03-24T14:36:14.999Z</time></trkpt><trkpt lat="42.184296775873186" lon="11.918128550916055"><ele>435.0</ele><time>2026-03-24T14:36:15.999Z</time></trkpt><trkpt lat="42.184399178651304" lon="11.918146794594078"><ele>433.0</ele><time>2026-03-24T14:36:16.999Z</time></trkpt><trkpt lat="42.18451032194292" lon="11.918159728484522"><ele>431.0</ele><time>2026-03-24T14:36:17.999Z</time></trkpt><trkpt lat="42.18461878798403" lon="11.918171544095447"><ele>429.0</ele><time>2026-03-24T14:36:18.999Z</time></trkpt><trkpt lat="42.18471908750475" lon="11.918182715413755"><ele>427.0</ele><time>2026-03-24T14:36:19.999Z</time></trkpt><trkpt lat="42.18481366812382" lon="11.918212451017947"><ele>425.0</ele><time>2026-03-24T14:36:20.999Z</time></trkpt><trkpt lat="42.18490046179749" lon="11.918259944735997"><ele>423.8333333333333</ele><time>2026-03-24T14:36:21.999Z</time></trkpt><trkpt lat="42.18497765039839" lon="11.918300499897653"><ele>422.66666666666663</ele><time>2026-03-24T14:36:22.999Z</time></trkpt><trkpt lat="42.18503963822365" lon="11.918317613167025"><ele>421.5</ele><time>2026-03-24T14:36:23.999Z</time></trkpt><trkpt lat="42.18510534985991" lon="11.918299083356391"><ele>420.33333333333337</ele><time>2026-03-24T14:36:26.001Z</time></trkpt><trkpt lat="42.185203334928005" lon="11.918249875349622"><ele>419.1666666666667</ele><time>2026-03-24T14:36:53Z</time></trkpt><trkpt lat="42.185253053941274" lon="11.918197374318542"><ele>418.0</ele><time>2026-03-24T14:36:54Z</time></trkpt><trkpt lat="42.1852963414543" lon="11.918115604422393"><ele>418.00000000000006</ele><time>2026-03-24T14:36:55Z</time></trkpt><trkpt lat="42.18532968700948" lon="11.918028399921758"><ele>418.0</ele><time>2026-03-24T14:36:56Z</time></trkpt><trkpt lat="42.185374206238" lon="11.917918197696185"><ele>418.0</ele><time>2026-03-24T14:36:57Z</time></trkpt><trkpt lat="42.18542519927408" lon="11.917811959410916"><ele>418.0</ele><time>2026-03-24T14:36:58Z</time></trkpt><trkpt lat="42.1854739319051" lon="11.9177171578132"><ele>418.00000000000006</ele><time>2026-03-24T14:36:59Z</time></trkpt><trkpt lat="42.18552325254752" lon="11.917632872858576"><ele>418.0</ele><time>2026-03-24T14:37:00Z</time></trkpt><trkpt lat="42.18557322434206" lon="11.917555117898324"><ele>417.33333333333337</ele><time>2026-03-24T14:37:01Z</time></trkpt><trkpt lat="42.185624463932605" lon="11.917482926376131"><ele>416.6666666666667</ele><time>2026-03-24T14:37:02Z</time></trkpt><trkpt lat="42.18567092433305" lon="11.917404473936255"><ele>416.0</ele><time>2026-03-24T14:37:03Z</time></trkpt><trkpt lat="42.18571870743085" lon="11.917312708276512"><ele>415.33333333333337</ele><time>2026-03-24T14:37:04Z</time></trkpt><trkpt lat="42.18577366203859" lon="11.917228991434756"><ele>414.6666666666667</ele><time>2026-03-24T14:37:05Z</time></trkpt><trkpt lat="42.18583380815702" lon="11.917154395262706"><ele>414.0</ele><time>2026-03-24T14:37:06Z</time></trkpt><trkpt lat="42.18589556259378" lon="11.917076832107574"><ele>413.8333333333333</ele><time>2026-03-24T14:37:07Z</time></trkpt><trkpt lat="42.18595445187899" lon="11.917007352144754"><ele>413.66666666666663</ele><time>2026-03-24T14:37:08Z</time></trkpt><trkpt lat="42.18601020838583" lon="11.916929889544866"><ele>413.5</ele><time>2026-03-24T14:37:09Z</time></trkpt><trkpt lat="42.1860585127019" lon="11.91683546863231"><ele>413.3333333333333</ele><time>2026-03-24T14:37:10Z</time></trkpt><trkpt lat="42.18611187829267" lon="11.916749134154173"><ele>413.16666666666663</ele><time>2026-03-24T14:37:11Z</time></trkpt><trkpt lat="42.186172376081295" lon="11.916668706649792"><ele>413.0</ele><time>2026-03-24T14:37:12Z</time></trkpt><trkpt lat="42.18623881670625" lon="11.916605400503762"><ele>413.3333333333333</ele><time>2026-03-24T14:37:13Z</time></trkpt><trkpt lat="42.18631056495906" lon="11.91654776950964"><ele>413.66666666666663</ele><time>2026-03-24T14:37:14Z</time></trkpt><trkpt lat="42.18637178898008" lon="11.916495600438955"><ele>414.0</ele><time>2026-03-24T14:37:15Z</time></trkpt><trkpt lat="42.18644668717935" lon="11.916440388957888"><ele>414.33333333333337</ele><time>2026-03-24T14:37:16Z</time></trkpt><trkpt lat="42.186528605113566" lon="11.916381200063093"><ele>414.6666666666667</ele><time>2026-03-24T14:37:17Z</time></trkpt><trkpt lat="42.18662097098411" lon="11.916328157393124"><ele>415.0</ele><time>2026-03-24T14:37:18Z</time></trkpt><trkpt lat="42.18671921681765" lon="11.91627005123489"><ele>415.0</ele><time>2026-03-24T14:37:19Z</time></trkpt><trkpt lat="42.18680829740758" lon="11.916205738810337"><ele>415.0</ele><time>2026-03-24T14:37:20Z</time></trkpt><trkpt lat="42.1868826334476" lon="11.916145382290724"><ele>415.0</ele><time>2026-03-24T14:37:21Z</time></trkpt><trkpt lat="42.186966674129835" lon="11.916086027715892"><ele>415.0</ele><time>2026-03-24T14:37:22Z</time></trkpt><trkpt lat="42.187059985312246" lon="11.916031908065191"><ele>415.0</ele><time>2026-03-24T14:37:23Z</time></trkpt><trkpt lat="42.187155934246235" lon="11.915976915829946"><ele>415.0</ele><time>2026-03-24T14:37:24Z</time></trkpt><trkpt lat="42.1872509413489" lon="11.915923057549097"><ele>415.0</ele><time>2026-03-24T14:37:25Z</time></trkpt><trkpt lat="42.18735350881113" lon="11.915878253845962"><ele>415.0</ele><time>2026-03-24T14:37:26Z</time></trkpt><trkpt lat="42.187459400011456" lon="11.915846165300973"><ele>415.0</ele><time>2026-03-24T14:37:27Z</time></trkpt><trkpt lat="42.18755680526517" lon="11.915809892605504"><ele>415.0</ele><time>2026-03-24T14:37:28Z</time></trkpt><trkpt lat="42.187640634757734" lon="11.915760718369244"><ele>415.83333333333337</ele><time>2026-03-24T14:37:29Z</time></trkpt><trkpt lat="42.1877154077461" lon="11.915694317795822"><ele>416.6666666666667</ele><time>2026-03-24T14:37:30Z</time></trkpt><trkpt lat="42.18777241040305" lon="11.915628165449656"><ele>417.5</ele><time>2026-03-24T14:37:31Z</time></trkpt><trkpt lat="42.187822711259074" lon="11.915560009045409"><ele>418.33333333333337</ele><time>2026-03-24T14:37:32Z</time></trkpt><trkpt lat="42.187873518035786" lon="11.915414084883297"><ele>419.1666666666667</ele><time>2026-03-24T14:37:34Z</time></trkpt><trkpt lat="42.18787085692791" lon="11.915328572564304"><ele>420.0</ele><time>2026-03-24T14:37:35Z</time></trkpt><trkpt lat="42.18788339250729" lon="11.91521284369098"><ele>420.0</ele><time>2026-03-24T14:37:36Z</time></trkpt><trkpt lat="42.1878623490272" lon="11.9150934979213"><ele>420.0</ele><time>2026-03-24T14:37:37Z</time></trkpt><trkpt lat="42.18783270485602" lon="11.914955517008854"><ele>420.0</ele><time>2026-03-24T14:37:38Z</time></trkpt><trkpt lat="42.18779810779069" lon="11.914844227570343"><ele>420.0</ele><time>2026-03-24T14:37:39Z</time></trkpt><trkpt lat="42.18777694634789" lon="11.914750408063275"><ele>420.0</ele><time>2026-03-24T14:37:40Z</time></trkpt><trkpt lat="42.18775284731532" lon="11.914651730224586"><ele>420.0</ele><time>2026-03-24T14:37:41Z</time></trkpt><trkpt lat="42.187712000241376" lon="11.914541621422678"><ele>420.8</ele><time>2026-03-24T14:37:42Z</time></trkpt><trkpt lat="42.18765417751723" lon="11.914422930425543"><ele>421.6</ele><time>2026-03-24T14:37:43Z</time></trkpt><trkpt lat="42.18760813594041" lon="11.91428514739658"><ele>422.4</ele><time>2026-03-24T14:37:44Z</time></trkpt><trkpt lat="42.1875644582249" lon="11.91417000014336"><ele>423.2</ele><time>2026-03-24T14:37:45Z</time></trkpt><trkpt lat="42.18751783588143" lon="11.914066375066005"><ele>424.0</ele><time>2026-03-24T14:37:45.999Z</time></trkpt><trkpt lat="42.18750449339281" lon="11.913940390655254"><ele>424.0</ele><time>2026-03-24T14:37:46.999Z</time></trkpt><trkpt lat="42.1875044120021" lon="11.913815181900533"><ele>424.0</ele><time>2026-03-24T14:37:47.999Z</time></trkpt><trkpt lat="42.18751286637364" lon="11.91369283484861"><ele>424.0</ele><time>2026-03-24T14:37:48.999Z</time></trkpt><trkpt lat="42.187529715139654" lon="11.913570633400354"><ele>424.0</ele><time>2026-03-24T14:37:49.999Z</time></trkpt><trkpt lat="42.18756400548844" lon="11.913453401740234"><ele>424.0</ele><time>2026-03-24T14:37:50.999Z</time></trkpt><trkpt lat="42.187608287412786" lon="11.913356082102739"><ele>424.2</ele><time>2026-03-24T14:37:51.999Z</time></trkpt><trkpt lat="42.18766452367988" lon="11.913262948274863"><ele>424.4</ele><time>2026-03-24T14:37:52.999Z</time></trkpt><trkpt lat="42.18773677395975" lon="11.913184903259706"><ele>424.6</ele><time>2026-03-24T14:37:53.999Z</time></trkpt><trkpt lat="42.18782801075656" lon="11.913117336257182"><ele>424.8</ele><time>2026-03-24T14:37:54.999Z</time></trkpt><trkpt lat="42.1879411101309" lon="11.91305206083809"><ele>425.0</ele><time>2026-03-24T14:37:55.999Z</time></trkpt><trkpt lat="42.18805462085235" lon="11.912996822063295"><ele>424.99999999999994</ele><time>2026-03-24T14:37:56.999Z</time></trkpt><trkpt lat="42.18813729463827" lon="11.912937859044021"><ele>425.0</ele><time>2026-03-24T14:37:57.999Z</time></trkpt><trkpt lat="42.18821053312799" lon="11.912876249386446"><ele>425.0</ele><time>2026-03-24T14:37:58.999Z</time></trkpt><trkpt lat="42.188279714456606" lon="11.91281601257183"><ele>425.0</ele><time>2026-03-24T14:37:59.999Z</time></trkpt><trkpt lat="42.188359403813" lon="11.912745315874359"><ele>424.99999999999994</ele><time>2026-03-24T14:38:00.999Z</time></trkpt><trkpt lat="42.18843600061655" lon="11.912677026563989"><ele>425.0</ele><time>2026-03-24T14:38:01.999Z</time></trkpt><trkpt lat="42.18850068543582" lon="11.912606083869719"><ele>421.8</ele><time>2026-03-24T14:38:02.999Z</time></trkpt><trkpt lat="42.188553529438344" lon="11.912519673891579"><ele>418.6</ele><time>2026-03-24T14:38:03.999Z</time></trkpt><trkpt lat="42.18860422587197" lon="11.912412111746294"><ele>415.4</ele><time>2026-03-24T14:38:04.999Z</time></trkpt><trkpt lat="42.18864696592068" lon="11.912294398680427"><ele>412.2</ele><time>2026-03-24T14:38:05.999Z</time></trkpt><trkpt lat="42.18867500914698" lon="11.912175526950515"><ele>409.0</ele><time>2026-03-24T14:38:06.999Z</time></trkpt><trkpt lat="42.18868469636031" lon="11.912063083971232"><ele>409.0</ele><time>2026-03-24T14:38:07.999Z</time></trkpt><trkpt lat="42.18867198971631" lon="11.911954368233873"><ele>409.0</ele><time>2026-03-24T14:38:08.999Z</time></trkpt><trkpt lat="42.188641291664965" lon="11.911839461781925"><ele>409.0</ele><time>2026-03-24T14:38:09.999Z</time></trkpt><trkpt lat="42.18862395291276" lon="11.911688757184784"><ele>409.0</ele><time>2026-03-24T14:38:10.999Z</time></trkpt><trkpt lat="42.1886041342336" lon="11.911565340853556"><ele>409.0</ele><time>2026-03-24T14:38:11.999Z</time></trkpt><trkpt lat="42.1885851292626" lon="11.911449425381193"><ele>409.2</ele><time>2026-03-24T14:38:12.999Z</time></trkpt><trkpt lat="42.1886093105825" lon="11.911323936816729"><ele>409.4</ele><time>2026-03-24T14:38:13.999Z</time></trkpt><trkpt lat="42.18863476911388" lon="11.911187539969376"><ele>409.6</ele><time>2026-03-24T14:38:14.999Z</time></trkpt><trkpt lat="42.18867280245488" lon="11.91105586230933"><ele>409.8</ele><time>2026-03-24T14:38:15.999Z</time></trkpt><trkpt lat="42.18872932608363" lon="11.910925035838806"><ele>410.0</ele><time>2026-03-24T14:38:16.999Z</time></trkpt><trkpt lat="42.188765776746315" lon="11.910834666693308"><ele>410.3333333333333</ele><time>2026-03-24T14:38:17.999Z</time></trkpt><trkpt lat="42.18879711439923" lon="11.91074358102614"><ele>410.66666666666663</ele><time>2026-03-24T14:38:18.999Z</time></trkpt><trkpt lat="42.18882124507372" lon="11.910642301190384"><ele>411.0</ele><time>2026-03-24T14:38:19.999Z</time></trkpt><trkpt lat="42.18881334195119" lon="11.910523132548295"><ele>411.33333333333337</ele><time>2026-03-24T14:38:20.999Z</time></trkpt><trkpt lat="42.18880798982228" lon="11.910405447537746"><ele>411.6666666666667</ele><time>2026-03-24T14:38:21.999Z</time></trkpt><trkpt lat="42.18878559521933" lon="11.9102859022887"><ele>412.0</ele><time>2026-03-24T14:38:22.999Z</time></trkpt><trkpt lat="42.188750769681576" lon="11.910178845423815"><ele>412.0</ele><time>2026-03-24T14:38:23.999Z</time></trkpt><trkpt lat="42.188745582180566" lon="11.910078918407647"><ele>412.0</ele><time>2026-03-24T14:38:24.999Z</time></trkpt><trkpt lat="42.188747958669225" lon="11.909978378623602"><ele>412.0</ele><time>2026-03-24T14:38:25.999Z</time></trkpt><trkpt lat="42.18876726125024" lon="11.909838286655237"><ele>412.0</ele><time>2026-03-24T14:38:26.999Z</time></trkpt><trkpt lat="42.188809113737015" lon="11.90964444704246"><ele>412.0</ele><time>2026-03-24T14:38:27.999Z</time></trkpt><trkpt lat="42.18882221775017" lon="11.909486041641296"><ele>412.00000000000006</ele><time>2026-03-24T14:38:28.999Z</time></trkpt><trkpt lat="42.188840043902495" lon="11.909367327475415"><ele>412.0</ele><time>2026-03-24T14:38:29.999Z</time></trkpt><trkpt lat="42.18886068815437" lon="11.909259144366853"><ele>412.0</ele><time>2026-03-24T14:38:30.999Z</time></trkpt><trkpt lat="42.188888300840546" lon="11.909141622601444"><ele>412.0</ele><time>2026-03-24T14:38:32.001Z</time></trkpt><trkpt lat="42.1889220075431" lon="11.909034833483137"><ele>412.00000000000006</ele><time>2026-03-24T14:38:33.001Z</time></trkpt><trkpt lat="42.188976958216855" lon="11.908955382421775"><ele>412.0</ele><time>2026-03-24T14:38:34.001Z</time></trkpt><trkpt lat="42.189033281072994" lon="11.908867644601496"><ele>409.50000000000006</ele><time>2026-03-24T14:38:35.001Z</time></trkpt><trkpt lat="42.18909823546649" lon="11.908787137550116"><ele>407.0</ele><time>2026-03-24T14:38:36.001Z</time></trkpt><trkpt lat="42.18915087641648" lon="11.908713686139182"><ele>404.5</ele><time>2026-03-24T14:38:37.001Z</time></trkpt><trkpt lat="42.1891977585042" lon="11.908634550858908"><ele>402.0</ele><time>2026-03-24T14:38:38.001Z</time></trkpt><trkpt lat="42.18924318215746" lon="11.908554176871524"><ele>399.50000000000006</ele><time>2026-03-24T14:38:39.001Z</time></trkpt><trkpt lat="42.18928682028483" lon="11.90846046201782"><ele>397.0</ele><time>2026-03-24T14:38:40.001Z</time></trkpt><trkpt lat="42.18932444154348" lon="11.908359023088483"><ele>397.0</ele><time>2026-03-24T14:38:41.001Z</time></trkpt><trkpt lat="42.18935695982893" lon="11.90824555824764"><ele>397.0</ele><time>2026-03-24T14:38:42.001Z</time></trkpt><trkpt lat="42.18938533121918" lon="11.908117257075425"><ele>397.0</ele><time>2026-03-24T14:38:43.001Z</time></trkpt><trkpt lat="42.189412911200186" lon="11.907985081146453"><ele>397.0</ele><time>2026-03-24T14:38:44.001Z</time></trkpt><trkpt lat="42.18945767997226" lon="11.907856450985513"><ele>397.0</ele><time>2026-03-24T14:38:45.001Z</time></trkpt><trkpt lat="42.18949422750161" lon="11.907741133742743"><ele>397.00000000000006</ele><time>2026-03-24T14:38:46.001Z</time></trkpt><trkpt lat="42.1895302921116" lon="11.907641683515847"><ele>397.0</ele><time>2026-03-24T14:38:47.001Z</time></trkpt><trkpt lat="42.18956560327666" lon="11.907534920490246"><ele>397.0</ele><time>2026-03-24T14:38:48.001Z</time></trkpt><trkpt lat="42.18960288796896" lon="11.9074374896482"><ele>397.0</ele><time>2026-03-24T14:38:49.001Z</time></trkpt><trkpt lat="42.18963096021094" lon="11.90735366616288"><ele>397.00000000000006</ele><time>2026-03-24T14:38:50.001Z</time></trkpt><trkpt lat="42.18965281085647" lon="11.907264994791408"><ele>397.0</ele><time>2026-03-24T14:38:51.001Z</time></trkpt><trkpt lat="42.189661172310586" lon="11.907149176153906"><ele>399.20000000000005</ele><time>2026-03-24T14:38:52.001Z</time></trkpt><trkpt lat="42.18966475040084" lon="11.907025102712751"><ele>401.4</ele><time>2026-03-24T14:38:53Z</time></trkpt><trkpt lat="42.189676626309634" lon="11.906910070000992"><ele>403.6</ele><time>2026-03-24T14:38:54Z</time></trkpt><trkpt lat="42.189698487612326" lon="11.906793307630661"><ele>405.79999999999995</ele><time>2026-03-24T14:38:55Z</time></trkpt><trkpt lat="42.189732475128245" lon="11.90668800828799"><ele>408.0</ele><time>2026-03-24T14:38:56Z</time></trkpt><trkpt lat="42.18978112323639" lon="11.906572770714876"><ele>408.4</ele><time>2026-03-24T14:38:57Z</time></trkpt><trkpt lat="42.18982934234381" lon="11.906470477844495"><ele>408.79999999999995</ele><time>2026-03-24T14:38:58Z</time></trkpt><trkpt lat="42.189850498234804" lon="11.906355597550526"><ele>409.2</ele><time>2026-03-24T14:38:59Z</time></trkpt><trkpt lat="42.18985152625756" lon="11.90621471760766"><ele>409.6</ele><time>2026-03-24T14:39:00Z</time></trkpt><trkpt lat="42.189855877406" lon="11.906059810646909"><ele>410.0</ele><time>2026-03-24T14:39:01Z</time></trkpt><trkpt lat="42.189868302591066" lon="11.905907193739724"><ele>402.49999999999994</ele><time>2026-03-24T14:39:02Z</time></trkpt><trkpt lat="42.18989111228101" lon="11.9057681289212"><ele>395.0</ele><time>2026-03-24T14:39:03Z</time></trkpt><trkpt lat="42.18991125064596" lon="11.905646468842056"><ele>387.5</ele><time>2026-03-24T14:39:04Z</time></trkpt><trkpt lat="42.18993256477704" lon="11.905533639583949"><ele>380.0</ele><time>2026-03-24T14:39:05Z</time></trkpt><trkpt lat="42.18995953454461" lon="11.90543043242757"><ele>372.5</ele><time>2026-03-24T14:39:06Z</time></trkpt><trkpt lat="42.18998444390749" lon="11.905333665384248"><ele>365.0</ele><time>2026-03-24T14:39:07Z</time></trkpt><trkpt lat="42.19001659311195" lon="11.905234749960435"><ele>365.0</ele><time>2026-03-24T14:39:08Z</time></trkpt><trkpt lat="42.19006865693474" lon="11.905135621575312"><ele>365.0</ele><time>2026-03-24T14:39:09Z</time></trkpt><trkpt lat="42.190144729452854" lon="11.905036427624056"><ele>365.0</ele><time>2026-03-24T14:39:10Z</time></trkpt><trkpt lat="42.19022808353741" lon="11.904952459640535"><ele>365.0</ele><time>2026-03-24T14:39:11Z</time></trkpt><trkpt lat="42.19029072399988" lon="11.904879442922187"><ele>365.0</ele><time>2026-03-24T14:39:12Z</time></trkpt><trkpt lat="42.19033229819148" lon="11.904793850668925"><ele>365.33333333333337</ele><time>2026-03-24T14:39:13Z</time></trkpt><trkpt lat="42.19036128660899" lon="11.904696431780554"><ele>365.6666666666667</ele><time>2026-03-24T14:39:14Z</time></trkpt><trkpt lat="42.190385357912554" lon="11.904601986274077"><ele>366.0</ele><time>2026-03-24T14:39:15Z</time></trkpt><trkpt lat="42.19040228625158" lon="11.904509675678423"><ele>366.3333333333333</ele><time>2026-03-24T14:39:15.999Z</time></trkpt><trkpt lat="42.19041420840708" lon="11.904424500258896"><ele>366.66666666666663</ele><time>2026-03-24T14:39:16.999Z</time></trkpt><trkpt lat="42.190420724504314" lon="11.90433733812137"><ele>367.0</ele><time>2026-03-24T14:39:17.999Z</time></trkpt><trkpt lat="42.19042890273129" lon="11.90417824793736"><ele>367.0</ele><time>2026-03-24T14:39:19.999Z</time></trkpt><trkpt lat="42.19045416361251" lon="11.904054238170104"><ele>367.0</ele><time>2026-03-24T14:39:21.999Z</time></trkpt><trkpt lat="42.1904321709226" lon="11.903964716586346"><ele>367.0</ele><time>2026-03-24T14:40:42Z</time></trkpt><trkpt lat="42.1904421812383" lon="11.904113091442493"><ele>367.0</ele><time>2026-03-24T14:40:48Z</time></trkpt><trkpt lat="42.19043072741147" lon="11.904217789083791"><ele>367.0</ele><time>2026-03-24T14:40:49Z</time></trkpt><trkpt lat="42.190409362283546" lon="11.904318990363373"><ele>367.0</ele><time>2026-03-24T14:40:50Z</time></trkpt><trkpt lat="42.19038975114011" lon="11.904422903297041"><ele>367.0</ele><time>2026-03-24T14:40:51Z</time></trkpt><trkpt lat="42.19036611868145" lon="11.90452712049824"><ele>367.0</ele><time>2026-03-24T14:40:52Z</time></trkpt><trkpt lat="42.190349558074814" lon="11.904621653353669"><ele>367.0</ele><time>2026-03-24T14:40:53Z</time></trkpt><trkpt lat="42.19030596513021" lon="11.904708392392337"><ele>367.0</ele><time>2026-03-24T14:40:54Z</time></trkpt><trkpt lat="42.190263022006235" lon="11.904799192319672"><ele>367.0</ele><time>2026-03-24T14:40:55Z</time></trkpt><trkpt lat="42.190211525144136" lon="11.904886448519745"><ele>367.0</ele><time>2026-03-24T14:40:56Z</time></trkpt><trkpt lat="42.190145921031636" lon="11.90496295918483"><ele>367.0</ele><time>2026-03-24T14:40:57Z</time></trkpt><trkpt lat="42.19004806892028" lon="11.905068986795486"><ele>367.0</ele><time>2026-03-24T14:40:58Z</time></trkpt><trkpt lat="42.18997214420848" lon="11.905172269684321"><ele>367.0</ele><time>2026-03-24T14:40:59Z</time></trkpt><trkpt lat="42.18993896891759" lon="11.905298855249736"><ele>367.0</ele><time>2026-03-24T14:41:00Z</time></trkpt><trkpt lat="42.18992444081605" lon="11.90542327080729"><ele>367.0</ele><time>2026-03-24T14:41:01Z</time></trkpt><trkpt lat="42.189913351909844" lon="11.905553712773635"><ele>366.5</ele><time>2026-03-24T14:41:02Z</time></trkpt><trkpt lat="42.189872875051336" lon="11.905711794205935"><ele>366.0</ele><time>2026-03-24T14:41:03Z</time></trkpt><trkpt lat="42.18984178048861" lon="11.905900023681962"><ele>365.5</ele><time>2026-03-24T14:41:04Z</time></trkpt><trkpt lat="42.189819333854224" lon="11.906114050989482"><ele>365.0</ele><time>2026-03-24T14:41:04.999Z</time></trkpt><trkpt lat="42.18980576749157" lon="11.906269354364737"><ele>373.6</ele><time>2026-03-24T14:41:05.999Z</time></trkpt><trkpt lat="42.18979629152133" lon="11.906377832366816"><ele>382.2</ele><time>2026-03-24T14:41:06.999Z</time></trkpt><trkpt lat="42.18978069248138" lon="11.906478688619348"><ele>390.79999999999995</ele><time>2026-03-24T14:41:07.999Z</time></trkpt><trkpt lat="42.18974971830062" lon="11.906575452017861"><ele>399.4</ele><time>2026-03-24T14:41:08.999Z</time></trkpt><trkpt lat="42.189697699016136" lon="11.906689177407738"><ele>408.0</ele><time>2026-03-24T14:41:09.999Z</time></trkpt><trkpt lat="42.18964957802415" lon="11.906843962581242"><ele>408.0</ele><time>2026-03-24T14:41:10.999Z</time></trkpt><trkpt lat="42.1896444246539" lon="11.907022677339013"><ele>408.0</ele><time>2026-03-24T14:41:11.999Z</time></trkpt><trkpt lat="42.18963983571377" lon="11.907182309048293"><ele>408.0</ele><time>2026-03-24T14:41:12.999Z</time></trkpt><trkpt lat="42.18961621757201" lon="11.90728767483111"><ele>408.0</ele><time>2026-03-24T14:41:13.999Z</time></trkpt><trkpt lat="42.18959145375263" lon="11.907370040728956"><ele>408.0</ele><time>2026-03-24T14:41:14.999Z</time></trkpt><trkpt lat="42.189546193170834" lon="11.907481808434218"><ele>404.33333333333337</ele><time>2026-03-24T14:41:15.999Z</time></trkpt><trkpt lat="42.18948047765091" lon="11.907664643923486"><ele>400.6666666666667</ele><time>2026-03-24T14:41:16.999Z</time></trkpt><trkpt lat="42.18940754310614" lon="11.907889257850877"><ele>397.0</ele><time>2026-03-24T14:41:17.999Z</time></trkpt><trkpt lat="42.189362006676085" lon="11.908063601395853"><ele>397.00000000000006</ele><time>2026-03-24T14:41:18.999Z</time></trkpt><trkpt lat="42.18933560465171" lon="11.908172519310387"><ele>397.0</ele><time>2026-03-24T14:41:19.999Z</time></trkpt><trkpt lat="42.18930940298705" lon="11.908270684960812"><ele>397.0</ele><time>2026-03-24T14:41:20.999Z</time></trkpt><trkpt lat="42.18927227584856" lon="11.908376380700325"><ele>397.0</ele><time>2026-03-24T14:41:21.999Z</time></trkpt><trkpt lat="42.18922223492779" lon="11.908477985247558"><ele>397.00000000000006</ele><time>2026-03-24T14:41:22.999Z</time></trkpt><trkpt lat="42.189158447188625" lon="11.908586987263543"><ele>397.0</ele><time>2026-03-24T14:41:23.999Z</time></trkpt><trkpt lat="42.18907290993125" lon="11.908716860732122"><ele>401.75</ele><time>2026-03-24T14:41:24.999Z</time></trkpt><trkpt lat="42.189002198851036" lon="11.908827345311634"><ele>406.5</ele><time>2026-03-24T14:41:25.999Z</time></trkpt><trkpt lat="42.18893873935567" lon="11.908930534330834"><ele>411.25</ele><time>2026-03-24T14:41:26.999Z</time></trkpt><trkpt lat="42.188874897945006" lon="11.909064646060743"><ele>416.0</ele><time>2026-03-24T14:41:27.999Z</time></trkpt><trkpt lat="42.18882401791342" lon="11.909230700055929"><ele>415.0</ele><time>2026-03-24T14:41:28.999Z</time></trkpt><trkpt lat="42.188810586411584" lon="11.909361887440689"><ele>414.0</ele><time>2026-03-24T14:41:29.999Z</time></trkpt><trkpt lat="42.18878751131086" lon="11.90951813368059"><ele>413.0</ele><time>2026-03-24T14:41:30.999Z</time></trkpt><trkpt lat="42.188764518817884" lon="11.909703034896037"><ele>412.0</ele><time>2026-03-24T14:41:31.999Z</time></trkpt><trkpt lat="42.18873463302333" lon="11.909902086144415"><ele>412.0</ele><time>2026-03-24T14:41:32.999Z</time></trkpt><trkpt lat="42.18871826335613" lon="11.910044738538048"><ele>412.0</ele><time>2026-03-24T14:41:33.999Z</time></trkpt><trkpt lat="42.18870819067813" lon="11.91015141960881"><ele>412.0</ele><time>2026-03-24T14:41:34.999Z</time></trkpt><trkpt lat="42.18872329334126" lon="11.910279642282038"><ele>412.0</ele><time>2026-03-24T14:41:35.999Z</time></trkpt><trkpt lat="42.18876390434474" lon="11.910442393231369"><ele>412.0</ele><time>2026-03-24T14:41:36.999Z</time></trkpt><trkpt lat="42.188781861387206" lon="11.91058508216546"><ele>412.0</ele><time>2026-03-24T14:41:37.999Z</time></trkpt><trkpt lat="42.18878627349491" lon="11.910696441984799"><ele>412.0</ele><time>2026-03-24T14:41:38.999Z</time></trkpt><trkpt lat="42.18876657548361" lon="11.910819774024878"><ele>412.0</ele><time>2026-03-24T14:41:39.999Z</time></trkpt><trkpt lat="42.1887347399448" lon="11.91095480742758"><ele>412.0</ele><time>2026-03-24T14:41:40.999Z</time></trkpt><trkpt lat="42.188679977161975" lon="11.91109551044466"><ele>412.0</ele><time>2026-03-24T14:41:41.999Z</time></trkpt><trkpt lat="42.18861882245006" lon="11.911234381965272"><ele>411.6</ele><time>2026-03-24T14:41:42.999Z</time></trkpt><trkpt lat="42.18858589636402" lon="11.911394007102933"><ele>411.20000000000005</ele><time>2026-03-24T14:41:43.999Z</time></trkpt><trkpt lat="42.18857597459175" lon="11.911518540090716"><ele>410.8</ele><time>2026-03-24T14:41:44.999Z</time></trkpt><trkpt lat="42.18857537033863" lon="11.911638406957584"><ele>410.4</ele><time>2026-03-24T14:41:45.999Z</time></trkpt><trkpt lat="42.18859613467044" lon="11.911779197902312"><ele>410.0</ele><time>2026-03-24T14:41:46.999Z</time></trkpt><trkpt lat="42.18863021865618" lon="11.911918226641886"><ele>409.8</ele><time>2026-03-24T14:41:47.999Z</time></trkpt><trkpt lat="42.18865950522288" lon="11.912056096726213"><ele>409.6</ele><time>2026-03-24T14:41:48.999Z</time></trkpt><trkpt lat="42.188665523558285" lon="11.912162659197051"><ele>409.4</ele><time>2026-03-24T14:41:49.999Z</time></trkpt><trkpt lat="42.18864760393811" lon="11.91227929515101"><ele>409.2</ele><time>2026-03-24T14:41:50.999Z</time></trkpt><trkpt lat="42.18861712495168" lon="11.912392247013415"><ele>409.0</ele><time>2026-03-24T14:41:51.999Z</time></trkpt><trkpt lat="42.18856049228803" lon="11.912495870313114"><ele>406.79999999999995</ele><time>2026-03-24T14:41:52.999Z</time></trkpt><trkpt lat="42.188492794093946" lon="11.912600227139702"><ele>404.59999999999997</ele><time>2026-03-24T14:41:53.999Z</time></trkpt><trkpt lat="42.18840679686227" lon="11.912700557790085"><ele>402.4</ele><time>2026-03-24T14:41:54.999Z</time></trkpt><trkpt lat="42.188315173817614" lon="11.912782075231867"><ele>400.2</ele><time>2026-03-24T14:41:55.999Z</time></trkpt><trkpt lat="42.18821890437034" lon="11.912859180179469"><ele>398.0</ele><time>2026-03-24T14:41:56.999Z</time></trkpt><trkpt lat="42.18810991221801" lon="11.912939358533974"><ele>404.75</ele><time>2026-03-24T14:41:57.999Z</time></trkpt><trkpt lat="42.1879837460009" lon="11.913025670446912"><ele>411.5</ele><time>2026-03-24T14:41:58.999Z</time></trkpt><trkpt lat="42.18785755302635" lon="11.913099285356617"><ele>418.25</ele><time>2026-03-24T14:41:59.999Z</time></trkpt><trkpt lat="42.18776317017035" lon="11.913149363294107"><ele>425.0</ele><time>2026-03-24T14:42:00.999Z</time></trkpt><trkpt lat="42.18770094829977" lon="11.913194903310776"><ele>425.0</ele><time>2026-03-24T14:42:01.999Z</time></trkpt><trkpt lat="42.18764053438332" lon="11.913257821873538"><ele>425.0</ele><time>2026-03-24T14:42:02.999Z</time></trkpt><trkpt lat="42.18757893226633" lon="11.913355328971507"><ele>425.0</ele><time>2026-03-24T14:42:03.999Z</time></trkpt><trkpt lat="42.18752197555237" lon="11.913475012498356"><ele>425.0</ele><time>2026-03-24T14:42:04.999Z</time></trkpt><trkpt lat="42.187491384787684" lon="11.913617181849357"><ele>425.0</ele><time>2026-03-24T14:42:05.999Z</time></trkpt><trkpt lat="42.18747754684165" lon="11.913765538208388"><ele>425.0</ele><time>2026-03-24T14:42:06.999Z</time></trkpt><trkpt lat="42.18747532104414" lon="11.913909945208253"><ele>425.0</ele><time>2026-03-24T14:42:07.999Z</time></trkpt><trkpt lat="42.18749015999507" lon="11.914040124146766"><ele>425.0</ele><time>2026-03-24T14:42:08.998Z</time></trkpt><trkpt lat="42.187508951247665" lon="11.914170513602103"><ele>425.0</ele><time>2026-03-24T14:42:09.998Z</time></trkpt><trkpt lat="42.1875631719366" lon="11.914324870366618"><ele>425.0</ele><time>2026-03-24T14:42:10.998Z</time></trkpt><trkpt lat="42.18766147982701" lon="11.914477883090186"><ele>425.0</ele><time>2026-03-24T14:42:11.998Z</time></trkpt><trkpt lat="42.18772647157684" lon="11.914616605289769"><ele>425.0</ele><time>2026-03-24T14:42:12.998Z</time></trkpt><trkpt lat="42.187753555642296" lon="11.914737605122982"><ele>425.0</ele><time>2026-03-24T14:42:13.998Z</time></trkpt><trkpt lat="42.18777064690626" lon="11.914836548333424"><ele>425.0</ele><time>2026-03-24T14:42:14.998Z</time></trkpt><trkpt lat="42.187809857305226" lon="11.914953799435159"><ele>425.0</ele><time>2026-03-24T14:42:15.998Z</time></trkpt><trkpt lat="42.18782660373197" lon="11.915098510197533"><ele>424.16666666666663</ele><time>2026-03-24T14:42:16.998Z</time></trkpt><trkpt lat="42.187848766804386" lon="11.91523702413098"><ele>423.3333333333333</ele><time>2026-03-24T14:42:17.998Z</time></trkpt><trkpt lat="42.18786538239908" lon="11.915352496477063"><ele>422.5</ele><time>2026-03-24T14:42:18.998Z</time></trkpt><trkpt lat="42.18784993945543" lon="11.915442084821066"><ele>421.66666666666663</ele><time>2026-03-24T14:42:19.998Z</time></trkpt><trkpt lat="42.18780986665532" lon="11.91556064363439"><ele>420.8333333333333</ele><time>2026-03-24T14:42:21.998Z</time></trkpt><trkpt lat="42.18775713427927" lon="11.915612657711561"><ele>420.0</ele><time>2026-03-24T14:42:22.998Z</time></trkpt><trkpt lat="42.18768067419067" lon="11.915668665538062"><ele>420.0</ele><time>2026-03-24T14:42:23.998Z</time></trkpt><trkpt lat="42.187572361550515" lon="11.91572928486346"><ele>420.0</ele><time>2026-03-24T14:42:24.998Z</time></trkpt><trkpt lat="42.18744862058939" lon="11.915788344688735"><ele>420.0</ele><time>2026-03-24T14:42:25.998Z</time></trkpt><trkpt lat="42.18729647357639" lon="11.915860652794919"><ele>420.0</ele><time>2026-03-24T14:42:26.998Z</time></trkpt><trkpt lat="42.18713418243519" lon="11.915940969017083"><ele>418.75</ele><time>2026-03-24T14:42:27.998Z</time></trkpt><trkpt lat="42.18700569220744" lon="11.916013286992506"><ele>417.5</ele><time>2026-03-24T14:42:28.998Z</time></trkpt><trkpt lat="42.18688115036149" lon="11.916090104861341"><ele>416.25</ele><time>2026-03-24T14:42:29.998Z</time></trkpt><trkpt lat="42.18676244928054" lon="11.916165956112481"><ele>415.0</ele><time>2026-03-24T14:42:30.998Z</time></trkpt><trkpt lat="42.18665489568926" lon="11.916235699156381"><ele>415.0</ele><time>2026-03-24T14:42:31.998Z</time></trkpt><trkpt lat="42.18655454719935" lon="11.91630260590057"><ele>415.0</ele><time>2026-03-24T14:42:32.998Z</time></trkpt><trkpt lat="42.186460373356724" lon="11.916370006318296"><ele>415.0</ele><time>2026-03-24T14:42:33.998Z</time></trkpt><trkpt lat="42.186373557712386" lon="11.916432136217363"><ele>415.0</ele><time>2026-03-24T14:42:34.998Z</time></trkpt><trkpt lat="42.18628794141136" lon="11.916503974173601"><ele>415.0</ele><time>2026-03-24T14:42:35.998Z</time></trkpt><trkpt lat="42.18620520943149" lon="11.916581572597147"><ele>414.6</ele><time>2026-03-24T14:42:36.998Z</time></trkpt><trkpt lat="42.186121972043445" lon="11.916683640095018"><ele>414.2</ele><time>2026-03-24T14:42:37.998Z</time></trkpt><trkpt lat="42.18605418497019" lon="11.916771788360897"><ele>413.79999999999995</ele><time>2026-03-24T14:42:38.998Z</time></trkpt><trkpt lat="42.18598543977641" lon="11.916863383221042"><ele>413.4</ele><time>2026-03-24T14:42:39.998Z</time></trkpt><trkpt lat="42.18591966160755" lon="11.916957467981018"><ele>413.0</ele><time>2026-03-24T14:42:40.998Z</time></trkpt><trkpt lat="42.18584046878025" lon="11.917078396058644"><ele>413.0</ele><time>2026-03-24T14:42:41.998Z</time></trkpt><trkpt lat="42.185756001012166" lon="11.917208406341514"><ele>413.0</ele><time>2026-03-24T14:42:43Z</time></trkpt><trkpt lat="42.185663138195636" lon="11.9173529305897"><ele>413.0</ele><time>2026-03-24T14:42:44Z</time></trkpt><trkpt lat="42.18558797727012" lon="11.91749614078613"><ele>413.0</ele><time>2026-03-24T14:42:45Z</time></trkpt><trkpt lat="42.18551711357184" lon="11.91761346392193"><ele>414.0</ele><time>2026-03-24T14:42:46Z</time></trkpt><trkpt lat="42.185453605252455" lon="11.917709703783947"><ele>415.0</ele><time>2026-03-24T14:42:47Z</time></trkpt><trkpt lat="42.185399658958154" lon="11.917809595674646"><ele>416.0</ele><time>2026-03-24T14:42:48Z</time></trkpt><trkpt lat="42.18534670181264" lon="11.917913219615244"><ele>417.0</ele><time>2026-03-24T14:42:49Z</time></trkpt><trkpt lat="42.18529444142356" lon="11.918018265668373"><ele>418.0</ele><time>2026-03-24T14:42:50Z</time></trkpt><trkpt lat="42.18525073744405" lon="11.918114539765142"><ele>418.00000000000006</ele><time>2026-03-24T14:42:51Z</time></trkpt><trkpt lat="42.18519670360889" lon="11.91820165167106"><ele>418.0</ele><time>2026-03-24T14:42:52Z</time></trkpt><trkpt lat="42.18514558314399" lon="11.918259232674242"><ele>418.0</ele><time>2026-03-24T14:42:53Z</time></trkpt><trkpt lat="42.18508362704802" lon="11.9182913617256"><ele>418.0</ele><time>2026-03-24T14:42:54Z</time></trkpt><trkpt lat="42.18501310260402" lon="11.918283442101957"><ele>418.00000000000006</ele><time>2026-03-24T14:42:55Z</time></trkpt><trkpt lat="42.18494327517946" lon="11.918223766249671"><ele>418.0</ele><time>2026-03-24T14:42:56Z</time></trkpt><trkpt lat="42.1848438897589" lon="11.918169497495434"><ele>419.75</ele><time>2026-03-24T14:42:57Z</time></trkpt><trkpt lat="42.18472492339919" lon="11.918122206083853"><ele>421.5</ele><time>2026-03-24T14:42:58Z</time></trkpt><trkpt lat="42.18458892827512" lon="11.918098236712936"><ele>423.25</ele><time>2026-03-24T14:42:59Z</time></trkpt><trkpt lat="42.18443569741812" lon="11.918081923517374"><ele>425.0</ele><time>2026-03-24T14:43:00Z</time></trkpt><trkpt lat="42.18427977567033" lon="11.918059251241496"><ele>425.0</ele><time>2026-03-24T14:43:01Z</time></trkpt><trkpt lat="42.184150287289086" lon="11.918036286454088"><ele>425.0</ele><time>2026-03-24T14:43:02Z</time></trkpt><trkpt lat="42.18403827829333" lon="11.918027006665884"><ele>425.0</ele><time>2026-03-24T14:43:03Z</time></trkpt><trkpt lat="42.18390308206719" lon="11.918039770585985"><ele>425.0</ele><time>2026-03-24T14:43:04Z</time></trkpt><trkpt lat="42.18377717722448" lon="11.918043724621983"><ele>427.5</ele><time>2026-03-24T14:43:05Z</time></trkpt><trkpt lat="42.18365590751529" lon="11.918069387541445"><ele>430.0</ele><time>2026-03-24T14:43:06Z</time></trkpt><trkpt lat="42.18354963362745" lon="11.91809469901728"><ele>432.5</ele><time>2026-03-24T14:43:07Z</time></trkpt><trkpt lat="42.18345065442252" lon="11.9181357023745"><ele>435.0</ele><time>2026-03-24T14:43:08Z</time></trkpt><trkpt lat="42.183336684956295" lon="11.918193145169004"><ele>435.0</ele><time>2026-03-24T14:43:09Z</time></trkpt><trkpt lat="42.18321535574403" lon="11.918269819662223"><ele>435.0</ele><time>2026-03-24T14:43:10Z</time></trkpt><trkpt lat="42.18310242083242" lon="11.918335805819632"><ele>435.0</ele><time>2026-03-24T14:43:11Z</time></trkpt><trkpt lat="42.182999496952725" lon="11.918383827499616"><ele>435.0</ele><time>2026-03-24T14:43:12Z</time></trkpt><trkpt lat="42.18290725625357" lon="11.91838431177521"><ele>437.4</ele><time>2026-03-24T14:43:12.999Z</time></trkpt><trkpt lat="42.18279354708927" lon="11.918373051741165"><ele>439.8</ele><time>2026-03-24T14:43:14.999Z</time></trkpt><trkpt lat="42.182724316431155" lon="11.918366633416113"><ele>442.20000000000005</ele><time>2026-03-24T14:43:15.999Z</time></trkpt><trkpt lat="42.18265404211118" lon="11.918298962471455"><ele>444.6</ele><time>2026-03-24T14:43:16.999Z</time></trkpt><trkpt lat="42.182589817023974" lon="11.918205609520909"><ele>447.0</ele><time>2026-03-24T14:43:17.999Z</time></trkpt><trkpt lat="42.18254421121895" lon="11.918087076095304"><ele>447.0</ele><time>2026-03-24T14:43:18.999Z</time></trkpt><trkpt lat="42.18246888321297" lon="11.918038070831292"><ele>447.00000000000006</ele><time>2026-03-24T14:43:19.999Z</time></trkpt><trkpt lat="42.18240516649311" lon="11.917981238532958"><ele>447.00000000000006</ele><time>2026-03-24T14:43:20.999Z</time></trkpt><trkpt lat="42.18230432908488" lon="11.918022563608508"><ele>447.0</ele><time>2026-03-24T14:43:21.999Z</time></trkpt><trkpt lat="42.18221150152902" lon="11.918089786616024"><ele>447.0</ele><time>2026-03-24T14:43:22.999Z</time></trkpt><trkpt lat="42.1821101645779" lon="11.91814761409777"><ele>448.0</ele><time>2026-03-24T14:43:23.999Z</time></trkpt><trkpt lat="42.1819957850876" lon="11.918244012852291"><ele>449.0</ele><time>2026-03-24T14:43:24.999Z</time></trkpt><trkpt lat="42.181887086336" lon="11.918313648767207"><ele>450.0</ele><time>2026-03-24T14:43:25.999Z</time></trkpt><trkpt lat="42.18178285845427" lon="11.918377582572415"><ele>451.0</ele><time>2026-03-24T14:43:26.999Z</time></trkpt><trkpt lat="42.181692602477014" lon="11.918435730171426"><ele>451.00000000000006</ele><time>2026-03-24T14:43:27.999Z</time></trkpt><trkpt lat="42.18161555651023" lon="11.91845921903001"><ele>451.0</ele><time>2026-03-24T14:43:28.999Z</time></trkpt><trkpt lat="42.181548737624226" lon="11.91848612133377"><ele>451.0</ele><time>2026-03-24T14:43:29.999Z</time></trkpt><trkpt lat="42.18148098871641" lon="11.918504959189185"><ele>451.0</ele><time>2026-03-24T14:43:30.999Z</time></trkpt><trkpt lat="42.18139806137916" lon="11.918509446578852"><ele>451.00000000000006</ele><time>2026-03-24T14:43:31.999Z</time></trkpt><trkpt lat="42.18129229970859" lon="11.918499316255016"><ele>451.0</ele><time>2026-03-24T14:43:32.999Z</time></trkpt><trkpt lat="42.18116493086559" lon="11.918482501112353"><ele>448.75</ele><time>2026-03-24T14:43:33.999Z</time></trkpt><trkpt lat="42.18103824350533" lon="11.91846473328828"><ele>446.5</ele><time>2026-03-24T14:43:34.999Z</time></trkpt><trkpt lat="42.18091182890031" lon="11.918447003720726"><ele>444.25</ele><time>2026-03-24T14:43:35.999Z</time></trkpt><trkpt lat="42.18080005002492" lon="11.918431326806084"><ele>442.0</ele><time>2026-03-24T14:43:36.999Z</time></trkpt><trkpt lat="42.180703695910594" lon="11.918416997628045"><ele>441.75</ele><time>2026-03-24T14:43:37.999Z</time></trkpt><trkpt lat="42.18059910459936" lon="11.918393560358602"><ele>441.5</ele><time>2026-03-24T14:43:38.999Z</time></trkpt><trkpt lat="42.18048753296849" lon="11.918364619601864"><ele>441.25</ele><time>2026-03-24T14:43:39.999Z</time></trkpt><trkpt lat="42.18037076429203" lon="11.918326479186817"><ele>441.0</ele><time>2026-03-24T14:43:40.999Z</time></trkpt><trkpt lat="42.18025356586978" lon="11.918279374074373"><ele>441.0</ele><time>2026-03-24T14:43:41.999Z</time></trkpt><trkpt lat="42.18014191253344" lon="11.918233962622056"><ele>441.0</ele><time>2026-03-24T14:43:42.999Z</time></trkpt><trkpt lat="42.18002638229219" lon="11.918185512621427"><ele>441.0</ele><time>2026-03-24T14:43:43.999Z</time></trkpt><trkpt lat="42.17989680640483" lon="11.918135026799586"><ele>441.0</ele><time>2026-03-24T14:43:44.999Z</time></trkpt><trkpt lat="42.17974689488162" lon="11.918087827506923"><ele>440.75</ele><time>2026-03-24T14:43:45.999Z</time></trkpt><trkpt lat="42.17959705289451" lon="11.918045577693503"><ele>440.5</ele><time>2026-03-24T14:43:46.999Z</time></trkpt><trkpt lat="42.17946888745125" lon="11.918015903847037"><ele>440.25</ele><time>2026-03-24T14:43:47.999Z</time></trkpt><trkpt lat="42.17936349045359" lon="11.91799460729194"><ele>440.0</ele><time>2026-03-24T14:43:48.999Z</time></trkpt><trkpt lat="42.17927144928113" lon="11.917993608709105"><ele>440.0</ele><time>2026-03-24T14:43:49.999Z</time></trkpt><trkpt lat="42.17919513847752" lon="11.91808907084175"><ele>440.0</ele><time>2026-03-24T14:43:50.999Z</time></trkpt><trkpt lat="42.179112905341135" lon="11.918160528691082"><ele>440.0</ele><time>2026-03-24T14:43:51.999Z</time></trkpt><trkpt lat="42.17903639188827" lon="11.918249089220925"><ele>440.0</ele><time>2026-03-24T14:43:52.999Z</time></trkpt><trkpt lat="42.1789557699211" lon="11.918358847618274"><ele>440.0</ele><time>2026-03-24T14:43:53.999Z</time></trkpt><trkpt lat="42.178863349181725" lon="11.918479706311441"><ele>441.25</ele><time>2026-03-24T14:43:54.999Z</time></trkpt><trkpt lat="42.17876163652157" lon="11.918598988115253"><ele>442.5</ele><time>2026-03-24T14:43:55.999Z</time></trkpt><trkpt lat="42.178661543600484" lon="11.9187193848248"><ele>443.75</ele><time>2026-03-24T14:43:56.999Z</time></trkpt><trkpt lat="42.178571987578934" lon="11.918827493759066"><ele>445.0</ele><time>2026-03-24T14:43:57.999Z</time></trkpt><trkpt lat="42.17849403796501" lon="11.918912477920395"><ele>445.0</ele><time>2026-03-24T14:43:58.999Z</time></trkpt><trkpt lat="42.178404503801616" lon="11.918987057185424"><ele>445.0</ele><time>2026-03-24T14:43:59.999Z</time></trkpt><trkpt lat="42.178289636318254" lon="11.919023716727633"><ele>445.0</ele><time>2026-03-24T14:44:00.999Z</time></trkpt><trkpt lat="42.17817176667545" lon="11.919084194123291"><ele>445.0</ele><time>2026-03-24T14:44:01.999Z</time></trkpt><trkpt lat="42.178055993823556" lon="11.919176446087762"><ele>444.5</ele><time>2026-03-24T14:44:02.999Z</time></trkpt><trkpt lat="42.177945879622726" lon="11.91925929792224"><ele>444.0</ele><time>2026-03-24T14:44:03.999Z</time></trkpt><trkpt lat="42.17783419516616" lon="11.919308573024574"><ele>443.5</ele><time>2026-03-24T14:44:04.999Z</time></trkpt><trkpt lat="42.177724418695114" lon="11.91938022879969"><ele>443.0</ele><time>2026-03-24T14:44:05.999Z</time></trkpt><trkpt lat="42.177617497570495" lon="11.91944157355876"><ele>443.0</ele><time>2026-03-24T14:44:06.999Z</time></trkpt><trkpt lat="42.17750898517387" lon="11.919496310012901"><ele>443.0</ele><time>2026-03-24T14:44:07.999Z</time></trkpt><trkpt lat="42.17739337526838" lon="11.919560117527682"><ele>443.0</ele><time>2026-03-24T14:44:08.999Z</time></trkpt><trkpt lat="42.177283642072624" lon="11.919659108021282"><ele>443.0</ele><time>2026-03-24T14:44:09.999Z</time></trkpt><trkpt lat="42.177166369613495" lon="11.919736971573435"><ele>443.5</ele><time>2026-03-24T14:44:10.999Z</time></trkpt><trkpt lat="42.17706035001849" lon="11.919827205883658"><ele>444.0</ele><time>2026-03-24T14:44:11.999Z</time></trkpt><trkpt lat="42.17696330161009" lon="11.919915210340127"><ele>444.5</ele><time>2026-03-24T14:44:12.999Z</time></trkpt><trkpt lat="42.17686704416398" lon="11.920008784652612"><ele>445.0</ele><time>2026-03-24T14:44:13.998Z</time></trkpt><trkpt lat="42.17678151251379" lon="11.92008775311978"><ele>444.2</ele><time>2026-03-24T14:44:14.998Z</time></trkpt><trkpt lat="42.17670544207677" lon="11.920169983484605"><ele>443.4</ele><time>2026-03-24T14:44:15.998Z</time></trkpt><trkpt lat="42.17660162009784" lon="11.920230818501961"><ele>442.6</ele><time>2026-03-24T14:44:16.998Z</time></trkpt><trkpt lat="42.17649966092203" lon="11.920301593563302"><ele>441.8</ele><time>2026-03-24T14:44:17.998Z</time></trkpt><trkpt lat="42.17639610831043" lon="11.920369727981633"><ele>441.0</ele><time>2026-03-24T14:44:18.998Z</time></trkpt><trkpt lat="42.1762949220912" lon="11.920424855728573"><ele>441.0</ele><time>2026-03-24T14:44:19.998Z</time></trkpt><trkpt lat="42.17618928680998" lon="11.920470709764372"><ele>441.0</ele><time>2026-03-24T14:44:20.998Z</time></trkpt><trkpt lat="42.17607249476891" lon="11.920521232566365"><ele>441.0</ele><time>2026-03-24T14:44:21.998Z</time></trkpt><trkpt lat="42.17596883891652" lon="11.920599727441333"><ele>441.0</ele><time>2026-03-24T14:44:22.998Z</time></trkpt><trkpt lat="42.17587396051158" lon="11.920682254709455"><ele>441.0</ele><time>2026-03-24T14:44:23.998Z</time></trkpt><trkpt lat="42.17577671548689" lon="11.920791964939221"><ele>441.0</ele><time>2026-03-24T14:44:24.998Z</time></trkpt><trkpt lat="42.17569299165988" lon="11.920902534166292"><ele>441.0</ele><time>2026-03-24T14:44:25.998Z</time></trkpt><trkpt lat="42.17562405209606" lon="11.92100256208377"><ele>441.0</ele><time>2026-03-24T14:44:26.998Z</time></trkpt><trkpt lat="42.17555142318573" lon="11.921113274256813"><ele>440.25</ele><time>2026-03-24T14:44:27.998Z</time></trkpt><trkpt lat="42.17547566749767" lon="11.92121946879516"><ele>439.5</ele><time>2026-03-24T14:44:28.998Z</time></trkpt><trkpt lat="42.175393853307355" lon="11.921321047696006"><ele>438.75</ele><time>2026-03-24T14:44:29.998Z</time></trkpt><trkpt lat="42.17529981833343" lon="11.921421219656914"><ele>438.0</ele><time>2026-03-24T14:44:30.998Z</time></trkpt><trkpt lat="42.17519984642351" lon="11.921517184319637"><ele>438.0</ele><time>2026-03-24T14:44:31.998Z</time></trkpt><trkpt lat="42.17509890039778" lon="11.921612161019144"><ele>438.0</ele><time>2026-03-24T14:44:32.998Z</time></trkpt><trkpt lat="42.17501152007143" lon="11.921701869892951"><ele>438.0</ele><time>2026-03-24T14:44:33.998Z</time></trkpt><trkpt lat="42.17491926542551" lon="11.921796367878123"><ele>438.0</ele><time>2026-03-24T14:44:34.998Z</time></trkpt><trkpt lat="42.174819406095125" lon="11.921859423465708"><ele>436.75</ele><time>2026-03-24T14:44:35.998Z</time></trkpt><trkpt lat="42.17473175004942" lon="11.921933540875557"><ele>435.5</ele><time>2026-03-24T14:44:36.998Z</time></trkpt><trkpt lat="42.17462945171572" lon="11.922010322885058"><ele>434.25</ele><time>2026-03-24T14:44:37.998Z</time></trkpt><trkpt lat="42.17451289096742" lon="11.922081590035702"><ele>433.0</ele><time>2026-03-24T14:44:38.998Z</time></trkpt><trkpt lat="42.174382973795396" lon="11.922139319313876"><ele>433.0</ele><time>2026-03-24T14:44:39.998Z</time></trkpt><trkpt lat="42.1742585200887" lon="11.922188434505383"><ele>433.0</ele><time>2026-03-24T14:44:40.998Z</time></trkpt><trkpt lat="42.17414287466758" lon="11.922242388482472"><ele>433.0</ele><time>2026-03-24T14:44:41.998Z</time></trkpt><trkpt lat="42.17403900614222" lon="11.92232817064263"><ele>433.0</ele><time>2026-03-24T14:44:42.998Z</time></trkpt><trkpt lat="42.17393189030899" lon="11.92240661259901"><ele>433.0</ele><time>2026-03-24T14:44:43.998Z</time></trkpt><trkpt lat="42.17382493868974" lon="11.922496105901715"><ele>433.0</ele><time>2026-03-24T14:44:44.998Z</time></trkpt><trkpt lat="42.17371981609516" lon="11.922575311796965"><ele>433.0</ele><time>2026-03-24T14:44:45.998Z</time></trkpt><trkpt lat="42.17362069972082" lon="11.922649479608099"><ele>433.0</ele><time>2026-03-24T14:44:46.998Z</time></trkpt><trkpt lat="42.17353048078133" lon="11.922720863811474"><ele>433.0</ele><time>2026-03-24T14:44:48Z</time></trkpt><trkpt lat="42.173433690066105" lon="11.922796116429948"><ele>432.99999999999994</ele><time>2026-03-24T14:44:49Z</time></trkpt><trkpt lat="42.173332419783755" lon="11.922861274262639"><ele>432.99999999999994</ele><time>2026-03-24T14:44:50Z</time></trkpt><trkpt lat="42.173242497844996" lon="11.922934596483124"><ele>433.0</ele><time>2026-03-24T14:44:51Z</time></trkpt><trkpt lat="42.1731566783994" lon="11.922993795787544"><ele>433.0</ele><time>2026-03-24T14:44:52Z</time></trkpt><trkpt lat="42.173071988486114" lon="11.923056979824924"><ele>432.50000000000006</ele><time>2026-03-24T14:44:53Z</time></trkpt><trkpt lat="42.1729903126609" lon="11.923119253242495"><ele>432.0</ele><time>2026-03-24T14:44:54Z</time></trkpt><trkpt lat="42.1729057470468" lon="11.923154271014512"><ele>431.5</ele><time>2026-03-24T14:44:55Z</time></trkpt><trkpt lat="42.17283324642794" lon="11.923202485006117"><ele>431.0</ele><time>2026-03-24T14:44:56Z</time></trkpt><trkpt lat="42.17276549418139" lon="11.923247541364312"><ele>430.50000000000006</ele><time>2026-03-24T14:44:57Z</time></trkpt><trkpt lat="42.17270648078614" lon="11.923283879806911"><ele>430.0</ele><time>2026-03-24T14:44:58Z</time></trkpt><trkpt lat="42.172744145782325" lon="11.923484474276217"><ele>430.0</ele><time>2026-03-24T14:44:59Z</time></trkpt><trkpt lat="42.172710125916126" lon="11.923597857667827"><ele>430.0</ele><time>2026-03-24T14:45:01Z</time></trkpt><trkpt lat="42.17266579106963" lon="11.923703449767972"><ele>430.0</ele><time>2026-03-24T14:46:11.999Z</time></trkpt><trkpt lat="42.172670636794074" lon="11.923908703864656"><ele>430.0</ele><time>2026-03-24T14:46:13.999Z</time></trkpt><trkpt lat="42.17267873867158" lon="11.924023550305575"><ele>430.0</ele><time>2026-03-24T14:46:14.999Z</time></trkpt><trkpt lat="42.172712218036665" lon="11.924128845058098"><ele>430.00000000000006</ele><time>2026-03-24T14:46:15.999Z</time></trkpt><trkpt lat="42.17274699084749" lon="11.924210278223276"><ele>430.0</ele><time>2026-03-24T14:46:16.999Z</time></trkpt><trkpt lat="42.17278518835859" lon="11.924281903544312"><ele>430.0</ele><time>2026-03-24T14:46:17.999Z</time></trkpt><trkpt lat="42.17283690931832" lon="11.924369881070914"><ele>430.0</ele><time>2026-03-24T14:46:18.999Z</time></trkpt><trkpt lat="42.17289323422751" lon="11.92442466074483"><ele>430.00000000000006</ele><time>2026-03-24T14:46:19.999Z</time></trkpt><trkpt lat="42.17291527999009" lon="11.924522140998864"><ele>430.0</ele><time>2026-03-24T14:46:20.998Z</time></trkpt><trkpt lat="42.17299499274168" lon="11.92461482950894"><ele>430.00000000000006</ele><time>2026-03-24T14:46:21.998Z</time></trkpt><trkpt lat="42.17306145294589" lon="11.924713903047282"><ele>430.0</ele><time>2026-03-24T14:46:22.998Z</time></trkpt><trkpt lat="42.17310996951055" lon="11.92478649334052"><ele>430.0</ele><time>2026-03-24T14:46:23.998Z</time></trkpt><trkpt lat="42.17315564257392" lon="11.924851819133035"><ele>430.0</ele><time>2026-03-24T14:46:24.998Z</time></trkpt><trkpt lat="42.1732181558548" lon="11.924931580779582"><ele>430.00000000000006</ele><time>2026-03-24T14:46:25.998Z</time></trkpt><trkpt lat="42.1732646030666" lon="11.925001675778574"><ele>430.0</ele><time>2026-03-24T14:46:26.998Z</time></trkpt><trkpt lat="42.17331908478465" lon="11.925139689220805"><ele>431.6666666666667</ele><time>2026-03-24T14:46:28.998Z</time></trkpt><trkpt lat="42.17333993585892" lon="11.925238739325085"><ele>433.33333333333337</ele><time>2026-03-24T14:46:29.998Z</time></trkpt><trkpt lat="42.17333519825391" lon="11.925340701471264"><ele>435.0</ele><time>2026-03-24T14:46:30.998Z</time></trkpt><trkpt lat="42.17334235584453" lon="11.925457769953228"><ele>436.66666666666663</ele><time>2026-03-24T14:46:31.998Z</time></trkpt><trkpt lat="42.1733552831516" lon="11.925579967049421"><ele>438.3333333333333</ele><time>2026-03-24T14:46:32.998Z</time></trkpt><trkpt lat="42.17336943728333" lon="11.925694043334124"><ele>440.0</ele><time>2026-03-24T14:46:33.998Z</time></trkpt><trkpt lat="42.17338854133435" lon="11.925815704870233"><ele>439.6</ele><time>2026-03-24T14:46:34.998Z</time></trkpt><trkpt lat="42.17339253781094" lon="11.925944627338676"><ele>439.2</ele><time>2026-03-24T14:46:35.998Z</time></trkpt><trkpt lat="42.17339431389621" lon="11.926086073777991"><ele>438.79999999999995</ele><time>2026-03-24T14:46:36.998Z</time></trkpt><trkpt lat="42.17339160955963" lon="11.926216411053176"><ele>438.4</ele><time>2026-03-24T14:46:37.998Z</time></trkpt><trkpt lat="42.173367260591455" lon="11.926350302518486"><ele>438.0</ele><time>2026-03-24T14:46:38.998Z</time></trkpt><trkpt lat="42.17333942864889" lon="11.926455124213073"><ele>438.0</ele><time>2026-03-24T14:46:39.998Z</time></trkpt><trkpt lat="42.1733318158051" lon="11.926557291904146"><ele>437.99999999999994</ele><time>2026-03-24T14:46:40.998Z</time></trkpt><trkpt lat="42.17333677645816" lon="11.926679879791829"><ele>437.99999999999994</ele><time>2026-03-24T14:46:41.998Z</time></trkpt><trkpt lat="42.173381048953416" lon="11.92680920838288"><ele>438.0</ele><time>2026-03-24T14:46:42.998Z</time></trkpt><trkpt lat="42.17342268469779" lon="11.926929245495284"><ele>438.0</ele><time>2026-03-24T14:46:43.998Z</time></trkpt><trkpt lat="42.17343890851509" lon="11.927052488941339"><ele>437.1666666666667</ele><time>2026-03-24T14:46:44.998Z</time></trkpt><trkpt lat="42.17344810357371" lon="11.927170280328623"><ele>436.33333333333337</ele><time>2026-03-24T14:46:45.998Z</time></trkpt><trkpt lat="42.17343912714826" lon="11.927272541999013"><ele>435.5</ele><time>2026-03-24T14:46:46.998Z</time></trkpt><trkpt lat="42.1734271757344" lon="11.927363590099413"><ele>434.6666666666667</ele><time>2026-03-24T14:46:47.998Z</time></trkpt><trkpt lat="42.17345804950071" lon="11.927445080375605"><ele>433.83333333333337</ele><time>2026-03-24T14:46:48.998Z</time></trkpt><trkpt lat="42.17351124983884" lon="11.92751873820132"><ele>433.0</ele><time>2026-03-24T14:46:49.998Z</time></trkpt><trkpt lat="42.173574640292344" lon="11.927574542082771"><ele>433.0</ele><time>2026-03-24T14:46:50.998Z</time></trkpt><trkpt lat="42.1737160566698" lon="11.927567632268099"><ele>432.99999999999994</ele><time>2026-03-24T14:46:53Z</time></trkpt><trkpt lat="42.17379400381837" lon="11.927535936674913"><ele>432.99999999999994</ele><time>2026-03-24T14:46:54Z</time></trkpt><trkpt lat="42.17385436678662" lon="11.927576272127702"><ele>433.0</ele><time>2026-03-24T14:46:55Z</time></trkpt><trkpt lat="42.17392188062612" lon="11.927687019435204"><ele>433.0</ele><time>2026-03-24T14:46:56Z</time></trkpt><trkpt lat="42.173988295980806" lon="11.927800645296978"><ele>430.79999999999995</ele><time>2026-03-24T14:46:57Z</time></trkpt><trkpt lat="42.17405003822695" lon="11.927912643879827"><ele>428.59999999999997</ele><time>2026-03-24T14:46:58Z</time></trkpt><trkpt lat="42.174103101681375" lon="11.92801763756532"><ele>426.4</ele><time>2026-03-24T14:46:59Z</time></trkpt><trkpt lat="42.17414967705046" lon="11.928079664837982"><ele>424.20000000000005</ele><time>2026-03-24T14:47:00Z</time></trkpt><trkpt lat="42.17421281928803" lon="11.928164361405088"><ele>422.0</ele><time>2026-03-24T14:47:01Z</time></trkpt><trkpt lat="42.17427881988798" lon="11.928267234637497"><ele>422.0</ele><time>2026-03-24T14:47:02Z</time></trkpt><trkpt lat="42.17436249387299" lon="11.928341939292523"><ele>422.0</ele><time>2026-03-24T14:47:03Z</time></trkpt><trkpt lat="42.174436166641065" lon="11.928423534132675"><ele>422.0</ele><time>2026-03-24T14:47:04Z</time></trkpt><trkpt lat="42.17451101053964" lon="11.92851250824341"><ele>422.0</ele><time>2026-03-24T14:47:05Z</time></trkpt><trkpt lat="42.17457926984434" lon="11.928615497447737"><ele>422.0</ele><time>2026-03-24T14:47:06Z</time></trkpt><trkpt lat="42.17462180825581" lon="11.92873023533404"><ele>421.20000000000005</ele><time>2026-03-24T14:47:07Z</time></trkpt><trkpt lat="42.17467240139501" lon="11.92884099377123"><ele>420.4</ele><time>2026-03-24T14:47:08Z</time></trkpt><trkpt lat="42.17472104063282" lon="11.92895842316968"><ele>419.6</ele><time>2026-03-24T14:47:09Z</time></trkpt><trkpt lat="42.17477278540015" lon="11.929028464568969"><ele>418.79999999999995</ele><time>2026-03-24T14:47:10Z</time></trkpt><trkpt lat="42.1748080080973" lon="11.929164640803876"><ele>418.0</ele><time>2026-03-24T14:47:12Z</time></trkpt><trkpt lat="42.174814006852706" lon="11.929321676605062"><ele>416.33333333333337</ele><time>2026-03-24T14:47:14Z</time></trkpt><trkpt lat="42.174801970126396" lon="11.929453369697697"><ele>414.6666666666667</ele><time>2026-03-24T14:47:16Z</time></trkpt><trkpt lat="42.174781880045664" lon="11.92956930119955"><ele>413.0</ele><time>2026-03-24T14:47:18Z</time></trkpt><trkpt lat="42.174857987996525" lon="11.92964494391343"><ele>411.33333333333337</ele><time>2026-03-24T14:47:20Z</time></trkpt><trkpt lat="42.17492979865506" lon="11.929630056391014"><ele>409.6666666666667</ele><time>2026-03-24T14:47:21Z</time></trkpt><trkpt lat="42.174992979782694" lon="11.929612194388232"><ele>408.0</ele><time>2026-03-24T14:47:22Z</time></trkpt><trkpt lat="42.175108725479305" lon="11.92960908352283"><ele>407.4</ele><time>2026-03-24T14:47:24Z</time></trkpt><trkpt lat="42.175227936850014" lon="11.929668252867085"><ele>406.79999999999995</ele><time>2026-03-24T14:47:26Z</time></trkpt><trkpt lat="42.175322166031066" lon="11.929729506028949"><ele>406.2</ele><time>2026-03-24T14:47:28Z</time></trkpt><trkpt lat="42.175425337867885" lon="11.92971147754841"><ele>405.6</ele><time>2026-03-24T14:47:30Z</time></trkpt><trkpt lat="42.175479592973566" lon="11.929640540643762"><ele>405.0</ele><time>2026-03-24T14:47:31Z</time></trkpt><trkpt lat="42.17552415932568" lon="11.929555654277001"><ele>405.0</ele><time>2026-03-24T14:47:31.999Z</time></trkpt><trkpt lat="42.175558533364935" lon="11.929463468039707"><ele>405.0</ele><time>2026-03-24T14:47:32.999Z</time></trkpt><trkpt lat="42.17558375402441" lon="11.929371845132497"><ele>405.0</ele><time>2026-03-24T14:47:33.999Z</time></trkpt><trkpt lat="42.175611821256766" lon="11.92927260890541"><ele>405.0</ele><time>2026-03-24T14:47:34.999Z</time></trkpt><trkpt lat="42.175637773195426" lon="11.929176005534597"><ele>405.0</ele><time>2026-03-24T14:47:35.999Z</time></trkpt><trkpt lat="42.17564801760628" lon="11.929064648622763"><ele>405.0</ele><time>2026-03-24T14:47:36.999Z</time></trkpt><trkpt lat="42.175678717143526" lon="11.928928965853812"><ele>402.2</ele><time>2026-03-24T14:47:38.999Z</time></trkpt><trkpt lat="42.175806184030954" lon="11.928952897498117"><ele>399.4</ele><time>2026-03-24T14:48:30.999Z</time></trkpt><trkpt lat="42.17589045312516" lon="11.92888879878729"><ele>396.6</ele><time>2026-03-24T14:48:33.998Z</time></trkpt><trkpt lat="42.17597849463831" lon="11.928862502249387"><ele>393.8</ele><time>2026-03-24T14:48:35.998Z</time></trkpt><trkpt lat="42.17605500086973" lon="11.928755513261141"><ele>391.0</ele><time>2026-03-24T14:48:37.998Z</time></trkpt><trkpt lat="42.17612758584482" lon="11.92866876415876"><ele>391.00000000000006</ele><time>2026-03-24T14:48:39.998Z</time></trkpt><trkpt lat="42.17619079323498" lon="11.928680284360563"><ele>391.0</ele><time>2026-03-24T14:48:41.998Z</time></trkpt><trkpt lat="42.17625970741756" lon="11.928706922844452"><ele>391.0</ele><time>2026-03-24T14:48:43.998Z</time></trkpt><trkpt lat="42.17633993779897" lon="11.928791495926056"><ele>391.0</ele><time>2026-03-24T14:48:45.998Z</time></trkpt><trkpt lat="42.17640136393061" lon="11.928840837488531"><ele>391.00000000000006</ele><time>2026-03-24T14:48:46.998Z</time></trkpt><trkpt lat="42.17648408989826" lon="11.928860744168546"><ele>391.0</ele><time>2026-03-24T14:48:48.998Z</time></trkpt><trkpt lat="42.176580641570716" lon="11.928739721929164"><ele>391.33333333333337</ele><time>2026-03-24T14:48:50.998Z</time></trkpt><trkpt lat="42.176659610469656" lon="11.928656677846533"><ele>391.6666666666667</ele><time>2026-03-24T14:48:52.998Z</time></trkpt><trkpt lat="42.17674399655246" lon="11.928615727617352"><ele>392.0</ele><time>2026-03-24T14:48:54.998Z</time></trkpt><trkpt lat="42.17681805006543" lon="11.928584306707481"><ele>392.33333333333337</ele><time>2026-03-24T14:48:55.998Z</time></trkpt><trkpt lat="42.17688466041932" lon="11.928544803454209"><ele>392.6666666666667</ele><time>2026-03-24T14:48:56.998Z</time></trkpt><trkpt lat="42.17698722352875" lon="11.9285051884091"><ele>393.0</ele><time>2026-03-24T14:48:59Z</time></trkpt><trkpt lat="42.177063040301675" lon="11.928476605121173"><ele>393.0</ele><time>2026-03-24T14:49:00Z</time></trkpt><trkpt lat="42.17712606196088" lon="11.928440020885702"><ele>393.0</ele><time>2026-03-24T14:49:01Z</time></trkpt><trkpt lat="42.17718302026957" lon="11.928390239203466"><ele>393.0</ele><time>2026-03-24T14:49:02Z</time></trkpt><trkpt lat="42.17727911354258" lon="11.92822259960778"><ele>393.0</ele><time>2026-03-24T14:49:04Z</time></trkpt><trkpt lat="42.177350123624215" lon="11.928094462996405"><ele>393.0</ele><time>2026-03-24T14:49:05Z</time></trkpt><trkpt lat="42.17741278062816" lon="11.928012104915043"><ele>393.5</ele><time>2026-03-24T14:49:06Z</time></trkpt><trkpt lat="42.17746790276268" lon="11.9279221891895"><ele>394.0</ele><time>2026-03-24T14:49:08Z</time></trkpt><trkpt lat="42.17753546966709" lon="11.927820347687463"><ele>394.5</ele><time>2026-03-24T14:49:10Z</time></trkpt><trkpt lat="42.17758431453502" lon="11.927766659014992"><ele>395.0</ele><time>2026-03-24T14:49:11Z</time></trkpt><trkpt lat="42.1776486103461" lon="11.927708638050893"><ele>395.5</ele><time>2026-03-24T14:49:12Z</time></trkpt><trkpt lat="42.17773501469397" lon="11.927634920409476"><ele>396.0</ele><time>2026-03-24T14:49:13Z</time></trkpt><trkpt lat="42.17782030540927" lon="11.927554020223367"><ele>396.0</ele><time>2026-03-24T14:49:14Z</time></trkpt><trkpt lat="42.17789849528432" lon="11.9274955800136"><ele>396.0</ele><time>2026-03-24T14:49:15Z</time></trkpt><trkpt lat="42.17798325648855" lon="11.927467221955391"><ele>396.0</ele><time>2026-03-24T14:49:17Z</time></trkpt><trkpt lat="42.178049030592916" lon="11.927541116450902"><ele>396.0</ele><time>2026-03-24T14:49:19Z</time></trkpt><trkpt lat="42.17816481194449" lon="11.927632257525907"><ele>396.0</ele><time>2026-03-24T14:49:21Z</time></trkpt><trkpt lat="42.17820984202504" lon="11.92769227125015"><ele>398.6</ele><time>2026-03-24T14:49:22Z</time></trkpt><trkpt lat="42.17820486929157" lon="11.92778817288713"><ele>401.20000000000005</ele><time>2026-03-24T14:49:23Z</time></trkpt><trkpt lat="42.17828411308736" lon="11.927927873192191"><ele>403.79999999999995</ele><time>2026-03-24T14:49:25Z</time></trkpt><trkpt lat="42.17837431832044" lon="11.928046997963209"><ele>406.4</ele><time>2026-03-24T14:49:27Z</time></trkpt><trkpt lat="42.17843064784106" lon="11.92810374960873"><ele>409.0</ele><time>2026-03-24T14:49:28Z</time></trkpt><trkpt lat="42.17848696596017" lon="11.928161414507755"><ele>409.0</ele><time>2026-03-24T14:49:29Z</time></trkpt><trkpt lat="42.17851374540787" lon="11.928283453472348"><ele>409.0</ele><time>2026-03-24T14:49:31Z</time></trkpt><trkpt lat="42.17853544984983" lon="11.92837008156992"><ele>409.0</ele><time>2026-03-24T14:49:33Z</time></trkpt><trkpt lat="42.17864492930361" lon="11.92826983861431"><ele>409.0</ele><time>2026-03-24T14:49:35Z</time></trkpt><trkpt lat="42.17871830634468" lon="11.928257251275278"><ele>409.0</ele><time>2026-03-24T14:49:35.999Z</time></trkpt><trkpt lat="42.17880392249803" lon="11.928294130142906"><ele>409.00000000000006</ele><time>2026-03-24T14:49:36.999Z</time></trkpt><trkpt lat="42.1788870140304" lon="11.928353858785368"><ele>409.0</ele><time>2026-03-24T14:49:37.999Z</time></trkpt><trkpt lat="42.178992841626844" lon="11.928389645327272"><ele>409.0</ele><time>2026-03-24T14:49:38.999Z</time></trkpt><trkpt lat="42.17905951351486" lon="11.928446602518752"><ele>409.0</ele><time>2026-03-24T14:49:39.999Z</time></trkpt><trkpt lat="42.17914637033798" lon="11.928504813450488"><ele>409.00000000000006</ele><time>2026-03-24T14:49:41.999Z</time></trkpt><trkpt lat="42.179210587292836" lon="11.92854004117836"><ele>409.0</ele><time>2026-03-24T14:49:42.999Z</time></trkpt><trkpt lat="42.17930283912907" lon="11.928536753008085"><ele>410.5</ele><time>2026-03-24T14:49:44.999Z</time></trkpt><trkpt lat="42.179365525992644" lon="11.92855747616422"><ele>412.0</ele><time>2026-03-24T14:49:51.999Z</time></trkpt><trkpt lat="42.179358543392425" lon="11.928775808925852"><ele>413.5</ele><time>2026-03-24T14:49:52.999Z</time></trkpt><trkpt lat="42.179398945817056" lon="11.92897396022843"><ele>415.0</ele><time>2026-03-24T14:49:54.999Z</time></trkpt><trkpt lat="42.17942121717614" lon="11.929095289862808"><ele>415.00000000000006</ele><time>2026-03-24T14:49:55.999Z</time></trkpt><trkpt lat="42.17944952288387" lon="11.929195947031825"><ele>415.0</ele><time>2026-03-24T14:49:56.999Z</time></trkpt><trkpt lat="42.179480748285016" lon="11.929303835782743"><ele>415.0</ele><time>2026-03-24T14:49:57.999Z</time></trkpt><trkpt lat="42.17948349178632" lon="11.929406786025883"><ele>415.0</ele><time>2026-03-24T14:49:58.999Z</time></trkpt><trkpt lat="42.17949730018252" lon="11.929509654297018"><ele>415.00000000000006</ele><time>2026-03-24T14:49:59.999Z</time></trkpt><trkpt lat="42.17946613861128" lon="11.929623784674837"><ele>415.0</ele><time>2026-03-24T14:50:00.999Z</time></trkpt><trkpt lat="42.17940489099568" lon="11.92973244723092"><ele>415.2</ele><time>2026-03-24T14:50:01.999Z</time></trkpt><trkpt lat="42.17937696786343" lon="11.929863621487852"><ele>415.4</ele><time>2026-03-24T14:50:02.999Z</time></trkpt><trkpt lat="42.17934740330374" lon="11.929995796757588"><ele>415.6</ele><time>2026-03-24T14:50:03.999Z</time></trkpt><trkpt lat="42.17932241467211" lon="11.93013021268066"><ele>415.8</ele><time>2026-03-24T14:50:04.999Z</time></trkpt><trkpt lat="42.179282414342445" lon="11.930235984712878"><ele>416.0</ele><time>2026-03-24T14:50:05.999Z</time></trkpt><trkpt lat="42.17927083032017" lon="11.93035606421976"><ele>416.4</ele><time>2026-03-24T14:50:06.999Z</time></trkpt><trkpt lat="42.17923735018571" lon="11.93046238211108"><ele>416.8</ele><time>2026-03-24T14:50:07.999Z</time></trkpt><trkpt lat="42.17920175774281" lon="11.930572257183652"><ele>417.2</ele><time>2026-03-24T14:50:08.999Z</time></trkpt><trkpt lat="42.17911856185538" lon="11.930648466082742"><ele>417.59999999999997</ele><time>2026-03-24T14:50:09.999Z</time></trkpt><trkpt lat="42.17903427595203" lon="11.930740607053945"><ele>418.0</ele><time>2026-03-24T14:50:10.999Z</time></trkpt><trkpt lat="42.17892682690294" lon="11.930866812629318"><ele>417.79999999999995</ele><time>2026-03-24T14:50:11.999Z</time></trkpt><trkpt lat="42.17884291197029" lon="11.930967785529603"><ele>417.6</ele><time>2026-03-24T14:50:12.999Z</time></trkpt><trkpt lat="42.1787955932862" lon="11.931063086179874"><ele>417.4</ele><time>2026-03-24T14:50:13.999Z</time></trkpt><trkpt lat="42.17875792536556" lon="11.931156782433298"><ele>417.20000000000005</ele><time>2026-03-24T14:50:14.999Z</time></trkpt><trkpt lat="42.17871253152065" lon="11.931259953928535"><ele>417.0</ele><time>2026-03-24T14:50:15.999Z</time></trkpt><trkpt lat="42.178678531775866" lon="11.931369644315131"><ele>417.0</ele><time>2026-03-24T14:50:16.999Z</time></trkpt><trkpt lat="42.17864484672118" lon="11.931473719813338"><ele>417.0</ele><time>2026-03-24T14:50:17.999Z</time></trkpt><trkpt lat="42.17859518376265" lon="11.931599470316398"><ele>417.0</ele><time>2026-03-24T14:50:18.999Z</time></trkpt><trkpt lat="42.17854942242669" lon="11.931692565695977"><ele>417.0</ele><time>2026-03-24T14:50:19.999Z</time></trkpt><trkpt lat="42.1784799707388" lon="11.931780780325365"><ele>417.0</ele><time>2026-03-24T14:50:21.999Z</time></trkpt><trkpt lat="42.178389396624134" lon="11.93185652611307"><ele>416.3333333333333</ele><time>2026-03-24T14:50:23.999Z</time></trkpt><trkpt lat="42.17832322711793" lon="11.931908771957463"><ele>415.66666666666663</ele><time>2026-03-24T14:50:24.999Z</time></trkpt><trkpt lat="42.17825519745964" lon="11.931974197900937"><ele>415.0</ele><time>2026-03-24T14:50:25.999Z</time></trkpt><trkpt lat="42.17821782373682" lon="11.93207033673078"><ele>414.3333333333333</ele><time>2026-03-24T14:50:26.999Z</time></trkpt><trkpt lat="42.17817232067151" lon="11.93214199379283"><ele>413.66666666666663</ele><time>2026-03-24T14:50:27.999Z</time></trkpt><trkpt lat="42.178124892000106" lon="11.932210454683387"><ele>413.0</ele><time>2026-03-24T14:50:28.999Z</time></trkpt><trkpt lat="42.17803981027615" lon="11.932317865601522"><ele>412.99999999999994</ele><time>2026-03-24T14:50:30.999Z</time></trkpt><trkpt lat="42.17794450218226" lon="11.932379169163239"><ele>413.0</ele><time>2026-03-24T14:50:32.999Z</time></trkpt><trkpt lat="42.177886741986406" lon="11.932433488793277"><ele>413.0</ele><time>2026-03-24T14:50:34.999Z</time></trkpt><trkpt lat="42.1778308227601" lon="11.932512020320459"><ele>413.0</ele><time>2026-03-24T14:50:37.999Z</time></trkpt><trkpt lat="42.17778738242893" lon="11.932584077984844"><ele>412.99999999999994</ele><time>2026-03-24T14:50:40.998Z</time></trkpt><trkpt lat="42.1777562888438" lon="11.932670617908423"><ele>413.0</ele><time>2026-03-24T14:50:45.998Z</time></trkpt><trkpt lat="42.17771314747496" lon="11.932733883569103"><ele>413.0</ele><time>2026-03-24T14:50:48.998Z</time></trkpt><trkpt lat="42.177663724028264" lon="11.93281051479582"><ele>413.0</ele><time>2026-03-24T14:50:51.998Z</time></trkpt><trkpt lat="42.177610872702765" lon="11.93287606833349"><ele>413.0</ele><time>2026-03-24T14:50:54.998Z</time></trkpt><trkpt lat="42.17755884007984" lon="11.932950404462533"><ele>413.0</ele><time>2026-03-24T14:50:57.998Z</time></trkpt><trkpt lat="42.1775227770848" lon="11.933022787119352"><ele>413.0</ele><time>2026-03-24T14:51:00.998Z</time></trkpt><trkpt lat="42.177482105502165" lon="11.933100461942303"><ele>413.0</ele><time>2026-03-24T14:51:03.998Z</time></trkpt><trkpt lat="42.177433237565715" lon="11.933168259720565"><ele>413.0</ele><time>2026-03-24T14:51:07Z</time></trkpt><trkpt lat="42.17737419293076" lon="11.933232180145142"><ele>413.42857142857144</ele><time>2026-03-24T14:51:10Z</time></trkpt><trkpt lat="42.17733474730324" lon="11.93331032792547"><ele>413.8571428571429</ele><time>2026-03-24T14:51:13Z</time></trkpt><trkpt lat="42.1773250167127" lon="11.933397635059181"><ele>414.2857142857143</ele><time>2026-03-24T14:51:16Z</time></trkpt><trkpt lat="42.17731944965636" lon="11.933483999465656"><ele>414.7142857142857</ele><time>2026-03-24T14:51:19Z</time></trkpt><trkpt lat="42.17731137952296" lon="11.933575551897995"><ele>415.14285714285717</ele><time>2026-03-24T14:51:22Z</time></trkpt><trkpt lat="42.17727876701782" lon="11.933660675502738"><ele>415.57142857142856</ele><time>2026-03-24T14:51:25Z</time></trkpt><trkpt lat="42.17728149593896" lon="11.933775226543828"><ele>416.0</ele><time>2026-03-24T14:51:29Z</time></trkpt><trkpt lat="42.1772735765416" lon="11.933864723079274"><ele>416.3333333333333</ele><time>2026-03-24T14:51:33Z</time></trkpt><trkpt lat="42.17732287385522" lon="11.93394328183185"><ele>416.66666666666663</ele><time>2026-03-24T14:51:37Z</time></trkpt><trkpt lat="42.17735388654662" lon="11.934034075354905"><ele>417.0</ele><time>2026-03-24T14:51:41Z</time></trkpt><trkpt lat="42.17738453205159" lon="11.93411409670124"><ele>417.33333333333337</ele><time>2026-03-24T14:51:44Z</time></trkpt><trkpt lat="42.177432798457644" lon="11.93417402260976"><ele>417.6666666666667</ele><time>2026-03-24T14:51:47Z</time></trkpt><trkpt lat="42.17742502712905" lon="11.934364069421703"><ele>418.0</ele><time>2026-03-24T14:51:49.999Z</time></trkpt><trkpt lat="42.17745625299002" lon="11.934472244090534"><ele>415.2</ele><time>2026-03-24T14:51:51.999Z</time></trkpt><trkpt lat="42.17748342410177" lon="11.934572174564991"><ele>412.4</ele><time>2026-03-24T14:52:00.999Z</time></trkpt><trkpt lat="42.177532929027414" lon="11.934648201623897"><ele>409.59999999999997</ele><time>2026-03-24T14:52:02.999Z</time></trkpt><trkpt lat="42.177596303192026" lon="11.934736370316111"><ele>406.79999999999995</ele><time>2026-03-24T14:52:04.999Z</time></trkpt><trkpt lat="42.17768195324204" lon="11.93482430646944"><ele>404.0</ele><time>2026-03-24T14:52:06.999Z</time></trkpt><trkpt lat="42.177788186840075" lon="11.934887009635606"><ele>404.0</ele><time>2026-03-24T14:52:08.999Z</time></trkpt><trkpt lat="42.17788290269802" lon="11.9349574821661"><ele>404.0</ele><time>2026-03-24T14:52:10.999Z</time></trkpt><trkpt lat="42.17792562808511" lon="11.935155893615457"><ele>404.0</ele><time>2026-03-24T14:52:12.999Z</time></trkpt><trkpt lat="42.177965739766826" lon="11.935322532524221"><ele>404.0</ele><time>2026-03-24T14:52:13.999Z</time></trkpt><trkpt lat="42.178012084576956" lon="11.935451834125443"><ele>402.8333333333333</ele><time>2026-03-24T14:52:14.999Z</time></trkpt><trkpt lat="42.17805872578321" lon="11.935546771791394"><ele>401.66666666666663</ele><time>2026-03-24T14:52:15.999Z</time></trkpt><trkpt lat="42.17812292197689" lon="11.935639957644991"><ele>400.5</ele><time>2026-03-24T14:52:16.999Z</time></trkpt><trkpt lat="42.17814652271584" lon="11.935730393521547"><ele>399.33333333333337</ele><time>2026-03-24T14:52:17.999Z</time></trkpt><trkpt lat="42.178164444284356" lon="11.935812904357693"><ele>398.1666666666667</ele><time>2026-03-24T14:52:18.999Z</time></trkpt><trkpt lat="42.17815970807288" lon="11.935901350433758"><ele>397.0</ele><time>2026-03-24T14:52:19.999Z</time></trkpt><trkpt lat="42.17817613935699" lon="11.936008306377902"><ele>397.00000000000006</ele><time>2026-03-24T14:52:20.999Z</time></trkpt><trkpt lat="42.178175273456375" lon="11.936097114417883"><ele>397.0</ele><time>2026-03-24T14:52:21.999Z</time></trkpt><trkpt lat="42.17815864293279" lon="11.936182521794688"><ele>397.0</ele><time>2026-03-24T14:52:22.999Z</time></trkpt><trkpt lat="42.178167973834526" lon="11.936312839292391"><ele>397.0</ele><time>2026-03-24T14:52:24.999Z</time></trkpt><trkpt lat="42.17815262388971" lon="11.9364539287726"><ele>397.00000000000006</ele><time>2026-03-24T14:52:26.999Z</time></trkpt><trkpt lat="42.17813344561628" lon="11.936542888443357"><ele>397.0</ele><time>2026-03-24T14:52:27.999Z</time></trkpt><trkpt lat="42.1781117113365" lon="11.93665833213243"><ele>399.20000000000005</ele><time>2026-03-24T14:52:28.999Z</time></trkpt><trkpt lat="42.178093746762286" lon="11.936765816893082"><ele>401.4</ele><time>2026-03-24T14:52:29.999Z</time></trkpt><trkpt lat="42.17814256130058" lon="11.936897268733324"><ele>403.6</ele><time>2026-03-24T14:52:31.999Z</time></trkpt><trkpt lat="42.178152774667936" lon="11.93702440348181"><ele>405.79999999999995</ele><time>2026-03-24T14:52:33.999Z</time></trkpt><trkpt lat="42.1781476340119" lon="11.937121152112205"><ele>408.0</ele><time>2026-03-24T14:52:34.999Z</time></trkpt><trkpt lat="42.17808826872492" lon="11.937252953183185"><ele>408.0</ele><time>2026-03-24T14:52:36.999Z</time></trkpt><trkpt lat="42.17799880326555" lon="11.93734478942152"><ele>408.0</ele><time>2026-03-24T14:52:37.999Z</time></trkpt><trkpt lat="42.177912727933176" lon="11.93747277708734"><ele>408.0</ele><time>2026-03-24T14:52:38.999Z</time></trkpt><trkpt lat="42.17785882073863" lon="11.937566173571586"><ele>408.0</ele><time>2026-03-24T14:52:39.999Z</time></trkpt><trkpt lat="42.17780932058077" lon="11.937638582819291"><ele>408.0</ele><time>2026-03-24T14:52:40.999Z</time></trkpt><trkpt lat="42.17777648651039" lon="11.937712018567037"><ele>408.2857142857143</ele><time>2026-03-24T14:52:41.999Z</time></trkpt><trkpt lat="42.17775235756924" lon="11.937793665106005"><ele>408.57142857142856</ele><time>2026-03-24T14:52:42.999Z</time></trkpt><trkpt lat="42.17773256301027" lon="11.937889506579253"><ele>408.8571428571429</ele><time>2026-03-24T14:52:43.999Z</time></trkpt><trkpt lat="42.17770941938613" lon="11.937987860162643"><ele>409.1428571428571</ele><time>2026-03-24T14:52:44.999Z</time></trkpt><trkpt lat="42.17769439996767" lon="11.938090244860607"><ele>409.4285714285714</ele><time>2026-03-24T14:52:45.999Z</time></trkpt><trkpt lat="42.1776978423293" lon="11.938184507417452"><ele>409.7142857142857</ele><time>2026-03-24T14:52:46.999Z</time></trkpt><trkpt lat="42.17770510837398" lon="11.938296547179895"><ele>410.0</ele><time>2026-03-24T14:52:47.998Z</time></trkpt><trkpt lat="42.17770660115869" lon="11.938399037312946"><ele>409.99999999999994</ele><time>2026-03-24T14:52:48.998Z</time></trkpt><trkpt lat="42.1776906075025" lon="11.938502256347576"><ele>410.0</ele><time>2026-03-24T14:52:49.998Z</time></trkpt><trkpt lat="42.177692827588565" lon="11.938619938655721"><ele>410.0</ele><time>2026-03-24T14:52:50.998Z</time></trkpt><trkpt lat="42.17770379387745" lon="11.938752002290416"><ele>410.0</ele><time>2026-03-24T14:52:51.998Z</time></trkpt><trkpt lat="42.177722249602155" lon="11.938877731820611"><ele>409.99999999999994</ele><time>2026-03-24T14:52:52.998Z</time></trkpt><trkpt lat="42.17771280142168" lon="11.938996858466638"><ele>410.0</ele><time>2026-03-24T14:52:53.998Z</time></trkpt><trkpt lat="42.17770949738856" lon="11.939109567178532"><ele>410.0</ele><time>2026-03-24T14:52:54.998Z</time></trkpt><trkpt lat="42.17769563296207" lon="11.939214304631179"><ele>410.0</ele><time>2026-03-24T14:52:55.998Z</time></trkpt><trkpt lat="42.17768712619391" lon="11.939342717309254"><ele>410.0</ele><time>2026-03-24T14:52:56.998Z</time></trkpt><trkpt lat="42.17765840297352" lon="11.939451252490048"><ele>410.0</ele><time>2026-03-24T14:52:57.998Z</time></trkpt><trkpt lat="42.177614190320455" lon="11.93956768437423"><ele>410.0</ele><time>2026-03-24T14:52:59.998Z</time></trkpt><trkpt lat="42.17749644545302" lon="11.939627572467101"><ele>409.8333333333333</ele><time>2026-03-24T14:53:01.998Z</time></trkpt><trkpt lat="42.17743796659612" lon="11.93969982906431"><ele>409.66666666666663</ele><time>2026-03-24T14:53:02.998Z</time></trkpt><trkpt lat="42.17736464610948" lon="11.939781990233152"><ele>409.5</ele><time>2026-03-24T14:53:03.998Z</time></trkpt><trkpt lat="42.1773088750071" lon="11.93985787566387"><ele>409.33333333333337</ele><time>2026-03-24T14:53:04.998Z</time></trkpt><trkpt lat="42.177273057302514" lon="11.939934353546306"><ele>409.1666666666667</ele><time>2026-03-24T14:53:05.998Z</time></trkpt><trkpt lat="42.17725028949709" lon="11.940057012638214"><ele>409.0</ele><time>2026-03-24T14:53:06.998Z</time></trkpt><trkpt lat="42.17722182075845" lon="11.940157747526667"><ele>408.50000000000006</ele><time>2026-03-24T14:53:07.998Z</time></trkpt><trkpt lat="42.17718520373299" lon="11.940248621059926"><ele>408.0</ele><time>2026-03-24T14:53:08.998Z</time></trkpt><trkpt lat="42.1771478526059" lon="11.940340589280357"><ele>407.5</ele><time>2026-03-24T14:53:09.998Z</time></trkpt><trkpt lat="42.17711426964596" lon="11.940452130989053"><ele>407.0</ele><time>2026-03-24T14:53:11Z</time></trkpt><trkpt lat="42.17706878844887" lon="11.940558510378297"><ele>406.50000000000006</ele><time>2026-03-24T14:53:12Z</time></trkpt><trkpt lat="42.17702278499727" lon="11.940654549506892"><ele>406.0</ele><time>2026-03-24T14:53:13Z</time></trkpt><trkpt lat="42.17697650011775" lon="11.94073123382462"><ele>406.0</ele><time>2026-03-24T14:53:14Z</time></trkpt><trkpt lat="42.17691798617457" lon="11.940872248296222"><ele>406.0</ele><time>2026-03-24T14:53:16Z</time></trkpt><trkpt lat="42.17690545870704" lon="11.940975437033904"><ele>406.0</ele><time>2026-03-24T14:53:17Z</time></trkpt><trkpt lat="42.17689748139731" lon="11.941081237754398"><ele>406.0</ele><time>2026-03-24T14:53:18Z</time></trkpt><trkpt lat="42.17691082377309" lon="11.941199701350305"><ele>406.0</ele><time>2026-03-24T14:53:19Z</time></trkpt><trkpt lat="42.17692280602441" lon="11.941333000403496"><ele>405.75</ele><time>2026-03-24T14:53:20Z</time></trkpt><trkpt lat="42.176916611171094" lon="11.941502452385622"><ele>405.5</ele><time>2026-03-24T14:53:21Z</time></trkpt><trkpt lat="42.176896117798634" lon="11.941685473154745"><ele>405.25</ele><time>2026-03-24T14:53:22Z</time></trkpt><trkpt lat="42.1768878252911" lon="11.941808586736984"><ele>405.0</ele><time>2026-03-24T14:53:23Z</time></trkpt><trkpt lat="42.17684655216047" lon="11.941935521420131"><ele>404.5</ele><time>2026-03-24T14:53:25Z</time></trkpt><trkpt lat="42.17679645305324" lon="11.941988162416589"><ele>404.0</ele><time>2026-03-24T14:53:27Z</time></trkpt><trkpt lat="42.176694821879565" lon="11.941980551804493"><ele>403.5</ele><time>2026-03-24T14:54:27.999Z</time></trkpt><trkpt lat="42.176626414148785" lon="11.941986777199276"><ele>403.0</ele><time>2026-03-24T14:54:28.999Z</time></trkpt><trkpt lat="42.17654712521561" lon="11.942003304934993"><ele>402.5</ele><time>2026-03-24T14:54:29.999Z</time></trkpt><trkpt lat="42.17646638138985" lon="11.942035180259333"><ele>402.0</ele><time>2026-03-24T14:54:30.999Z</time></trkpt><trkpt lat="42.17638113060205" lon="11.942079794301366"><ele>402.0</ele><time>2026-03-24T14:54:31.999Z</time></trkpt><trkpt lat="42.17628986749572" lon="11.942141348215245"><ele>402.0</ele><time>2026-03-24T14:54:32.999Z</time></trkpt><trkpt lat="42.176212377372124" lon="11.9422005126396"><ele>402.0</ele><time>2026-03-24T14:54:33.999Z</time></trkpt><trkpt lat="42.17613845436614" lon="11.942267510359242"><ele>402.0</ele><time>2026-03-24T14:54:34.999Z</time></trkpt><trkpt lat="42.17606194193884" lon="11.942355949043492"><ele>402.0</ele><time>2026-03-24T14:54:35.999Z</time></trkpt><trkpt lat="42.175998080776886" lon="11.942437260829623"><ele>402.0</ele><time>2026-03-24T14:54:36.999Z</time></trkpt><trkpt lat="42.17592171871539" lon="11.942513515324226"><ele>402.0</ele><time>2026-03-24T14:54:37.999Z</time></trkpt><trkpt lat="42.17587751771115" lon="11.942625125126238"><ele>402.0</ele><time>2026-03-24T14:54:38.999Z</time></trkpt><trkpt lat="42.175831345855514" lon="11.942721335580506"><ele>402.0</ele><time>2026-03-24T14:54:39.999Z</time></trkpt><trkpt lat="42.17579895947308" lon="11.942828781477857"><ele>402.0</ele><time>2026-03-24T14:54:40.999Z</time></trkpt><trkpt lat="42.175781187533815" lon="11.942942656729969"><ele>402.0</ele><time>2026-03-24T14:54:41.999Z</time></trkpt><trkpt lat="42.17577912264738" lon="11.943076552957809"><ele>402.0</ele><time>2026-03-24T14:54:42.999Z</time></trkpt><trkpt lat="42.17578268122303" lon="11.943220877269216"><ele>402.0</ele><time>2026-03-24T14:54:43.999Z</time></trkpt><trkpt lat="42.175798297154024" lon="11.94337072834402"><ele>402.0</ele><time>2026-03-24T14:54:44.999Z</time></trkpt><trkpt lat="42.17582238655912" lon="11.943518175753171"><ele>402.0</ele><time>2026-03-24T14:54:45.999Z</time></trkpt><trkpt lat="42.175854555528495" lon="11.943666825799433"><ele>402.0</ele><time>2026-03-24T14:54:46.999Z</time></trkpt><trkpt lat="42.175899095346125" lon="11.943806909718857"><ele>401.20000000000005</ele><time>2026-03-24T14:54:47.999Z</time></trkpt><trkpt lat="42.17594830876249" lon="11.943925450448022"><ele>400.4</ele><time>2026-03-24T14:54:48.999Z</time></trkpt><trkpt lat="42.175995610233684" lon="11.944025028123773"><ele>399.6</ele><time>2026-03-24T14:54:49.999Z</time></trkpt><trkpt lat="42.17604180577134" lon="11.944120961499559"><ele>398.79999999999995</ele><time>2026-03-24T14:54:50.999Z</time></trkpt><trkpt lat="42.17608887902549" lon="11.944231571072292"><ele>398.0</ele><time>2026-03-24T14:54:51.999Z</time></trkpt><trkpt lat="42.176131200370236" lon="11.944349131146602"><ele>397.16666666666663</ele><time>2026-03-24T14:54:52.999Z</time></trkpt><trkpt lat="42.17616176660914" lon="11.944465334035591"><ele>396.3333333333333</ele><time>2026-03-24T14:54:53.999Z</time></trkpt><trkpt lat="42.17617579392599" lon="11.944572858628385"><ele>395.5</ele><time>2026-03-24T14:54:54.999Z</time></trkpt><trkpt lat="42.17617000334646" lon="11.944682870743726"><ele>394.66666666666663</ele><time>2026-03-24T14:54:55.999Z</time></trkpt><trkpt lat="42.176153396010086" lon="11.944784726922524"><ele>393.8333333333333</ele><time>2026-03-24T14:54:56.999Z</time></trkpt><trkpt lat="42.176101143618325" lon="11.94486103529017"><ele>393.0</ele><time>2026-03-24T14:54:57.999Z</time></trkpt><trkpt lat="42.17603774598241" lon="11.944955585859"><ele>391.79999999999995</ele><time>2026-03-24T14:54:58.998Z</time></trkpt><trkpt lat="42.17595022842335" lon="11.945076882687745"><ele>390.6</ele><time>2026-03-24T14:54:59.998Z</time></trkpt><trkpt lat="42.175873107342554" lon="11.945189203287395"><ele>389.4</ele><time>2026-03-24T14:55:00.998Z</time></trkpt><trkpt lat="42.175804862375" lon="11.94528513807788"><ele>388.20000000000005</ele><time>2026-03-24T14:55:01.998Z</time></trkpt><trkpt lat="42.175738110526225" lon="11.945371126973551"><ele>387.0</ele><time>2026-03-24T14:55:02.998Z</time></trkpt><trkpt lat="42.17566924854085" lon="11.945442212594486"><ele>384.3333333333333</ele><time>2026-03-24T14:55:03.998Z</time></trkpt><trkpt lat="42.17559934865761" lon="11.945512042218944"><ele>381.6666666666667</ele><time>2026-03-24T14:55:04.998Z</time></trkpt><trkpt lat="42.17552841571677" lon="11.945555157440054"><ele>379.0</ele><time>2026-03-24T14:55:05.998Z</time></trkpt><trkpt lat="42.175457013584" lon="11.945604995243743"><ele>376.33333333333337</ele><time>2026-03-24T14:55:06.998Z</time></trkpt><trkpt lat="42.17538636504666" lon="11.945659270604954"><ele>373.6666666666667</ele><time>2026-03-24T14:55:07.998Z</time></trkpt><trkpt lat="42.1753358996592" lon="11.945732157678371"><ele>371.0</ele><time>2026-03-24T14:55:08.998Z</time></trkpt><trkpt lat="42.175308319492586" lon="11.945838941104785"><ele>371.8</ele><time>2026-03-24T14:55:09.998Z</time></trkpt><trkpt lat="42.17525633066674" lon="11.945956373182897"><ele>372.6</ele><time>2026-03-24T14:55:10.998Z</time></trkpt><trkpt lat="42.1751920923732" lon="11.94606901607076"><ele>373.4</ele><time>2026-03-24T14:55:11.998Z</time></trkpt><trkpt lat="42.175134631001704" lon="11.946166044882151"><ele>374.2</ele><time>2026-03-24T14:55:12.998Z</time></trkpt><trkpt lat="42.17508423244234" lon="11.946245837536717"><ele>375.0</ele><time>2026-03-24T14:55:13.998Z</time></trkpt><trkpt lat="42.17506274025175" lon="11.94634382614075"><ele>375.0</ele><time>2026-03-24T14:55:14.998Z</time></trkpt><trkpt lat="42.1749711541105" lon="11.946393262009414"><ele>375.0</ele><time>2026-03-24T14:55:17Z</time></trkpt><trkpt lat="42.174919360294574" lon="11.946325810048046"><ele>375.0</ele><time>2026-03-24T14:55:19Z</time></trkpt><trkpt lat="42.17487748400741" lon="11.946171012228513"><ele>375.0</ele><time>2026-03-24T14:55:21Z</time></trkpt><trkpt lat="42.17483117431719" lon="11.94604817622598"><ele>375.0</ele><time>2026-03-24T14:55:22Z</time></trkpt><trkpt lat="42.17478227142898" lon="11.945951142153007"><ele>371.0</ele><time>2026-03-24T14:55:23Z</time></trkpt><trkpt lat="42.17471171622163" lon="11.945874988337332"><ele>367.0</ele><time>2026-03-24T14:55:24Z</time></trkpt><trkpt lat="42.17462305321033" lon="11.945801307911525"><ele>363.0</ele><time>2026-03-24T14:55:25Z</time></trkpt><trkpt lat="42.17452320127933" lon="11.94573858048544"><ele>359.0</ele><time>2026-03-24T14:55:26Z</time></trkpt><trkpt lat="42.17442413154525" lon="11.945680120846012"><ele>355.0</ele><time>2026-03-24T14:55:27Z</time></trkpt><trkpt lat="42.174327729959636" lon="11.945620804261322"><ele>355.0</ele><time>2026-03-24T14:55:28Z</time></trkpt><trkpt lat="42.17421845276882" lon="11.94556025242279"><ele>355.0</ele><time>2026-03-24T14:55:29Z</time></trkpt><trkpt lat="42.17409867659949" lon="11.945503714371565"><ele>355.0</ele><time>2026-03-24T14:55:30Z</time></trkpt><trkpt lat="42.17397236519957" lon="11.945457777474152"><ele>355.0</ele><time>2026-03-24T14:55:31Z</time></trkpt><trkpt lat="42.173840472256416" lon="11.94540896446299"><ele>350.0</ele><time>2026-03-24T14:55:32Z</time></trkpt><trkpt lat="42.17372213255575" lon="11.945367686546668"><ele>345.0</ele><time>2026-03-24T14:55:33Z</time></trkpt><trkpt lat="42.17361062669468" lon="11.945330901508946"><ele>340.0</ele><time>2026-03-24T14:55:34Z</time></trkpt><trkpt lat="42.17349902221507" lon="11.945299747832445"><ele>335.0</ele><time>2026-03-24T14:55:35Z</time></trkpt><trkpt lat="42.173392108196495" lon="11.945261015854847"><ele>335.0</ele><time>2026-03-24T14:55:36Z</time></trkpt><trkpt lat="42.17329665446893" lon="11.945225521223923"><ele>335.0</ele><time>2026-03-24T14:55:37Z</time></trkpt><trkpt lat="42.1732094670911" lon="11.945193546255588"><ele>335.0</ele><time>2026-03-24T14:55:38Z</time></trkpt><trkpt lat="42.17313427906801" lon="11.945148040445009"><ele>335.0</ele><time>2026-03-24T14:55:39Z</time></trkpt><trkpt lat="42.173071482379996" lon="11.945088816381617"><ele>335.0</ele><time>2026-03-24T14:55:40Z</time></trkpt><trkpt lat="42.17301890947403" lon="11.945012475740134"><ele>335.0</ele><time>2026-03-24T14:55:41Z</time></trkpt><trkpt lat="42.17297336951561" lon="11.944925725607977"><ele>333.0</ele><time>2026-03-24T14:55:42Z</time></trkpt><trkpt lat="42.17293861458725" lon="11.944789411472938"><ele>331.0</ele><time>2026-03-24T14:55:43Z</time></trkpt><trkpt lat="42.17289273610675" lon="11.944653531990756"><ele>329.0</ele><time>2026-03-24T14:55:44Z</time></trkpt><trkpt lat="42.172833162289635" lon="11.944558568255184"><ele>327.0</ele><time>2026-03-24T14:55:45Z</time></trkpt><trkpt lat="42.17279707958415" lon="11.944482119038161"><ele>325.0</ele><time>2026-03-24T14:55:46Z</time></trkpt><trkpt lat="42.17273603916399" lon="11.944369485326538"><ele>325.0</ele><time>2026-03-24T14:55:48Z</time></trkpt><trkpt lat="42.1726744113331" lon="11.944347048574615"><ele>325.0</ele><time>2026-03-24T14:55:49Z</time></trkpt><trkpt lat="42.172614306409905" lon="11.944410116599347"><ele>325.0</ele><time>2026-03-24T14:55:50Z</time></trkpt><trkpt lat="42.17255815796522" lon="11.94452456932668"><ele>325.0</ele><time>2026-03-24T14:55:52Z</time></trkpt><trkpt lat="42.172563889934914" lon="11.944627474124355"><ele>325.0</ele><time>2026-03-24T14:55:53Z</time></trkpt><trkpt lat="42.17258572019759" lon="11.94475629798387"><ele>325.0</ele><time>2026-03-24T14:55:54Z</time></trkpt><trkpt lat="42.172623035685604" lon="11.944925245041262"><ele>322.25</ele><time>2026-03-24T14:55:55Z</time></trkpt><trkpt lat="42.172663830498905" lon="11.945109613162716"><ele>319.5</ele><time>2026-03-24T14:55:56Z</time></trkpt><trkpt lat="42.17268383820196" lon="11.94524346816243"><ele>316.75</ele><time>2026-03-24T14:55:57Z</time></trkpt><trkpt lat="42.17268256962899" lon="11.945367800209517"><ele>314.0</ele><time>2026-03-24T14:55:59Z</time></trkpt><trkpt lat="42.17257064859748" lon="11.945208678096218"><ele>314.0</ele><time>2026-03-24T14:56:02.999Z</time></trkpt><trkpt lat="42.17251838936596" lon="11.945095362676078"><ele>314.0</ele><time>2026-03-24T14:56:03.999Z</time></trkpt><trkpt lat="42.17245442196865" lon="11.944965128051832"><ele>314.0</ele><time>2026-03-24T14:56:04.999Z</time></trkpt><trkpt lat="42.17238745719764" lon="11.944833920064202"><ele>314.0</ele><time>2026-03-24T14:56:05.999Z</time></trkpt><trkpt lat="42.17232630287592" lon="11.944663949051032"><ele>314.25</ele><time>2026-03-24T14:56:06.999Z</time></trkpt><trkpt lat="42.172216007861714" lon="11.94451004383291"><ele>314.5</ele><time>2026-03-24T14:56:07.999Z</time></trkpt><trkpt lat="42.17210758973706" lon="11.944370307578858"><ele>314.75</ele><time>2026-03-24T14:56:08.999Z</time></trkpt><trkpt lat="42.17201402105164" lon="11.944246162974645"><ele>315.0</ele><time>2026-03-24T14:56:09.999Z</time></trkpt><trkpt lat="42.17191978168605" lon="11.944120947244809"><ele>314.25</ele><time>2026-03-24T14:56:10.999Z</time></trkpt><trkpt lat="42.17186719076337" lon="11.943919463712064"><ele>313.5</ele><time>2026-03-24T14:56:11.999Z</time></trkpt><trkpt lat="42.17177182140868" lon="11.94378722191704"><ele>312.75</ele><time>2026-03-24T14:56:12.999Z</time></trkpt><trkpt lat="42.17169472872068" lon="11.9436711684424"><ele>312.0</ele><time>2026-03-24T14:56:13.999Z</time></trkpt><trkpt lat="42.17159464263524" lon="11.94358728035613"><ele>313.0</ele><time>2026-03-24T14:56:14.999Z</time></trkpt><trkpt lat="42.17148632020663" lon="11.94350445910127"><ele>314.0</ele><time>2026-03-24T14:56:15.999Z</time></trkpt><trkpt lat="42.17137995334761" lon="11.943426391598688"><ele>315.0</ele><time>2026-03-24T14:56:16.999Z</time></trkpt><trkpt lat="42.17128861229515" lon="11.943333744352083"><ele>316.0</ele><time>2026-03-24T14:56:17.999Z</time></trkpt><trkpt lat="42.171197420570685" lon="11.943254597645398"><ele>316.0</ele><time>2026-03-24T14:56:18.999Z</time></trkpt><trkpt lat="42.171102338227875" lon="11.943168962320913"><ele>316.0</ele><time>2026-03-24T14:56:19.999Z</time></trkpt><trkpt lat="42.170995126107215" lon="11.943082394178202"><ele>316.0</ele><time>2026-03-24T14:56:20.999Z</time></trkpt><trkpt lat="42.17091684501052" lon="11.942966661380435"><ele>316.0</ele><time>2026-03-24T14:56:21.999Z</time></trkpt><trkpt lat="42.17082596957326" lon="11.94286468349246"><ele>316.0</ele><time>2026-03-24T14:56:22.999Z</time></trkpt><trkpt lat="42.17070704302313" lon="11.942789568644939"><ele>316.0</ele><time>2026-03-24T14:56:23.999Z</time></trkpt><trkpt lat="42.17057652241143" lon="11.942731592669753"><ele>316.0</ele><time>2026-03-24T14:56:24.999Z</time></trkpt><trkpt lat="42.17046130637808" lon="11.942680692119502"><ele>316.0</ele><time>2026-03-24T14:56:25.999Z</time></trkpt><trkpt lat="42.17037372886164" lon="11.942614432546414"><ele>315.16666666666663</ele><time>2026-03-24T14:56:26.999Z</time></trkpt><trkpt lat="42.17028448535098" lon="11.942563226917043"><ele>314.3333333333333</ele><time>2026-03-24T14:56:27.999Z</time></trkpt><trkpt lat="42.170198111380095" lon="11.942513510186698"><ele>313.5</ele><time>2026-03-24T14:56:28.999Z</time></trkpt><trkpt lat="42.17013091838266" lon="11.94244397677464"><ele>312.6666666666667</ele><time>2026-03-24T14:56:29.999Z</time></trkpt><trkpt lat="42.170075984496044" lon="11.942390875783687"><ele>311.83333333333337</ele><time>2026-03-24T14:56:30.999Z</time></trkpt><trkpt lat="42.17003240970355" lon="11.942323423503307"><ele>311.0</ele><time>2026-03-24T14:56:31.999Z</time></trkpt><trkpt lat="42.16997226795597" lon="11.942295195454474"><ele>311.0</ele><time>2026-03-24T14:56:32.999Z</time></trkpt><trkpt lat="42.16990323566316" lon="11.942347176778545"><ele>311.0</ele><time>2026-03-24T14:56:33.999Z</time></trkpt><trkpt lat="42.16980459254987" lon="11.942340252747439"><ele>311.0</ele><time>2026-03-24T14:56:35.999Z</time></trkpt><trkpt lat="42.169761602591024" lon="11.942277583763994"><ele>311.0</ele><time>2026-03-24T14:56:36.999Z</time></trkpt><trkpt lat="42.16976086275284" lon="11.942136587266607"><ele>311.0</ele><time>2026-03-24T14:56:37.999Z</time></trkpt><trkpt lat="42.169708496018785" lon="11.942024776395698"><ele>311.0</ele><time>2026-03-24T14:56:38.999Z</time></trkpt><trkpt lat="42.1696747656728" lon="11.941888285374736"><ele>313.0</ele><time>2026-03-24T14:56:39.999Z</time></trkpt><trkpt lat="42.169610065153606" lon="11.941768321090958"><ele>315.0</ele><time>2026-03-24T14:56:40.999Z</time></trkpt><trkpt lat="42.1695297841113" lon="11.941661914524522"><ele>317.0</ele><time>2026-03-24T14:56:41.999Z</time></trkpt><trkpt lat="42.16943616198969" lon="11.941557162569522"><ele>319.0</ele><time>2026-03-24T14:56:42.999Z</time></trkpt><trkpt lat="42.16933163412526" lon="11.941472967744252"><ele>319.0</ele><time>2026-03-24T14:56:43.999Z</time></trkpt><trkpt lat="42.169228145139556" lon="11.941397214992708"><ele>319.0</ele><time>2026-03-24T14:56:44.999Z</time></trkpt><trkpt lat="42.16912956141915" lon="11.941324889383248"><ele>319.0</ele><time>2026-03-24T14:56:45.999Z</time></trkpt><trkpt lat="42.169025859117234" lon="11.941249799425627"><ele>319.0</ele><time>2026-03-24T14:56:46.999Z</time></trkpt><trkpt lat="42.16891612930571" lon="11.941177947521204"><ele>323.25</ele><time>2026-03-24T14:56:47.999Z</time></trkpt><trkpt lat="42.168803863689895" lon="11.94112608986699"><ele>327.5</ele><time>2026-03-24T14:56:48.999Z</time></trkpt><trkpt lat="42.16868936080765" lon="11.941107671954146"><ele>331.75</ele><time>2026-03-24T14:56:49.999Z</time></trkpt><trkpt lat="42.16856712764808" lon="11.941113888340231"><ele>336.0</ele><time>2026-03-24T14:56:50.999Z</time></trkpt><trkpt lat="42.16844360142685" lon="11.94114682700484"><ele>336.0</ele><time>2026-03-24T14:56:51.999Z</time></trkpt><trkpt lat="42.168317877199605" lon="11.941161897340052"><ele>336.0</ele><time>2026-03-24T14:56:52.999Z</time></trkpt><trkpt lat="42.16820243687085" lon="11.94121681889595"><ele>336.0</ele><time>2026-03-24T14:56:53.999Z</time></trkpt><trkpt lat="42.16808086256226" lon="11.941209942778775"><ele>336.0</ele><time>2026-03-24T14:56:54.999Z</time></trkpt><trkpt lat="42.16795391285129" lon="11.941194573135215"><ele>338.25</ele><time>2026-03-24T14:56:55.999Z</time></trkpt><trkpt lat="42.16782373263598" lon="11.941195327134194"><ele>340.5</ele><time>2026-03-24T14:56:56.999Z</time></trkpt><trkpt lat="42.16769552767939" lon="11.941177162100727"><ele>342.75</ele><time>2026-03-24T14:56:57.999Z</time></trkpt><trkpt lat="42.16756631962359" lon="11.941162329988357"><ele>345.0</ele><time>2026-03-24T14:56:58.999Z</time></trkpt><trkpt lat="42.16744795389625" lon="11.941136819986598"><ele>345.5</ele><time>2026-03-24T14:56:59.999Z</time></trkpt><trkpt lat="42.167326238950196" lon="11.941101221390355"><ele>346.0</ele><time>2026-03-24T14:57:00.999Z</time></trkpt><trkpt lat="42.167221417660976" lon="11.941076151451957"><ele>346.5</ele><time>2026-03-24T14:57:01.998Z</time></trkpt><trkpt lat="42.167102392856435" lon="11.94106645357282"><ele>347.0</ele><time>2026-03-24T14:57:02.998Z</time></trkpt><trkpt lat="42.16697422984557" lon="11.941043311823178"><ele>347.0</ele><time>2026-03-24T14:57:03.998Z</time></trkpt><trkpt lat="42.16684204682673" lon="11.941061387911587"><ele>347.0</ele><time>2026-03-24T14:57:04.998Z</time></trkpt><trkpt lat="42.16671089334039" lon="11.94110618841157"><ele>347.0</ele><time>2026-03-24T14:57:05.998Z</time></trkpt><trkpt lat="42.16658460868829" lon="11.941161910635866"><ele>347.0</ele><time>2026-03-24T14:57:06.998Z</time></trkpt><trkpt lat="42.16645627545204" lon="11.94122151131055"><ele>346.0</ele><time>2026-03-24T14:57:07.998Z</time></trkpt><trkpt lat="42.166324407117486" lon="11.941287172421765"><ele>345.0</ele><time>2026-03-24T14:57:08.998Z</time></trkpt><trkpt lat="42.166208695071845" lon="11.941347287368579"><ele>344.0</ele><time>2026-03-24T14:57:09.998Z</time></trkpt><trkpt lat="42.16610863039215" lon="11.941392857569276"><ele>343.0</ele><time>2026-03-24T14:57:10.998Z</time></trkpt><trkpt lat="42.16600204993389" lon="11.941420845352875"><ele>343.0</ele><time>2026-03-24T14:57:11.998Z</time></trkpt><trkpt lat="42.16589770630935" lon="11.941457176972463"><ele>343.0</ele><time>2026-03-24T14:57:12.998Z</time></trkpt><trkpt lat="42.16579033485896" lon="11.941451611484506"><ele>343.0</ele><time>2026-03-24T14:57:13.998Z</time></trkpt><trkpt lat="42.16568291689282" lon="11.941499436175862"><ele>343.0</ele><time>2026-03-24T14:57:14.998Z</time></trkpt><trkpt lat="42.16556911795722" lon="11.941528395281924"><ele>343.0</ele><time>2026-03-24T14:57:15.998Z</time></trkpt><trkpt lat="42.16546938609361" lon="11.941532207341048"><ele>342.79999999999995</ele><time>2026-03-24T14:57:16.998Z</time></trkpt><trkpt lat="42.165376031153095" lon="11.941560724380212"><ele>342.6</ele><time>2026-03-24T14:57:17.998Z</time></trkpt><trkpt lat="42.165296974131884" lon="11.941639270833093"><ele>342.4</ele><time>2026-03-24T14:57:18.998Z</time></trkpt><trkpt lat="42.16520436302537" lon="11.941691586215352"><ele>342.20000000000005</ele><time>2026-03-24T14:57:19.998Z</time></trkpt><trkpt lat="42.16509797860875" lon="11.94173440598558"><ele>342.0</ele><time>2026-03-24T14:57:20.998Z</time></trkpt><trkpt lat="42.16499484052811" lon="11.94179787057423"><ele>343.5</ele><time>2026-03-24T14:57:22Z</time></trkpt><trkpt lat="42.164905430800594" lon="11.941868855271437"><ele>345.0</ele><time>2026-03-24T14:57:23Z</time></trkpt><trkpt lat="42.16480333181156" lon="11.94190161098295"><ele>346.5</ele><time>2026-03-24T14:57:24Z</time></trkpt><trkpt lat="42.164689571633666" lon="11.941914339948442"><ele>348.0</ele><time>2026-03-24T14:57:25Z</time></trkpt><trkpt lat="42.16456465801331" lon="11.941880763562333"><ele>348.0</ele><time>2026-03-24T14:57:26Z</time></trkpt><trkpt lat="42.16441849915105" lon="11.941871166482395"><ele>348.0</ele><time>2026-03-24T14:57:27Z</time></trkpt><trkpt lat="42.16428987528694" lon="11.941831210216057"><ele>348.0</ele><time>2026-03-24T14:57:28Z</time></trkpt><trkpt lat="42.16417359211067" lon="11.94177878825434"><ele>348.0</ele><time>2026-03-24T14:57:29Z</time></trkpt><trkpt lat="42.16406973925382" lon="11.941690584164862"><ele>350.0</ele><time>2026-03-24T14:57:30Z</time></trkpt><trkpt lat="42.163964207136644" lon="11.941614037563363"><ele>352.0</ele><time>2026-03-24T14:57:31Z</time></trkpt><trkpt lat="42.163861268358325" lon="11.94155866513403"><ele>354.0</ele><time>2026-03-24T14:57:32Z</time></trkpt><trkpt lat="42.16375221877939" lon="11.941556783912002"><ele>356.0</ele><time>2026-03-24T14:57:33Z</time></trkpt><trkpt lat="42.163635088439804" lon="11.94155685776748"><ele>356.0</ele><time>2026-03-24T14:57:34Z</time></trkpt><trkpt lat="42.16351624823448" lon="11.941570921021366"><ele>356.0</ele><time>2026-03-24T14:57:35Z</time></trkpt><trkpt lat="42.16341447215491" lon="11.941598083097364"><ele>356.0</ele><time>2026-03-24T14:57:36Z</time></trkpt><trkpt lat="42.16330638946136" lon="11.941651035362714"><ele>356.0</ele><time>2026-03-24T14:57:37Z</time></trkpt><trkpt lat="42.16320280877628" lon="11.941741485083028"><ele>358.0</ele><time>2026-03-24T14:57:38Z</time></trkpt><trkpt lat="42.163112819973094" lon="11.941862538523283"><ele>360.0</ele><time>2026-03-24T14:57:39Z</time></trkpt><trkpt lat="42.163015823937954" lon="11.941965910496107"><ele>362.0</ele><time>2026-03-24T14:57:40Z</time></trkpt><trkpt lat="42.16292260900127" lon="11.94202779031923"><ele>364.0</ele><time>2026-03-24T14:57:41Z</time></trkpt><trkpt lat="42.162833067378074" lon="11.942095097191407"><ele>364.0</ele><time>2026-03-24T14:57:42Z</time></trkpt><trkpt lat="42.162730605127884" lon="11.94214530834558"><ele>364.0</ele><time>2026-03-24T14:57:43Z</time></trkpt><trkpt lat="42.16263180231054" lon="11.94216814402136"><ele>364.0</ele><time>2026-03-24T14:57:44Z</time></trkpt><trkpt lat="42.16255353106399" lon="11.942184406940232"><ele>364.0</ele><time>2026-03-24T14:57:45Z</time></trkpt><trkpt lat="42.16244845800702" lon="11.942196361742237"><ele>364.0</ele><time>2026-03-24T14:57:47Z</time></trkpt><trkpt lat="42.16242861836572" lon="11.942057406684363"><ele>364.0</ele><time>2026-03-24T14:57:53Z</time></trkpt><trkpt lat="42.162434202615884" lon="11.941935024607005"><ele>364.0</ele><time>2026-03-24T14:58:46.999Z</time></trkpt><trkpt lat="42.162413718116525" lon="11.941839892643008"><ele>364.0</ele><time>2026-03-24T14:58:47.999Z</time></trkpt><trkpt lat="42.16237865417839" lon="11.941731706680054"><ele>364.0</ele><time>2026-03-24T14:58:48.999Z</time></trkpt><trkpt lat="42.16233308366149" lon="11.941609126092843"><ele>364.0</ele><time>2026-03-24T14:58:49.999Z</time></trkpt><trkpt lat="42.16227539373371" lon="11.941474052103567"><ele>370.25</ele><time>2026-03-24T14:58:50.999Z</time></trkpt><trkpt lat="42.162209842769585" lon="11.941337010172504"><ele>376.5</ele><time>2026-03-24T14:58:51.999Z</time></trkpt><trkpt lat="42.16214128837041" lon="11.941192515543642"><ele>382.75</ele><time>2026-03-24T14:58:52.999Z</time></trkpt><trkpt lat="42.16207078410665" lon="11.941036570258431"><ele>389.0</ele><time>2026-03-24T14:58:53.999Z</time></trkpt><trkpt lat="42.16199451402933" lon="11.94087078483804"><ele>390.0</ele><time>2026-03-24T14:58:54.999Z</time></trkpt><trkpt lat="42.161910856250344" lon="11.940690364992825"><ele>391.0</ele><time>2026-03-24T14:58:55.999Z</time></trkpt><trkpt lat="42.161832381092516" lon="11.940522518824618"><ele>392.0</ele><time>2026-03-24T14:58:56.999Z</time></trkpt><trkpt lat="42.161772546111656" lon="11.940371463055795"><ele>393.0</ele><time>2026-03-24T14:58:57.999Z</time></trkpt><trkpt lat="42.16172552019116" lon="11.940229706746956"><ele>393.0</ele><time>2026-03-24T14:58:58.999Z</time></trkpt><trkpt lat="42.161673567415626" lon="11.940109172051141"><ele>393.0</ele><time>2026-03-24T14:58:59.999Z</time></trkpt><trkpt lat="42.161605472770276" lon="11.94001054450182"><ele>393.0</ele><time>2026-03-24T14:59:00.999Z</time></trkpt><trkpt lat="42.16151221588717" lon="11.93994171870295"><ele>393.0</ele><time>2026-03-24T14:59:01.999Z</time></trkpt><trkpt lat="42.16139935780423" lon="11.939906629855113"><ele>393.0</ele><time>2026-03-24T14:59:02.999Z</time></trkpt><trkpt lat="42.161275694606196" lon="11.939922604457065"><ele>390.25</ele><time>2026-03-24T14:59:03.999Z</time></trkpt><trkpt lat="42.16113805231698" lon="11.939955972031738"><ele>387.5</ele><time>2026-03-24T14:59:04.999Z</time></trkpt><trkpt lat="42.160998516509" lon="11.939961780023113"><ele>384.75</ele><time>2026-03-24T14:59:05.999Z</time></trkpt><trkpt lat="42.16086690748365" lon="11.939988698949325"><ele>382.0</ele><time>2026-03-24T14:59:06.999Z</time></trkpt><trkpt lat="42.16073951639189" lon="11.940026833240198"><ele>384.75</ele><time>2026-03-24T14:59:07.999Z</time></trkpt><trkpt lat="42.160618753918335" lon="11.940050410948933"><ele>387.5</ele><time>2026-03-24T14:59:08.999Z</time></trkpt><trkpt lat="42.16051975349627" lon="11.940111871353402"><ele>390.25</ele><time>2026-03-24T14:59:09.999Z</time></trkpt><trkpt lat="42.16043857796154" lon="11.940219582247895"><ele>393.0</ele><time>2026-03-24T14:59:10.999Z</time></trkpt><trkpt lat="42.16035508989897" lon="11.940339013825938"><ele>393.0</ele><time>2026-03-24T14:59:11.999Z</time></trkpt><trkpt lat="42.16031011187187" lon="11.940493091920553"><ele>393.0</ele><time>2026-03-24T14:59:12.998Z</time></trkpt><trkpt lat="42.1602698433356" lon="11.940652367881613"><ele>393.0</ele><time>2026-03-24T14:59:13.998Z</time></trkpt><trkpt lat="42.1602389207895" lon="11.940810501285121"><ele>393.0</ele><time>2026-03-24T14:59:14.998Z</time></trkpt><trkpt lat="42.16020707792106" lon="11.940954462516476"><ele>393.59999999999997</ele><time>2026-03-24T14:59:15.998Z</time></trkpt><trkpt lat="42.16017662891493" lon="11.941092953620783"><ele>394.2</ele><time>2026-03-24T14:59:16.998Z</time></trkpt><trkpt lat="42.1601286091393" lon="11.94122030726671"><ele>394.8</ele><time>2026-03-24T14:59:17.998Z</time></trkpt><trkpt lat="42.16008334750618" lon="11.941357231850327"><ele>395.4</ele><time>2026-03-24T14:59:18.998Z</time></trkpt><trkpt lat="42.16002746491524" lon="11.941493281367968"><ele>396.0</ele><time>2026-03-24T14:59:19.998Z</time></trkpt><trkpt lat="42.15995702019024" lon="11.9416338405412"><ele>396.5</ele><time>2026-03-24T14:59:20.998Z</time></trkpt><trkpt lat="42.159867271004735" lon="11.941759623903375"><ele>397.0</ele><time>2026-03-24T14:59:21.998Z</time></trkpt><trkpt lat="42.1597667074483" lon="11.941887130295768"><ele>397.5</ele><time>2026-03-24T14:59:22.998Z</time></trkpt><trkpt lat="42.15966100494513" lon="11.942003031597505"><ele>398.0</ele><time>2026-03-24T14:59:23.998Z</time></trkpt><trkpt lat="42.15954891182396" lon="11.942113923749542"><ele>398.0</ele><time>2026-03-24T14:59:24.998Z</time></trkpt><trkpt lat="42.159437447424665" lon="11.942208297078794"><ele>398.0</ele><time>2026-03-24T14:59:25.998Z</time></trkpt><trkpt lat="42.15933150589998" lon="11.942270962396586"><ele>398.0</ele><time>2026-03-24T14:59:26.998Z</time></trkpt><trkpt lat="42.15922113295713" lon="11.942298320306753"><ele>398.0</ele><time>2026-03-24T14:59:28Z</time></trkpt><trkpt lat="42.159127277598316" lon="11.942285562522896"><ele>398.0</ele><time>2026-03-24T14:59:29Z</time></trkpt><trkpt lat="42.15904041509825" lon="11.9422668737827"><ele>398.0</ele><time>2026-03-24T14:59:30Z</time></trkpt><trkpt lat="42.15895349802618" lon="11.94216414971832"><ele>398.0</ele><time>2026-03-24T14:59:31Z</time></trkpt><trkpt lat="42.15886309193511" lon="11.942041789850741"><ele>398.0</ele><time>2026-03-24T14:59:32Z</time></trkpt><trkpt lat="42.158763654189784" lon="11.941916656706216"><ele>398.75</ele><time>2026-03-24T14:59:33Z</time></trkpt><trkpt lat="42.158649164875705" lon="11.94180488770362"><ele>399.5</ele><time>2026-03-24T14:59:34Z</time></trkpt><trkpt lat="42.158524411400755" lon="11.94172566717436"><ele>400.25</ele><time>2026-03-24T14:59:35Z</time></trkpt><trkpt lat="42.158394930197495" lon="11.941685083123183"><ele>401.0</ele><time>2026-03-24T14:59:36Z</time></trkpt><trkpt lat="42.15825806668483" lon="11.941689380272278"><ele>409.3333333333333</ele><time>2026-03-24T14:59:37Z</time></trkpt><trkpt lat="42.158109642424336" lon="11.941730260491143"><ele>417.66666666666663</ele><time>2026-03-24T14:59:38Z</time></trkpt><trkpt lat="42.15794145969606" lon="11.941817225703295"><ele>426.0</ele><time>2026-03-24T14:59:39Z</time></trkpt><trkpt lat="42.15776123493005" lon="11.941893881545957"><ele>426.0</ele><time>2026-03-24T14:59:40Z</time></trkpt><trkpt lat="42.157587737570424" lon="11.941976557270804"><ele>426.0</ele><time>2026-03-24T14:59:41Z</time></trkpt><trkpt lat="42.157454316576576" lon="11.942086280459044"><ele>426.0</ele><time>2026-03-24T14:59:42Z</time></trkpt><trkpt lat="42.15733905781639" lon="11.942193948381085"><ele>422.66666666666663</ele><time>2026-03-24T14:59:43Z</time></trkpt><trkpt lat="42.157255297949256" lon="11.942362545841194"><ele>419.3333333333333</ele><time>2026-03-24T14:59:44Z</time></trkpt><trkpt lat="42.157150503734194" lon="11.942541002281398"><ele>416.0</ele><time>2026-03-24T14:59:45Z</time></trkpt><trkpt lat="42.15706213773207" lon="11.94267325120339"><ele>416.0</ele><time>2026-03-24T14:59:46Z</time></trkpt><trkpt lat="42.15695545812336" lon="11.942769502730687"><ele>416.0</ele><time>2026-03-24T14:59:47Z</time></trkpt><trkpt lat="42.15681569977335" lon="11.942862204019466"><ele>416.0</ele><time>2026-03-24T14:59:48Z</time></trkpt><trkpt lat="42.156669843034905" lon="11.942930845828151"><ele>416.0</ele><time>2026-03-24T14:59:49Z</time></trkpt><trkpt lat="42.15654541070703" lon="11.942949189123322"><ele>413.0</ele><time>2026-03-24T14:59:50Z</time></trkpt><trkpt lat="42.15642439556212" lon="11.942934200695895"><ele>410.0</ele><time>2026-03-24T14:59:51Z</time></trkpt><trkpt lat="42.15630506929606" lon="11.942890200887124"><ele>407.0</ele><time>2026-03-24T14:59:52Z</time></trkpt><trkpt lat="42.15619092085317" lon="11.942806771414544"><ele>404.0</ele><time>2026-03-24T14:59:53Z</time></trkpt><trkpt lat="42.156086374773366" lon="11.942695017730662"><ele>412.3333333333333</ele><time>2026-03-24T14:59:54Z</time></trkpt><trkpt lat="42.155984617097566" lon="11.942543530763208"><ele>420.66666666666663</ele><time>2026-03-24T14:59:55Z</time></trkpt><trkpt lat="42.15590554081463" lon="11.94236007349777"><ele>429.0</ele><time>2026-03-24T14:59:56Z</time></trkpt><trkpt lat="42.155821774616314" lon="11.942177467113005"><ele>429.0</ele><time>2026-03-24T14:59:57Z</time></trkpt><trkpt lat="42.155705139597366" lon="11.942041907562775"><ele>429.0</ele><time>2026-03-24T14:59:58Z</time></trkpt><trkpt lat="42.1556210825752" lon="11.941901290345461"><ele>429.0</ele><time>2026-03-24T14:59:59Z</time></trkpt><trkpt lat="42.15552757765484" lon="11.941783839297415"><ele>429.0</ele><time>2026-03-24T15:00:00Z</time></trkpt><trkpt lat="42.15543664128823" lon="11.941687547320223"><ele>430.0</ele><time>2026-03-24T15:00:01Z</time></trkpt><trkpt lat="42.15535626519494" lon="11.941592635913612"><ele>431.0</ele><time>2026-03-24T15:00:02Z</time></trkpt><trkpt lat="42.155278763479956" lon="11.941480145700442"><ele>432.0</ele><time>2026-03-24T15:00:03Z</time></trkpt><trkpt lat="42.15520035796112" lon="11.941372276917058"><ele>433.0</ele><time>2026-03-24T15:00:04Z</time></trkpt><trkpt lat="42.155122580279425" lon="11.94125863111409"><ele>434.0</ele><time>2026-03-24T15:00:05Z</time></trkpt><trkpt lat="42.1550522100397" lon="11.941142553686841"><ele>434.0</ele><time>2026-03-24T15:00:06Z</time></trkpt><trkpt lat="42.154982100803664" lon="11.941027312258703"><ele>434.0</ele><time>2026-03-24T15:00:07Z</time></trkpt><trkpt lat="42.15491807068216" lon="11.940908130441118"><ele>434.0</ele><time>2026-03-24T15:00:08Z</time></trkpt><trkpt lat="42.15485455356861" lon="11.940784203580476"><ele>434.0</ele><time>2026-03-24T15:00:09Z</time></trkpt><trkpt lat="42.154794535790884" lon="11.940654160519127"><ele>434.0</ele><time>2026-03-24T15:00:10Z</time></trkpt><trkpt lat="42.15474526726583" lon="11.94052326168737"><ele>436.0</ele><time>2026-03-24T15:00:11Z</time></trkpt><trkpt lat="42.154709299021775" lon="11.940407277040556"><ele>438.0</ele><time>2026-03-24T15:00:12Z</time></trkpt><trkpt lat="42.15467854155748" lon="11.940290072435587"><ele>440.0</ele><time>2026-03-24T15:00:13Z</time></trkpt><trkpt lat="42.154655075495384" lon="11.940190274412533"><ele>442.0</ele><time>2026-03-24T15:00:14Z</time></trkpt><trkpt lat="42.154644043486826" lon="11.940065721893667"><ele>444.0</ele><time>2026-03-24T15:00:15Z</time></trkpt><trkpt lat="42.154637098404464" lon="11.939929916747449"><ele>445.0</ele><time>2026-03-24T15:00:16Z</time></trkpt><trkpt lat="42.15462447323756" lon="11.939802949593059"><ele>446.0</ele><time>2026-03-24T15:00:17Z</time></trkpt><trkpt lat="42.154606891933646" lon="11.939702767891104"><ele>447.0</ele><time>2026-03-24T15:00:18Z</time></trkpt><trkpt lat="42.15458563549489" lon="11.939605246098951"><ele>448.0</ele><time>2026-03-24T15:00:19Z</time></trkpt><trkpt lat="42.154557374882884" lon="11.939516601960051"><ele>449.0</ele><time>2026-03-24T15:00:20Z</time></trkpt><trkpt lat="42.154483411078814" lon="11.93943759197351"><ele>450.0</ele><time>2026-03-24T15:00:21Z</time></trkpt><trkpt lat="42.15441263576779" lon="11.939375770361078"><ele>450.0</ele><time>2026-03-24T15:00:22Z</time></trkpt><trkpt lat="42.1543324593694" lon="11.939331263665265"><ele>450.0</ele><time>2026-03-24T15:00:23Z</time></trkpt><trkpt lat="42.154239659355525" lon="11.939318056604963"><ele>450.0</ele><time>2026-03-24T15:00:24Z</time></trkpt><trkpt lat="42.154140162329654" lon="11.939330316234726"><ele>450.0</ele><time>2026-03-24T15:00:25Z</time></trkpt><trkpt lat="42.15404410165897" lon="11.939347372541542"><ele>450.0</ele><time>2026-03-24T15:00:26Z</time></trkpt><trkpt lat="42.153950309653546" lon="11.939353005290622"><ele>453.1666666666667</ele><time>2026-03-24T15:00:27Z</time></trkpt><trkpt lat="42.15385431736117" lon="11.939355553582942"><ele>456.33333333333337</ele><time>2026-03-24T15:00:28Z</time></trkpt><trkpt lat="42.15376155483677" lon="11.939355003937003"><ele>459.5</ele><time>2026-03-24T15:00:28.999Z</time></trkpt><trkpt lat="42.15368984410882" lon="11.939364311101855"><ele>462.6666666666667</ele><time>2026-03-24T15:00:29.999Z</time></trkpt><trkpt lat="42.15362303755956" lon="11.939373861363446"><ele>465.83333333333337</ele><time>2026-03-24T15:00:30.999Z</time></trkpt><trkpt lat="42.15352660936819" lon="11.93940678617972"><ele>469.0</ele><time>2026-03-24T15:00:32.999Z</time></trkpt><trkpt lat="42.15346285166606" lon="11.939467628436486"><ele>469.00000000000006</ele><time>2026-03-24T15:00:34.999Z</time></trkpt><trkpt lat="42.153395059862184" lon="11.939566870119235"><ele>469.0</ele><time>2026-03-24T15:00:36.999Z</time></trkpt><trkpt lat="42.15336974737771" lon="11.9396556470199"><ele>469.0</ele><time>2026-03-24T15:00:37.999Z</time></trkpt><trkpt lat="42.15336539932346" lon="11.939765807288392"><ele>469.0</ele><time>2026-03-24T15:00:38.999Z</time></trkpt><trkpt lat="42.15338386393971" lon="11.939884274158826"><ele>469.00000000000006</ele><time>2026-03-24T15:00:39.999Z</time></trkpt><trkpt lat="42.153392943304034" lon="11.94000746928201"><ele>469.0</ele><time>2026-03-24T15:00:40.999Z</time></trkpt><trkpt lat="42.15341880693047" lon="11.940124082581205"><ele>469.33333333333337</ele><time>2026-03-24T15:00:41.999Z</time></trkpt><trkpt lat="42.153445681526826" lon="11.94024268440358"><ele>469.6666666666667</ele><time>2026-03-24T15:00:42.999Z</time></trkpt><trkpt lat="42.153470761041554" lon="11.940357205512514"><ele>470.0</ele><time>2026-03-24T15:00:43.999Z</time></trkpt><trkpt lat="42.153495978064505" lon="11.94047310055924"><ele>470.33333333333337</ele><time>2026-03-24T15:00:44.999Z</time></trkpt><trkpt lat="42.15351877950977" lon="11.940584745791737"><ele>470.6666666666667</ele><time>2026-03-24T15:00:45.999Z</time></trkpt><trkpt lat="42.15353248676549" lon="11.94068179323122"><ele>471.0</ele><time>2026-03-24T15:00:46.999Z</time></trkpt><trkpt lat="42.15354285023088" lon="11.94077909310386"><ele>471.0</ele><time>2026-03-24T15:00:47.999Z</time></trkpt><trkpt lat="42.153530749082464" lon="11.940871935238082"><ele>471.0</ele><time>2026-03-24T15:00:48.999Z</time></trkpt><trkpt lat="42.15346741073772" lon="11.941007997132063"><ele>471.0</ele><time>2026-03-24T15:00:50.999Z</time></trkpt><trkpt lat="42.15342036389493" lon="11.941071740728145"><ele>471.0</ele><time>2026-03-24T15:00:51.999Z</time></trkpt><trkpt lat="42.1533604422941" lon="11.941126641347406"><ele>471.0</ele><time>2026-03-24T15:00:54.999Z</time></trkpt><trkpt lat="42.15329884216878" lon="11.941183837477695"><ele>471.0</ele><time>2026-03-24T15:00:58.999Z</time></trkpt><trkpt lat="42.153243109053626" lon="11.941266223877497"><ele>471.1666666666667</ele><time>2026-03-24T15:01:00.999Z</time></trkpt><trkpt lat="42.15316888025975" lon="11.941318397170496"><ele>471.33333333333337</ele><time>2026-03-24T15:01:02.999Z</time></trkpt><trkpt lat="42.153102407276705" lon="11.941371696089165"><ele>471.5</ele><time>2026-03-24T15:01:04.999Z</time></trkpt><trkpt lat="42.153174361865815" lon="11.941324758513536"><ele>471.6666666666667</ele><time>2026-03-24T15:01:24.999Z</time></trkpt><trkpt lat="42.15322969470728" lon="11.9412733907428"><ele>471.83333333333337</ele><time>2026-03-24T15:01:25.999Z</time></trkpt><trkpt lat="42.15331117069623" lon="11.941194657557197"><ele>472.0</ele><time>2026-03-24T15:01:27.998Z</time></trkpt><trkpt lat="42.15339052535152" lon="11.94114258137989"><ele>472.00000000000006</ele><time>2026-03-24T15:01:29.998Z</time></trkpt><trkpt lat="42.15345316256256" lon="11.941062993833137"><ele>472.0</ele><time>2026-03-24T15:01:31.998Z</time></trkpt><trkpt lat="42.15352179976009" lon="11.941000522288176"><ele>472.0</ele><time>2026-03-24T15:01:34Z</time></trkpt><trkpt lat="42.153567396052885" lon="11.940917294255911"><ele>472.0</ele><time>2026-03-24T15:01:36Z</time></trkpt><trkpt lat="42.15359147760053" lon="11.940817469117652"><ele>472.00000000000006</ele><time>2026-03-24T15:01:38Z</time></trkpt><trkpt lat="42.15358135615075" lon="11.940712456484743"><ele>472.0</ele><time>2026-03-24T15:01:40Z</time></trkpt><trkpt lat="42.15356562361871" lon="11.940600826467586"><ele>471.8</ele><time>2026-03-24T15:01:42Z</time></trkpt><trkpt lat="42.15352647151389" lon="11.94043229723115"><ele>471.6</ele><time>2026-03-24T15:01:44Z</time></trkpt><trkpt lat="42.15350945896642" lon="11.940346396140411"><ele>471.40000000000003</ele><time>2026-03-24T15:01:45Z</time></trkpt><trkpt lat="42.15348819756086" lon="11.940243326531755"><ele>471.20000000000005</ele><time>2026-03-24T15:01:46Z</time></trkpt><trkpt lat="42.153461860345395" lon="11.940132123274877"><ele>471.0</ele><time>2026-03-24T15:01:47Z</time></trkpt><trkpt lat="42.15343091457412" lon="11.940021241287795"><ele>470.6</ele><time>2026-03-24T15:01:48Z</time></trkpt><trkpt lat="42.15340970192951" lon="11.939920340450575"><ele>470.20000000000005</ele><time>2026-03-24T15:01:49Z</time></trkpt><trkpt lat="42.15339513498264" lon="11.939834234250299"><ele>469.79999999999995</ele><time>2026-03-24T15:01:50Z</time></trkpt><trkpt lat="42.153389688825065" lon="11.939666930852486"><ele>469.4</ele><time>2026-03-24T15:01:52Z</time></trkpt><trkpt lat="42.153442866050455" lon="11.93951540707684"><ele>469.0</ele><time>2026-03-24T15:01:54Z</time></trkpt><trkpt lat="42.15348915827583" lon="11.93943050023716"><ele>469.0</ele><time>2026-03-24T15:01:55Z</time></trkpt><trkpt lat="42.15355198884918" lon="11.939360880743335"><ele>469.0</ele><time>2026-03-24T15:01:56Z</time></trkpt><trkpt lat="42.15363252291052" lon="11.93930561091084"><ele>469.0</ele><time>2026-03-24T15:01:57Z</time></trkpt><trkpt lat="42.15373194398642" lon="11.93928762021052"><ele>469.0</ele><time>2026-03-24T15:01:58Z</time></trkpt><trkpt lat="42.15382309042028" lon="11.939262445332155"><ele>469.0</ele><time>2026-03-24T15:01:59Z</time></trkpt><trkpt lat="42.15391412222739" lon="11.939229666303593"><ele>470.2</ele><time>2026-03-24T15:02:00Z</time></trkpt><trkpt lat="42.15400250220564" lon="11.939192600402802"><ele>471.4</ele><time>2026-03-24T15:02:01Z</time></trkpt><trkpt lat="42.1540899890523" lon="11.93915567001925"><ele>472.6</ele><time>2026-03-24T15:02:02Z</time></trkpt><trkpt lat="42.154176346719325" lon="11.939113724220611"><ele>473.8</ele><time>2026-03-24T15:02:03Z</time></trkpt><trkpt lat="42.1542620776215" lon="11.939068222116525"><ele>475.0</ele><time>2026-03-24T15:02:04Z</time></trkpt><trkpt lat="42.15434601926259" lon="11.939022055482312"><ele>472.50000000000006</ele><time>2026-03-24T15:02:05Z</time></trkpt><trkpt lat="42.15442964021646" lon="11.938982143551522"><ele>470.0</ele><time>2026-03-24T15:02:06Z</time></trkpt><trkpt lat="42.154509728108344" lon="11.93894216998765"><ele>467.5</ele><time>2026-03-24T15:02:07Z</time></trkpt><trkpt lat="42.154586472866846" lon="11.938907170391644"><ele>465.0</ele><time>2026-03-24T15:02:08Z</time></trkpt><trkpt lat="42.15466572510955" lon="11.938870765848803"><ele>462.50000000000006</ele><time>2026-03-24T15:02:09Z</time></trkpt><trkpt lat="42.154742275277826" lon="11.938832816984105"><ele>460.0</ele><time>2026-03-24T15:02:10Z</time></trkpt><trkpt lat="42.154819588712186" lon="11.938801351952693"><ele>461.1666666666667</ele><time>2026-03-24T15:02:11Z</time></trkpt><trkpt lat="42.154898009811056" lon="11.938764805045649"><ele>462.33333333333337</ele><time>2026-03-24T15:02:12Z</time></trkpt><trkpt lat="42.15498032130849" lon="11.938710719523367"><ele>463.5</ele><time>2026-03-24T15:02:13Z</time></trkpt><trkpt lat="42.155063359099195" lon="11.938661947965247"><ele>464.66666666666663</ele><time>2026-03-24T15:02:14Z</time></trkpt><trkpt lat="42.15514227110112" lon="11.93862319540367"><ele>465.8333333333333</ele><time>2026-03-24T15:02:15Z</time></trkpt><trkpt lat="42.15521426755907" lon="11.93858478202799"><ele>467.0</ele><time>2026-03-24T15:02:16Z</time></trkpt><trkpt lat="42.155269992261566" lon="11.93853987084801"><ele>466.99999999999994</ele><time>2026-03-24T15:02:17Z</time></trkpt><trkpt lat="42.15531847214503" lon="11.938427407402624"><ele>467.0</ele><time>2026-03-24T15:02:19Z</time></trkpt><trkpt lat="42.155248257345676" lon="11.938347249646794"><ele>467.0</ele><time>2026-03-24T15:02:21Z</time></trkpt><trkpt lat="42.155177508129654" lon="11.938358358353854"><ele>467.0</ele><time>2026-03-24T15:02:22Z</time></trkpt><trkpt lat="42.15508999219892" lon="11.93834476819044"><ele>466.99999999999994</ele><time>2026-03-24T15:02:23Z</time></trkpt><trkpt lat="42.155009386665164" lon="11.938352522585031"><ele>467.0</ele><time>2026-03-24T15:02:24Z</time></trkpt><trkpt lat="42.154888217656946" lon="11.938364179117418"><ele>465.99999999999994</ele><time>2026-03-24T15:02:26Z</time></trkpt><trkpt lat="42.15482419716976" lon="11.938410466377256"><ele>465.0</ele><time>2026-03-24T15:02:27Z</time></trkpt><trkpt lat="42.15475999154821" lon="11.938418039527532"><ele>463.99999999999994</ele><time>2026-03-24T15:02:28Z</time></trkpt><trkpt lat="42.15468758686329" lon="11.938418643064818"><ele>462.99999999999994</ele><time>2026-03-24T15:02:29Z</time></trkpt><trkpt lat="42.15461695273892" lon="11.938440176379865"><ele>462.0</ele><time>2026-03-24T15:02:30Z</time></trkpt><trkpt lat="42.15453099992824" lon="11.938460522645682"><ele>460.99999999999994</ele><time>2026-03-24T15:02:31Z</time></trkpt><trkpt lat="42.15447230267804" lon="11.938526936563894"><ele>459.99999999999994</ele><time>2026-03-24T15:02:32Z</time></trkpt><trkpt lat="42.15439837637388" lon="11.93854848854906"><ele>460.00000000000006</ele><time>2026-03-24T15:02:33Z</time></trkpt><trkpt lat="42.15428344904222" lon="11.938603998863465"><ele>460.0</ele><time>2026-03-24T15:02:35Z</time></trkpt><trkpt lat="42.15422059742159" lon="11.938620042579032"><ele>460.0</ele><time>2026-03-24T15:02:36Z</time></trkpt><trkpt lat="42.15415090324198" lon="11.938620559037739"><ele>460.0</ele><time>2026-03-24T15:02:36.999Z</time></trkpt><trkpt lat="42.154066719995626" lon="11.938616918541598"><ele>460.00000000000006</ele><time>2026-03-24T15:02:37.999Z</time></trkpt><trkpt lat="42.15398134088356" lon="11.938622404798737"><ele>460.0</ele><time>2026-03-24T15:02:38.999Z</time></trkpt><trkpt lat="42.153895953217514" lon="11.938636606991576"><ele>462.50000000000006</ele><time>2026-03-24T15:02:39.999Z</time></trkpt><trkpt lat="42.1538128334489" lon="11.938653592534882"><ele>465.0</ele><time>2026-03-24T15:02:40.999Z</time></trkpt><trkpt lat="42.153733835033584" lon="11.93867244617414"><ele>467.5</ele><time>2026-03-24T15:02:41.999Z</time></trkpt><trkpt lat="42.15365700215229" lon="11.938692937447419"><ele>470.0</ele><time>2026-03-24T15:02:42.999Z</time></trkpt><trkpt lat="42.1535848902856" lon="11.938712498163174"><ele>472.50000000000006</ele><time>2026-03-24T15:02:43.999Z</time></trkpt><trkpt lat="42.15350968348926" lon="11.93873511109753"><ele>475.0</ele><time>2026-03-24T15:02:44.999Z</time></trkpt><trkpt lat="42.15343805966799" lon="11.938760096949013"><ele>475.00000000000006</ele><time>2026-03-24T15:02:45.999Z</time></trkpt><trkpt lat="42.15336876178115" lon="11.938789609724015"><ele>475.0</ele><time>2026-03-24T15:02:46.999Z</time></trkpt><trkpt lat="42.153290864827916" lon="11.938840993877504"><ele>475.0</ele><time>2026-03-24T15:02:47.999Z</time></trkpt><trkpt lat="42.153229434363546" lon="11.9389038512223"><ele>475.0</ele><time>2026-03-24T15:02:48.999Z</time></trkpt><trkpt lat="42.15317635783721" lon="11.938958079653768"><ele>475.00000000000006</ele><time>2026-03-24T15:02:49.999Z</time></trkpt><trkpt lat="42.153115929799085" lon="11.939017969728535"><ele>475.0</ele><time>2026-03-24T15:02:50.999Z</time></trkpt><trkpt lat="42.153049945397996" lon="11.939073258159064"><ele>477.50000000000006</ele><time>2026-03-24T15:02:51.999Z</time></trkpt><trkpt lat="42.152983014500734" lon="11.939134449574961"><ele>480.0</ele><time>2026-03-24T15:02:52.999Z</time></trkpt><trkpt lat="42.15287632365296" lon="11.939237208681403"><ele>482.5</ele><time>2026-03-24T15:02:54.999Z</time></trkpt><trkpt lat="42.15282064398126" lon="11.939290588918134"><ele>485.0</ele><time>2026-03-24T15:02:55.999Z</time></trkpt><trkpt lat="42.15275758031957" lon="11.939349583945832"><ele>487.50000000000006</ele><time>2026-03-24T15:02:57.999Z</time></trkpt><trkpt lat="42.15269952336153" lon="11.939395333038687"><ele>490.0</ele><time>2026-03-24T15:03:03.999Z</time></trkpt><trkpt lat="42.15263879346464" lon="11.939434776159237"><ele>490.00000000000006</ele><time>2026-03-24T15:03:08.999Z</time></trkpt><trkpt lat="42.15262599332353" lon="11.939315634668585"><ele>490.0</ele><time>2026-03-24T15:03:13.999Z</time></trkpt><trkpt lat="42.1525844180386" lon="11.93922791110848"><ele>490.0</ele><time>2026-03-24T15:03:15.999Z</time></trkpt><trkpt lat="42.15257606023001" lon="11.939084903101564"><ele>490.0</ele><time>2026-03-24T15:03:17.999Z</time></trkpt><trkpt lat="42.152563665770636" lon="11.939000904165155"><ele>490.00000000000006</ele><time>2026-03-24T15:03:18.999Z</time></trkpt><trkpt lat="42.152549884912" lon="11.938851218431328"><ele>490.0</ele><time>2026-03-24T15:03:20.999Z</time></trkpt><trkpt lat="42.15252525590265" lon="11.938703877270294"><ele>491.0</ele><time>2026-03-24T15:03:22.999Z</time></trkpt><trkpt lat="42.15251165774739" lon="11.938551573885695"><ele>492.0</ele><time>2026-03-24T15:03:24.999Z</time></trkpt><trkpt lat="42.15247564842652" lon="11.93841339305506"><ele>493.0</ele><time>2026-03-24T15:03:26.999Z</time></trkpt><trkpt lat="42.152469446654564" lon="11.93826214041716"><ele>494.0</ele><time>2026-03-24T15:03:28.999Z</time></trkpt><trkpt lat="42.15246096473548" lon="11.938114244004158"><ele>495.0</ele><time>2026-03-24T15:03:30.999Z</time></trkpt><trkpt lat="42.15245064057558" lon="11.938021989319356"><ele>496.5</ele><time>2026-03-24T15:03:31.999Z</time></trkpt><trkpt lat="42.15243574773571" lon="11.937906323862464"><ele>498.0</ele><time>2026-03-24T15:03:32.999Z</time></trkpt><trkpt lat="42.15238071782164" lon="11.937806513052939"><ele>499.5</ele><time>2026-03-24T15:03:33.999Z</time></trkpt><trkpt lat="42.152362012159955" lon="11.937706800115466"><ele>501.0</ele><time>2026-03-24T15:03:34.999Z</time></trkpt><trkpt lat="42.15234314789579" lon="11.937620982048013"><ele>502.5</ele><time>2026-03-24T15:03:35.998Z</time></trkpt><trkpt lat="42.15230355692618" lon="11.937468664567746"><ele>504.0</ele><time>2026-03-24T15:03:37.998Z</time></trkpt><trkpt lat="42.152345498607495" lon="11.93734889733192"><ele>505.57142857142856</ele><time>2026-03-24T15:03:39Z</time></trkpt><trkpt lat="42.15235273041783" lon="11.937252956680759"><ele>507.1428571428571</ele><time>2026-03-24T15:03:40Z</time></trkpt><trkpt lat="42.15237161574736" lon="11.937162336889964"><ele>508.7142857142857</ele><time>2026-03-24T15:03:41Z</time></trkpt><trkpt lat="42.15237687719494" lon="11.937072473610385"><ele>510.2857142857143</ele><time>2026-03-24T15:03:42Z</time></trkpt><trkpt lat="42.15238084808905" lon="11.936975792921137"><ele>511.85714285714283</ele><time>2026-03-24T15:03:43Z</time></trkpt><trkpt lat="42.152381434797704" lon="11.936876215252584"><ele>513.4285714285714</ele><time>2026-03-24T15:03:44Z</time></trkpt><trkpt lat="42.15238427919291" lon="11.93677402203471"><ele>515.0</ele><time>2026-03-24T15:03:45Z</time></trkpt><trkpt lat="42.15238804504585" lon="11.936659090493732"><ele>516.2</ele><time>2026-03-24T15:03:46Z</time></trkpt><trkpt lat="42.15239444355163" lon="11.936527420960493"><ele>517.4</ele><time>2026-03-24T15:03:47Z</time></trkpt><trkpt lat="42.1524031599599" lon="11.936387760000358"><ele>518.6</ele><time>2026-03-24T15:03:48Z</time></trkpt><trkpt lat="42.152411549547594" lon="11.936235998144648"><ele>519.8</ele><time>2026-03-24T15:03:49Z</time></trkpt><trkpt lat="42.15242242746941" lon="11.93609416976354"><ele>521.0</ele><time>2026-03-24T15:03:50Z</time></trkpt><trkpt lat="42.15243256953715" lon="11.935984324914502"><ele>521.1666666666666</ele><time>2026-03-24T15:03:51Z</time></trkpt><trkpt lat="42.15244650547002" lon="11.935876048269975"><ele>521.3333333333333</ele><time>2026-03-24T15:03:52Z</time></trkpt><trkpt lat="42.15246670985477" lon="11.935769879713261"><ele>521.5</ele><time>2026-03-24T15:03:53Z</time></trkpt><trkpt lat="42.15248164584026" lon="11.935670659987816"><ele>521.6666666666666</ele><time>2026-03-24T15:03:54Z</time></trkpt><trkpt lat="42.152477681120246" lon="11.93556605037278"><ele>521.8333333333334</ele><time>2026-03-24T15:03:55Z</time></trkpt><trkpt lat="42.15246021713813" lon="11.935458796847756"><ele>522.0</ele><time>2026-03-24T15:03:56Z</time></trkpt><trkpt lat="42.15244258982336" lon="11.935360042560625"><ele>522.0</ele><time>2026-03-24T15:03:57Z</time></trkpt><trkpt lat="42.15242460974448" lon="11.935253982050797"><ele>522.0</ele><time>2026-03-24T15:03:58Z</time></trkpt><trkpt lat="42.15240907400616" lon="11.935147179495637"><ele>522.0</ele><time>2026-03-24T15:03:59Z</time></trkpt><trkpt lat="42.15239307286276" lon="11.93503714359496"><ele>522.0</ele><time>2026-03-24T15:04:00Z</time></trkpt><trkpt lat="42.15237828272347" lon="11.934934123264098"><ele>522.0</ele><time>2026-03-24T15:04:01Z</time></trkpt><trkpt lat="42.152362289283076" lon="11.934843963038022"><ele>522.0</ele><time>2026-03-24T15:04:02Z</time></trkpt><trkpt lat="42.152326268545536" lon="11.934702638104467"><ele>521.6</ele><time>2026-03-24T15:04:04Z</time></trkpt><trkpt lat="42.152310744176575" lon="11.93460466018471"><ele>521.2</ele><time>2026-03-24T15:04:06Z</time></trkpt><trkpt lat="42.152165218125056" lon="11.934645658945499"><ele>520.8</ele><time>2026-03-24T15:04:07Z</time></trkpt><trkpt lat="42.15206440942875" lon="11.93471489251472"><ele>520.4</ele><time>2026-03-24T15:04:09Z</time></trkpt><trkpt lat="42.15198582775851" lon="11.934746018047464"><ele>520.0</ele><time>2026-03-24T15:04:10Z</time></trkpt><trkpt lat="42.15190016761888" lon="11.93477854000357"><ele>520.0</ele><time>2026-03-24T15:04:11Z</time></trkpt><trkpt lat="42.15182582850239" lon="11.934805344549602"><ele>520.0</ele><time>2026-03-24T15:04:12Z</time></trkpt><trkpt lat="42.15175418645464" lon="11.934831900062731"><ele>520.0</ele><time>2026-03-24T15:04:13Z</time></trkpt><trkpt lat="42.151655207919454" lon="11.934872883289136"><ele>520.0</ele><time>2026-03-24T15:04:15Z</time></trkpt><trkpt lat="42.15159024092713" lon="11.934684955495248"><ele>520.0</ele><time>2026-03-24T15:04:17Z</time></trkpt><trkpt lat="42.151550365033195" lon="11.934591824816586"><ele>517.8</ele><time>2026-03-24T15:04:18Z</time></trkpt><trkpt lat="42.15146970350554" lon="11.934522953913536"><ele>515.6</ele><time>2026-03-24T15:04:19Z</time></trkpt><trkpt lat="42.151350084294585" lon="11.934524110901078"><ele>513.4</ele><time>2026-03-24T15:04:20Z</time></trkpt><trkpt lat="42.15125131329989" lon="11.93451917802999"><ele>511.2</ele><time>2026-03-24T15:04:21Z</time></trkpt><trkpt lat="42.15116482566736" lon="11.934518062336725"><ele>509.0</ele><time>2026-03-24T15:04:22Z</time></trkpt><trkpt lat="42.1510873121338" lon="11.934504531948512"><ele>509.0</ele><time>2026-03-24T15:04:23Z</time></trkpt><trkpt lat="42.151011793156776" lon="11.934485440565886"><ele>509.0</ele><time>2026-03-24T15:04:24Z</time></trkpt><trkpt lat="42.150903966820735" lon="11.934440072938617"><ele>509.0</ele><time>2026-03-24T15:04:26Z</time></trkpt><trkpt lat="42.150840124757025" lon="11.934325140305651"><ele>509.0</ele><time>2026-03-24T15:04:28Z</time></trkpt><trkpt lat="42.150841686083304" lon="11.93422057836468"><ele>509.0</ele><time>2026-03-24T15:04:29Z</time></trkpt><trkpt lat="42.150844431602934" lon="11.934080734793824"><ele>508.49999999999994</ele><time>2026-03-24T15:04:30Z</time></trkpt><trkpt lat="42.1508381064207" lon="11.933984361079219"><ele>508.0</ele><time>2026-03-24T15:04:31Z</time></trkpt><trkpt lat="42.15081821942405" lon="11.933903761986336"><ele>507.5</ele><time>2026-03-24T15:04:32Z</time></trkpt><trkpt lat="42.15079209848706" lon="11.933826019692978"><ele>507.0</ele><time>2026-03-24T15:04:33Z</time></trkpt><trkpt lat="42.15072494774724" lon="11.933780200182456"><ele>506.49999999999994</ele><time>2026-03-24T15:04:34Z</time></trkpt><trkpt lat="42.15063931425694" lon="11.933785078375786"><ele>506.0</ele><time>2026-03-24T15:04:35Z</time></trkpt><trkpt lat="42.15052683642985" lon="11.933841347797992"><ele>502.75</ele><time>2026-03-24T15:04:36Z</time></trkpt><trkpt lat="42.15036148520441" lon="11.93389433445667"><ele>499.5</ele><time>2026-03-24T15:04:37Z</time></trkpt><trkpt lat="42.15021914096944" lon="11.933939948444728"><ele>496.25</ele><time>2026-03-24T15:04:38Z</time></trkpt><trkpt lat="42.15013082846688" lon="11.933968248135326"><ele>493.0</ele><time>2026-03-24T15:04:39Z</time></trkpt><trkpt lat="42.15006889047698" lon="11.93398960524778"><ele>493.0</ele><time>2026-03-24T15:04:40Z</time></trkpt><trkpt lat="42.150008860117" lon="11.934026691987059"><ele>492.99999999999994</ele><time>2026-03-24T15:04:42Z</time></trkpt><trkpt lat="42.1499394962458" lon="11.934042575359186"><ele>492.99999999999994</ele><time>2026-03-24T15:04:45.999Z</time></trkpt><trkpt lat="42.15001155296011" lon="11.934254197705917"><ele>493.0</ele><time>2026-03-24T15:04:46.999Z</time></trkpt><trkpt lat="42.15004687673322" lon="11.934330786932323"><ele>493.0</ele><time>2026-03-24T15:04:47.999Z</time></trkpt><trkpt lat="42.15008356589484" lon="11.934417235242485"><ele>492.00000000000006</ele><time>2026-03-24T15:04:48.999Z</time></trkpt><trkpt lat="42.15010920472347" lon="11.934523628069996"><ele>491.0</ele><time>2026-03-24T15:04:49.999Z</time></trkpt><trkpt lat="42.15012506033113" lon="11.93463835916362"><ele>490.0</ele><time>2026-03-24T15:04:50.999Z</time></trkpt><trkpt lat="42.150128267460126" lon="11.934746182345837"><ele>489.0</ele><time>2026-03-24T15:04:51.999Z</time></trkpt><trkpt lat="42.15012845030778" lon="11.934855397228766"><ele>488.00000000000006</ele><time>2026-03-24T15:04:52.999Z</time></trkpt><trkpt lat="42.150130140373896" lon="11.934965831352647"><ele>487.0</ele><time>2026-03-24T15:04:53.999Z</time></trkpt><trkpt lat="42.15012934305812" lon="11.935079624722622"><ele>486.83333333333337</ele><time>2026-03-24T15:04:54.999Z</time></trkpt><trkpt lat="42.150125941599505" lon="11.935193807250128"><ele>486.6666666666667</ele><time>2026-03-24T15:04:55.999Z</time></trkpt><trkpt lat="42.150124618096356" lon="11.935301828329479"><ele>486.5</ele><time>2026-03-24T15:04:56.999Z</time></trkpt><trkpt lat="42.15012209193617" lon="11.93540133890718"><ele>486.33333333333337</ele><time>2026-03-24T15:04:57.999Z</time></trkpt><trkpt lat="42.150122165442646" lon="11.935501955321076"><ele>486.1666666666667</ele><time>2026-03-24T15:04:58.999Z</time></trkpt><trkpt lat="42.15012384777793" lon="11.935606557502316"><ele>486.0</ele><time>2026-03-24T15:04:59.999Z</time></trkpt><trkpt lat="42.15012498065836" lon="11.935721382921889"><ele>486.0</ele><time>2026-03-24T15:05:00.999Z</time></trkpt><trkpt lat="42.15012339423673" lon="11.935824810347153"><ele>486.0</ele><time>2026-03-24T15:05:01.999Z</time></trkpt><trkpt lat="42.15012382617665" lon="11.935939297889757"><ele>486.0</ele><time>2026-03-24T15:05:02.999Z</time></trkpt><trkpt lat="42.15012174599991" lon="11.936052207420579"><ele>486.0</ele><time>2026-03-24T15:05:03.999Z</time></trkpt><trkpt lat="42.15011793708611" lon="11.936160407103909"><ele>486.0</ele><time>2026-03-24T15:05:04.999Z</time></trkpt><trkpt lat="42.15011619659779" lon="11.936269844905851"><ele>486.0</ele><time>2026-03-24T15:05:05.999Z</time></trkpt><trkpt lat="42.15011949573097" lon="11.936378040013158"><ele>486.0</ele><time>2026-03-24T15:05:06.999Z</time></trkpt><trkpt lat="42.15012081112904" lon="11.93648526987374"><ele>486.0</ele><time>2026-03-24T15:05:07.999Z</time></trkpt><trkpt lat="42.15011990178326" lon="11.936589958789327"><ele>486.0</ele><time>2026-03-24T15:05:08.999Z</time></trkpt><trkpt lat="42.15011868451204" lon="11.93669826903742"><ele>486.0</ele><time>2026-03-24T15:05:09.999Z</time></trkpt><trkpt lat="42.15011683721549" lon="11.936810020299495"><ele>486.0</ele><time>2026-03-24T15:05:10.999Z</time></trkpt><trkpt lat="42.150114960888416" lon="11.936919236666396"><ele>486.0</ele><time>2026-03-24T15:05:11.999Z</time></trkpt><trkpt lat="42.150112533471535" lon="11.937026912365779"><ele>486.0</ele><time>2026-03-24T15:05:12.999Z</time></trkpt><trkpt lat="42.15011064268886" lon="11.937128591818388"><ele>486.0</ele><time>2026-03-24T15:05:13.999Z</time></trkpt><trkpt lat="42.150115427747465" lon="11.937226178715319"><ele>486.0</ele><time>2026-03-24T15:05:14.999Z</time></trkpt><trkpt lat="42.150115456811534" lon="11.937317314278312"><ele>486.0</ele><time>2026-03-24T15:05:15.999Z</time></trkpt><trkpt lat="42.15011884838394" lon="11.93744129942884"><ele>486.0</ele><time>2026-03-24T15:05:17.999Z</time></trkpt><trkpt lat="42.150117142788" lon="11.937544927990047"><ele>486.0</ele><time>2026-03-24T15:05:19.999Z</time></trkpt><trkpt lat="42.15009975253149" lon="11.937648711732727"><ele>485.6</ele><time>2026-03-24T15:05:21.999Z</time></trkpt><trkpt lat="42.150097760457754" lon="11.93775468991099"><ele>485.20000000000005</ele><time>2026-03-24T15:05:23.999Z</time></trkpt><trkpt lat="42.15006403377783" lon="11.937832063817197"><ele>484.79999999999995</ele><time>2026-03-24T15:05:25.999Z</time></trkpt><trkpt lat="42.14999639461439" lon="11.937785387757412"><ele>484.4</ele><time>2026-03-24T15:05:26.999Z</time></trkpt><trkpt lat="42.14987436347082" lon="11.93779529387467"><ele>484.0</ele><time>2026-03-24T15:05:28.999Z</time></trkpt><trkpt lat="42.14976199590741" lon="11.937804490090835"><ele>482.1666666666667</ele><time>2026-03-24T15:05:30.999Z</time></trkpt><trkpt lat="42.149674554120736" lon="11.93781164634869"><ele>480.33333333333337</ele><time>2026-03-24T15:05:32.999Z</time></trkpt><trkpt lat="42.14960254054726" lon="11.937817540123845"><ele>478.5</ele><time>2026-03-24T15:05:34.999Z</time></trkpt><trkpt lat="42.14953653359501" lon="11.937964394825043"><ele>476.66666666666663</ele><time>2026-03-24T15:05:35.999Z</time></trkpt><trkpt lat="42.14948258863896" lon="11.938052178562689"><ele>474.8333333333333</ele><time>2026-03-24T15:05:37.999Z</time></trkpt><trkpt lat="42.149439549639226" lon="11.938122217165478"><ele>473.0</ele><time>2026-03-24T15:05:39.999Z</time></trkpt><trkpt lat="42.14937502030461" lon="11.938186342307223"><ele>473.0</ele><time>2026-03-24T15:05:42.999Z</time></trkpt><trkpt lat="42.149286172162746" lon="11.9382088433328"><ele>472.99999999999994</ele><time>2026-03-24T15:05:45Z</time></trkpt><trkpt lat="42.1492009790727" lon="11.938252584152119"><ele>472.99999999999994</ele><time>2026-03-24T15:05:47Z</time></trkpt><trkpt lat="42.149121534995764" lon="11.938356396609063"><ele>473.0</ele><time>2026-03-24T15:05:49Z</time></trkpt><trkpt lat="42.14904412366599" lon="11.938449446320154"><ele>473.0</ele><time>2026-03-24T15:05:51Z</time></trkpt><trkpt lat="42.14904348797864" lon="11.938559770109812"><ele>466.8333333333333</ele><time>2026-03-24T15:05:54Z</time></trkpt><trkpt lat="42.14897426306084" lon="11.938647678486104"><ele>460.66666666666663</ele><time>2026-03-24T15:05:55Z</time></trkpt><trkpt lat="42.14889850597418" lon="11.93863894527126"><ele>454.5</ele><time>2026-03-24T15:07:53.999Z</time></trkpt><trkpt lat="42.148861393347644" lon="11.938718024726308"><ele>448.33333333333337</ele><time>2026-03-24T15:09:27.998Z</time></trkpt><trkpt lat="42.14887919741626" lon="11.938627013975422"><ele>442.1666666666667</ele><time>2026-03-24T15:34:29.999Z</time></trkpt><trkpt lat="42.148836809088365" lon="11.938737062643638"><ele>436.0</ele><time>2026-03-24T15:35:53Z</time></trkpt><trkpt lat="42.148866068501086" lon="11.93864396976598"><ele>436.00000000000006</ele><time>2026-03-24T15:36:17Z</time></trkpt><trkpt lat="42.1489395854023" lon="11.938647077303413"><ele>436.0</ele><time>2026-03-24T15:39:16.998Z</time></trkpt><trkpt lat="42.14901067339066" lon="11.938640844578819"><ele>436.0</ele><time>2026-03-24T15:39:30.999Z</time></trkpt><trkpt lat="42.14901950972265" lon="11.938516017399241"><ele>436.0</ele><time>2026-03-24T15:40:44.998Z</time></trkpt><trkpt lat="42.14908733149977" lon="11.93847532563827"><ele>436.00000000000006</ele><time>2026-03-24T15:41:05.998Z</time></trkpt><trkpt lat="42.14914719158594" lon="11.93843830788579"><ele>436.0</ele><time>2026-03-24T15:41:11.998Z</time></trkpt><trkpt lat="42.149226585056596" lon="11.938381361608073"><ele>443.4</ele><time>2026-03-24T15:41:13.998Z</time></trkpt><trkpt lat="42.14931304578795" lon="11.93832680129503"><ele>450.8</ele><time>2026-03-24T15:41:15.998Z</time></trkpt><trkpt lat="42.14939125781982" lon="11.938254436461236"><ele>458.19999999999993</ele><time>2026-03-24T15:41:17.998Z</time></trkpt><trkpt lat="42.14946401813909" lon="11.938186779021178"><ele>465.59999999999997</ele><time>2026-03-24T15:41:19.998Z</time></trkpt><trkpt lat="42.14954202064582" lon="11.938092777192642"><ele>473.0</ele><time>2026-03-24T15:41:22.998Z</time></trkpt><trkpt lat="42.149631060473794" lon="11.938074506186727"><ele>473.0</ele><time>2026-03-24T15:41:24.998Z</time></trkpt><trkpt lat="42.14972717696657" lon="11.93813309191829"><ele>472.99999999999994</ele><time>2026-03-24T15:41:27Z</time></trkpt><trkpt lat="42.14977439316545" lon="11.93829132039293"><ele>472.99999999999994</ele><time>2026-03-24T15:41:29Z</time></trkpt><trkpt lat="42.14985806000831" lon="11.93838576114147"><ele>473.0</ele><time>2026-03-24T15:41:31Z</time></trkpt><trkpt lat="42.14994278786622" lon="11.93847378386267"><ele>473.0</ele><time>2026-03-24T15:41:33Z</time></trkpt><trkpt lat="42.150003412338904" lon="11.938534184584043"><ele>473.4</ele><time>2026-03-24T15:41:35Z</time></trkpt><trkpt lat="42.1500911097302" lon="11.938421929902006"><ele>473.79999999999995</ele><time>2026-03-24T15:41:37Z</time></trkpt><trkpt lat="42.15015378785855" lon="11.93831705062542"><ele>474.2</ele><time>2026-03-24T15:41:39Z</time></trkpt><trkpt lat="42.15017359747729" lon="11.938220142761098"><ele>474.6</ele><time>2026-03-24T15:41:40Z</time></trkpt><trkpt lat="42.15017079718757" lon="11.93808188043429"><ele>475.0</ele><time>2026-03-24T15:41:42Z</time></trkpt><trkpt lat="42.150170626748974" lon="11.93792976949741"><ele>474.5</ele><time>2026-03-24T15:41:44Z</time></trkpt><trkpt lat="42.150171364662214" lon="11.93780246864116"><ele>474.0</ele><time>2026-03-24T15:41:46Z</time></trkpt><trkpt lat="42.15003700430335" lon="11.93778209272662"><ele>473.5</ele><time>2026-03-24T15:41:50.999Z</time></trkpt><trkpt lat="42.149922305633595" lon="11.93779139929702"><ele>473.0</ele><time>2026-03-24T15:41:52.999Z</time></trkpt><trkpt lat="42.14980997809433" lon="11.937800563192456"><ele>473.0</ele><time>2026-03-24T15:41:54.999Z</time></trkpt><trkpt lat="42.14971804940402" lon="11.937823128044025"><ele>472.99999999999994</ele><time>2026-03-24T15:41:56.999Z</time></trkpt><trkpt lat="42.149646703535154" lon="11.937753724730532"><ele>472.99999999999994</ele><time>2026-03-24T15:41:58.999Z</time></trkpt><trkpt lat="42.14961547012638" lon="11.937642364148743"><ele>473.0</ele><time>2026-03-24T15:41:59.999Z</time></trkpt><trkpt lat="42.14959381420522" lon="11.937462221284143"><ele>473.0</ele><time>2026-03-24T15:42:01.999Z</time></trkpt><trkpt lat="42.14957975152454" lon="11.937292100104989"><ele>474.4</ele><time>2026-03-24T15:42:03.999Z</time></trkpt><trkpt lat="42.14957351351225" lon="11.937191482225506"><ele>475.79999999999995</ele><time>2026-03-24T15:42:04.999Z</time></trkpt><trkpt lat="42.14957849765638" lon="11.937096203932265"><ele>477.2</ele><time>2026-03-24T15:42:05.999Z</time></trkpt><trkpt lat="42.14957441877191" lon="11.936940408996373"><ele>478.6</ele><time>2026-03-24T15:42:07.999Z</time></trkpt><trkpt lat="42.149547297679746" lon="11.936814172928372"><ele>480.0</ele><time>2026-03-24T15:42:09.999Z</time></trkpt><trkpt lat="42.149378426805164" lon="11.936762707177456"><ele>480.0</ele><time>2026-03-24T15:42:12.999Z</time></trkpt><trkpt lat="42.14928028395561" lon="11.936763056279768"><ele>480.0</ele><time>2026-03-24T15:42:14.999Z</time></trkpt><trkpt lat="42.14919078416685" lon="11.936680331633246"><ele>480.0</ele><time>2026-03-24T15:42:16.999Z</time></trkpt><trkpt lat="42.14914706958618" lon="11.936558832602007"><ele>480.0</ele><time>2026-03-24T15:42:18.999Z</time></trkpt><trkpt lat="42.149105262625554" lon="11.936467411408202"><ele>480.0</ele><time>2026-03-24T15:42:20.999Z</time></trkpt><trkpt lat="42.14906984706831" lon="11.936386604402205"><ele>478.0</ele><time>2026-03-24T15:42:22.999Z</time></trkpt><trkpt lat="42.1489490774319" lon="11.936336637938453"><ele>476.0</ele><time>2026-03-24T15:42:24.999Z</time></trkpt><trkpt lat="42.148935700540676" lon="11.93616625949996"><ele>474.0</ele><time>2026-03-24T15:42:26.999Z</time></trkpt><trkpt lat="42.14889883592361" lon="11.93605063341141"><ele>472.0</ele><time>2026-03-24T15:42:28.999Z</time></trkpt><trkpt lat="42.14884424356753" lon="11.935995293870887"><ele>470.0</ele><time>2026-03-24T15:42:58.998Z</time></trkpt><trkpt lat="42.148901494617945" lon="11.936049266135333"><ele>470.0</ele><time>2026-03-24T15:55:45.999Z</time></trkpt><trkpt lat="42.14892883092436" lon="11.93612740356082"><ele>469.99999999999994</ele><time>2026-03-24T15:55:49.999Z</time></trkpt><trkpt lat="42.1489523107466" lon="11.936230560755641"><ele>470.0</ele><time>2026-03-24T15:55:53.999Z</time></trkpt><trkpt lat="42.14895406051456" lon="11.936330986894179"><ele>470.0</ele><time>2026-03-24T15:55:55.999Z</time></trkpt><trkpt lat="42.14898623197543" lon="11.936413617520753"><ele>469.99999999999994</ele><time>2026-03-24T15:55:58.999Z</time></trkpt><trkpt lat="42.14904560182243" lon="11.936456305442858"><ele>470.0</ele><time>2026-03-24T15:56:01.998Z</time></trkpt><trkpt lat="42.14910614656361" lon="11.936512816458386"><ele>470.0</ele><time>2026-03-24T15:56:08Z</time></trkpt><trkpt lat="42.149134532069844" lon="11.93658976854045"><ele>470.66666666666663</ele><time>2026-03-24T15:56:10Z</time></trkpt><trkpt lat="42.149182138314316" lon="11.936698284929745"><ele>471.3333333333333</ele><time>2026-03-24T15:56:13Z</time></trkpt><trkpt lat="42.149246908691914" lon="11.936774151730837"><ele>472.0</ele><time>2026-03-24T15:56:15Z</time></trkpt><trkpt lat="42.149313159675906" lon="11.93685004249292"><ele>472.66666666666663</ele><time>2026-03-24T15:56:17Z</time></trkpt><trkpt lat="42.14937206017536" lon="11.936933583218252"><ele>473.3333333333333</ele><time>2026-03-24T15:56:19Z</time></trkpt><trkpt lat="42.149422616420374" lon="11.937012865708901"><ele>474.0</ele><time>2026-03-24T15:56:21Z</time></trkpt><trkpt lat="42.14945738519103" lon="11.937101090633046"><ele>474.0</ele><time>2026-03-24T15:56:23Z</time></trkpt><trkpt lat="42.1495165156117" lon="11.937183317711659"><ele>474.0</ele><time>2026-03-24T15:56:26Z</time></trkpt><trkpt lat="42.149572617415345" lon="11.937142106728913"><ele>474.0</ele><time>2026-03-24T15:56:32Z</time></trkpt><trkpt lat="42.14958231093508" lon="11.937037496432845"><ele>474.0</ele><time>2026-03-24T15:56:34Z</time></trkpt><trkpt lat="42.149582387020054" lon="11.936905291196222"><ele>474.0</ele><time>2026-03-24T15:56:36Z</time></trkpt><trkpt lat="42.14958718863702" lon="11.936764553028796"><ele>474.0</ele><time>2026-03-24T15:56:38Z</time></trkpt><trkpt lat="42.149569298963414" lon="11.93662105261037"><ele>474.0</ele><time>2026-03-24T15:56:40Z</time></trkpt><trkpt lat="42.14957442774845" lon="11.93645115049919"><ele>474.0</ele><time>2026-03-24T15:56:42Z</time></trkpt><trkpt lat="42.149574962431814" lon="11.936354723399266"><ele>474.0</ele><time>2026-03-24T15:56:43Z</time></trkpt><trkpt lat="42.149575718737864" lon="11.936257962684149"><ele>474.0</ele><time>2026-03-24T15:56:44Z</time></trkpt><trkpt lat="42.14957904727766" lon="11.936153691442739"><ele>474.0</ele><time>2026-03-24T15:56:45Z</time></trkpt><trkpt lat="42.149583330823766" lon="11.936052515324455"><ele>474.0</ele><time>2026-03-24T15:56:46Z</time></trkpt><trkpt lat="42.14958125153291" lon="11.93595264386066"><ele>473.2857142857142</ele><time>2026-03-24T15:56:47Z</time></trkpt><trkpt lat="42.14957576811197" lon="11.935856046295799"><ele>472.57142857142856</ele><time>2026-03-24T15:56:48Z</time></trkpt><trkpt lat="42.14957810274261" lon="11.935757818134922"><ele>471.85714285714283</ele><time>2026-03-24T15:56:49Z</time></trkpt><trkpt lat="42.14958027902698" lon="11.935662949689668"><ele>471.1428571428571</ele><time>2026-03-24T15:56:50Z</time></trkpt><trkpt lat="42.149581749676756" lon="11.935564898871727"><ele>470.42857142857144</ele><time>2026-03-24T15:56:51Z</time></trkpt><trkpt lat="42.14957984055991" lon="11.935467618189419"><ele>469.7142857142857</ele><time>2026-03-24T15:56:52Z</time></trkpt><trkpt lat="42.149585464971864" lon="11.935372796745474"><ele>469.0</ele><time>2026-03-24T15:56:53Z</time></trkpt><trkpt lat="42.14957903731579" lon="11.935282308847658"><ele>469.00000000000006</ele><time>2026-03-24T15:56:54Z</time></trkpt><trkpt lat="42.14956332897269" lon="11.935190188798627"><ele>469.0</ele><time>2026-03-24T15:56:55Z</time></trkpt><trkpt lat="42.149542184704494" lon="11.935103282440037"><ele>469.0</ele><time>2026-03-24T15:56:56Z</time></trkpt><trkpt lat="42.149488403263355" lon="11.934949141359201"><ele>469.0</ele><time>2026-03-24T15:56:58Z</time></trkpt><trkpt lat="42.14945540609714" lon="11.934868716680565"><ele>469.00000000000006</ele><time>2026-03-24T15:56:59Z</time></trkpt><trkpt lat="42.14940696909284" lon="11.934792078022978"><ele>469.0</ele><time>2026-03-24T15:57:00Z</time></trkpt><trkpt lat="42.14936875384476" lon="11.934713289057479"><ele>469.1666666666667</ele><time>2026-03-24T15:57:01Z</time></trkpt><trkpt lat="42.14933295531615" lon="11.934635953279948"><ele>469.33333333333337</ele><time>2026-03-24T15:57:02Z</time></trkpt><trkpt lat="42.14930002877869" lon="11.934548149254601"><ele>469.5</ele><time>2026-03-24T15:57:03Z</time></trkpt><trkpt lat="42.14927647902491" lon="11.934447091151188"><ele>469.66666666666663</ele><time>2026-03-24T15:57:04Z</time></trkpt><trkpt lat="42.1492650457145" lon="11.934339743713007"><ele>469.8333333333333</ele><time>2026-03-24T15:57:05Z</time></trkpt><trkpt lat="42.149261823977525" lon="11.934232594181454"><ele>470.0</ele><time>2026-03-24T15:57:05.999Z</time></trkpt><trkpt lat="42.149261193093636" lon="11.93412710041217"><ele>470.0</ele><time>2026-03-24T15:57:06.999Z</time></trkpt><trkpt lat="42.14924432939222" lon="11.93401660263454"><ele>470.0</ele><time>2026-03-24T15:57:07.999Z</time></trkpt><trkpt lat="42.14921400661466" lon="11.933905981067669"><ele>470.0</ele><time>2026-03-24T15:57:08.999Z</time></trkpt><trkpt lat="42.14916203966319" lon="11.933792629211128"><ele>470.0</ele><time>2026-03-24T15:57:09.999Z</time></trkpt><trkpt lat="42.149090614831586" lon="11.933687634621762"><ele>470.0</ele><time>2026-03-24T15:57:10.999Z</time></trkpt><trkpt lat="42.14901059738783" lon="11.933585237748884"><ele>463.0</ele><time>2026-03-24T15:57:11.999Z</time></trkpt><trkpt lat="42.14892940582128" lon="11.933482466186806"><ele>456.0</ele><time>2026-03-24T15:57:12.999Z</time></trkpt><trkpt lat="42.14884525499164" lon="11.933374095464538"><ele>449.0</ele><time>2026-03-24T15:57:13.999Z</time></trkpt><trkpt lat="42.14876463533534" lon="11.933261100388254"><ele>442.0</ele><time>2026-03-24T15:57:14.999Z</time></trkpt><trkpt lat="42.14867880467259" lon="11.933148546191621"><ele>442.0</ele><time>2026-03-24T15:57:15.999Z</time></trkpt><trkpt lat="42.14859450071457" lon="11.933025659167825"><ele>442.0</ele><time>2026-03-24T15:57:16.999Z</time></trkpt><trkpt lat="42.14850788254629" lon="11.932900755426177"><ele>442.0</ele><time>2026-03-24T15:57:17.999Z</time></trkpt><trkpt lat="42.14842117923117" lon="11.93277644685631"><ele>442.0</ele><time>2026-03-24T15:57:18.999Z</time></trkpt><trkpt lat="42.148337109107" lon="11.93265133099853"><ele>444.75</ele><time>2026-03-24T15:57:19.999Z</time></trkpt><trkpt lat="42.148275518160716" lon="11.932521161765255"><ele>447.5</ele><time>2026-03-24T15:57:20.999Z</time></trkpt><trkpt lat="42.14822288186842" lon="11.932381892869225"><ele>450.25</ele><time>2026-03-24T15:57:21.999Z</time></trkpt><trkpt lat="42.148193649559474" lon="11.93223244098862"><ele>453.0</ele><time>2026-03-24T15:57:22.999Z</time></trkpt><trkpt lat="42.148171558559824" lon="11.932078608576424"><ele>447.5</ele><time>2026-03-24T15:57:23.999Z</time></trkpt><trkpt lat="42.14815394109346" lon="11.931917768609953"><ele>442.0</ele><time>2026-03-24T15:57:24.999Z</time></trkpt><trkpt lat="42.14813772400619" lon="11.93176230010534"><ele>436.5</ele><time>2026-03-24T15:57:25.999Z</time></trkpt><trkpt lat="42.14812490906602" lon="11.93160752408757"><ele>431.0</ele><time>2026-03-24T15:57:26.999Z</time></trkpt><trkpt lat="42.148123526047414" lon="11.931454912040863"><ele>431.0</ele><time>2026-03-24T15:57:27.999Z</time></trkpt><trkpt lat="42.148142739985616" lon="11.931310744727607"><ele>431.0</ele><time>2026-03-24T15:57:28.999Z</time></trkpt><trkpt lat="42.14818208551439" lon="11.931179405097573"><ele>431.0</ele><time>2026-03-24T15:57:29.999Z</time></trkpt><trkpt lat="42.14821940730278" lon="11.931076020674265"><ele>431.0</ele><time>2026-03-24T15:57:30.999Z</time></trkpt><trkpt lat="42.14825225852055" lon="11.93097107257053"><ele>431.0</ele><time>2026-03-24T15:57:31.999Z</time></trkpt><trkpt lat="42.14826328498628" lon="11.930868814507965"><ele>431.16666666666663</ele><time>2026-03-24T15:57:32.999Z</time></trkpt><trkpt lat="42.14825211585561" lon="11.930760476843354"><ele>431.3333333333333</ele><time>2026-03-24T15:57:33.999Z</time></trkpt><trkpt lat="42.14822151882895" lon="11.930654903469152"><ele>431.5</ele><time>2026-03-24T15:57:34.999Z</time></trkpt><trkpt lat="42.1481791635882" lon="11.930551913973442"><ele>431.66666666666663</ele><time>2026-03-24T15:57:35.999Z</time></trkpt><trkpt lat="42.14812518050028" lon="11.930447668459532"><ele>431.8333333333333</ele><time>2026-03-24T15:57:36.999Z</time></trkpt><trkpt lat="42.148068501914" lon="11.930337158617828"><ele>432.0</ele><time>2026-03-24T15:57:37.999Z</time></trkpt><trkpt lat="42.14800848371197" lon="11.930224500811324"><ele>432.0</ele><time>2026-03-24T15:57:38.999Z</time></trkpt><trkpt lat="42.14794906889902" lon="11.930105441891339"><ele>432.00000000000006</ele><time>2026-03-24T15:57:39.999Z</time></trkpt><trkpt lat="42.14789298404636" lon="11.929983282143498"><ele>432.00000000000006</ele><time>2026-03-24T15:57:40.999Z</time></trkpt><trkpt lat="42.14783548755887" lon="11.929860790062776"><ele>432.0</ele><time>2026-03-24T15:57:41.999Z</time></trkpt><trkpt lat="42.14777983782383" lon="11.929747883360534"><ele>432.0</ele><time>2026-03-24T15:57:42.999Z</time></trkpt><trkpt lat="42.14771574860752" lon="11.929652839223637"><ele>431.20000000000005</ele><time>2026-03-24T15:57:43.999Z</time></trkpt><trkpt lat="42.147641206900964" lon="11.929560867240424"><ele>430.40000000000003</ele><time>2026-03-24T15:57:44.999Z</time></trkpt><trkpt lat="42.147572589282426" lon="11.929467664892227"><ele>429.59999999999997</ele><time>2026-03-24T15:57:45.999Z</time></trkpt><trkpt lat="42.14751561868764" lon="11.929358518368524"><ele>428.79999999999995</ele><time>2026-03-24T15:57:46.999Z</time></trkpt><trkpt lat="42.14746964493529" lon="11.929236350908463"><ele>428.0</ele><time>2026-03-24T15:57:47.999Z</time></trkpt><trkpt lat="42.14743729105028" lon="11.929104655071182"><ele>428.0</ele><time>2026-03-24T15:57:48.999Z</time></trkpt><trkpt lat="42.14740298524625" lon="11.928972571857937"><ele>427.99999999999994</ele><time>2026-03-24T15:57:49.999Z</time></trkpt><trkpt lat="42.14737354120115" lon="11.928832684927302"><ele>427.99999999999994</ele><time>2026-03-24T15:57:50.999Z</time></trkpt><trkpt lat="42.14734461221155" lon="11.9286883889338"><ele>428.0</ele><time>2026-03-24T15:57:51.999Z</time></trkpt><trkpt lat="42.1473146067294" lon="11.928543652253934"><ele>428.0</ele><time>2026-03-24T15:57:52.999Z</time></trkpt><trkpt lat="42.147286083985705" lon="11.928401116481037"><ele>425.4</ele><time>2026-03-24T15:57:53.999Z</time></trkpt><trkpt lat="42.147255374836746" lon="11.928257938852443"><ele>422.79999999999995</ele><time>2026-03-24T15:57:54.999Z</time></trkpt><trkpt lat="42.14722636177413" lon="11.928125013018139"><ele>420.2</ele><time>2026-03-24T15:57:55.999Z</time></trkpt><trkpt lat="42.147196945430366" lon="11.928004316333627"><ele>417.6</ele><time>2026-03-24T15:57:56.999Z</time></trkpt><trkpt lat="42.14715929505757" lon="11.927888423947683"><ele>415.0</ele><time>2026-03-24T15:57:57.999Z</time></trkpt><trkpt lat="42.14710354910813" lon="11.92778578870671"><ele>415.0</ele><time>2026-03-24T15:57:58.999Z</time></trkpt><trkpt lat="42.14703447653521" lon="11.927700271464905"><ele>415.0</ele><time>2026-03-24T15:57:59.999Z</time></trkpt><trkpt lat="42.14695637523361" lon="11.927625252941105"><ele>415.0</ele><time>2026-03-24T15:58:00.999Z</time></trkpt><trkpt lat="42.14687323240315" lon="11.927548827282443"><ele>415.0</ele><time>2026-03-24T15:58:01.999Z</time></trkpt><trkpt lat="42.14678959428065" lon="11.927473432639335"><ele>415.0</ele><time>2026-03-24T15:58:02.999Z</time></trkpt><trkpt lat="42.14670521795083" lon="11.927394857745051"><ele>413.8</ele><time>2026-03-24T15:58:03.999Z</time></trkpt><trkpt lat="42.146622514000235" lon="11.927316835846417"><ele>412.6</ele><time>2026-03-24T15:58:04.999Z</time></trkpt><trkpt lat="42.146540424391276" lon="11.92723805185631"><ele>411.4</ele><time>2026-03-24T15:58:05.999Z</time></trkpt><trkpt lat="42.14645822916367" lon="11.92716073187275"><ele>410.2</ele><time>2026-03-24T15:58:06.999Z</time></trkpt><trkpt lat="42.14637567408642" lon="11.927083815412972"><ele>409.0</ele><time>2026-03-24T15:58:07.998Z</time></trkpt><trkpt lat="42.14629427396981" lon="11.927011996033956"><ele>409.0</ele><time>2026-03-24T15:58:08.998Z</time></trkpt><trkpt lat="42.14620988657705" lon="11.926951552498885"><ele>409.0</ele><time>2026-03-24T15:58:09.998Z</time></trkpt><trkpt lat="42.14611932437087" lon="11.926902887806635"><ele>409.0</ele><time>2026-03-24T15:58:10.998Z</time></trkpt><trkpt lat="42.14602683425433" lon="11.926871390560303"><ele>409.0</ele><time>2026-03-24T15:58:11.998Z</time></trkpt><trkpt lat="42.14593068393165" lon="11.926856883311112"><ele>409.0</ele><time>2026-03-24T15:58:12.998Z</time></trkpt><trkpt lat="42.145834571619105" lon="11.92685902759305"><ele>409.0</ele><time>2026-03-24T15:58:14Z</time></trkpt><trkpt lat="42.145742662756085" lon="11.926883223583118"><ele>409.0</ele><time>2026-03-24T15:58:15Z</time></trkpt><trkpt lat="42.14565346534314" lon="11.92693358669576"><ele>409.0</ele><time>2026-03-24T15:58:16Z</time></trkpt><trkpt lat="42.14557078850753" lon="11.927002988052555"><ele>409.0</ele><time>2026-03-24T15:58:17Z</time></trkpt><trkpt lat="42.145492540659404" lon="11.927086478208505"><ele>409.0</ele><time>2026-03-24T15:58:18Z</time></trkpt><trkpt lat="42.145418651500094" lon="11.927176956144391"><ele>408.0</ele><time>2026-03-24T15:58:19Z</time></trkpt><trkpt lat="42.1453441658421" lon="11.927268212979149"><ele>407.0</ele><time>2026-03-24T15:58:20Z</time></trkpt><trkpt lat="42.14526578870511" lon="11.927351514086656"><ele>406.0</ele><time>2026-03-24T15:58:21Z</time></trkpt><trkpt lat="42.14517745076222" lon="11.927419139847078"><ele>405.0</ele><time>2026-03-24T15:58:22Z</time></trkpt><trkpt lat="42.1450846377643" lon="11.927478515363797"><ele>404.0</ele><time>2026-03-24T15:58:23Z</time></trkpt><trkpt lat="42.14499002256023" lon="11.927532611348981"><ele>401.2</ele><time>2026-03-24T15:58:24Z</time></trkpt><trkpt lat="42.14489887599733" lon="11.927586180480283"><ele>398.4</ele><time>2026-03-24T15:58:25Z</time></trkpt><trkpt lat="42.144813302135816" lon="11.927633421687618"><ele>395.6</ele><time>2026-03-24T15:58:26Z</time></trkpt><trkpt lat="42.144722738703614" lon="11.927666627047822"><ele>392.8</ele><time>2026-03-24T15:58:27Z</time></trkpt><trkpt lat="42.14463219329157" lon="11.927682411456757"><ele>390.0</ele><time>2026-03-24T15:58:28Z</time></trkpt><trkpt lat="42.14453951878736" lon="11.927681151600945"><ele>389.0</ele><time>2026-03-24T15:58:29Z</time></trkpt><trkpt lat="42.14444236931983" lon="11.927667009069285"><ele>388.0</ele><time>2026-03-24T15:58:30Z</time></trkpt><trkpt lat="42.14434508737794" lon="11.927641747199894"><ele>387.0</ele><time>2026-03-24T15:58:31Z</time></trkpt><trkpt lat="42.14425712448348" lon="11.927599933705501"><ele>386.0</ele><time>2026-03-24T15:58:32Z</time></trkpt><trkpt lat="42.144183782989124" lon="11.927545136813576"><ele>385.0</ele><time>2026-03-24T15:58:33Z</time></trkpt><trkpt lat="42.1441262167253" lon="11.927466325251567"><ele>386.6666666666667</ele><time>2026-03-24T15:58:34Z</time></trkpt><trkpt lat="42.14407577373913" lon="11.927378123114137"><ele>388.33333333333337</ele><time>2026-03-24T15:58:35Z</time></trkpt><trkpt lat="42.144035564931954" lon="11.92728244743097"><ele>390.0</ele><time>2026-03-24T15:58:36Z</time></trkpt><trkpt lat="42.14400505663174" lon="11.927181336126834"><ele>391.66666666666663</ele><time>2026-03-24T15:58:37Z</time></trkpt><trkpt lat="42.143993760959304" lon="11.92707488416105"><ele>393.3333333333333</ele><time>2026-03-24T15:58:38Z</time></trkpt><trkpt lat="42.14400968854379" lon="11.92696836305683"><ele>395.0</ele><time>2026-03-24T15:58:39Z</time></trkpt><trkpt lat="42.144034834008856" lon="11.926862915337436"><ele>395.0</ele><time>2026-03-24T15:58:40Z</time></trkpt><trkpt lat="42.144077022157525" lon="11.92676007897356"><ele>395.0</ele><time>2026-03-24T15:58:41Z</time></trkpt><trkpt lat="42.14413680032337" lon="11.926665041015848"><ele>395.0</ele><time>2026-03-24T15:58:42Z</time></trkpt><trkpt lat="42.14420936980686" lon="11.926575578057802"><ele>395.0</ele><time>2026-03-24T15:58:43Z</time></trkpt><trkpt lat="42.144283610492266" lon="11.926487872436324"><ele>395.0</ele><time>2026-03-24T15:58:44Z</time></trkpt><trkpt lat="42.14436788532866" lon="11.92640344398049"><ele>393.6</ele><time>2026-03-24T15:58:45Z</time></trkpt><trkpt lat="42.14444729735825" lon="11.926324179792003"><ele>392.2</ele><time>2026-03-24T15:58:46Z</time></trkpt><trkpt lat="42.144515442045304" lon="11.926244610874464"><ele>390.79999999999995</ele><time>2026-03-24T15:58:47Z</time></trkpt><trkpt lat="42.14457280398923" lon="11.926150890710776"><ele>389.4</ele><time>2026-03-24T15:58:48Z</time></trkpt><trkpt lat="42.14461625154328" lon="11.926049515129657"><ele>388.0</ele><time>2026-03-24T15:58:49Z</time></trkpt><trkpt lat="42.14463947239592" lon="11.925937083926787"><ele>386.2</ele><time>2026-03-24T15:58:50Z</time></trkpt><trkpt lat="42.144635788708236" lon="11.925820687253902"><ele>384.4</ele><time>2026-03-24T15:58:51Z</time></trkpt><trkpt lat="42.14460673255014" lon="11.925704975544544"><ele>382.59999999999997</ele><time>2026-03-24T15:58:52Z</time></trkpt><trkpt lat="42.144546604422786" lon="11.925599469352818"><ele>380.79999999999995</ele><time>2026-03-24T15:58:53Z</time></trkpt><trkpt lat="42.14448090082873" lon="11.925512544238991"><ele>379.0</ele><time>2026-03-24T15:58:54Z</time></trkpt><trkpt lat="42.14439590104632" lon="11.925455756252799"><ele>379.0</ele><time>2026-03-24T15:58:55Z</time></trkpt><trkpt lat="42.144308037958936" lon="11.925406132515318"><ele>379.0</ele><time>2026-03-24T15:58:56Z</time></trkpt><trkpt lat="42.144215459741275" lon="11.925344740734282"><ele>379.0</ele><time>2026-03-24T15:58:57Z</time></trkpt><trkpt lat="42.14412184761737" lon="11.925288404577431"><ele>379.0</ele><time>2026-03-24T15:58:58Z</time></trkpt><trkpt lat="42.14404032757112" lon="11.925225583484295"><ele>379.0</ele><time>2026-03-24T15:58:59Z</time></trkpt><trkpt lat="42.14396404328464" lon="11.925166479293885"><ele>375.79999999999995</ele><time>2026-03-24T15:59:00Z</time></trkpt><trkpt lat="42.1438985458572" lon="11.9250908657696"><ele>372.59999999999997</ele><time>2026-03-24T15:59:01Z</time></trkpt><trkpt lat="42.14384132204141" lon="11.925003634487988"><ele>369.4</ele><time>2026-03-24T15:59:02Z</time></trkpt><trkpt lat="42.14380283960895" lon="11.924890601550445"><ele>366.2</ele><time>2026-03-24T15:59:02.999Z</time></trkpt><trkpt lat="42.14377901812522" lon="11.924768879671609"><ele>363.0</ele><time>2026-03-24T15:59:03.999Z</time></trkpt><trkpt lat="42.14376285689332" lon="11.924642339956323"><ele>362.79999999999995</ele><time>2026-03-24T15:59:04.999Z</time></trkpt><trkpt lat="42.14374801998949" lon="11.924508803206267"><ele>362.6</ele><time>2026-03-24T15:59:05.999Z</time></trkpt><trkpt lat="42.143736476659" lon="11.924374608380411"><ele>362.4</ele><time>2026-03-24T15:59:06.999Z</time></trkpt><trkpt lat="42.14372736010276" lon="11.92424032110166"><ele>362.20000000000005</ele><time>2026-03-24T15:59:07.999Z</time></trkpt><trkpt lat="42.143715247530565" lon="11.924103238053522"><ele>362.0</ele><time>2026-03-24T15:59:08.999Z</time></trkpt><trkpt lat="42.14369827251699" lon="11.923967264397264"><ele>362.40000000000003</ele><time>2026-03-24T15:59:09.999Z</time></trkpt><trkpt lat="42.143683147514444" lon="11.92382601224572"><ele>362.8</ele><time>2026-03-24T15:59:10.999Z</time></trkpt><trkpt lat="42.143671640568925" lon="11.923690666160596"><ele>363.2</ele><time>2026-03-24T15:59:11.999Z</time></trkpt><trkpt lat="42.143658768891" lon="11.923565270203259"><ele>363.6</ele><time>2026-03-24T15:59:12.999Z</time></trkpt><trkpt lat="42.14364343334724" lon="11.923445311585068"><ele>364.0</ele><time>2026-03-24T15:59:13.999Z</time></trkpt><trkpt lat="42.14363153480165" lon="11.923327995214088"><ele>364.3333333333333</ele><time>2026-03-24T15:59:14.999Z</time></trkpt><trkpt lat="42.143603475459535" lon="11.92322150890842"><ele>364.66666666666663</ele><time>2026-03-24T15:59:15.999Z</time></trkpt><trkpt lat="42.14355623061891" lon="11.923128400022025"><ele>365.0</ele><time>2026-03-24T15:59:16.999Z</time></trkpt><trkpt lat="42.143484988825975" lon="11.923058958764326"><ele>365.3333333333333</ele><time>2026-03-24T15:59:17.999Z</time></trkpt><trkpt lat="42.143392477583646" lon="11.923013755905842"><ele>365.6666666666667</ele><time>2026-03-24T15:59:18.999Z</time></trkpt><trkpt lat="42.14329778018282" lon="11.92299910905387"><ele>366.0</ele><time>2026-03-24T15:59:19.999Z</time></trkpt><trkpt lat="42.143203208865415" lon="11.922985848546192"><ele>366.8333333333333</ele><time>2026-03-24T15:59:20.999Z</time></trkpt><trkpt lat="42.143109607424165" lon="11.92298708144763"><ele>367.6666666666667</ele><time>2026-03-24T15:59:21.999Z</time></trkpt><trkpt lat="42.14301264810645" lon="11.922977935804981"><ele>368.5</ele><time>2026-03-24T15:59:22.999Z</time></trkpt><trkpt lat="42.14292284001248" lon="11.922977706848911"><ele>369.33333333333337</ele><time>2026-03-24T15:59:23.999Z</time></trkpt><trkpt lat="42.14284039096355" lon="11.923000791794246"><ele>370.1666666666667</ele><time>2026-03-24T15:59:24.999Z</time></trkpt><trkpt lat="42.14276883588252" lon="11.923059398461703"><ele>371.0</ele><time>2026-03-24T15:59:25.999Z</time></trkpt><trkpt lat="42.142707755124526" lon="11.923138243609172"><ele>371.0</ele><time>2026-03-24T15:59:26.999Z</time></trkpt><trkpt lat="42.14266243677221" lon="11.923241386002804"><ele>371.0</ele><time>2026-03-24T15:59:27.999Z</time></trkpt><trkpt lat="42.1426328320777" lon="11.9233715228254"><ele>371.0</ele><time>2026-03-24T15:59:28.999Z</time></trkpt><trkpt lat="42.14260044330901" lon="11.92349478418309"><ele>371.0</ele><time>2026-03-24T15:59:29.999Z</time></trkpt><trkpt lat="42.14257592459324" lon="11.923632095842278"><ele>371.0</ele><time>2026-03-24T15:59:30.999Z</time></trkpt><trkpt lat="42.1425528184224" lon="11.92377372229142"><ele>370.8</ele><time>2026-03-24T15:59:31.999Z</time></trkpt><trkpt lat="42.14252529067467" lon="11.923922164813598"><ele>370.6</ele><time>2026-03-24T15:59:32.999Z</time></trkpt><trkpt lat="42.14250104857263" lon="11.924070374112475"><ele>370.4</ele><time>2026-03-24T15:59:33.999Z</time></trkpt><trkpt lat="42.14245995100277" lon="11.924209311090813"><ele>370.2</ele><time>2026-03-24T15:59:34.999Z</time></trkpt><trkpt lat="42.14239723523052" lon="11.924331270279268"><ele>370.0</ele><time>2026-03-24T15:59:35.999Z</time></trkpt><trkpt lat="42.14232092901701" lon="11.924434924439172"><ele>370.0</ele><time>2026-03-24T15:59:36.999Z</time></trkpt><trkpt lat="42.142239257660435" lon="11.92453828856773"><ele>370.0</ele><time>2026-03-24T15:59:37.999Z</time></trkpt><trkpt lat="42.14215820716785" lon="11.924654918123636"><ele>370.0</ele><time>2026-03-24T15:59:38.999Z</time></trkpt><trkpt lat="42.142082826639616" lon="11.9247844905592"><ele>370.0</ele><time>2026-03-24T15:59:39.999Z</time></trkpt><trkpt lat="42.14201239476437" lon="11.924918579169676"><ele>370.0</ele><time>2026-03-24T15:59:40.999Z</time></trkpt><trkpt lat="42.141947529054775" lon="11.925059929397568"><ele>370.0</ele><time>2026-03-24T15:59:41.999Z</time></trkpt><trkpt lat="42.14188651898873" lon="11.925205289178637"><ele>370.0</ele><time>2026-03-24T15:59:42.999Z</time></trkpt><trkpt lat="42.14182485786696" lon="11.925349325737216"><ele>370.0</ele><time>2026-03-24T15:59:43.999Z</time></trkpt><trkpt lat="42.1417685444113" lon="11.92549853991818"><ele>366.75</ele><time>2026-03-24T15:59:44.999Z</time></trkpt><trkpt lat="42.14171433087318" lon="11.925639791668502"><ele>363.5</ele><time>2026-03-24T15:59:45.999Z</time></trkpt><trkpt lat="42.14167190685253" lon="11.925783342150318"><ele>360.25</ele><time>2026-03-24T15:59:46.999Z</time></trkpt><trkpt lat="42.141646142598695" lon="11.925939572685651"><ele>357.0</ele><time>2026-03-24T15:59:47.999Z</time></trkpt><trkpt lat="42.14163893061793" lon="11.926107581141208"><ele>356.75</ele><time>2026-03-24T15:59:48.999Z</time></trkpt><trkpt lat="42.14164860744286" lon="11.92627250557083"><ele>356.5</ele><time>2026-03-24T15:59:49.999Z</time></trkpt><trkpt lat="42.141658296245474" lon="11.926437518567209"><ele>356.25</ele><time>2026-03-24T15:59:50.999Z</time></trkpt><trkpt lat="42.14167096570854" lon="11.926608825907811"><ele>356.0</ele><time>2026-03-24T15:59:51.999Z</time></trkpt><trkpt lat="42.14167841799804" lon="11.926782302159024"><ele>356.0</ele><time>2026-03-24T15:59:52.999Z</time></trkpt><trkpt lat="42.14168693923452" lon="11.926959291585394"><ele>356.0</ele><time>2026-03-24T15:59:53.999Z</time></trkpt><trkpt lat="42.14169283061868" lon="11.92714666518583"><ele>356.0</ele><time>2026-03-24T15:59:54.999Z</time></trkpt><trkpt lat="42.14168876886952" lon="11.927334651774162"><ele>356.0</ele><time>2026-03-24T15:59:55.999Z</time></trkpt><trkpt lat="42.14169811722975" lon="11.92752893970566"><ele>355.5</ele><time>2026-03-24T15:59:56.999Z</time></trkpt><trkpt lat="42.14170475366277" lon="11.927725126165178"><ele>355.0</ele><time>2026-03-24T15:59:57.999Z</time></trkpt><trkpt lat="42.14170741478722" lon="11.9279245360164"><ele>354.5</ele><time>2026-03-24T15:59:58.999Z</time></trkpt><trkpt lat="42.141711440253104" lon="11.928123134005753"><ele>354.0</ele><time>2026-03-24T15:59:59.999Z</time></trkpt><trkpt lat="42.141711519258465" lon="11.928325541558591"><ele>354.0</ele><time>2026-03-24T16:00:00.999Z</time></trkpt><trkpt lat="42.14171563699112" lon="11.928526168603996"><ele>354.0</ele><time>2026-03-24T16:00:01.999Z</time></trkpt><trkpt lat="42.141715711360135" lon="11.928722522530835"><ele>354.0</ele><time>2026-03-24T16:00:02.999Z</time></trkpt><trkpt lat="42.14171547523541" lon="11.928918289802642"><ele>354.0</ele><time>2026-03-24T16:00:03.999Z</time></trkpt><trkpt lat="42.141718497255496" lon="11.929117133402993"><ele>354.0</ele><time>2026-03-24T16:00:04.999Z</time></trkpt><trkpt lat="42.14172640373477" lon="11.929308654144265"><ele>354.0</ele><time>2026-03-24T16:00:05.999Z</time></trkpt><trkpt lat="42.14173569374899" lon="11.929484027038125"><ele>354.0</ele><time>2026-03-24T16:00:06.999Z</time></trkpt><trkpt lat="42.141741875599244" lon="11.929652883649354"><ele>354.0</ele><time>2026-03-24T16:00:07.998Z</time></trkpt><trkpt lat="42.141745405373825" lon="11.929811161770964"><ele>354.0</ele><time>2026-03-24T16:00:08.998Z</time></trkpt><trkpt lat="42.14174095231996" lon="11.929967304679163"><ele>354.0</ele><time>2026-03-24T16:00:09.998Z</time></trkpt><trkpt lat="42.14172115533991" lon="11.930120004796247"><ele>354.0</ele><time>2026-03-24T16:00:10.998Z</time></trkpt><trkpt lat="42.141689497790416" lon="11.930268853802701"><ele>354.0</ele><time>2026-03-24T16:00:11.998Z</time></trkpt><trkpt lat="42.14163765726733" lon="11.930413344420945"><ele>355.2</ele><time>2026-03-24T16:00:12.998Z</time></trkpt><trkpt lat="42.141582974969154" lon="11.930563786371938"><ele>356.4</ele><time>2026-03-24T16:00:13.998Z</time></trkpt><trkpt lat="42.1415354362132" lon="11.930704215185896"><ele>357.6</ele><time>2026-03-24T16:00:14.998Z</time></trkpt><trkpt lat="42.14148864189981" lon="11.93083148136703"><ele>358.8</ele><time>2026-03-24T16:00:15.998Z</time></trkpt><trkpt lat="42.141457086160884" lon="11.930959144323975"><ele>360.0</ele><time>2026-03-24T16:00:16.998Z</time></trkpt><trkpt lat="42.141441230560346" lon="11.931093236042692"><ele>360.0</ele><time>2026-03-24T16:00:17.998Z</time></trkpt><trkpt lat="42.14144650467375" lon="11.931228349883641"><ele>360.0</ele><time>2026-03-24T16:00:18.998Z</time></trkpt><trkpt lat="42.141469782436985" lon="11.931376909492421"><ele>360.0</ele><time>2026-03-24T16:00:19.999Z</time></trkpt><trkpt lat="42.141499612541466" lon="11.931531106934854"><ele>360.0</ele><time>2026-03-24T16:00:20.999Z</time></trkpt><trkpt lat="42.141536029924296" lon="11.931682161070395"><ele>360.0</ele><time>2026-03-24T16:00:21.999Z</time></trkpt><trkpt lat="42.1415632379897" lon="11.931846085985907"><ele>355.0</ele><time>2026-03-24T16:00:22.999Z</time></trkpt><trkpt lat="42.14159416613778" lon="11.932012210243006"><ele>350.0</ele><time>2026-03-24T16:00:23.999Z</time></trkpt><trkpt lat="42.14162852990196" lon="11.932183856238137"><ele>345.0</ele><time>2026-03-24T16:00:24.999Z</time></trkpt><trkpt lat="42.14166603555494" lon="11.932353810958507"><ele>340.0</ele><time>2026-03-24T16:00:25.999Z</time></trkpt><trkpt lat="42.141695514463436" lon="11.93251934980686"><ele>339.75</ele><time>2026-03-24T16:00:26.999Z</time></trkpt><trkpt lat="42.141711270907464" lon="11.932681511321606"><ele>339.5</ele><time>2026-03-24T16:00:27.999Z</time></trkpt><trkpt lat="42.141715489445296" lon="11.932844583461764"><ele>339.25</ele><time>2026-03-24T16:00:28.999Z</time></trkpt><trkpt lat="42.14170295448045" lon="11.933015189801726"><ele>339.0</ele><time>2026-03-24T16:00:29.999Z</time></trkpt><trkpt lat="42.14168586031363" lon="11.933189043880095"><ele>339.0</ele><time>2026-03-24T16:00:30.999Z</time></trkpt><trkpt lat="42.14166724523765" lon="11.933372189550056"><ele>339.0</ele><time>2026-03-24T16:00:32Z</time></trkpt><trkpt lat="42.141643088677846" lon="11.933560030067332"><ele>339.0</ele><time>2026-03-24T16:00:33Z</time></trkpt><trkpt lat="42.14162457760602" lon="11.93375592278595"><ele>339.0</ele><time>2026-03-24T16:00:34Z</time></trkpt><trkpt lat="42.14160348919414" lon="11.933954349110769"><ele>337.6666666666667</ele><time>2026-03-24T16:00:35Z</time></trkpt><trkpt lat="42.14158521810982" lon="11.934159513033409"><ele>336.33333333333337</ele><time>2026-03-24T16:00:36Z</time></trkpt><trkpt lat="42.14156297904823" lon="11.93436455983161"><ele>335.0</ele><time>2026-03-24T16:00:37Z</time></trkpt><trkpt lat="42.141543107749875" lon="11.934564150544405"><ele>336.33333333333337</ele><time>2026-03-24T16:00:38Z</time></trkpt><trkpt lat="42.14152527856132" lon="11.934768374084548"><ele>337.6666666666667</ele><time>2026-03-24T16:00:39Z</time></trkpt><trkpt lat="42.141502831059086" lon="11.934977125628885"><ele>339.0</ele><time>2026-03-24T16:00:40Z</time></trkpt><trkpt lat="42.14148647093955" lon="11.935181260883365"><ele>339.0</ele><time>2026-03-24T16:00:41Z</time></trkpt><trkpt lat="42.141466542716216" lon="11.935378032303895"><ele>339.0</ele><time>2026-03-24T16:00:42Z</time></trkpt><trkpt lat="42.14144649747947" lon="11.93557049895969"><ele>339.0</ele><time>2026-03-24T16:00:43Z</time></trkpt><trkpt lat="42.14142788244418" lon="11.935767139735631"><ele>339.0</ele><time>2026-03-24T16:00:44Z</time></trkpt><trkpt lat="42.1414080545471" lon="11.935957874321186"><ele>337.5</ele><time>2026-03-24T16:00:45Z</time></trkpt><trkpt lat="42.14138620937109" lon="11.936148474191754"><ele>336.0</ele><time>2026-03-24T16:00:46Z</time></trkpt><trkpt lat="42.141356043278286" lon="11.936331914086258"><ele>334.5</ele><time>2026-03-24T16:00:47Z</time></trkpt><trkpt lat="42.14131742732817" lon="11.936512300307752"><ele>333.0</ele><time>2026-03-24T16:00:48Z</time></trkpt><trkpt lat="42.141269174118456" lon="11.936681159919598"><ele>332.75</ele><time>2026-03-24T16:00:49Z</time></trkpt><trkpt lat="42.14122337605591" lon="11.936874889568902"><ele>332.5</ele><time>2026-03-24T16:00:50Z</time></trkpt><trkpt lat="42.141185279867415" lon="11.93705610376609"><ele>332.25</ele><time>2026-03-24T16:00:50.999Z</time></trkpt><trkpt lat="42.14113735633573" lon="11.937244966465867"><ele>332.0</ele><time>2026-03-24T16:00:51.999Z</time></trkpt><trkpt lat="42.1410894367538" lon="11.937428080609942"><ele>331.0</ele><time>2026-03-24T16:00:52.999Z</time></trkpt><trkpt lat="42.14104365850645" lon="11.937610766591694"><ele>330.0</ele><time>2026-03-24T16:00:53.999Z</time></trkpt><trkpt lat="42.141001518014825" lon="11.93779444615646"><ele>329.0</ele><time>2026-03-24T16:00:54.999Z</time></trkpt><trkpt lat="42.14095767493531" lon="11.937975199835785"><ele>328.0</ele><time>2026-03-24T16:00:55.999Z</time></trkpt><trkpt lat="42.140917233502776" lon="11.93815496190756"><ele>328.0</ele><time>2026-03-24T16:00:56.999Z</time></trkpt><trkpt lat="42.14087465631271" lon="11.93833177542465"><ele>328.0</ele><time>2026-03-24T16:00:57.999Z</time></trkpt><trkpt lat="42.140833959611705" lon="11.938509869157382"><ele>328.0</ele><time>2026-03-24T16:00:58.999Z</time></trkpt><trkpt lat="42.14079688197897" lon="11.938684837328827"><ele>328.0</ele><time>2026-03-24T16:00:59.999Z</time></trkpt><trkpt lat="42.140755364096144" lon="11.938850869338557"><ele>328.25</ele><time>2026-03-24T16:01:00.999Z</time></trkpt><trkpt lat="42.140715681709665" lon="11.939021668208174"><ele>328.5</ele><time>2026-03-24T16:01:01.999Z</time></trkpt><trkpt lat="42.14067309032644" lon="11.93919246419789"><ele>328.75</ele><time>2026-03-24T16:01:02.999Z</time></trkpt><trkpt lat="42.14063588714899" lon="11.939361505000477"><ele>329.0</ele><time>2026-03-24T16:01:03.999Z</time></trkpt><trkpt lat="42.14059572717876" lon="11.939528009258872"><ele>329.5</ele><time>2026-03-24T16:01:04.999Z</time></trkpt><trkpt lat="42.14055832862719" lon="11.939691086775053"><ele>330.0</ele><time>2026-03-24T16:01:05.999Z</time></trkpt><trkpt lat="42.14052386755924" lon="11.939854998541518"><ele>330.5</ele><time>2026-03-24T16:01:06.999Z</time></trkpt><trkpt lat="42.14048862570605" lon="11.94001161287905"><ele>331.0</ele><time>2026-03-24T16:01:07.999Z</time></trkpt><trkpt lat="42.14045227449934" lon="11.940176079913808"><ele>331.0</ele><time>2026-03-24T16:01:08.999Z</time></trkpt><trkpt lat="42.14041996495767" lon="11.940347422891943"><ele>331.0</ele><time>2026-03-24T16:01:09.999Z</time></trkpt><trkpt lat="42.14039365117277" lon="11.940526501571588"><ele>331.0</ele><time>2026-03-24T16:01:10.999Z</time></trkpt><trkpt lat="42.14037442191647" lon="11.94070452130224"><ele>331.0</ele><time>2026-03-24T16:01:11.999Z</time></trkpt><trkpt lat="42.14036032294113" lon="11.940887204898006"><ele>331.25</ele><time>2026-03-24T16:01:12.999Z</time></trkpt><trkpt lat="42.14034767198997" lon="11.941070305155742"><ele>331.5</ele><time>2026-03-24T16:01:13.999Z</time></trkpt><trkpt lat="42.14033683118484" lon="11.941253081173112"><ele>331.75</ele><time>2026-03-24T16:01:14.999Z</time></trkpt><trkpt lat="42.140326321193704" lon="11.941435715598654"><ele>332.0</ele><time>2026-03-24T16:01:15.999Z</time></trkpt><trkpt lat="42.140317359246744" lon="11.941613110498823"><ele>333.0</ele><time>2026-03-24T16:01:16.999Z</time></trkpt><trkpt lat="42.14030613328918" lon="11.941788673354687"><ele>334.0</ele><time>2026-03-24T16:01:17.999Z</time></trkpt><trkpt lat="42.140292955410594" lon="11.941961782600595"><ele>335.0</ele><time>2026-03-24T16:01:18.999Z</time></trkpt><trkpt lat="42.1402809672761" lon="11.942136039309172"><ele>336.0</ele><time>2026-03-24T16:01:19.999Z</time></trkpt><trkpt lat="42.14027052435649" lon="11.942310023570773"><ele>336.0</ele><time>2026-03-24T16:01:20.999Z</time></trkpt><trkpt lat="42.14025987165569" lon="11.942482065098082"><ele>336.0</ele><time>2026-03-24T16:01:21.999Z</time></trkpt><trkpt lat="42.14024758399263" lon="11.942653201505784"><ele>336.0</ele><time>2026-03-24T16:01:22.999Z</time></trkpt><trkpt lat="42.140234414409136" lon="11.942827594453826"><ele>336.0</ele><time>2026-03-24T16:01:23.999Z</time></trkpt><trkpt lat="42.14022206387291" lon="11.942995672160428"><ele>336.75</ele><time>2026-03-24T16:01:24.999Z</time></trkpt><trkpt lat="42.140209000099226" lon="11.943160001114409"><ele>337.5</ele><time>2026-03-24T16:01:25.999Z</time></trkpt><trkpt lat="42.14019971269507" lon="11.943324282599914"><ele>338.25</ele><time>2026-03-24T16:01:26.999Z</time></trkpt><trkpt lat="42.140189328447676" lon="11.943478961513547"><ele>339.0</ele><time>2026-03-24T16:01:27.999Z</time></trkpt><trkpt lat="42.14018267969905" lon="11.943624372171785"><ele>339.3333333333333</ele><time>2026-03-24T16:01:28.999Z</time></trkpt><trkpt lat="42.140171007321364" lon="11.943747252497072"><ele>339.6666666666667</ele><time>2026-03-24T16:01:29.999Z</time></trkpt><trkpt lat="42.14014634700885" lon="11.943862177113857"><ele>340.0</ele><time>2026-03-24T16:01:30.999Z</time></trkpt><trkpt lat="42.14009101005758" lon="11.943953435356596"><ele>340.33333333333337</ele><time>2026-03-24T16:01:31.999Z</time></trkpt><trkpt lat="42.14002980530371" lon="11.94401695743606"><ele>340.6666666666667</ele><time>2026-03-24T16:01:32.999Z</time></trkpt><trkpt lat="42.13994627558054" lon="11.944042683102184"><ele>341.0</ele><time>2026-03-24T16:01:33.999Z</time></trkpt><trkpt lat="42.13986013034243" lon="11.944049180595538"><ele>341.0</ele><time>2026-03-24T16:01:34.999Z</time></trkpt><trkpt lat="42.13976155985451" lon="11.944035780221443"><ele>341.0</ele><time>2026-03-24T16:01:35.999Z</time></trkpt><trkpt lat="42.139649582625935" lon="11.944035639259315"><ele>341.0</ele><time>2026-03-24T16:01:36.999Z</time></trkpt><trkpt lat="42.139548702659845" lon="11.944040148341195"><ele>341.0</ele><time>2026-03-24T16:01:37.999Z</time></trkpt><trkpt lat="42.13944690296021" lon="11.944060883598501"><ele>341.0</ele><time>2026-03-24T16:01:38.999Z</time></trkpt><trkpt lat="42.13936049868764" lon="11.944133539223"><ele>338.6</ele><time>2026-03-24T16:01:39.999Z</time></trkpt><trkpt lat="42.13928215313253" lon="11.944214230515387"><ele>336.20000000000005</ele><time>2026-03-24T16:01:40.999Z</time></trkpt><trkpt lat="42.13922326941641" lon="11.944331284612602"><ele>333.79999999999995</ele><time>2026-03-24T16:01:41.999Z</time></trkpt><trkpt lat="42.139181643159304" lon="11.944462936602948"><ele>331.4</ele><time>2026-03-24T16:01:42.999Z</time></trkpt><trkpt lat="42.139151888079994" lon="11.944610214551417"><ele>329.0</ele><time>2026-03-24T16:01:43.999Z</time></trkpt><trkpt lat="42.13913760968618" lon="11.944771192592535"><ele>329.0</ele><time>2026-03-24T16:01:44.999Z</time></trkpt><trkpt lat="42.13913662935923" lon="11.944937431879604"><ele>329.0</ele><time>2026-03-24T16:01:45.999Z</time></trkpt><trkpt lat="42.139140562186704" lon="11.945104006633633"><ele>329.0</ele><time>2026-03-24T16:01:46.999Z</time></trkpt><trkpt lat="42.13913435798832" lon="11.94525551378128"><ele>329.0</ele><time>2026-03-24T16:01:47.999Z</time></trkpt><trkpt lat="42.13911803447934" lon="11.945393401770147"><ele>328.6</ele><time>2026-03-24T16:01:48.999Z</time></trkpt><trkpt lat="42.13908218472061" lon="11.94551570343999"><ele>328.2</ele><time>2026-03-24T16:01:49.999Z</time></trkpt><trkpt lat="42.13902715133249" lon="11.945624176069861"><ele>327.8</ele><time>2026-03-24T16:01:50.999Z</time></trkpt><trkpt lat="42.13894267019617" lon="11.94569656046213"><ele>327.40000000000003</ele><time>2026-03-24T16:01:51.999Z</time></trkpt><trkpt lat="42.13883917802262" lon="11.945786317163835"><ele>327.0</ele><time>2026-03-24T16:01:52.999Z</time></trkpt><trkpt lat="42.13873610022441" lon="11.945874978267051"><ele>322.5</ele><time>2026-03-24T16:01:53.999Z</time></trkpt><trkpt lat="42.13863306242288" lon="11.945985462922035"><ele>318.0</ele><time>2026-03-24T16:01:54.999Z</time></trkpt><trkpt lat="42.13851860090748" lon="11.946078369249092"><ele>313.5</ele><time>2026-03-24T16:01:55.999Z</time></trkpt><trkpt lat="42.13840331413351" lon="11.946175339768681"><ele>309.0</ele><time>2026-03-24T16:01:56.999Z</time></trkpt><trkpt lat="42.13829713064559" lon="11.946271917012995"><ele>309.0</ele><time>2026-03-24T16:01:57.999Z</time></trkpt><trkpt lat="42.13818402246415" lon="11.94632469726707"><ele>309.0</ele><time>2026-03-24T16:01:58.999Z</time></trkpt><trkpt lat="42.13807244156558" lon="11.946373590912867"><ele>309.0</ele><time>2026-03-24T16:01:59.999Z</time></trkpt><trkpt lat="42.13795278546759" lon="11.946413769759557"><ele>309.0</ele><time>2026-03-24T16:02:00.999Z</time></trkpt><trkpt lat="42.13782844558841" lon="11.946470943263"><ele>309.0</ele><time>2026-03-24T16:02:01.999Z</time></trkpt><trkpt lat="42.1376892624496" lon="11.946482339732576"><ele>309.0</ele><time>2026-03-24T16:02:02.999Z</time></trkpt><trkpt lat="42.13755242782159" lon="11.946527805270868"><ele>309.0</ele><time>2026-03-24T16:02:03.999Z</time></trkpt><trkpt lat="42.13740959961622" lon="11.946552360185791"><ele>309.0</ele><time>2026-03-24T16:02:04.999Z</time></trkpt><trkpt lat="42.13726520700945" lon="11.946583967470023"><ele>309.75</ele><time>2026-03-24T16:02:05.999Z</time></trkpt><trkpt lat="42.137125316519224" lon="11.946620704576636"><ele>310.5</ele><time>2026-03-24T16:02:06.999Z</time></trkpt><trkpt lat="42.136988910839364" lon="11.946664774303086"><ele>311.25</ele><time>2026-03-24T16:02:07.999Z</time></trkpt><trkpt lat="42.13685897118428" lon="11.946708860304817"><ele>312.0</ele><time>2026-03-24T16:02:08.999Z</time></trkpt><trkpt lat="42.1367415533256" lon="11.946750762374558"><ele>309.0</ele><time>2026-03-24T16:02:09.998Z</time></trkpt><trkpt lat="42.1366341164851" lon="11.946798097166168"><ele>306.0</ele><time>2026-03-24T16:02:10.998Z</time></trkpt><trkpt lat="42.136541954401615" lon="11.946861869090467"><ele>303.0</ele><time>2026-03-24T16:02:11.998Z</time></trkpt><trkpt lat="42.136454080803055" lon="11.946954797743865"><ele>300.0</ele><time>2026-03-24T16:02:12.998Z</time></trkpt><trkpt lat="42.13637937644139" lon="11.947069695209638"><ele>297.0</ele><time>2026-03-24T16:02:13.998Z</time></trkpt><trkpt lat="42.13631725882097" lon="11.947199642582428"><ele>297.0</ele><time>2026-03-24T16:02:14.998Z</time></trkpt><trkpt lat="42.136265302559934" lon="11.947338471743983"><ele>297.0</ele><time>2026-03-24T16:02:15.998Z</time></trkpt><trkpt lat="42.13622993470697" lon="11.94747855322954"><ele>297.0</ele><time>2026-03-24T16:02:16.998Z</time></trkpt><trkpt lat="42.13622068394687" lon="11.947613053451441"><ele>297.0</ele><time>2026-03-24T16:02:17.998Z</time></trkpt><trkpt lat="42.13623689759763" lon="11.94774275478476"><ele>297.0</ele><time>2026-03-24T16:02:18.998Z</time></trkpt><trkpt lat="42.13627435527516" lon="11.947871798667677"><ele>296.6</ele><time>2026-03-24T16:02:19.998Z</time></trkpt><trkpt lat="42.136321879639816" lon="11.94799225148168"><ele>296.2</ele><time>2026-03-24T16:02:20.998Z</time></trkpt><trkpt lat="42.136362662649695" lon="11.948115397974352"><ele>295.8</ele><time>2026-03-24T16:02:21.998Z</time></trkpt><trkpt lat="42.1363854732286" lon="11.948244089991604"><ele>295.4</ele><time>2026-03-24T16:02:22.998Z</time></trkpt><trkpt lat="42.136392661548136" lon="11.948381046853743"><ele>295.0</ele><time>2026-03-24T16:02:23.998Z</time></trkpt><trkpt lat="42.13639155128318" lon="11.948526720857247"><ele>292.25</ele><time>2026-03-24T16:02:24.998Z</time></trkpt><trkpt lat="42.13637843239854" lon="11.948683169492277"><ele>289.5</ele><time>2026-03-24T16:02:25.999Z</time></trkpt><trkpt lat="42.136369127960485" lon="11.948847608144975"><ele>286.75</ele><time>2026-03-24T16:02:26.999Z</time></trkpt><trkpt lat="42.1363690128401" lon="11.949012415429854"><ele>284.0</ele><time>2026-03-24T16:02:27.999Z</time></trkpt><trkpt lat="42.13635501488284" lon="11.949161317739772"><ele>281.4</ele><time>2026-03-24T16:02:28.999Z</time></trkpt><trkpt lat="42.13630668117491" lon="11.949281910686766"><ele>278.79999999999995</ele><time>2026-03-24T16:02:29.999Z</time></trkpt><trkpt lat="42.136267390970445" lon="11.949397161236233"><ele>276.20000000000005</ele><time>2026-03-24T16:02:30.999Z</time></trkpt><trkpt lat="42.13618355628588" lon="11.949460984448534"><ele>273.6</ele><time>2026-03-24T16:02:31.999Z</time></trkpt><trkpt lat="42.13610314704318" lon="11.949510215640991"><ele>271.0</ele><time>2026-03-24T16:02:32.999Z</time></trkpt><trkpt lat="42.13601280888689" lon="11.949528535843"><ele>271.0</ele><time>2026-03-24T16:02:34Z</time></trkpt><trkpt lat="42.13592074716659" lon="11.949516651080758"><ele>271.0</ele><time>2026-03-24T16:02:35Z</time></trkpt><trkpt lat="42.13582839913353" lon="11.949468748208657"><ele>271.0</ele><time>2026-03-24T16:02:36Z</time></trkpt><trkpt lat="42.135740101056236" lon="11.94940116634207"><ele>271.0</ele><time>2026-03-24T16:02:37Z</time></trkpt><trkpt lat="42.13566607258917" lon="11.949283911020704"><ele>271.0</ele><time>2026-03-24T16:02:38Z</time></trkpt><trkpt lat="42.13557226338511" lon="11.949168066637384"><ele>268.75</ele><time>2026-03-24T16:02:39Z</time></trkpt><trkpt lat="42.13548687041672" lon="11.949038393582832"><ele>266.5</ele><time>2026-03-24T16:02:40Z</time></trkpt><trkpt lat="42.135388806160265" lon="11.94893899188556"><ele>264.25</ele><time>2026-03-24T16:02:41Z</time></trkpt><trkpt lat="42.13531028589082" lon="11.948789303665013"><ele>262.0</ele><time>2026-03-24T16:02:42Z</time></trkpt><trkpt lat="42.135240929306754" lon="11.948638814233787"><ele>262.0</ele><time>2026-03-24T16:02:43Z</time></trkpt><trkpt lat="42.1351664046484" lon="11.94848612997412"><ele>262.0</ele><time>2026-03-24T16:02:44Z</time></trkpt><trkpt lat="42.135098697572275" lon="11.948332222589974"><ele>262.0</ele><time>2026-03-24T16:02:45Z</time></trkpt><trkpt lat="42.13502857723206" lon="11.948183328540162"><ele>262.0</ele><time>2026-03-24T16:02:46Z</time></trkpt><trkpt lat="42.134949568541266" lon="11.94804188215499"><ele>261.0</ele><time>2026-03-24T16:02:47Z</time></trkpt><trkpt lat="42.13485345703835" lon="11.947923618492348"><ele>260.0</ele><time>2026-03-24T16:02:48Z</time></trkpt><trkpt lat="42.13475586623348" lon="11.947807930676342"><ele>259.0</ele><time>2026-03-24T16:02:49Z</time></trkpt><trkpt lat="42.13464966126823" lon="11.94770193297504"><ele>258.0</ele><time>2026-03-24T16:02:50Z</time></trkpt><trkpt lat="42.13454020169917" lon="11.947609392904775"><ele>260.0</ele><time>2026-03-24T16:02:51Z</time></trkpt><trkpt lat="42.13443146126917" lon="11.947511144841288"><ele>262.0</ele><time>2026-03-24T16:02:52Z</time></trkpt><trkpt lat="42.13431542017433" lon="11.947424178556908"><ele>264.0</ele><time>2026-03-24T16:02:53Z</time></trkpt><trkpt lat="42.134197233434215" lon="11.947350760233121"><ele>266.0</ele><time>2026-03-24T16:02:54Z</time></trkpt><trkpt lat="42.13407837959706" lon="11.947278686714485"><ele>264.5</ele><time>2026-03-24T16:02:55Z</time></trkpt><trkpt lat="42.13395661387313" lon="11.947206587357297"><ele>263.0</ele><time>2026-03-24T16:02:56Z</time></trkpt><trkpt lat="42.13382934014945" lon="11.94714415151625"><ele>261.5</ele><time>2026-03-24T16:02:57Z</time></trkpt><trkpt lat="42.13369629481568" lon="11.947090538184247"><ele>260.0</ele><time>2026-03-24T16:02:58Z</time></trkpt><trkpt lat="42.13356679162237" lon="11.94705672697577"><ele>260.0</ele><time>2026-03-24T16:02:59Z</time></trkpt><trkpt lat="42.13344082714636" lon="11.947038704199569"><ele>260.0</ele><time>2026-03-24T16:03:00Z</time></trkpt><trkpt lat="42.133346490331846" lon="11.947025706583801"><ele>260.0</ele><time>2026-03-24T16:03:01Z</time></trkpt><trkpt lat="42.133234373594426" lon="11.947065943517373"><ele>260.0</ele><time>2026-03-24T16:03:02Z</time></trkpt><trkpt lat="42.133131353418904" lon="11.947169099994769"><ele>259.5</ele><time>2026-03-24T16:03:03Z</time></trkpt><trkpt lat="42.133037389977105" lon="11.947277505199635"><ele>259.0</ele><time>2026-03-24T16:03:04Z</time></trkpt><trkpt lat="42.132954906097936" lon="11.947410375722173"><ele>258.5</ele><time>2026-03-24T16:03:05Z</time></trkpt><trkpt lat="42.13287837498363" lon="11.9475527316011"><ele>258.0</ele><time>2026-03-24T16:03:06Z</time></trkpt><trkpt lat="42.132781711435264" lon="11.947684900684768"><ele>256.5</ele><time>2026-03-24T16:03:07Z</time></trkpt><trkpt lat="42.132693849557086" lon="11.94783317235249"><ele>255.0</ele><time>2026-03-24T16:03:08Z</time></trkpt><trkpt lat="42.13260449736092" lon="11.94798254509461"><ele>253.5</ele><time>2026-03-24T16:03:09Z</time></trkpt><trkpt lat="42.132515258367825" lon="11.948127360387405"><ele>252.0</ele><time>2026-03-24T16:03:10Z</time></trkpt><trkpt lat="42.13242116736178" lon="11.94828004946981"><ele>251.0</ele><time>2026-03-24T16:03:10.999Z</time></trkpt><trkpt lat="42.13232849544615" lon="11.9484304356272"><ele>250.0</ele><time>2026-03-24T16:03:11.999Z</time></trkpt><trkpt lat="42.132235818070505" lon="11.948580830330963"><ele>249.0</ele><time>2026-03-24T16:03:12.999Z</time></trkpt><trkpt lat="42.132139529803275" lon="11.948722489248976"><ele>248.0</ele><time>2026-03-24T16:03:13.999Z</time></trkpt><trkpt lat="42.13203894490791" lon="11.9488610893244"><ele>248.0</ele><time>2026-03-24T16:03:14.999Z</time></trkpt><trkpt lat="42.13192968096609" lon="11.948990802945467"><ele>248.0</ele><time>2026-03-24T16:03:15.999Z</time></trkpt><trkpt lat="42.13181407299302" lon="11.949115802952573"><ele>248.0</ele><time>2026-03-24T16:03:16.999Z</time></trkpt><trkpt lat="42.131697223265945" lon="11.94923937165601"><ele>248.0</ele><time>2026-03-24T16:03:17.999Z</time></trkpt><trkpt lat="42.13157751060689" lon="11.949363615902751"><ele>248.66666666666669</ele><time>2026-03-24T16:03:18.999Z</time></trkpt><trkpt lat="42.1314560991628" lon="11.949487490161532"><ele>249.33333333333331</ele><time>2026-03-24T16:03:19.999Z</time></trkpt><trkpt lat="42.13133698656523" lon="11.949610420061187"><ele>250.0</ele><time>2026-03-24T16:03:20.999Z</time></trkpt><trkpt lat="42.131218796492696" lon="11.949736630373215"><ele>250.0</ele><time>2026-03-24T16:03:21.999Z</time></trkpt><trkpt lat="42.1311040617093" lon="11.949860507568108"><ele>250.0</ele><time>2026-03-24T16:03:22.999Z</time></trkpt><trkpt lat="42.13099460604714" lon="11.94997568115402"><ele>250.0</ele><time>2026-03-24T16:03:23.999Z</time></trkpt><trkpt lat="42.13088681747006" lon="11.950088070581558"><ele>250.0</ele><time>2026-03-24T16:03:24.999Z</time></trkpt><trkpt lat="42.1307836408595" lon="11.950198367664692"><ele>251.75</ele><time>2026-03-24T16:03:25.999Z</time></trkpt><trkpt lat="42.13068572980128" lon="11.95030907322756"><ele>253.5</ele><time>2026-03-24T16:03:26.999Z</time></trkpt><trkpt lat="42.130601027748895" lon="11.950430046119124"><ele>255.25</ele><time>2026-03-24T16:03:27.999Z</time></trkpt><trkpt lat="42.13053148767166" lon="11.950557821289854"><ele>257.0</ele><time>2026-03-24T16:03:28.999Z</time></trkpt><trkpt lat="42.1304776660454" lon="11.950698929032379"><ele>257.0</ele><time>2026-03-24T16:03:29.999Z</time></trkpt><trkpt lat="42.130439453702024" lon="11.950841765078632"><ele>257.0</ele><time>2026-03-24T16:03:30.999Z</time></trkpt><trkpt lat="42.13041136501047" lon="11.950991884490856"><ele>257.0</ele><time>2026-03-24T16:03:31.999Z</time></trkpt><trkpt lat="42.13040360147576" lon="11.951145337727759"><ele>257.0</ele><time>2026-03-24T16:03:32.999Z</time></trkpt><trkpt lat="42.13042103082165" lon="11.951302433450616"><ele>258.25</ele><time>2026-03-24T16:03:33.999Z</time></trkpt><trkpt lat="42.130438507770805" lon="11.951452459162887"><ele>259.5</ele><time>2026-03-24T16:03:34.999Z</time></trkpt><trkpt lat="42.13049608251818" lon="11.951600134843417"><ele>260.75</ele><time>2026-03-24T16:03:35.999Z</time></trkpt><trkpt lat="42.13053846037128" lon="11.951738491026273"><ele>262.0</ele><time>2026-03-24T16:03:36.999Z</time></trkpt><trkpt lat="42.13056760552721" lon="11.951872754701233"><ele>264.75</ele><time>2026-03-24T16:03:37.999Z</time></trkpt><trkpt lat="42.13058793533651" lon="11.952020154336305"><ele>267.5</ele><time>2026-03-24T16:03:38.999Z</time></trkpt><trkpt lat="42.13062340141563" lon="11.952167587971376"><ele>270.25</ele><time>2026-03-24T16:03:39.999Z</time></trkpt><trkpt lat="42.13061333129813" lon="11.952328146526348"><ele>273.0</ele><time>2026-03-24T16:03:40.999Z</time></trkpt><trkpt lat="42.130600232244014" lon="11.952493633771267"><ele>271.6</ele><time>2026-03-24T16:03:41.999Z</time></trkpt><trkpt lat="42.130573556614095" lon="11.952649854370174"><ele>270.20000000000005</ele><time>2026-03-24T16:03:42.999Z</time></trkpt><trkpt lat="42.1304989652174" lon="11.95276704367394"><ele>268.8</ele><time>2026-03-24T16:03:43.999Z</time></trkpt><trkpt lat="42.13043641255175" lon="11.952865198021788"><ele>267.40000000000003</ele><time>2026-03-24T16:03:44.999Z</time></trkpt><trkpt lat="42.13035913089626" lon="11.952953063356182"><ele>266.0</ele><time>2026-03-24T16:03:45.999Z</time></trkpt><trkpt lat="42.13028268957375" lon="11.953036378571703"><ele>266.0</ele><time>2026-03-24T16:03:46.999Z</time></trkpt><trkpt lat="42.130204211054" lon="11.953120682943144"><ele>266.0</ele><time>2026-03-24T16:03:47.999Z</time></trkpt><trkpt lat="42.13012102439779" lon="11.953212899952169"><ele>266.0</ele><time>2026-03-24T16:03:48.999Z</time></trkpt><trkpt lat="42.13003962209892" lon="11.953323916801276"><ele>266.0</ele><time>2026-03-24T16:03:49.999Z</time></trkpt><trkpt lat="42.12993931630939" lon="11.953419948270989"><ele>266.0</ele><time>2026-03-24T16:03:50.999Z</time></trkpt><trkpt lat="42.12985980502479" lon="11.953520744013147"><ele>268.0</ele><time>2026-03-24T16:03:51.999Z</time></trkpt><trkpt lat="42.12979310993001" lon="11.95363020882334"><ele>270.0</ele><time>2026-03-24T16:03:52.999Z</time></trkpt><trkpt lat="42.129751913353786" lon="11.95375079659454"><ele>272.0</ele><time>2026-03-24T16:03:53.999Z</time></trkpt><trkpt lat="42.12973895194993" lon="11.953884584603339"><ele>274.0</ele><time>2026-03-24T16:03:54.999Z</time></trkpt><trkpt lat="42.129729563132635" lon="11.95401958898297"><ele>276.0</ele><time>2026-03-24T16:03:55.999Z</time></trkpt><trkpt lat="42.1297099261034" lon="11.954147866721867"><ele>273.6</ele><time>2026-03-24T16:03:56.999Z</time></trkpt><trkpt lat="42.1296510178182" lon="11.954254297140935"><ele>271.20000000000005</ele><time>2026-03-24T16:03:57.999Z</time></trkpt><trkpt lat="42.12958667633859" lon="11.954341701431353"><ele>268.79999999999995</ele><time>2026-03-24T16:03:58.999Z</time></trkpt><trkpt lat="42.129511767446054" lon="11.954414165691357"><ele>266.4</ele><time>2026-03-24T16:03:59.999Z</time></trkpt><trkpt lat="42.12942535307415" lon="11.95447090987334"><ele>264.0</ele><time>2026-03-24T16:04:00.999Z</time></trkpt><trkpt lat="42.12933828753126" lon="11.954525922635865"><ele>264.0</ele><time>2026-03-24T16:04:01.999Z</time></trkpt><trkpt lat="42.129238283925446" lon="11.954539126310461"><ele>264.0</ele><time>2026-03-24T16:04:02.999Z</time></trkpt><trkpt lat="42.12913186941809" lon="11.954529116488427"><ele>264.0</ele><time>2026-03-24T16:04:03.999Z</time></trkpt><trkpt lat="42.12902027326541" lon="11.95450108230632"><ele>264.0</ele><time>2026-03-24T16:04:04.999Z</time></trkpt><trkpt lat="42.12889872681064" lon="11.954474975736266"><ele>264.0</ele><time>2026-03-24T16:04:05.999Z</time></trkpt><trkpt lat="42.12876898684334" lon="11.954448805829658"><ele>264.75</ele><time>2026-03-24T16:04:06.999Z</time></trkpt><trkpt lat="42.12863345387225" lon="11.954425031134157"><ele>265.5</ele><time>2026-03-24T16:04:07.999Z</time></trkpt><trkpt lat="42.12850830891136" lon="11.954403058085466"><ele>266.25</ele><time>2026-03-24T16:04:08.999Z</time></trkpt><trkpt lat="42.12838235498316" lon="11.954380132983593"><ele>267.0</ele><time>2026-03-24T16:04:09.999Z</time></trkpt><trkpt lat="42.12825437487415" lon="11.954347966062588"><ele>268.0</ele><time>2026-03-24T16:04:10.999Z</time></trkpt><trkpt lat="42.12812290256388" lon="11.954327930707688"><ele>269.0</ele><time>2026-03-24T16:04:11.999Z</time></trkpt><trkpt lat="42.127994168310465" lon="11.954314060183941"><ele>270.0</ele><time>2026-03-24T16:04:12.999Z</time></trkpt><trkpt lat="42.127863666471605" lon="11.954315640321967"><ele>271.0</ele><time>2026-03-24T16:04:13.999Z</time></trkpt><trkpt lat="42.127734534771335" lon="11.954329184240365"><ele>271.0</ele><time>2026-03-24T16:04:14.999Z</time></trkpt><trkpt lat="42.127615116672395" lon="11.954369324201457"><ele>271.0</ele><time>2026-03-24T16:04:15.999Z</time></trkpt><trkpt lat="42.127505839334695" lon="11.954413747307289"><ele>271.0</ele><time>2026-03-24T16:04:16.999Z</time></trkpt><trkpt lat="42.12739505793142" lon="11.954443495417891"><ele>271.0</ele><time>2026-03-24T16:04:17.999Z</time></trkpt><trkpt lat="42.127280190273126" lon="11.95446206921326"><ele>273.8</ele><time>2026-03-24T16:04:18.999Z</time></trkpt><trkpt lat="42.12716541104967" lon="11.954459149849207"><ele>276.6</ele><time>2026-03-24T16:04:19.999Z</time></trkpt><trkpt lat="42.12705571185021" lon="11.954430270750969"><ele>279.4</ele><time>2026-03-24T16:04:20.999Z</time></trkpt><trkpt lat="42.126952732801904" lon="11.954387230873136"><ele>282.2</ele><time>2026-03-24T16:04:21.999Z</time></trkpt><trkpt lat="42.12684981507623" lon="11.954343125488506"><ele>285.0</ele><time>2026-03-24T16:04:22.999Z</time></trkpt><trkpt lat="42.12674470274938" lon="11.954325303530078"><ele>285.0</ele><time>2026-03-24T16:04:23.999Z</time></trkpt><trkpt lat="42.12663347980439" lon="11.954330037555339"><ele>285.0</ele><time>2026-03-24T16:04:24.999Z</time></trkpt><trkpt lat="42.126534973181194" lon="11.954377152942124"><ele>285.0</ele><time>2026-03-24T16:04:25.999Z</time></trkpt><trkpt lat="42.12643404230108" lon="11.954444211476636"><ele>285.0</ele><time>2026-03-24T16:04:26.999Z</time></trkpt><trkpt lat="42.12633998724857" lon="11.95452015881422"><ele>285.0</ele><time>2026-03-24T16:04:27.999Z</time></trkpt><trkpt lat="42.126255155451325" lon="11.954602163467628"><ele>287.6</ele><time>2026-03-24T16:04:28.999Z</time></trkpt><trkpt lat="42.12618373115736" lon="11.954699971241974"><ele>290.2</ele><time>2026-03-24T16:04:29.999Z</time></trkpt><trkpt lat="42.12613345004158" lon="11.954823786970602"><ele>292.8</ele><time>2026-03-24T16:04:30.999Z</time></trkpt><trkpt lat="42.12611142503186" lon="11.954965426632421"><ele>295.4</ele><time>2026-03-24T16:04:32Z</time></trkpt><trkpt lat="42.126118067349225" lon="11.955116308283397"><ele>298.0</ele><time>2026-03-24T16:04:33Z</time></trkpt><trkpt lat="42.12614856411666" lon="11.955254708373024"><ele>298.0</ele><time>2026-03-24T16:04:34Z</time></trkpt><trkpt lat="42.12618413278531" lon="11.955389573829533"><ele>298.0</ele><time>2026-03-24T16:04:35Z</time></trkpt><trkpt lat="42.12621089976245" lon="11.955512488818703"><ele>298.0</ele><time>2026-03-24T16:04:36Z</time></trkpt><trkpt lat="42.12622649540632" lon="11.955630127257475"><ele>298.0</ele><time>2026-03-24T16:04:37Z</time></trkpt><trkpt lat="42.12621885843954" lon="11.955746133261037"><ele>298.0</ele><time>2026-03-24T16:04:38Z</time></trkpt><trkpt lat="42.1261873326794" lon="11.955850585252294"><ele>297.2</ele><time>2026-03-24T16:04:39Z</time></trkpt><trkpt lat="42.12613146662806" lon="11.955944234288925"><ele>296.4</ele><time>2026-03-24T16:04:40Z</time></trkpt><trkpt lat="42.126054515889265" lon="11.956018485882913"><ele>295.59999999999997</ele><time>2026-03-24T16:04:41Z</time></trkpt><trkpt lat="42.12596506162102" lon="11.956074883757944"><ele>294.8</ele><time>2026-03-24T16:04:42Z</time></trkpt><trkpt lat="42.12587142007009" lon="11.956128584105414"><ele>294.0</ele><time>2026-03-24T16:04:43Z</time></trkpt><trkpt lat="42.12577801272475" lon="11.95619204306646"><ele>297.25</ele><time>2026-03-24T16:04:44Z</time></trkpt><trkpt lat="42.12567720590434" lon="11.956252469035288"><ele>300.5</ele><time>2026-03-24T16:04:45Z</time></trkpt><trkpt lat="42.12557213166165" lon="11.95631779849497"><ele>303.75</ele><time>2026-03-24T16:04:46Z</time></trkpt><trkpt lat="42.12546473051987" lon="11.956386344438704"><ele>307.0</ele><time>2026-03-24T16:04:47Z</time></trkpt><trkpt lat="42.12535803624334" lon="11.956464205960811"><ele>307.0</ele><time>2026-03-24T16:04:48Z</time></trkpt><trkpt lat="42.125263389649554" lon="11.956554889997983"><ele>307.0</ele><time>2026-03-24T16:04:49Z</time></trkpt><trkpt lat="42.125186612173536" lon="11.9566640567202"><ele>307.0</ele><time>2026-03-24T16:04:50Z</time></trkpt><trkpt lat="42.125134529199265" lon="11.956790729829995"><ele>307.0</ele><time>2026-03-24T16:04:51Z</time></trkpt><trkpt lat="42.125114007107435" lon="11.956925693685186"><ele>307.0</ele><time>2026-03-24T16:04:52Z</time></trkpt><trkpt lat="42.12511390138718" lon="11.957069030426407"><ele>306.6</ele><time>2026-03-24T16:04:53Z</time></trkpt><trkpt lat="42.12512602740299" lon="11.957211901056704"><ele>306.2</ele><time>2026-03-24T16:04:54Z</time></trkpt><trkpt lat="42.12513407690619" lon="11.957354811657305"><ele>305.8</ele><time>2026-03-24T16:04:55Z</time></trkpt><trkpt lat="42.12513610436662" lon="11.95750180625591"><ele>305.4</ele><time>2026-03-24T16:04:56Z</time></trkpt><trkpt lat="42.125136769020926" lon="11.957647323921128"><ele>305.0</ele><time>2026-03-24T16:04:57Z</time></trkpt><trkpt lat="42.12512945265098" lon="11.957786641480944"><ele>304.83333333333337</ele><time>2026-03-24T16:04:58Z</time></trkpt><trkpt lat="42.12510901156312" lon="11.957918539680424"><ele>304.6666666666667</ele><time>2026-03-24T16:04:59Z</time></trkpt><trkpt lat="42.125070394763426" lon="11.958027592522775"><ele>304.5</ele><time>2026-03-24T16:05:00Z</time></trkpt><trkpt lat="42.12501521641148" lon="11.958112837050525"><ele>304.3333333333333</ele><time>2026-03-24T16:05:01Z</time></trkpt><trkpt lat="42.12494473673684" lon="11.958171217148553"><ele>304.16666666666663</ele><time>2026-03-24T16:05:02Z</time></trkpt><trkpt lat="42.1248532963406" lon="11.958182555898611"><ele>304.0</ele><time>2026-03-24T16:05:03Z</time></trkpt><trkpt lat="42.12476320887888" lon="11.958184726453862"><ele>304.0</ele><time>2026-03-24T16:05:04Z</time></trkpt><trkpt lat="42.12466129059491" lon="11.958177096484746"><ele>304.0</ele><time>2026-03-24T16:05:05Z</time></trkpt><trkpt lat="42.12455052013532" lon="11.958180937315712"><ele>304.0</ele><time>2026-03-24T16:05:06Z</time></trkpt><trkpt lat="42.124436141241574" lon="11.95816339616317"><ele>304.0</ele><time>2026-03-24T16:05:07Z</time></trkpt><trkpt lat="42.12431641563649" lon="11.958147490278213"><ele>304.0</ele><time>2026-03-24T16:05:08Z</time></trkpt><trkpt lat="42.12419490587556" lon="11.958133407335769"><ele>304.0</ele><time>2026-03-24T16:05:09Z</time></trkpt><trkpt lat="42.124071881111" lon="11.95811582054977"><ele>304.0</ele><time>2026-03-24T16:05:10Z</time></trkpt><trkpt lat="42.123945914676796" lon="11.95812567047272"><ele>304.0</ele><time>2026-03-24T16:05:11Z</time></trkpt><trkpt lat="42.123822764442416" lon="11.958140357060147"><ele>304.0</ele><time>2026-03-24T16:05:12Z</time></trkpt><trkpt lat="42.12371017081747" lon="11.95817500740118"><ele>303.8</ele><time>2026-03-24T16:05:13Z</time></trkpt><trkpt lat="42.123603009498055" lon="11.958195220425802"><ele>303.59999999999997</ele><time>2026-03-24T16:05:14Z</time></trkpt><trkpt lat="42.12349982806149" lon="11.958201620407547"><ele>303.4</ele><time>2026-03-24T16:05:15Z</time></trkpt><trkpt lat="42.123403685598625" lon="11.958174587366702"><ele>303.2</ele><time>2026-03-24T16:05:16Z</time></trkpt><trkpt lat="42.123318190998916" lon="11.958114732400485"><ele>303.0</ele><time>2026-03-24T16:05:17Z</time></trkpt><trkpt lat="42.12324316302951" lon="11.958026434269009"><ele>301.75</ele><time>2026-03-24T16:05:18Z</time></trkpt><trkpt lat="42.12317040886352" lon="11.95792148830679"><ele>300.5</ele><time>2026-03-24T16:05:19Z</time></trkpt><trkpt lat="42.12308580047451" lon="11.95781294666078"><ele>299.25</ele><time>2026-03-24T16:05:20Z</time></trkpt><trkpt lat="42.12300097089112" lon="11.957703056032019"><ele>298.0</ele><time>2026-03-24T16:05:21Z</time></trkpt><trkpt lat="42.12291177551578" lon="11.957593421777618"><ele>300.75</ele><time>2026-03-24T16:05:22Z</time></trkpt><trkpt lat="42.122821693157114" lon="11.957482070611645"><ele>303.5</ele><time>2026-03-24T16:05:23Z</time></trkpt><trkpt lat="42.12272973971033" lon="11.957374526577158"><ele>306.25</ele><time>2026-03-24T16:05:24Z</time></trkpt><trkpt lat="42.12263491083881" lon="11.957265765127698"><ele>309.0</ele><time>2026-03-24T16:05:25Z</time></trkpt><trkpt lat="42.1225404308082" lon="11.957158852725557"><ele>309.0</ele><time>2026-03-24T16:05:26Z</time></trkpt><trkpt lat="42.12244606562703" lon="11.957047328720115"><ele>309.0</ele><time>2026-03-24T16:05:27Z</time></trkpt><trkpt lat="42.12234923404689" lon="11.956936435567247"><ele>309.0</ele><time>2026-03-24T16:05:28Z</time></trkpt><trkpt lat="42.12225000123923" lon="11.956826675198478"><ele>309.0</ele><time>2026-03-24T16:05:29Z</time></trkpt><trkpt lat="42.122148319602374" lon="11.95671844534599"><ele>310.5</ele><time>2026-03-24T16:05:30Z</time></trkpt><trkpt lat="42.12204544256591" lon="11.95661217971988"><ele>312.0</ele><time>2026-03-24T16:05:31Z</time></trkpt><trkpt lat="42.121947987289985" lon="11.956508164600887"><ele>313.5</ele><time>2026-03-24T16:05:32Z</time></trkpt><trkpt lat="42.12185709495142" lon="11.956403983876081"><ele>315.0</ele><time>2026-03-24T16:05:32.999Z</time></trkpt><trkpt lat="42.12176973827177" lon="11.956316617053156"><ele>315.0</ele><time>2026-03-24T16:05:33.999Z</time></trkpt><trkpt lat="42.121682353380656" lon="11.956255773243399"><ele>315.0</ele><time>2026-03-24T16:05:34.999Z</time></trkpt><trkpt lat="42.12158847910767" lon="11.956229225364535"><ele>315.0</ele><time>2026-03-24T16:05:35.999Z</time></trkpt><trkpt lat="42.12149670265195" lon="11.95624121064651"><ele>315.0</ele><time>2026-03-24T16:05:36.999Z</time></trkpt><trkpt lat="42.12140457811943" lon="11.956286400000321"><ele>315.0</ele><time>2026-03-24T16:05:37.999Z</time></trkpt><trkpt lat="42.12130915392249" lon="11.956338232219093"><ele>318.25</ele><time>2026-03-24T16:05:38.999Z</time></trkpt><trkpt lat="42.12121361486911" lon="11.956397188802805"><ele>321.5</ele><time>2026-03-24T16:05:39.999Z</time></trkpt><trkpt lat="42.12111670896985" lon="11.956468174901117"><ele>324.75</ele><time>2026-03-24T16:05:40.999Z</time></trkpt><trkpt lat="42.12102202743553" lon="11.956564145149782"><ele>328.0</ele><time>2026-03-24T16:05:41.999Z</time></trkpt><trkpt lat="42.12093646992202" lon="11.95667607175927"><ele>329.75</ele><time>2026-03-24T16:05:42.999Z</time></trkpt><trkpt lat="42.12085447911332" lon="11.956797567943918"><ele>331.5</ele><time>2026-03-24T16:05:43.999Z</time></trkpt><trkpt lat="42.120773509196475" lon="11.95691873802294"><ele>333.25</ele><time>2026-03-24T16:05:44.999Z</time></trkpt><trkpt lat="42.12069388069098" lon="11.95703638481069"><ele>335.0</ele><time>2026-03-24T16:05:45.999Z</time></trkpt><trkpt lat="42.120616983337484" lon="11.95714760260572"><ele>335.0</ele><time>2026-03-24T16:05:46.999Z</time></trkpt><trkpt lat="42.120548222477694" lon="11.957254250748797"><ele>335.0</ele><time>2026-03-24T16:05:47.999Z</time></trkpt><trkpt lat="42.12048013049917" lon="11.957353479906555"><ele>335.0</ele><time>2026-03-24T16:05:48.999Z</time></trkpt><trkpt lat="42.120458903099205" lon="11.957502266448465"><ele>335.0</ele><time>2026-03-24T16:05:49.999Z</time></trkpt><trkpt lat="42.12043881757808" lon="11.957650325629123"><ele>335.0</ele><time>2026-03-24T16:05:50.999Z</time></trkpt><trkpt lat="42.12042826342198" lon="11.957803689428482"><ele>335.0</ele><time>2026-03-24T16:05:51.999Z</time></trkpt><trkpt lat="42.12041673926742" lon="11.957957319241007"><ele>335.0</ele><time>2026-03-24T16:05:52.999Z</time></trkpt><trkpt lat="42.12038870021442" lon="11.958113273453423"><ele>335.0</ele><time>2026-03-24T16:05:53.999Z</time></trkpt><trkpt lat="42.12039562992677" lon="11.958267311159572"><ele>335.0</ele><time>2026-03-24T16:05:54.999Z</time></trkpt><trkpt lat="42.120391730743066" lon="11.958414779552472"><ele>336.2</ele><time>2026-03-24T16:05:55.999Z</time></trkpt><trkpt lat="42.12040437510162" lon="11.95855649616805"><ele>337.4</ele><time>2026-03-24T16:05:56.999Z</time></trkpt><trkpt lat="42.12044057181923" lon="11.95869121029557"><ele>338.6</ele><time>2026-03-24T16:05:57.999Z</time></trkpt><trkpt lat="42.12049430070286" lon="11.958816721772862"><ele>339.8</ele><time>2026-03-24T16:05:58.999Z</time></trkpt><trkpt lat="42.12055741907209" lon="11.95893607954092"><ele>341.0</ele><time>2026-03-24T16:05:59.999Z</time></trkpt><trkpt lat="42.12061714074998" lon="11.9590475849211"><ele>341.0</ele><time>2026-03-24T16:06:00.999Z</time></trkpt><trkpt lat="42.12066229652268" lon="11.959161135012721"><ele>341.0</ele><time>2026-03-24T16:06:01.999Z</time></trkpt><trkpt lat="42.1206853690849" lon="11.95928739807651"><ele>341.0</ele><time>2026-03-24T16:06:02.999Z</time></trkpt><trkpt lat="42.12068427674214" lon="11.959422261982967"><ele>341.0</ele><time>2026-03-24T16:06:03.999Z</time></trkpt><trkpt lat="42.12065560623329" lon="11.959558919664396"><ele>341.0</ele><time>2026-03-24T16:06:04.999Z</time></trkpt><trkpt lat="42.12060574386778" lon="11.959691468443195"><ele>341.4</ele><time>2026-03-24T16:06:05.999Z</time></trkpt><trkpt lat="42.12055475475035" lon="11.959821147246691"><ele>341.8</ele><time>2026-03-24T16:06:06.999Z</time></trkpt><trkpt lat="42.1205036103872" lon="11.959949139696967"><ele>342.2</ele><time>2026-03-24T16:06:07.999Z</time></trkpt><trkpt lat="42.120474547355634" lon="11.960080454593013"><ele>342.59999999999997</ele><time>2026-03-24T16:06:08.999Z</time></trkpt><trkpt lat="42.120473974528714" lon="11.96021425637007"><ele>343.0</ele><time>2026-03-24T16:06:09.999Z</time></trkpt><trkpt lat="42.120493244062466" lon="11.960341174163712"><ele>341.2</ele><time>2026-03-24T16:06:10.999Z</time></trkpt><trkpt lat="42.12053823014851" lon="11.960461390547605"><ele>339.4</ele><time>2026-03-24T16:06:11.999Z</time></trkpt><trkpt lat="42.12057978533321" lon="11.960579393885968"><ele>337.59999999999997</ele><time>2026-03-24T16:06:12.999Z</time></trkpt><trkpt lat="42.12060531296036" lon="11.960700913861002"><ele>335.79999999999995</ele><time>2026-03-24T16:06:13.999Z</time></trkpt><trkpt lat="42.120605958114936" lon="11.960818589846266"><ele>334.0</ele><time>2026-03-24T16:06:14.999Z</time></trkpt><trkpt lat="42.120576231359365" lon="11.960930439131175"><ele>332.6</ele><time>2026-03-24T16:06:15.999Z</time></trkpt><trkpt lat="42.12051659111965" lon="11.961023313051147"><ele>331.2</ele><time>2026-03-24T16:06:16.999Z</time></trkpt><trkpt lat="42.12042824215349" lon="11.961063201681565"><ele>329.8</ele><time>2026-03-24T16:06:17.999Z</time></trkpt><trkpt lat="42.12033875786423" lon="11.961128618067212"><ele>328.40000000000003</ele><time>2026-03-24T16:06:18.999Z</time></trkpt><trkpt lat="42.12024139200533" lon="11.961167845227731"><ele>327.0</ele><time>2026-03-24T16:06:19.999Z</time></trkpt><trkpt lat="42.120147182686374" lon="11.96120621264694"><ele>327.0</ele><time>2026-03-24T16:06:20.999Z</time></trkpt><trkpt lat="42.120064390375866" lon="11.961258851954174"><ele>327.0</ele><time>2026-03-24T16:06:21.999Z</time></trkpt><trkpt lat="42.119999586364486" lon="11.961334567281686"><ele>327.0</ele><time>2026-03-24T16:06:22.999Z</time></trkpt><trkpt lat="42.11995886323639" lon="11.961429798221674"><ele>327.0</ele><time>2026-03-24T16:06:23.999Z</time></trkpt><trkpt lat="42.1199470656915" lon="11.961539451963805"><ele>327.0</ele><time>2026-03-24T16:06:24.999Z</time></trkpt><trkpt lat="42.11996476601128" lon="11.961655948682688"><ele>327.0</ele><time>2026-03-24T16:06:25.999Z</time></trkpt><trkpt lat="42.120002001781046" lon="11.961768506204304"><ele>326.5</ele><time>2026-03-24T16:06:26.999Z</time></trkpt><trkpt lat="42.12004192853569" lon="11.961886403494708"><ele>326.0</ele><time>2026-03-24T16:06:27.999Z</time></trkpt><trkpt lat="42.12007028516266" lon="11.962004999475042"><ele>325.5</ele><time>2026-03-24T16:06:28.999Z</time></trkpt><trkpt lat="42.12007751388784" lon="11.962121463061653"><ele>325.0</ele><time>2026-03-24T16:06:29.999Z</time></trkpt><trkpt lat="42.120059955740544" lon="11.962230559834264"><ele>324.5</ele><time>2026-03-24T16:06:30.999Z</time></trkpt><trkpt lat="42.120015650393206" lon="11.962326347568874"><ele>324.0</ele><time>2026-03-24T16:06:31.999Z</time></trkpt><trkpt lat="42.11995488873249" lon="11.962409450287465"><ele>327.4</ele><time>2026-03-24T16:06:32.999Z</time></trkpt><trkpt lat="42.11987515989546" lon="11.962480175281204"><ele>330.79999999999995</ele><time>2026-03-24T16:06:33.999Z</time></trkpt><trkpt lat="42.11978718684157" lon="11.962546027457593"><ele>334.20000000000005</ele><time>2026-03-24T16:06:34.999Z</time></trkpt><trkpt lat="42.1197014194825" lon="11.962613930251681"><ele>337.6</ele><time>2026-03-24T16:06:35.999Z</time></trkpt><trkpt lat="42.11962397275072" lon="11.96270309514259"><ele>341.0</ele><time>2026-03-24T16:06:36.999Z</time></trkpt><trkpt lat="42.11956128973008" lon="11.962809202358267"><ele>341.0</ele><time>2026-03-24T16:06:38Z</time></trkpt><trkpt lat="42.11951438003703" lon="11.962928203802056"><ele>341.0</ele><time>2026-03-24T16:06:39Z</time></trkpt><trkpt lat="42.119488936696044" lon="11.963059270445939"><ele>341.0</ele><time>2026-03-24T16:06:40Z</time></trkpt><trkpt lat="42.11947953755798" lon="11.96319288395355"><ele>341.0</ele><time>2026-03-24T16:06:41Z</time></trkpt><trkpt lat="42.119486711082274" lon="11.963332145214537"><ele>341.0</ele><time>2026-03-24T16:06:42Z</time></trkpt><trkpt lat="42.1195076483895" lon="11.963471546400177"><ele>342.4</ele><time>2026-03-24T16:06:43Z</time></trkpt><trkpt lat="42.11953851428076" lon="11.963605768454466"><ele>343.8</ele><time>2026-03-24T16:06:44Z</time></trkpt><trkpt lat="42.119575526341514" lon="11.96373540838164"><ele>345.2</ele><time>2026-03-24T16:06:45Z</time></trkpt><trkpt lat="42.119615624633454" lon="11.963862249488134"><ele>346.59999999999997</ele><time>2026-03-24T16:06:46Z</time></trkpt><trkpt lat="42.11965862469825" lon="11.963987164800006"><ele>348.0</ele><time>2026-03-24T16:06:47Z</time></trkpt><trkpt lat="42.119696466369874" lon="11.964113915941345"><ele>347.0</ele><time>2026-03-24T16:06:48Z</time></trkpt><trkpt lat="42.119733414431664" lon="11.964239598938587"><ele>346.0</ele><time>2026-03-24T16:06:49Z</time></trkpt><trkpt lat="42.11977357658015" lon="11.964363968070593"><ele>345.0</ele><time>2026-03-24T16:06:50Z</time></trkpt><trkpt lat="42.11981950815068" lon="11.964485171330697"><ele>344.0</ele><time>2026-03-24T16:06:51Z</time></trkpt><trkpt lat="42.11987465584285" lon="11.96460093276973"><ele>343.0</ele><time>2026-03-24T16:06:52Z</time></trkpt><trkpt lat="42.11993694322244" lon="11.964709140202428"><ele>343.0</ele><time>2026-03-24T16:06:53Z</time></trkpt><trkpt lat="42.12000111138695" lon="11.964813341725918"><ele>343.0</ele><time>2026-03-24T16:06:54Z</time></trkpt><trkpt lat="42.12005961626263" lon="11.964917974920839"><ele>343.0</ele><time>2026-03-24T16:06:55Z</time></trkpt><trkpt lat="42.12011074172483" lon="11.965025466592829"><ele>343.0</ele><time>2026-03-24T16:06:56Z</time></trkpt><trkpt lat="42.120148909117475" lon="11.965142017197762"><ele>343.0</ele><time>2026-03-24T16:06:57Z</time></trkpt><trkpt lat="42.12017217329826" lon="11.965268027197798"><ele>345.4</ele><time>2026-03-24T16:06:58Z</time></trkpt><trkpt lat="42.12017579962061" lon="11.96539641736261"><ele>347.79999999999995</ele><time>2026-03-24T16:06:59Z</time></trkpt><trkpt lat="42.12016134639931" lon="11.965523441215687"><ele>350.2</ele><time>2026-03-24T16:07:00Z</time></trkpt><trkpt lat="42.120141674042905" lon="11.965645601407566"><ele>352.6</ele><time>2026-03-24T16:07:00.999Z</time></trkpt><trkpt lat="42.12014220480383" lon="11.965769680590519"><ele>355.0</ele><time>2026-03-24T16:07:01.999Z</time></trkpt><trkpt lat="42.120167977357085" lon="11.96589072535594"><ele>357.4</ele><time>2026-03-24T16:07:02.999Z</time></trkpt><trkpt lat="42.12022170359443" lon="11.9660023370974"><ele>359.8</ele><time>2026-03-24T16:07:03.999Z</time></trkpt><trkpt lat="42.120286722997015" lon="11.966112569723297"><ele>362.20000000000005</ele><time>2026-03-24T16:07:04.999Z</time></trkpt><trkpt lat="42.120354954008754" lon="11.966223922365376"><ele>364.6</ele><time>2026-03-24T16:07:05.999Z</time></trkpt><trkpt lat="42.1204203550853" lon="11.966342856102521"><ele>367.0</ele><time>2026-03-24T16:07:06.999Z</time></trkpt><trkpt lat="42.12048902466116" lon="11.966461094836992"><ele>367.0</ele><time>2026-03-24T16:07:07.999Z</time></trkpt><trkpt lat="42.12055513330097" lon="11.966582398528912"><ele>367.0</ele><time>2026-03-24T16:07:08.999Z</time></trkpt><trkpt lat="42.12061889593564" lon="11.966703596612255"><ele>367.0</ele><time>2026-03-24T16:07:09.999Z</time></trkpt><trkpt lat="42.12067634051854" lon="11.966825210124929"><ele>367.0</ele><time>2026-03-24T16:07:10.999Z</time></trkpt><trkpt lat="42.12072692360031" lon="11.966943531829596"><ele>367.0</ele><time>2026-03-24T16:07:11.999Z</time></trkpt><trkpt lat="42.12076434525655" lon="11.967065383686899"><ele>363.20000000000005</ele><time>2026-03-24T16:07:12.999Z</time></trkpt><trkpt lat="42.12078411832217" lon="11.967194713347823"><ele>359.4</ele><time>2026-03-24T16:07:13.999Z</time></trkpt><trkpt lat="42.1207905038759" lon="11.967328251930294"><ele>355.6</ele><time>2026-03-24T16:07:14.999Z</time></trkpt><trkpt lat="42.12079262220733" lon="11.967468991759109"><ele>351.79999999999995</ele><time>2026-03-24T16:07:15.999Z</time></trkpt><trkpt lat="42.1207919108637" lon="11.967614280068965"><ele>348.0</ele><time>2026-03-24T16:07:16.999Z</time></trkpt><trkpt lat="42.120797137411756" lon="11.967763340896274"><ele>347.59999999999997</ele><time>2026-03-24T16:07:17.999Z</time></trkpt><trkpt lat="42.12080452170197" lon="11.967903454883674"><ele>347.2</ele><time>2026-03-24T16:07:18.999Z</time></trkpt><trkpt lat="42.12080954576019" lon="11.96803818659822"><ele>346.8</ele><time>2026-03-24T16:07:19.999Z</time></trkpt><trkpt lat="42.12081014333451" lon="11.968171078056667"><ele>346.4</ele><time>2026-03-24T16:07:20.999Z</time></trkpt><trkpt lat="42.120796715837024" lon="11.968301620548594"><ele>346.0</ele><time>2026-03-24T16:07:21.999Z</time></trkpt><trkpt lat="42.12075830976491" lon="11.968424121002279"><ele>347.0</ele><time>2026-03-24T16:07:22.999Z</time></trkpt><trkpt lat="42.12070274315919" lon="11.968536821703417"><ele>348.0</ele><time>2026-03-24T16:07:23.999Z</time></trkpt><trkpt lat="42.12062083578037" lon="11.968636902801979"><ele>349.0</ele><time>2026-03-24T16:07:24.999Z</time></trkpt><trkpt lat="42.12052828939456" lon="11.968740585029702"><ele>350.0</ele><time>2026-03-24T16:07:25.999Z</time></trkpt><trkpt lat="42.12042581731175" lon="11.968849138724963"><ele>350.0</ele><time>2026-03-24T16:07:26.999Z</time></trkpt><trkpt lat="42.12031864927549" lon="11.968959314245865"><ele>350.0</ele><time>2026-03-24T16:07:27.999Z</time></trkpt><trkpt lat="42.12020705607902" lon="11.969071798108308"><ele>350.0</ele><time>2026-03-24T16:07:28.999Z</time></trkpt><trkpt lat="42.120093627870105" lon="11.969186809722023"><ele>350.0</ele><time>2026-03-24T16:07:29.999Z</time></trkpt><trkpt lat="42.11997987120289" lon="11.969303253032498"><ele>349.5</ele><time>2026-03-24T16:07:30.999Z</time></trkpt><trkpt lat="42.1198660647211" lon="11.969424353350359"><ele>349.0</ele><time>2026-03-24T16:07:31.999Z</time></trkpt><trkpt lat="42.11975770771613" lon="11.96955466161189"><ele>348.5</ele><time>2026-03-24T16:07:32.999Z</time></trkpt><trkpt lat="42.11965774408732" lon="11.969698066747876"><ele>348.0</ele><time>2026-03-24T16:07:33.999Z</time></trkpt><trkpt lat="42.11956722045323" lon="11.96984851391222"><ele>348.0</ele><time>2026-03-24T16:07:34.999Z</time></trkpt><trkpt lat="42.119488826733296" lon="11.970007294707736"><ele>348.0</ele><time>2026-03-24T16:07:35.999Z</time></trkpt><trkpt lat="42.11942053662672" lon="11.970174216227974"><ele>348.0</ele><time>2026-03-24T16:07:36.999Z</time></trkpt><trkpt lat="42.11936049192184" lon="11.970339452942802"><ele>348.0</ele><time>2026-03-24T16:07:37.999Z</time></trkpt><trkpt lat="42.119300513478365" lon="11.970505438710854"><ele>345.3333333333333</ele><time>2026-03-24T16:07:38.999Z</time></trkpt><trkpt lat="42.11923789120966" lon="11.970660812149879"><ele>342.66666666666663</ele><time>2026-03-24T16:07:39.999Z</time></trkpt><trkpt lat="42.119090726404224" lon="11.970930501905865"><ele>340.0</ele><time>2026-03-24T16:07:41.999Z</time></trkpt><trkpt lat="42.11899507558312" lon="11.971040639977025"><ele>339.75</ele><time>2026-03-24T16:07:42.999Z</time></trkpt><trkpt lat="42.11889247403293" lon="11.971125250419622"><ele>339.5</ele><time>2026-03-24T16:07:43.999Z</time></trkpt><trkpt lat="42.118784609398055" lon="11.971193263167809"><ele>339.25</ele><time>2026-03-24T16:07:44.999Z</time></trkpt><trkpt lat="42.11867112723542" lon="11.971252716105708"><ele>339.0</ele><time>2026-03-24T16:07:45.999Z</time></trkpt><trkpt lat="42.11855177056856" lon="11.971298709769828"><ele>339.0</ele><time>2026-03-24T16:07:46.999Z</time></trkpt><trkpt lat="42.118430764364845" lon="11.971329286948604"><ele>339.0</ele><time>2026-03-24T16:07:47.999Z</time></trkpt><trkpt lat="42.11831258713061" lon="11.971352160783054"><ele>339.0</ele><time>2026-03-24T16:07:48.999Z</time></trkpt><trkpt lat="42.11819758242334" lon="11.971388620313444"><ele>339.0</ele><time>2026-03-24T16:07:49.999Z</time></trkpt><trkpt lat="42.11808380920774" lon="11.971444048200617"><ele>339.25</ele><time>2026-03-24T16:07:50.999Z</time></trkpt><trkpt lat="42.11797599313371" lon="11.971520546070748"><ele>339.5</ele><time>2026-03-24T16:07:51.999Z</time></trkpt><trkpt lat="42.117874287712034" lon="11.971612397360605"><ele>339.75</ele><time>2026-03-24T16:07:52.999Z</time></trkpt><trkpt lat="42.1177765385136" lon="11.971712662587008"><ele>340.0</ele><time>2026-03-24T16:07:53.999Z</time></trkpt><trkpt lat="42.11767381469698" lon="11.971812689116371"><ele>340.0</ele><time>2026-03-24T16:07:54.999Z</time></trkpt><trkpt lat="42.117565153857804" lon="11.971914013175663"><ele>340.0</ele><time>2026-03-24T16:07:55.999Z</time></trkpt><trkpt lat="42.11745672112421" lon="11.972015534486356"><ele>340.0</ele><time>2026-03-24T16:07:56.999Z</time></trkpt><trkpt lat="42.11734535833129" lon="11.972116856433185"><ele>340.0</ele><time>2026-03-24T16:07:57.999Z</time></trkpt><trkpt lat="42.1172328290859" lon="11.972216591923193"><ele>340.0</ele><time>2026-03-24T16:07:58.999Z</time></trkpt><trkpt lat="42.11712053623663" lon="11.972316171865883"><ele>340.0</ele><time>2026-03-24T16:07:59.999Z</time></trkpt><trkpt lat="42.11700804533799" lon="11.972408969240746"><ele>340.0</ele><time>2026-03-24T16:08:00.999Z</time></trkpt><trkpt lat="42.11689800032157" lon="11.972503273843916"><ele>340.0</ele><time>2026-03-24T16:08:01.999Z</time></trkpt><trkpt lat="42.116787640473866" lon="11.972598964178204"><ele>340.0</ele><time>2026-03-24T16:08:02.999Z</time></trkpt><trkpt lat="42.11667482307724" lon="11.97269630986087"><ele>340.0</ele><time>2026-03-24T16:08:03.999Z</time></trkpt><trkpt lat="42.11656503376476" lon="11.97279140716001"><ele>340.0</ele><time>2026-03-24T16:08:04.999Z</time></trkpt><trkpt lat="42.116462870931954" lon="11.972890341827599"><ele>340.0</ele><time>2026-03-24T16:08:05.999Z</time></trkpt><trkpt lat="42.116378818802595" lon="11.97300486310629"><ele>341.75</ele><time>2026-03-24T16:08:06.999Z</time></trkpt><trkpt lat="42.11630618487152" lon="11.97313357046103"><ele>343.5</ele><time>2026-03-24T16:08:07.999Z</time></trkpt><trkpt lat="42.11624259749292" lon="11.973275953774076"><ele>345.25</ele><time>2026-03-24T16:08:08.999Z</time></trkpt><trkpt lat="42.11618634348304" lon="11.973430086022397"><ele>347.0</ele><time>2026-03-24T16:08:09.999Z</time></trkpt><trkpt lat="42.116131589509465" lon="11.973578487723316"><ele>347.0</ele><time>2026-03-24T16:08:10.998Z</time></trkpt><trkpt lat="42.11606802953511" lon="11.973717406989758"><ele>347.0</ele><time>2026-03-24T16:08:11.998Z</time></trkpt><trkpt lat="42.11599532444308" lon="11.97385612735786"><ele>347.0</ele><time>2026-03-24T16:08:12.998Z</time></trkpt><trkpt lat="42.11590959859091" lon="11.973990756876251"><ele>347.0</ele><time>2026-03-24T16:08:13.998Z</time></trkpt><trkpt lat="42.115814535295044" lon="11.97412269982618"><ele>347.5</ele><time>2026-03-24T16:08:14.998Z</time></trkpt><trkpt lat="42.11571331685361" lon="11.974253391756111"><ele>348.0</ele><time>2026-03-24T16:08:15.998Z</time></trkpt><trkpt lat="42.11561240738546" lon="11.974390010082942"><ele>348.5</ele><time>2026-03-24T16:08:16.998Z</time></trkpt><trkpt lat="42.11551053929392" lon="11.974527746242462"><ele>349.0</ele><time>2026-03-24T16:08:17.998Z</time></trkpt><trkpt lat="42.115407757577145" lon="11.974665625437632"><ele>349.0</ele><time>2026-03-24T16:08:18.998Z</time></trkpt><trkpt lat="42.11530419238571" lon="11.974805188356546"><ele>349.0</ele><time>2026-03-24T16:08:19.998Z</time></trkpt><trkpt lat="42.11519889733208" lon="11.97494385823497"><ele>349.0</ele><time>2026-03-24T16:08:20.998Z</time></trkpt><trkpt lat="42.1150944038197" lon="11.975081966260536"><ele>349.0</ele><time>2026-03-24T16:08:21.998Z</time></trkpt><trkpt lat="42.11499144069963" lon="11.975218168245176"><ele>348.75</ele><time>2026-03-24T16:08:22.998Z</time></trkpt><trkpt lat="42.1148923116618" lon="11.975350851765121"><ele>348.5</ele><time>2026-03-24T16:08:23.998Z</time></trkpt><trkpt lat="42.114795566304934" lon="11.975477056733103"><ele>348.25</ele><time>2026-03-24T16:08:24.998Z</time></trkpt><trkpt lat="42.11469549883198" lon="11.975589463717414"><ele>348.0</ele><time>2026-03-24T16:08:25.998Z</time></trkpt><trkpt lat="42.114589575404764" lon="11.975676717932222"><ele>348.0</ele><time>2026-03-24T16:08:26.998Z</time></trkpt><trkpt lat="42.114475461503176" lon="11.975737913254779"><ele>348.0</ele><time>2026-03-24T16:08:27.998Z</time></trkpt><trkpt lat="42.11435637049335" lon="11.975778030254984"><ele>348.0</ele><time>2026-03-24T16:08:28.998Z</time></trkpt><trkpt lat="42.11423194637819" lon="11.975821249216638"><ele>348.0</ele><time>2026-03-24T16:08:29.998Z</time></trkpt><trkpt lat="42.11410283453719" lon="11.975861203751474"><ele>346.5</ele><time>2026-03-24T16:08:30.998Z</time></trkpt><trkpt lat="42.11397100948501" lon="11.975902086409949"><ele>345.0</ele><time>2026-03-24T16:08:31.998Z</time></trkpt><trkpt lat="42.113838517623435" lon="11.975941809406192"><ele>343.5</ele><time>2026-03-24T16:08:32.998Z</time></trkpt><trkpt lat="42.113709739537335" lon="11.97598435425101"><ele>342.0</ele><time>2026-03-24T16:08:33.998Z</time></trkpt><trkpt lat="42.11358591024931" lon="11.97603069773882"><ele>342.0</ele><time>2026-03-24T16:08:34.998Z</time></trkpt><trkpt lat="42.113475304382604" lon="11.976080557999975"><ele>342.0</ele><time>2026-03-24T16:08:35.998Z</time></trkpt><trkpt lat="42.11338190142128" lon="11.976147926562872"><ele>342.0</ele><time>2026-03-24T16:08:36.998Z</time></trkpt><trkpt lat="42.11329849186509" lon="11.976233355951234"><ele>342.0</ele><time>2026-03-24T16:08:37.998Z</time></trkpt><trkpt lat="42.11323501282692" lon="11.976350613736134"><ele>342.0</ele><time>2026-03-24T16:08:38.998Z</time></trkpt><trkpt lat="42.11318276011386" lon="11.976487309832327"><ele>343.75</ele><time>2026-03-24T16:08:39.998Z</time></trkpt><trkpt lat="42.113140634838686" lon="11.976637085164645"><ele>345.5</ele><time>2026-03-24T16:08:40.998Z</time></trkpt><trkpt lat="42.11310477507467" lon="11.976794516742999"><ele>347.25</ele><time>2026-03-24T16:08:41.998Z</time></trkpt><trkpt lat="42.11306861787765" lon="11.976951760020007"><ele>349.0</ele><time>2026-03-24T16:08:42.998Z</time></trkpt><trkpt lat="42.113025632984254" lon="11.977105324117343"><ele>349.0</ele><time>2026-03-24T16:08:44Z</time></trkpt><trkpt lat="42.112974345223655" lon="11.977257854325371"><ele>349.0</ele><time>2026-03-24T16:08:45Z</time></trkpt><trkpt lat="42.11290936573028" lon="11.977404646869466"><ele>349.0</ele><time>2026-03-24T16:08:46Z</time></trkpt><trkpt lat="42.11283462086603" lon="11.977549318358022"><ele>349.0</ele><time>2026-03-24T16:08:47Z</time></trkpt><trkpt lat="42.11275686539916" lon="11.977686408952701"><ele>349.2</ele><time>2026-03-24T16:08:48Z</time></trkpt><trkpt lat="42.112677267222374" lon="11.977816248545205"><ele>349.4</ele><time>2026-03-24T16:08:49Z</time></trkpt><trkpt lat="42.11260550518588" lon="11.977941026241382"><ele>349.6</ele><time>2026-03-24T16:08:50Z</time></trkpt><trkpt lat="42.11255366199647" lon="11.978062941583358"><ele>349.8</ele><time>2026-03-24T16:08:51Z</time></trkpt><trkpt lat="42.112523868522736" lon="11.97818862581895"><ele>350.0</ele><time>2026-03-24T16:08:52Z</time></trkpt><trkpt lat="42.11252070314857" lon="11.978316678151142"><ele>351.4</ele><time>2026-03-24T16:08:53Z</time></trkpt><trkpt lat="42.1125493323177" lon="11.978444094604619"><ele>352.8</ele><time>2026-03-24T16:08:54Z</time></trkpt><trkpt lat="42.11260397066052" lon="11.97856321640896"><ele>354.20000000000005</ele><time>2026-03-24T16:08:55Z</time></trkpt><trkpt lat="42.11267109475668" lon="11.978671163745206"><ele>355.6</ele><time>2026-03-24T16:08:56Z</time></trkpt><trkpt lat="42.112741812273654" lon="11.978780915410212"><ele>357.0</ele><time>2026-03-24T16:08:57Z</time></trkpt><trkpt lat="42.11280788157471" lon="11.978899303969808"><ele>357.0</ele><time>2026-03-24T16:08:58Z</time></trkpt><trkpt lat="42.112864945430815" lon="11.979019530080775"><ele>357.0</ele><time>2026-03-24T16:08:59Z</time></trkpt><trkpt lat="42.112907792941805" lon="11.97913876685951"><ele>357.0</ele><time>2026-03-24T16:09:00Z</time></trkpt><trkpt lat="42.112937750457704" lon="11.979271577425488"><ele>357.0</ele><time>2026-03-24T16:09:01Z</time></trkpt><trkpt lat="42.11295032691569" lon="11.979414765326153"><ele>357.0</ele><time>2026-03-24T16:09:02Z</time></trkpt><trkpt lat="42.1129571980521" lon="11.979566648258267"><ele>357.75</ele><time>2026-03-24T16:09:03Z</time></trkpt><trkpt lat="42.11295668868177" lon="11.97972540087711"><ele>358.5</ele><time>2026-03-24T16:09:04Z</time></trkpt><trkpt lat="42.112940989947525" lon="11.979883530697565"><ele>359.25</ele><time>2026-03-24T16:09:05Z</time></trkpt><trkpt lat="42.112910698629626" lon="11.980043583282715"><ele>360.0</ele><time>2026-03-24T16:09:06Z</time></trkpt><trkpt lat="42.11286703637253" lon="11.980198595355208"><ele>358.5</ele><time>2026-03-24T16:09:07Z</time></trkpt><trkpt lat="42.11281676619306" lon="11.980338681178704"><ele>357.0</ele><time>2026-03-24T16:09:08Z</time></trkpt><trkpt lat="42.11276012723886" lon="11.980477530052479"><ele>355.5</ele><time>2026-03-24T16:09:08.999Z</time></trkpt><trkpt lat="42.1126949381989" lon="11.980617531108683"><ele>354.0</ele><time>2026-03-24T16:09:09.999Z</time></trkpt><trkpt lat="42.11262354400668" lon="11.980745768004253"><ele>354.0</ele><time>2026-03-24T16:09:10.999Z</time></trkpt><trkpt lat="42.112530993139664" lon="11.980844149867318"><ele>354.0</ele><time>2026-03-24T16:09:11.999Z</time></trkpt><trkpt lat="42.112445410403474" lon="11.980940721651185"><ele>354.0</ele><time>2026-03-24T16:09:12.999Z</time></trkpt><trkpt lat="42.112358393801834" lon="11.981021488816534"><ele>354.0</ele><time>2026-03-24T16:09:13.999Z</time></trkpt><trkpt lat="42.112262791264826" lon="11.981083306507772"><ele>354.0</ele><time>2026-03-24T16:09:14.999Z</time></trkpt><trkpt lat="42.11216425035167" lon="11.981112377218967"><ele>354.0</ele><time>2026-03-24T16:09:15.999Z</time></trkpt><trkpt lat="42.11206727673638" lon="11.981109646636718"><ele>354.0</ele><time>2026-03-24T16:09:16.999Z</time></trkpt><trkpt lat="42.11196314650311" lon="11.981095146099186"><ele>354.0</ele><time>2026-03-24T16:09:17.999Z</time></trkpt><trkpt lat="42.11186122265615" lon="11.981025954550638"><ele>354.0</ele><time>2026-03-24T16:09:18.999Z</time></trkpt><trkpt lat="42.1117617482862" lon="11.980931141145577"><ele>354.0</ele><time>2026-03-24T16:09:19.999Z</time></trkpt><trkpt lat="42.111660213611565" lon="11.980823870784317"><ele>353.25</ele><time>2026-03-24T16:09:20.999Z</time></trkpt><trkpt lat="42.1115515324198" lon="11.980706004269024"><ele>352.5</ele><time>2026-03-24T16:09:21.999Z</time></trkpt><trkpt lat="42.111438540112964" lon="11.980591038006608"><ele>351.75</ele><time>2026-03-24T16:09:22.999Z</time></trkpt><trkpt lat="42.1113208664967" lon="11.980492327297588"><ele>351.0</ele><time>2026-03-24T16:09:23.999Z</time></trkpt><trkpt lat="42.11120290532277" lon="11.980406272117065"><ele>351.0</ele><time>2026-03-24T16:09:24.999Z</time></trkpt><trkpt lat="42.11109149253711" lon="11.980327099819759"><ele>351.0</ele><time>2026-03-24T16:09:25.999Z</time></trkpt><trkpt lat="42.11098289962767" lon="11.980280629251233"><ele>351.0</ele><time>2026-03-24T16:09:26.999Z</time></trkpt><trkpt lat="42.11087365669047" lon="11.980275326122623"><ele>351.0</ele><time>2026-03-24T16:09:27.999Z</time></trkpt><trkpt lat="42.11076775136208" lon="11.98029761215029"><ele>352.6</ele><time>2026-03-24T16:09:28.999Z</time></trkpt><trkpt lat="42.110668799153885" lon="11.980363658455465"><ele>354.20000000000005</ele><time>2026-03-24T16:09:29.999Z</time></trkpt><trkpt lat="42.11057299887025" lon="11.980438966811786"><ele>355.79999999999995</ele><time>2026-03-24T16:09:30.999Z</time></trkpt><trkpt lat="42.11047596030684" lon="11.98051388757701"><ele>357.4</ele><time>2026-03-24T16:09:31.999Z</time></trkpt><trkpt lat="42.11037562289867" lon="11.98058947751349"><ele>359.0</ele><time>2026-03-24T16:09:32.999Z</time></trkpt><trkpt lat="42.11027367767542" lon="11.980665016139643"><ele>359.0</ele><time>2026-03-24T16:09:33.999Z</time></trkpt><trkpt lat="42.11017119869003" lon="11.980730503724944"><ele>359.0</ele><time>2026-03-24T16:09:34.999Z</time></trkpt><trkpt lat="42.11006508868495" lon="11.980782465829412"><ele>359.0</ele><time>2026-03-24T16:09:35.999Z</time></trkpt><trkpt lat="42.10995316381546" lon="11.980814078893442"><ele>359.0</ele><time>2026-03-24T16:09:36.999Z</time></trkpt><trkpt lat="42.10983473062347" lon="11.980824628074659"><ele>359.5</ele><time>2026-03-24T16:09:37.999Z</time></trkpt><trkpt lat="42.10971140999035" lon="11.980820605205947"><ele>360.0</ele><time>2026-03-24T16:09:38.999Z</time></trkpt><trkpt lat="42.10958305764751" lon="11.980810313075377"><ele>360.5</ele><time>2026-03-24T16:09:39.999Z</time></trkpt><trkpt lat="42.109451380153345" lon="11.980801151128333"><ele>361.0</ele><time>2026-03-24T16:09:40.999Z</time></trkpt><trkpt lat="42.10931705445618" lon="11.98078843783603"><ele>361.0</ele><time>2026-03-24T16:09:41.999Z</time></trkpt><trkpt lat="42.10918134908245" lon="11.980775431799342"><ele>361.0</ele><time>2026-03-24T16:09:42.999Z</time></trkpt><trkpt lat="42.1090456432807" lon="11.980772180472131"><ele>361.0</ele><time>2026-03-24T16:09:43.999Z</time></trkpt><trkpt lat="42.10891056027501" lon="11.980782440010806"><ele>361.0</ele><time>2026-03-24T16:09:44.999Z</time></trkpt><trkpt lat="42.108775908609225" lon="11.980815472446213"><ele>360.25</ele><time>2026-03-24T16:09:45.999Z</time></trkpt><trkpt lat="42.108639736762925" lon="11.980863266232841"><ele>359.5</ele><time>2026-03-24T16:09:46.999Z</time></trkpt><trkpt lat="42.10850361285749" lon="11.980924642225329"><ele>358.75</ele><time>2026-03-24T16:09:47.999Z</time></trkpt><trkpt lat="42.10836973634789" lon="11.980997886939656"><ele>358.0</ele><time>2026-03-24T16:09:48.999Z</time></trkpt><trkpt lat="42.108236448853944" lon="11.981067489826408"><ele>359.75</ele><time>2026-03-24T16:09:49.999Z</time></trkpt><trkpt lat="42.10810159961746" lon="11.981135477988584"><ele>361.5</ele><time>2026-03-24T16:09:50.999Z</time></trkpt><trkpt lat="42.10796634297238" lon="11.981203703683008"><ele>363.25</ele><time>2026-03-24T16:09:51.999Z</time></trkpt><trkpt lat="42.10783178247348" lon="11.981272123248258"><ele>365.0</ele><time>2026-03-24T16:09:52.999Z</time></trkpt><trkpt lat="42.107703594100535" lon="11.981339167047885"><ele>365.0</ele><time>2026-03-24T16:09:53.999Z</time></trkpt><trkpt lat="42.107587799376844" lon="11.981399182984214"><ele>365.0</ele><time>2026-03-24T16:09:54.999Z</time></trkpt><trkpt lat="42.10747420512929" lon="11.981444207965707"><ele>365.0</ele><time>2026-03-24T16:09:55.999Z</time></trkpt><trkpt lat="42.10736040206083" lon="11.981468874606058"><ele>365.0</ele><time>2026-03-24T16:09:56.999Z</time></trkpt><trkpt lat="42.1072442543342" lon="11.981468161402566"><ele>363.75</ele><time>2026-03-24T16:09:57.999Z</time></trkpt><trkpt lat="42.10713123417584" lon="11.981441206009272"><ele>362.5</ele><time>2026-03-24T16:09:58.999Z</time></trkpt><trkpt lat="42.10702380790249" lon="11.98139171616206"><ele>361.25</ele><time>2026-03-24T16:09:59.999Z</time></trkpt><trkpt lat="42.10692519541884" lon="11.981317806944983"><ele>360.0</ele><time>2026-03-24T16:10:00.999Z</time></trkpt><trkpt lat="42.106837255519025" lon="11.981216392379638"><ele>360.0</ele><time>2026-03-24T16:10:01.999Z</time></trkpt><trkpt lat="42.10675656329373" lon="11.981088098171329"><ele>360.0</ele><time>2026-03-24T16:10:02.999Z</time></trkpt><trkpt lat="42.10667550311042" lon="11.980941286604809"><ele>360.0</ele><time>2026-03-24T16:10:03.999Z</time></trkpt><trkpt lat="42.10658818067659" lon="11.980780893572996"><ele>360.0</ele><time>2026-03-24T16:10:04.999Z</time></trkpt><trkpt lat="42.10649392515501" lon="11.980614026884021"><ele>356.0</ele><time>2026-03-24T16:10:05.999Z</time></trkpt><trkpt lat="42.10639534962217" lon="11.980439678622874"><ele>352.0</ele><time>2026-03-24T16:10:06.999Z</time></trkpt><trkpt lat="42.10629425702181" lon="11.980258206521272"><ele>348.0</ele><time>2026-03-24T16:10:07.999Z</time></trkpt><trkpt lat="42.10619041913674" lon="11.980072108010681"><ele>350.3333333333333</ele><time>2026-03-24T16:10:08.999Z</time></trkpt><trkpt lat="42.106084465714815" lon="11.979882768173184"><ele>352.66666666666663</ele><time>2026-03-24T16:10:09.999Z</time></trkpt><trkpt lat="42.105976268568675" lon="11.979693808960945"><ele>355.0</ele><time>2026-03-24T16:10:10.999Z</time></trkpt><trkpt lat="42.105867930664985" lon="11.979508955861094"><ele>355.0</ele><time>2026-03-24T16:10:11.999Z</time></trkpt><trkpt lat="42.105758576304034" lon="11.979328180562876"><ele>355.0</ele><time>2026-03-24T16:10:12.999Z</time></trkpt><trkpt lat="42.1056458581481" lon="11.979146209349961"><ele>355.0</ele><time>2026-03-24T16:10:13.999Z</time></trkpt><trkpt lat="42.10553080819161" lon="11.978964650251886"><ele>354.66666666666663</ele><time>2026-03-24T16:10:14.999Z</time></trkpt><trkpt lat="42.10541448739957" lon="11.978783508278743"><ele>354.3333333333333</ele><time>2026-03-24T16:10:15.999Z</time></trkpt><trkpt lat="42.10530240080813" lon="11.978600698805122"><ele>354.0</ele><time>2026-03-24T16:10:16.999Z</time></trkpt><trkpt lat="42.10519119635794" lon="11.978419789603011"><ele>353.3333333333333</ele><time>2026-03-24T16:10:17.999Z</time></trkpt><trkpt lat="42.1050793794487" lon="11.978242950761505"><ele>352.66666666666663</ele><time>2026-03-24T16:10:18.999Z</time></trkpt><trkpt lat="42.10497163232296" lon="11.978075144693"><ele>352.0</ele><time>2026-03-24T16:10:19.999Z</time></trkpt><trkpt lat="42.10486864128651" lon="11.977918973414102"><ele>351.0</ele><time>2026-03-24T16:10:20.999Z</time></trkpt><trkpt lat="42.104770803103584" lon="11.977771864768332"><ele>350.0</ele><time>2026-03-24T16:10:21.999Z</time></trkpt><trkpt lat="42.104679803650974" lon="11.977631636535857"><ele>349.0</ele><time>2026-03-24T16:10:22.999Z</time></trkpt><trkpt lat="42.104594382427436" lon="11.977486021557997"><ele>348.0</ele><time>2026-03-24T16:10:23.999Z</time></trkpt><trkpt lat="42.1045146420309" lon="11.97733384986042"><ele>348.0</ele><time>2026-03-24T16:10:24.999Z</time></trkpt><trkpt lat="42.10443913149497" lon="11.977168715833852"><ele>348.0</ele><time>2026-03-24T16:10:25.999Z</time></trkpt><trkpt lat="42.10436432243673" lon="11.976992724870643"><ele>348.0</ele><time>2026-03-24T16:10:26.999Z</time></trkpt><trkpt lat="42.10428934122502" lon="11.976812795485184"><ele>348.0</ele><time>2026-03-24T16:10:27.999Z</time></trkpt><trkpt lat="42.104215151638044" lon="11.976627931569736"><ele>347.6666666666667</ele><time>2026-03-24T16:10:28.999Z</time></trkpt><trkpt lat="42.10414010907579" lon="11.976444750697098"><ele>347.33333333333337</ele><time>2026-03-24T16:10:29.999Z</time></trkpt><trkpt lat="42.10406054437018" lon="11.976260293078294"><ele>347.0</ele><time>2026-03-24T16:10:30.999Z</time></trkpt><trkpt lat="42.10397525097727" lon="11.976075979381047"><ele>343.0</ele><time>2026-03-24T16:10:31.999Z</time></trkpt><trkpt lat="42.10388879054922" lon="11.975889474830057"><ele>339.0</ele><time>2026-03-24T16:10:32.999Z</time></trkpt><trkpt lat="42.1038012802269" lon="11.975699842655803"><ele>335.0</ele><time>2026-03-24T16:10:33.999Z</time></trkpt><trkpt lat="42.103711128191904" lon="11.97550790431322"><ele>335.0</ele><time>2026-03-24T16:10:34.999Z</time></trkpt><trkpt lat="42.1036190458187" lon="11.975317176298152"><ele>335.0</ele><time>2026-03-24T16:10:35.999Z</time></trkpt><trkpt lat="42.10352804624515" lon="11.975126547632675"><ele>335.0</ele><time>2026-03-24T16:10:36.999Z</time></trkpt><trkpt lat="42.10343850868175" lon="11.974935995948098"><ele>335.6666666666667</ele><time>2026-03-24T16:10:37.999Z</time></trkpt><trkpt lat="42.10334851907158" lon="11.974745889163383"><ele>336.3333333333333</ele><time>2026-03-24T16:10:38.999Z</time></trkpt><trkpt lat="42.10326352088791" lon="11.974569880501209"><ele>337.0</ele><time>2026-03-24T16:10:39.999Z</time></trkpt><trkpt lat="42.103184679137684" lon="11.97441127689845"><ele>335.0</ele><time>2026-03-24T16:10:40.999Z</time></trkpt><trkpt lat="42.10311006254716" lon="11.974270021570034"><ele>333.0</ele><time>2026-03-24T16:10:41.999Z</time></trkpt><trkpt lat="42.10302373449243" lon="11.97414072384449"><ele>331.0</ele><time>2026-03-24T16:10:42.999Z</time></trkpt><trkpt lat="42.10292257288961" lon="11.974033775613252"><ele>329.0</ele><time>2026-03-24T16:10:43.999Z</time></trkpt><trkpt lat="42.10280653974014" lon="11.97394927077004"><ele>329.0</ele><time>2026-03-24T16:10:44.999Z</time></trkpt><trkpt lat="42.10267959895603" lon="11.97388219691021"><ele>329.0</ele><time>2026-03-24T16:10:45.999Z</time></trkpt><trkpt lat="42.10255043350757" lon="11.973812434849007"><ele>329.0</ele><time>2026-03-24T16:10:46.998Z</time></trkpt><trkpt lat="42.102417630720936" lon="11.973738825667853"><ele>329.0</ele><time>2026-03-24T16:10:47.998Z</time></trkpt><trkpt lat="42.10228097350973" lon="11.973663295184231"><ele>327.0</ele><time>2026-03-24T16:10:48.998Z</time></trkpt><trkpt lat="42.10214206905557" lon="11.973584909096491"><ele>325.0</ele><time>2026-03-24T16:10:50Z</time></trkpt><trkpt lat="42.10200215216102" lon="11.973506291645306"><ele>323.0</ele><time>2026-03-24T16:10:51Z</time></trkpt><trkpt lat="42.10186241683968" lon="11.973426737300697"><ele>323.0</ele><time>2026-03-24T16:10:52Z</time></trkpt><trkpt lat="42.10172237142035" lon="11.973350687662059"><ele>323.0</ele><time>2026-03-24T16:10:53Z</time></trkpt><trkpt lat="42.10158193361413" lon="11.973272856398555"><ele>323.0</ele><time>2026-03-24T16:10:54Z</time></trkpt><trkpt lat="42.101441320324085" lon="11.97319397912339"><ele>323.0</ele><time>2026-03-24T16:10:55Z</time></trkpt><trkpt lat="42.10129935378754" lon="11.97312222222259"><ele>323.0</ele><time>2026-03-24T16:10:56Z</time></trkpt><trkpt lat="42.10115551018731" lon="11.9730559103666"><ele>323.0</ele><time>2026-03-24T16:10:57Z</time></trkpt><trkpt lat="42.1010093104105" lon="11.973007078173225"><ele>323.0</ele><time>2026-03-24T16:10:58Z</time></trkpt><trkpt lat="42.10085856628442" lon="11.972975833279866"><ele>323.0</ele><time>2026-03-24T16:10:59Z</time></trkpt><trkpt lat="42.10070495352573" lon="11.972960093614642"><ele>323.0</ele><time>2026-03-24T16:11:00Z</time></trkpt><trkpt lat="42.1005477159766" lon="11.972967550957065"><ele>321.6666666666667</ele><time>2026-03-24T16:11:01Z</time></trkpt><trkpt lat="42.100388456874356" lon="11.972997518374788"><ele>320.3333333333333</ele><time>2026-03-24T16:11:02Z</time></trkpt><trkpt lat="42.10022957050228" lon="11.973038248790242"><ele>319.0</ele><time>2026-03-24T16:11:03Z</time></trkpt><trkpt lat="42.10006844670566" lon="11.973081624039263"><ele>317.66666666666663</ele><time>2026-03-24T16:11:04Z</time></trkpt><trkpt lat="42.09991006539805" lon="11.973125574225463"><ele>316.3333333333333</ele><time>2026-03-24T16:11:05Z</time></trkpt><trkpt lat="42.099750306047085" lon="11.97316269254457"><ele>315.0</ele><time>2026-03-24T16:11:06Z</time></trkpt><trkpt lat="42.099590228431374" lon="11.973203982206236"><ele>315.0</ele><time>2026-03-24T16:11:07Z</time></trkpt><trkpt lat="42.09942989097264" lon="11.973249411979968"><ele>315.0</ele><time>2026-03-24T16:11:08Z</time></trkpt><trkpt lat="42.099270507174296" lon="11.973288658391573"><ele>315.0</ele><time>2026-03-24T16:11:09Z</time></trkpt><trkpt lat="42.09911323580241" lon="11.973330522847887"><ele>313.0</ele><time>2026-03-24T16:11:10Z</time></trkpt><trkpt lat="42.098954269060386" lon="11.97337389775888"><ele>311.0</ele><time>2026-03-24T16:11:11Z</time></trkpt><trkpt lat="42.09879407681572" lon="11.973417730385167"><ele>309.0</ele><time>2026-03-24T16:11:12Z</time></trkpt><trkpt lat="42.0986343779184" lon="11.973457409268068"><ele>309.0</ele><time>2026-03-24T16:11:13Z</time></trkpt><trkpt lat="42.09847664907418" lon="11.97349916255999"><ele>309.0</ele><time>2026-03-24T16:11:14Z</time></trkpt><trkpt lat="42.09832042775402" lon="11.973540776122775"><ele>309.0</ele><time>2026-03-24T16:11:15Z</time></trkpt><trkpt lat="42.098165158292204" lon="11.973581292170941"><ele>310.3333333333333</ele><time>2026-03-24T16:11:16Z</time></trkpt><trkpt lat="42.0980113689495" lon="11.97362076463059"><ele>311.66666666666663</ele><time>2026-03-24T16:11:17Z</time></trkpt><trkpt lat="42.09785868571262" lon="11.973661932391794"><ele>313.0</ele><time>2026-03-24T16:11:18Z</time></trkpt><trkpt lat="42.09770656294428" lon="11.973702285223819"><ele>313.0</ele><time>2026-03-24T16:11:19Z</time></trkpt><trkpt lat="42.0975569072247" lon="11.973743041035197"><ele>313.0</ele><time>2026-03-24T16:11:20Z</time></trkpt><trkpt lat="42.097405214896995" lon="11.973782390577446"><ele>313.0</ele><time>2026-03-24T16:11:21Z</time></trkpt><trkpt lat="42.097246744272056" lon="11.973824127213408"><ele>313.0</ele><time>2026-03-24T16:11:22Z</time></trkpt><trkpt lat="42.097091897200386" lon="11.973860429119142"><ele>313.0</ele><time>2026-03-24T16:11:23Z</time></trkpt><trkpt lat="42.096937580619965" lon="11.973903619589915"><ele>313.0</ele><time>2026-03-24T16:11:24Z</time></trkpt><trkpt lat="42.09678867106299" lon="11.973944012100343"><ele>313.0</ele><time>2026-03-24T16:11:25Z</time></trkpt><trkpt lat="42.096642098402285" lon="11.973982912333666"><ele>313.0</ele><time>2026-03-24T16:11:26Z</time></trkpt><trkpt lat="42.0965039665" lon="11.974015548514055"><ele>313.0</ele><time>2026-03-24T16:11:27Z</time></trkpt><trkpt lat="42.09637435185645" lon="11.974043383016765"><ele>313.0</ele><time>2026-03-24T16:11:28Z</time></trkpt><trkpt lat="42.096245240918414" lon="11.97405510986342"><ele>311.75</ele><time>2026-03-24T16:11:29Z</time></trkpt><trkpt lat="42.09611634582805" lon="11.974041036415205"><ele>310.5</ele><time>2026-03-24T16:11:29.999Z</time></trkpt><trkpt lat="42.09598838084053" lon="11.974001316167643"><ele>309.25</ele><time>2026-03-24T16:11:30.999Z</time></trkpt><trkpt lat="42.095858190453875" lon="11.973953664909514"><ele>308.0</ele><time>2026-03-24T16:11:31.999Z</time></trkpt><trkpt lat="42.09572283237733" lon="11.973910643306303"><ele>306.75</ele><time>2026-03-24T16:11:32.999Z</time></trkpt><trkpt lat="42.095579667642426" lon="11.973876148679643"><ele>305.5</ele><time>2026-03-24T16:11:33.999Z</time></trkpt><trkpt lat="42.09543295286208" lon="11.973857150332428"><ele>304.25</ele><time>2026-03-24T16:11:34.999Z</time></trkpt><trkpt lat="42.09528899475385" lon="11.973854600524108"><ele>303.0</ele><time>2026-03-24T16:11:35.999Z</time></trkpt><trkpt lat="42.09514475160828" lon="11.973880449493471"><ele>303.0</ele><time>2026-03-24T16:11:36.999Z</time></trkpt><trkpt lat="42.09500231931885" lon="11.973926718195377"><ele>303.0</ele><time>2026-03-24T16:11:37.999Z</time></trkpt><trkpt lat="42.094865956737806" lon="11.973995454346642"><ele>303.0</ele><time>2026-03-24T16:11:38.999Z</time></trkpt><trkpt lat="42.094729747986854" lon="11.974068313470488"><ele>303.0</ele><time>2026-03-24T16:11:39.999Z</time></trkpt><trkpt lat="42.094590764773635" lon="11.97413887474068"><ele>300.25</ele><time>2026-03-24T16:11:40.999Z</time></trkpt><trkpt lat="42.09446028312672" lon="11.974201796333249"><ele>297.5</ele><time>2026-03-24T16:11:41.999Z</time></trkpt><trkpt lat="42.094331995947144" lon="11.97424927956306"><ele>294.75</ele><time>2026-03-24T16:11:42.999Z</time></trkpt><trkpt lat="42.09420469215307" lon="11.974276589583763"><ele>292.0</ele><time>2026-03-24T16:11:43.999Z</time></trkpt><trkpt lat="42.09408154077296" lon="11.974285183832558"><ele>292.0</ele><time>2026-03-24T16:11:44.999Z</time></trkpt><trkpt lat="42.09396095894957" lon="11.974270680638721"><ele>292.0</ele><time>2026-03-24T16:11:45.999Z</time></trkpt><trkpt lat="42.09384323234456" lon="11.974236044037138"><ele>292.0</ele><time>2026-03-24T16:11:46.999Z</time></trkpt><trkpt lat="42.09373310989977" lon="11.974176289640159"><ele>292.0</ele><time>2026-03-24T16:11:47.999Z</time></trkpt><trkpt lat="42.093624662167784" lon="11.974097817903159"><ele>292.75</ele><time>2026-03-24T16:11:48.999Z</time></trkpt><trkpt lat="42.09351696617549" lon="11.97401386548704"><ele>293.5</ele><time>2026-03-24T16:11:49.999Z</time></trkpt><trkpt lat="42.09339866821334" lon="11.973925542820666"><ele>294.25</ele><time>2026-03-24T16:11:50.999Z</time></trkpt><trkpt lat="42.09328233818641" lon="11.973832463239582"><ele>295.0</ele><time>2026-03-24T16:11:51.999Z</time></trkpt><trkpt lat="42.09317014661629" lon="11.97374215378464"><ele>295.5</ele><time>2026-03-24T16:11:52.999Z</time></trkpt><trkpt lat="42.09305235192394" lon="11.973634824045762"><ele>296.0</ele><time>2026-03-24T16:11:53.999Z</time></trkpt><trkpt lat="42.09293918875889" lon="11.973516477996322"><ele>296.5</ele><time>2026-03-24T16:11:54.999Z</time></trkpt><trkpt lat="42.09282385137015" lon="11.973400989929125"><ele>297.0</ele><time>2026-03-24T16:11:55.999Z</time></trkpt><trkpt lat="42.09270302973308" lon="11.973276832420249"><ele>295.0</ele><time>2026-03-24T16:11:56.999Z</time></trkpt><trkpt lat="42.092589323445765" lon="11.97314483700948"><ele>293.0</ele><time>2026-03-24T16:11:57.999Z</time></trkpt><trkpt lat="42.09247509214334" lon="11.973003764033598"><ele>291.0</ele><time>2026-03-24T16:11:58.999Z</time></trkpt><trkpt lat="42.09235630065528" lon="11.972865604248446"><ele>289.0</ele><time>2026-03-24T16:11:59.999Z</time></trkpt><trkpt lat="42.092238122843675" lon="11.97272646869267"><ele>287.0</ele><time>2026-03-24T16:12:00.999Z</time></trkpt><trkpt lat="42.09212102986675" lon="11.9725804491098"><ele>285.0</ele><time>2026-03-24T16:12:01.999Z</time></trkpt><trkpt lat="42.09200426772429" lon="11.972431148902738"><ele>284.3333333333333</ele><time>2026-03-24T16:12:02.999Z</time></trkpt><trkpt lat="42.09188412186043" lon="11.972286793824344"><ele>283.66666666666663</ele><time>2026-03-24T16:12:03.999Z</time></trkpt><trkpt lat="42.09176519145713" lon="11.972138112339525"><ele>283.0</ele><time>2026-03-24T16:12:04.999Z</time></trkpt><trkpt lat="42.091649162362806" lon="11.971998495291817"><ele>280.75</ele><time>2026-03-24T16:12:05.999Z</time></trkpt><trkpt lat="42.09153421501269" lon="11.971863406138985"><ele>278.5</ele><time>2026-03-24T16:12:06.999Z</time></trkpt><trkpt lat="42.09142851502909" lon="11.97174026341644"><ele>276.25</ele><time>2026-03-24T16:12:07.999Z</time></trkpt><trkpt lat="42.091331230514065" lon="11.971620723671538"><ele>274.0</ele><time>2026-03-24T16:12:08.999Z</time></trkpt><trkpt lat="42.091247600731236" lon="11.971495243983997"><ele>274.0</ele><time>2026-03-24T16:12:09.999Z</time></trkpt><trkpt lat="42.09117714208358" lon="11.971357919118477"><ele>274.0</ele><time>2026-03-24T16:12:10.999Z</time></trkpt><trkpt lat="42.0911247159163" lon="11.971207574468513"><ele>274.0</ele><time>2026-03-24T16:12:11.999Z</time></trkpt><trkpt lat="42.091077845020955" lon="11.971065841495424"><ele>274.0</ele><time>2026-03-24T16:12:12.999Z</time></trkpt><trkpt lat="42.09102568480391" lon="11.970937085225891"><ele>273.2</ele><time>2026-03-24T16:12:13.999Z</time></trkpt><trkpt lat="42.090959558583634" lon="11.970827133334284"><ele>272.4</ele><time>2026-03-24T16:12:14.999Z</time></trkpt><trkpt lat="42.09087214804395" lon="11.970740991203597"><ele>271.6</ele><time>2026-03-24T16:12:15.999Z</time></trkpt><trkpt lat="42.090771793733744" lon="11.970679738229535"><ele>270.8</ele><time>2026-03-24T16:12:16.999Z</time></trkpt><trkpt lat="42.09066175421249" lon="11.970635196425944"><ele>270.0</ele><time>2026-03-24T16:12:17.999Z</time></trkpt><trkpt lat="42.09054572097697" lon="11.97059332064852"><ele>270.0</ele><time>2026-03-24T16:12:18.999Z</time></trkpt><trkpt lat="42.09042790277464" lon="11.970563801129716"><ele>270.0</ele><time>2026-03-24T16:12:19.999Z</time></trkpt><trkpt lat="42.09031971325347" lon="11.970552287166752"><ele>270.0</ele><time>2026-03-24T16:12:20.999Z</time></trkpt><trkpt lat="42.09021967010661" lon="11.970566385962686"><ele>270.0</ele><time>2026-03-24T16:12:21.999Z</time></trkpt><trkpt lat="42.09012506587668" lon="11.970619838334919"><ele>270.0</ele><time>2026-03-24T16:12:22.999Z</time></trkpt><trkpt lat="42.090035337920554" lon="11.970705120394841"><ele>270.0</ele><time>2026-03-24T16:12:23.999Z</time></trkpt><trkpt lat="42.08994453044892" lon="11.970796268962646"><ele>270.0</ele><time>2026-03-24T16:12:24.999Z</time></trkpt><trkpt lat="42.089841933680404" lon="11.970893631278537"><ele>270.0</ele><time>2026-03-24T16:12:25.999Z</time></trkpt><trkpt lat="42.089734179079386" lon="11.970997728426633"><ele>270.0</ele><time>2026-03-24T16:12:26.999Z</time></trkpt><trkpt lat="42.08962831895033" lon="11.971103306409075"><ele>268.0</ele><time>2026-03-24T16:12:27.999Z</time></trkpt><trkpt lat="42.089526808198876" lon="11.971214278746698"><ele>266.0</ele><time>2026-03-24T16:12:28.999Z</time></trkpt><trkpt lat="42.08944091703635" lon="11.97133541822352"><ele>264.0</ele><time>2026-03-24T16:12:29.999Z</time></trkpt><trkpt lat="42.08936410392311" lon="11.971450710778138"><ele>262.0</ele><time>2026-03-24T16:12:30.999Z</time></trkpt><trkpt lat="42.0892852741554" lon="11.971560599854422"><ele>262.0</ele><time>2026-03-24T16:12:31.999Z</time></trkpt><trkpt lat="42.08920498853369" lon="11.97165460189663"><ele>262.0</ele><time>2026-03-24T16:12:32.999Z</time></trkpt><trkpt lat="42.089118017888744" lon="11.971737915523734"><ele>262.0</ele><time>2026-03-24T16:12:33.999Z</time></trkpt><trkpt lat="42.0890118818126" lon="11.971806683909001"><ele>262.0</ele><time>2026-03-24T16:12:34.999Z</time></trkpt><trkpt lat="42.088896131491396" lon="11.97187139356965"><ele>258.5</ele><time>2026-03-24T16:12:35.999Z</time></trkpt><trkpt lat="42.08877544655789" lon="11.971936035214144"><ele>255.0</ele><time>2026-03-24T16:12:36.999Z</time></trkpt><trkpt lat="42.08864976041108" lon="11.97198962315804"><ele>251.5</ele><time>2026-03-24T16:12:37.999Z</time></trkpt><trkpt lat="42.0885205691953" lon="11.972022764572651"><ele>248.0</ele><time>2026-03-24T16:12:38.999Z</time></trkpt><trkpt lat="42.088379888965505" lon="11.972042229364456"><ele>248.75</ele><time>2026-03-24T16:12:39.999Z</time></trkpt><trkpt lat="42.08824138636252" lon="11.972043558602966"><ele>249.5</ele><time>2026-03-24T16:12:40.999Z</time></trkpt><trkpt lat="42.08809709625309" lon="11.972047770790104"><ele>250.25</ele><time>2026-03-24T16:12:41.999Z</time></trkpt><trkpt lat="42.08795489807325" lon="11.972056106718515"><ele>251.0</ele><time>2026-03-24T16:12:42.999Z</time></trkpt><trkpt lat="42.087806931990144" lon="11.972061059185581"><ele>251.0</ele><time>2026-03-24T16:12:43.999Z</time></trkpt><trkpt lat="42.08765942483553" lon="11.972067128095604"><ele>251.0</ele><time>2026-03-24T16:12:44.999Z</time></trkpt><trkpt lat="42.08750936844702" lon="11.972073072611414"><ele>251.0</ele><time>2026-03-24T16:12:45.999Z</time></trkpt><trkpt lat="42.087360348958995" lon="11.972075382359373"><ele>251.0</ele><time>2026-03-24T16:12:46.999Z</time></trkpt><trkpt lat="42.0872138791729" lon="11.972084185088237"><ele>249.25</ele><time>2026-03-24T16:12:47.999Z</time></trkpt><trkpt lat="42.087067525706544" lon="11.972091105488628"><ele>247.5</ele><time>2026-03-24T16:12:48.999Z</time></trkpt><trkpt lat="42.0869271127655" lon="11.972098976247038"><ele>245.75</ele><time>2026-03-24T16:12:49.999Z</time></trkpt><trkpt lat="42.086798506470124" lon="11.972105559041983"><ele>244.0</ele><time>2026-03-24T16:12:50.999Z</time></trkpt><trkpt lat="42.08668184539106" lon="11.972105974719828"><ele>240.79999999999998</ele><time>2026-03-24T16:12:51.999Z</time></trkpt><trkpt lat="42.086568360544746" lon="11.972087973239132"><ele>237.59999999999997</ele><time>2026-03-24T16:12:52.999Z</time></trkpt><trkpt lat="42.086468307204086" lon="11.97204082246351"><ele>234.4</ele><time>2026-03-24T16:12:53.999Z</time></trkpt><trkpt lat="42.08638267662399" lon="11.971968663031687"><ele>231.2</ele><time>2026-03-24T16:12:54.999Z</time></trkpt><trkpt lat="42.08631704436431" lon="11.971876900849914"><ele>228.0</ele><time>2026-03-24T16:12:56Z</time></trkpt><trkpt lat="42.086278861595055" lon="11.971769866354327"><ele>229.8</ele><time>2026-03-24T16:12:57Z</time></trkpt><trkpt lat="42.08622960650319" lon="11.971665153659341"><ele>231.60000000000002</ele><time>2026-03-24T16:12:58Z</time></trkpt><trkpt lat="42.08625035681504" lon="11.971521886617172"><ele>233.39999999999998</ele><time>2026-03-24T16:12:59Z</time></trkpt><trkpt lat="42.08629305746359" lon="11.971387687266818"><ele>235.2</ele><time>2026-03-24T16:13:00Z</time></trkpt><trkpt lat="42.08636852425928" lon="11.971284339125019"><ele>237.0</ele><time>2026-03-24T16:13:01Z</time></trkpt><trkpt lat="42.08646977388156" lon="11.971209097841692"><ele>237.0</ele><time>2026-03-24T16:13:02Z</time></trkpt><trkpt lat="42.086590189133986" lon="11.971153392589132"><ele>237.0</ele><time>2026-03-24T16:13:03Z</time></trkpt><trkpt lat="42.08671225837019" lon="11.971093459349056"><ele>237.0</ele><time>2026-03-24T16:13:04Z</time></trkpt><trkpt lat="42.08684801013147" lon="11.9710350556725"><ele>237.0</ele><time>2026-03-24T16:13:05Z</time></trkpt><trkpt lat="42.08698720501913" lon="11.970975230263305"><ele>237.0</ele><time>2026-03-24T16:13:06Z</time></trkpt><trkpt lat="42.087118476846534" lon="11.970903222168651"><ele>237.0</ele><time>2026-03-24T16:13:07Z</time></trkpt><trkpt lat="42.08724946672107" lon="11.970831024143001"><ele>237.0</ele><time>2026-03-24T16:13:08Z</time></trkpt><trkpt lat="42.087379171370635" lon="11.970765066814613"><ele>237.0</ele><time>2026-03-24T16:13:09Z</time></trkpt><trkpt lat="42.08749740250427" lon="11.970706051863939"><ele>237.0</ele><time>2026-03-24T16:13:10Z</time></trkpt><trkpt lat="42.087608014508554" lon="11.970654215502389"><ele>237.0</ele><time>2026-03-24T16:13:11Z</time></trkpt><trkpt lat="42.08769554684319" lon="11.970579147167287"><ele>237.0</ele><time>2026-03-24T16:13:12Z</time></trkpt><trkpt lat="42.08775893431329" lon="11.970460992831654"><ele>237.0</ele><time>2026-03-24T16:13:13Z</time></trkpt><trkpt lat="42.087795812748716" lon="11.97032123970784"><ele>237.0</ele><time>2026-03-24T16:13:14Z</time></trkpt><trkpt lat="42.08781296350071" lon="11.970168701465166"><ele>235.2</ele><time>2026-03-24T16:13:15Z</time></trkpt><trkpt lat="42.08782854615133" lon="11.97001573069731"><ele>233.39999999999998</ele><time>2026-03-24T16:13:16Z</time></trkpt><trkpt lat="42.08782976270724" lon="11.969874802341595"><ele>231.60000000000002</ele><time>2026-03-24T16:13:17Z</time></trkpt><trkpt lat="42.08781161279866" lon="11.969754365879705"><ele>229.8</ele><time>2026-03-24T16:13:18Z</time></trkpt><trkpt lat="42.08776651951282" lon="11.969636145037668"><ele>228.0</ele><time>2026-03-24T16:13:19Z</time></trkpt><trkpt lat="42.08769524488019" lon="11.969538350401923"><ele>228.0</ele><time>2026-03-24T16:13:20Z</time></trkpt><trkpt lat="42.08760999420564" lon="11.969461943305372"><ele>228.0</ele><time>2026-03-24T16:13:21Z</time></trkpt><trkpt lat="42.087519438688545" lon="11.96942615641073"><ele>228.0</ele><time>2026-03-24T16:13:22Z</time></trkpt><trkpt lat="42.08741505327611" lon="11.96943208564693"><ele>228.0</ele><time>2026-03-24T16:13:23Z</time></trkpt><trkpt lat="42.08731235927691" lon="11.969474471467704"><ele>228.0</ele><time>2026-03-24T16:13:24Z</time></trkpt><trkpt lat="42.08720494270327" lon="11.969552983784979"><ele>226.25</ele><time>2026-03-24T16:13:25Z</time></trkpt><trkpt lat="42.08709289872154" lon="11.96963264191991"><ele>224.5</ele><time>2026-03-24T16:13:26Z</time></trkpt><trkpt lat="42.086977912017524" lon="11.96972257907287"><ele>222.75</ele><time>2026-03-24T16:13:27Z</time></trkpt><trkpt lat="42.08685691594009" lon="11.96981267250564"><ele>221.0</ele><time>2026-03-24T16:13:28Z</time></trkpt><trkpt lat="42.086740880507605" lon="11.969890339528014"><ele>221.0</ele><time>2026-03-24T16:13:29Z</time></trkpt><trkpt lat="42.08661795497788" lon="11.96993609912497"><ele>221.0</ele><time>2026-03-24T16:13:30Z</time></trkpt><trkpt lat="42.0864960704731" lon="11.96996176595636"><ele>221.0</ele><time>2026-03-24T16:13:31Z</time></trkpt><trkpt lat="42.086369267352794" lon="11.969954338852851"><ele>221.0</ele><time>2026-03-24T16:13:32Z</time></trkpt><trkpt lat="42.08624063627584" lon="11.969905357240544"><ele>219.75</ele><time>2026-03-24T16:13:33Z</time></trkpt><trkpt lat="42.0861107860091" lon="11.969858645834572"><ele>218.5</ele><time>2026-03-24T16:13:34Z</time></trkpt><trkpt lat="42.0859690134476" lon="11.969811904188846"><ele>217.25</ele><time>2026-03-24T16:13:35Z</time></trkpt><trkpt lat="42.08582399935372" lon="11.969776182500981"><ele>216.0</ele><time>2026-03-24T16:13:36Z</time></trkpt><trkpt lat="42.08567231305483" lon="11.969736220951148"><ele>215.33333333333331</ele><time>2026-03-24T16:13:37Z</time></trkpt><trkpt lat="42.08551811752223" lon="11.969701346802687"><ele>214.66666666666666</ele><time>2026-03-24T16:13:38Z</time></trkpt><trkpt lat="42.085358882869905" lon="11.969670603954754"><ele>214.0</ele><time>2026-03-24T16:13:39Z</time></trkpt><trkpt lat="42.08520626376659" lon="11.969631815212084"><ele>214.0</ele><time>2026-03-24T16:13:40Z</time></trkpt><trkpt lat="42.0850643501368" lon="11.969595284573835"><ele>214.0</ele><time>2026-03-24T16:13:41Z</time></trkpt><trkpt lat="42.084935707953605" lon="11.96956104197823"><ele>214.0</ele><time>2026-03-24T16:13:42Z</time></trkpt><trkpt lat="42.08481734294347" lon="11.969533291901064"><ele>214.0</ele><time>2026-03-24T16:13:43Z</time></trkpt><trkpt lat="42.08470368997871" lon="11.969506525359261"><ele>210.79999999999998</ele><time>2026-03-24T16:13:44Z</time></trkpt><trkpt lat="42.08460357849359" lon="11.969485176191304"><ele>207.59999999999997</ele><time>2026-03-24T16:13:44.999Z</time></trkpt><trkpt lat="42.084506108417784" lon="11.96949030130093"><ele>204.4</ele><time>2026-03-24T16:13:45.999Z</time></trkpt><trkpt lat="42.08440889092685" lon="11.969521626207102"><ele>201.2</ele><time>2026-03-24T16:13:46.999Z</time></trkpt><trkpt lat="42.08432322240018" lon="11.969588472377662"><ele>198.0</ele><time>2026-03-24T16:13:47.999Z</time></trkpt><trkpt lat="42.08425145630594" lon="11.969683762211002"><ele>198.0</ele><time>2026-03-24T16:13:48.999Z</time></trkpt><trkpt lat="42.084190306478305" lon="11.96980318919763"><ele>198.0</ele><time>2026-03-24T16:13:49.999Z</time></trkpt><trkpt lat="42.08412847420504" lon="11.969927721347139"><ele>198.0</ele><time>2026-03-24T16:13:50.999Z</time></trkpt><trkpt lat="42.084065697840465" lon="11.970053309879647"><ele>198.0</ele><time>2026-03-24T16:13:51.999Z</time></trkpt><trkpt lat="42.08400744352518" lon="11.970162931725554"><ele>198.0</ele><time>2026-03-24T16:13:52.999Z</time></trkpt><trkpt lat="42.08394658812875" lon="11.970257507520277"><ele>195.8</ele><time>2026-03-24T16:13:53.999Z</time></trkpt><trkpt lat="42.08387873965705" lon="11.970332520123906"><ele>193.60000000000002</ele><time>2026-03-24T16:13:54.999Z</time></trkpt><trkpt lat="42.08380907987502" lon="11.970387326461658"><ele>191.39999999999998</ele><time>2026-03-24T16:13:55.999Z</time></trkpt><trkpt lat="42.08374041248394" lon="11.970416805336141"><ele>189.2</ele><time>2026-03-24T16:13:56.999Z</time></trkpt><trkpt lat="42.08362500773137" lon="11.970388933961848"><ele>187.0</ele><time>2026-03-24T16:13:58.999Z</time></trkpt><trkpt lat="42.083585645314585" lon="11.970243199798052"><ele>187.0</ele><time>2026-03-24T16:14:00.999Z</time></trkpt><trkpt lat="42.08360040286166" lon="11.9701545299633"><ele>187.0</ele><time>2026-03-24T16:14:01.999Z</time></trkpt><trkpt lat="42.083635777578564" lon="11.970056236370418"><ele>187.0</ele><time>2026-03-24T16:14:02.999Z</time></trkpt><trkpt lat="42.083690467345455" lon="11.96996065313373"><ele>187.0</ele><time>2026-03-24T16:14:03.999Z</time></trkpt><trkpt lat="42.083755340598195" lon="11.969853402489862"><ele>187.0</ele><time>2026-03-24T16:14:04.999Z</time></trkpt><trkpt lat="42.083819880970466" lon="11.969738094446734"><ele>187.0</ele><time>2026-03-24T16:14:05.999Z</time></trkpt><trkpt lat="42.08389055293736" lon="11.969615531436192"><ele>186.25</ele><time>2026-03-24T16:14:06.999Z</time></trkpt><trkpt lat="42.08396081208871" lon="11.96948968834972"><ele>185.5</ele><time>2026-03-24T16:14:07.999Z</time></trkpt><trkpt lat="42.084040838386024" lon="11.96936997050011"><ele>184.75</ele><time>2026-03-24T16:14:08.999Z</time></trkpt><trkpt lat="42.08412847814728" lon="11.969258663897547"><ele>184.0</ele><time>2026-03-24T16:14:09.999Z</time></trkpt><trkpt lat="42.084226826698995" lon="11.969159787096563"><ele>184.0</ele><time>2026-03-24T16:14:10.999Z</time></trkpt><trkpt lat="42.084329033552656" lon="11.96907466087656"><ele>184.0</ele><time>2026-03-24T16:14:11.999Z</time></trkpt><trkpt lat="42.084437487052206" lon="11.968987724326254"><ele>184.0</ele><time>2026-03-24T16:14:12.999Z</time></trkpt><trkpt lat="42.08454610667267" lon="11.968900643495356"><ele>184.0</ele><time>2026-03-24T16:14:13.999Z</time></trkpt><trkpt lat="42.08466009830857" lon="11.968825020077626"><ele>184.0</ele><time>2026-03-24T16:14:14.999Z</time></trkpt><trkpt lat="42.08477725710273" lon="11.968762475035964"><ele>184.0</ele><time>2026-03-24T16:14:15.999Z</time></trkpt><trkpt lat="42.08489597615708" lon="11.968718943416624"><ele>184.0</ele><time>2026-03-24T16:14:16.999Z</time></trkpt><trkpt lat="42.08500551978045" lon="11.968684782316503"><ele>184.0</ele><time>2026-03-24T16:14:17.999Z</time></trkpt><trkpt lat="42.085110711187205" lon="11.968655142248116"><ele>182.5</ele><time>2026-03-24T16:14:18.999Z</time></trkpt><trkpt lat="42.085204091596076" lon="11.968620929424091"><ele>181.0</ele><time>2026-03-24T16:14:19.999Z</time></trkpt><trkpt lat="42.08528581946407" lon="11.968578681586811"><ele>179.5</ele><time>2026-03-24T16:14:20.999Z</time></trkpt><trkpt lat="42.085352883423106" lon="11.968519672956559"><ele>178.0</ele><time>2026-03-24T16:14:21.999Z</time></trkpt><trkpt lat="42.085399038916364" lon="11.968438232995258"><ele>176.5</ele><time>2026-03-24T16:14:22.999Z</time></trkpt><trkpt lat="42.0854243790936" lon="11.968347275950414"><ele>175.0</ele><time>2026-03-24T16:14:23.999Z</time></trkpt><trkpt lat="42.08541930852871" lon="11.968241770114483"><ele>175.0</ele><time>2026-03-24T16:14:24.999Z</time></trkpt><trkpt lat="42.085395878347214" lon="11.968143487833046"><ele>175.0</ele><time>2026-03-24T16:14:25.999Z</time></trkpt><trkpt lat="42.085335677142254" lon="11.968063281693237"><ele>175.0</ele><time>2026-03-24T16:14:26.999Z</time></trkpt><trkpt lat="42.08525434063263" lon="11.96798708052767"><ele>175.0</ele><time>2026-03-24T16:14:27.999Z</time></trkpt><trkpt lat="42.08516885993515" lon="11.967925124940702"><ele>175.0</ele><time>2026-03-24T16:14:28.999Z</time></trkpt><trkpt lat="42.08508259116043" lon="11.96786817732643"><ele>175.0</ele><time>2026-03-24T16:14:29.999Z</time></trkpt><trkpt lat="42.08498420245497" lon="11.967819906116722"><ele>175.0</ele><time>2026-03-24T16:14:30.999Z</time></trkpt><trkpt lat="42.084879500376985" lon="11.967786303650717"><ele>175.0</ele><time>2026-03-24T16:14:31.999Z</time></trkpt><trkpt lat="42.084768160222765" lon="11.967754258976505"><ele>175.0</ele><time>2026-03-24T16:14:32.999Z</time></trkpt><trkpt lat="42.08465754260637" lon="11.96771350048316"><ele>175.0</ele><time>2026-03-24T16:14:33.999Z</time></trkpt><trkpt lat="42.08454931583095" lon="11.96767121768864"><ele>172.8</ele><time>2026-03-24T16:14:34.999Z</time></trkpt><trkpt lat="42.08444513320588" lon="11.967631264565894"><ele>170.6</ele><time>2026-03-24T16:14:35.999Z</time></trkpt><trkpt lat="42.08434998194087" lon="11.967582666094028"><ele>168.39999999999998</ele><time>2026-03-24T16:14:36.999Z</time></trkpt><trkpt lat="42.084268800059725" lon="11.9675109462446"><ele>166.2</ele><time>2026-03-24T16:14:37.999Z</time></trkpt><trkpt lat="42.0842007769828" lon="11.967414716482116"><ele>164.0</ele><time>2026-03-24T16:14:38.999Z</time></trkpt><trkpt lat="42.08414211795368" lon="11.967299851266999"><ele>162.6</ele><time>2026-03-24T16:14:39.999Z</time></trkpt><trkpt lat="42.084098449999374" lon="11.967170241140167"><ele>161.2</ele><time>2026-03-24T16:14:40.999Z</time></trkpt><trkpt lat="42.08407198492123" lon="11.967031649073965"><ele>159.79999999999998</ele><time>2026-03-24T16:14:41.999Z</time></trkpt><trkpt lat="42.08406555328689" lon="11.966889149245596"><ele>158.39999999999998</ele><time>2026-03-24T16:14:42.999Z</time></trkpt><trkpt lat="42.08407285818229" lon="11.966749668044832"><ele>157.0</ele><time>2026-03-24T16:14:43.999Z</time></trkpt><trkpt lat="42.084073327499986" lon="11.966625659829466"><ele>155.4</ele><time>2026-03-24T16:14:44.999Z</time></trkpt><trkpt lat="42.084053936417085" lon="11.966510355817322"><ele>153.79999999999998</ele><time>2026-03-24T16:14:45.999Z</time></trkpt><trkpt lat="42.08401452271461" lon="11.966406302043792"><ele>152.2</ele><time>2026-03-24T16:14:46.999Z</time></trkpt><trkpt lat="42.083953794399925" lon="11.966319142652901"><ele>150.6</ele><time>2026-03-24T16:14:47.999Z</time></trkpt><trkpt lat="42.08387438104447" lon="11.966251406329901"><ele>149.0</ele><time>2026-03-24T16:14:48.999Z</time></trkpt><trkpt lat="42.0837834510412" lon="11.966216163859706"><ele>149.0</ele><time>2026-03-24T16:14:49.999Z</time></trkpt><trkpt lat="42.08368665676929" lon="11.966209721172104"><ele>149.0</ele><time>2026-03-24T16:14:50.999Z</time></trkpt><trkpt lat="42.083597423441724" lon="11.966233859494766"><ele>149.0</ele><time>2026-03-24T16:14:51.999Z</time></trkpt><trkpt lat="42.083515304441434" lon="11.96628997587391"><ele>149.0</ele><time>2026-03-24T16:14:52.999Z</time></trkpt><trkpt lat="42.08344951251086" lon="11.966382366359678"><ele>149.0</ele><time>2026-03-24T16:14:53.999Z</time></trkpt><trkpt lat="42.08340017893854" lon="11.966499327003012"><ele>149.0</ele><time>2026-03-24T16:14:54.999Z</time></trkpt><trkpt lat="42.08336977049025" lon="11.966642030851991"><ele>149.0</ele><time>2026-03-24T16:14:55.999Z</time></trkpt><trkpt lat="42.08335270078357" lon="11.966804132988495"><ele>149.0</ele><time>2026-03-24T16:14:56.999Z</time></trkpt><trkpt lat="42.083329828352994" lon="11.966960700574488"><ele>149.0</ele><time>2026-03-24T16:14:57.999Z</time></trkpt><trkpt lat="42.08331080901455" lon="11.967119409072213"><ele>149.2</ele><time>2026-03-24T16:14:58.999Z</time></trkpt><trkpt lat="42.08329792657076" lon="11.967276012532787"><ele>149.4</ele><time>2026-03-24T16:14:59.999Z</time></trkpt><trkpt lat="42.08330189597384" lon="11.96743297389269"><ele>149.6</ele><time>2026-03-24T16:15:00.999Z</time></trkpt><trkpt lat="42.08331045549874" lon="11.967579223187203"><ele>149.8</ele><time>2026-03-24T16:15:02Z</time></trkpt><trkpt lat="42.0833132304398" lon="11.967720903035172"><ele>150.0</ele><time>2026-03-24T16:15:03Z</time></trkpt><trkpt lat="42.08330010466497" lon="11.967859425230694"><ele>150.0</ele><time>2026-03-24T16:15:04Z</time></trkpt><trkpt lat="42.083267951048896" lon="11.967991928519444"><ele>150.0</ele><time>2026-03-24T16:15:05Z</time></trkpt><trkpt lat="42.08322087703308" lon="11.96812696115512"><ele>150.0</ele><time>2026-03-24T16:15:06Z</time></trkpt><trkpt lat="42.083167251406095" lon="11.96825845098284"><ele>150.0</ele><time>2026-03-24T16:15:07Z</time></trkpt><trkpt lat="42.08311348943993" lon="11.968382097742335"><ele>150.0</ele><time>2026-03-24T16:15:08Z</time></trkpt><trkpt lat="42.08305950307715" lon="11.968495173213011"><ele>149.0</ele><time>2026-03-24T16:15:09Z</time></trkpt><trkpt lat="42.08299820913288" lon="11.968584644249042"><ele>148.0</ele><time>2026-03-24T16:15:10Z</time></trkpt><trkpt lat="42.08292677068568" lon="11.968653494770008"><ele>147.0</ele><time>2026-03-24T16:15:11Z</time></trkpt><trkpt lat="42.08283911643133" lon="11.968685366808641"><ele>146.0</ele><time>2026-03-24T16:15:12Z</time></trkpt><trkpt lat="42.08274775914095" lon="11.968683230976405"><ele>145.0</ele><time>2026-03-24T16:15:13Z</time></trkpt><trkpt lat="42.08265337112966" lon="11.968643298823947"><ele>145.0</ele><time>2026-03-24T16:15:14Z</time></trkpt><trkpt lat="42.08255953323989" lon="11.968583430461418"><ele>145.0</ele><time>2026-03-24T16:15:15Z</time></trkpt><trkpt lat="42.0824741325525" lon="11.96849141051103"><ele>145.0</ele><time>2026-03-24T16:15:16Z</time></trkpt><trkpt lat="42.082404604558725" lon="11.968377079298465"><ele>145.0</ele><time>2026-03-24T16:15:17Z</time></trkpt><trkpt lat="42.082361379807644" lon="11.968242483397553"><ele>145.0</ele><time>2026-03-24T16:15:18Z</time></trkpt><trkpt lat="42.08233913351045" lon="11.968095155820844"><ele>141.8</ele><time>2026-03-24T16:15:19Z</time></trkpt><trkpt lat="42.08233729464001" lon="11.967947118720268"><ele>138.6</ele><time>2026-03-24T16:15:20Z</time></trkpt><trkpt lat="42.08233663561703" lon="11.967804327425299"><ele>135.4</ele><time>2026-03-24T16:15:21Z</time></trkpt><trkpt lat="42.08232468816223" lon="11.967674871709935"><ele>132.2</ele><time>2026-03-24T16:15:22Z</time></trkpt><trkpt lat="42.0822944102406" lon="11.967550632196506"><ele>129.0</ele><time>2026-03-24T16:15:23Z</time></trkpt><trkpt lat="42.0822429663427" lon="11.967434529913128"><ele>128.6</ele><time>2026-03-24T16:15:24Z</time></trkpt><trkpt lat="42.08217466596112" lon="11.96733287068938"><ele>128.2</ele><time>2026-03-24T16:15:25Z</time></trkpt><trkpt lat="42.08208664801523" lon="11.967247326420727"><ele>127.79999999999998</ele><time>2026-03-24T16:15:26Z</time></trkpt><trkpt lat="42.08198884915414" lon="11.967180077893584"><ele>127.39999999999999</ele><time>2026-03-24T16:15:27Z</time></trkpt><trkpt lat="42.081888829322" lon="11.96710992002742"><ele>127.0</ele><time>2026-03-24T16:15:28Z</time></trkpt><trkpt lat="42.08179039827687" lon="11.96703788131831"><ele>127.0</ele><time>2026-03-24T16:15:29Z</time></trkpt><trkpt lat="42.08169810977365" lon="11.966968248332057"><ele>126.99999999999999</ele><time>2026-03-24T16:15:30Z</time></trkpt><trkpt lat="42.08161750464114" lon="11.96689382145039"><ele>126.99999999999999</ele><time>2026-03-24T16:15:31Z</time></trkpt><trkpt lat="42.08154902788487" lon="11.966802803129454"><ele>127.0</ele><time>2026-03-24T16:15:32Z</time></trkpt><trkpt lat="42.08149369277103" lon="11.966691698047544"><ele>127.0</ele><time>2026-03-24T16:15:33Z</time></trkpt><trkpt lat="42.08145764413608" lon="11.966571455851783"><ele>125.39999999999999</ele><time>2026-03-24T16:15:34Z</time></trkpt><trkpt lat="42.08142830410838" lon="11.966450724560612"><ele>123.79999999999998</ele><time>2026-03-24T16:15:35Z</time></trkpt><trkpt lat="42.08137803297965" lon="11.966350557533735"><ele>122.2</ele><time>2026-03-24T16:15:36Z</time></trkpt><trkpt lat="42.08131158226069" lon="11.966261073874493"><ele>120.6</ele><time>2026-03-24T16:15:37Z</time></trkpt><trkpt lat="42.08123237550752" lon="11.966189484274564"><ele>119.0</ele><time>2026-03-24T16:15:38Z</time></trkpt><trkpt lat="42.081142304956806" lon="11.966114597853084"><ele>119.0</ele><time>2026-03-24T16:15:39Z</time></trkpt><trkpt lat="42.08104391541012" lon="11.966038905516601"><ele>119.0</ele><time>2026-03-24T16:15:40Z</time></trkpt><trkpt lat="42.080937725944594" lon="11.965958223147835"><ele>119.0</ele><time>2026-03-24T16:15:41Z</time></trkpt><trkpt lat="42.08082659136608" lon="11.965873126633328"><ele>119.0</ele><time>2026-03-24T16:15:42Z</time></trkpt><trkpt lat="42.08071637509319" lon="11.965781685172344"><ele>119.0</ele><time>2026-03-24T16:15:43Z</time></trkpt><trkpt lat="42.08060478614129" lon="11.965690931623183"><ele>119.0</ele><time>2026-03-24T16:15:44Z</time></trkpt><trkpt lat="42.08049285619428" lon="11.965601894568964"><ele>119.0</ele><time>2026-03-24T16:15:45Z</time></trkpt><trkpt lat="42.080379351241696" lon="11.965511264202833"><ele>119.0</ele><time>2026-03-24T16:15:46Z</time></trkpt><trkpt lat="42.080269124500084" lon="11.96542266040854"><ele>119.0</ele><time>2026-03-24T16:15:47Z</time></trkpt><trkpt lat="42.08016157299063" lon="11.965342267496357"><ele>119.0</ele><time>2026-03-24T16:15:48Z</time></trkpt><trkpt lat="42.080050895190666" lon="11.965298611876621"><ele>119.0</ele><time>2026-03-24T16:15:49Z</time></trkpt><trkpt lat="42.07993842745704" lon="11.965276424618143"><ele>119.0</ele><time>2026-03-24T16:15:50Z</time></trkpt><trkpt lat="42.07982081667339" lon="11.965278811588465"><ele>119.25</ele><time>2026-03-24T16:15:51Z</time></trkpt><trkpt lat="42.079694023376234" lon="11.965297768759212"><ele>119.5</ele><time>2026-03-24T16:15:52Z</time></trkpt><trkpt lat="42.079566384173184" lon="11.965312017037096"><ele>119.75</ele><time>2026-03-24T16:15:53Z</time></trkpt><trkpt lat="42.07944572943478" lon="11.965328600138639"><ele>120.0</ele><time>2026-03-24T16:15:53.999Z</time></trkpt><trkpt lat="42.07932773062395" lon="11.965343094956072"><ele>120.0</ele><time>2026-03-24T16:15:54.999Z</time></trkpt><trkpt lat="42.07920783622531" lon="11.965355200319827"><ele>120.0</ele><time>2026-03-24T16:15:55.999Z</time></trkpt><trkpt lat="42.07909010978247" lon="11.965358641163329"><ele>120.0</ele><time>2026-03-24T16:15:56.999Z</time></trkpt><trkpt lat="42.07897060605052" lon="11.965341296285176"><ele>120.0</ele><time>2026-03-24T16:15:57.999Z</time></trkpt><trkpt lat="42.07885418869587" lon="11.96530555544176"><ele>119.0</ele><time>2026-03-24T16:15:58.999Z</time></trkpt><trkpt lat="42.07873855783741" lon="11.965249396744882"><ele>118.0</ele><time>2026-03-24T16:15:59.999Z</time></trkpt><trkpt lat="42.078625431041445" lon="11.965180809238424"><ele>117.0</ele><time>2026-03-24T16:16:00.999Z</time></trkpt><trkpt lat="42.078509459698694" lon="11.965107366864686"><ele>116.0</ele><time>2026-03-24T16:16:01.999Z</time></trkpt><trkpt lat="42.07839134103183" lon="11.965039066731915"><ele>118.0</ele><time>2026-03-24T16:16:02.999Z</time></trkpt><trkpt lat="42.07827638991776" lon="11.964967834509922"><ele>120.0</ele><time>2026-03-24T16:16:03.999Z</time></trkpt><trkpt lat="42.07816465257945" lon="11.964894661546118"><ele>122.0</ele><time>2026-03-24T16:16:04.999Z</time></trkpt><trkpt lat="42.07805353214907" lon="11.964822890849293"><ele>124.0</ele><time>2026-03-24T16:16:05.999Z</time></trkpt><trkpt lat="42.07793960628093" lon="11.964751895446492"><ele>124.0</ele><time>2026-03-24T16:16:06.999Z</time></trkpt><trkpt lat="42.07782117544392" lon="11.964679691041471"><ele>124.0</ele><time>2026-03-24T16:16:07.999Z</time></trkpt><trkpt lat="42.077701491738175" lon="11.964597581302472"><ele>124.0</ele><time>2026-03-24T16:16:08.999Z</time></trkpt><trkpt lat="42.07758339370568" lon="11.964508723696994"><ele>124.0</ele><time>2026-03-24T16:16:09.999Z</time></trkpt><trkpt lat="42.0774671944371" lon="11.964408334676433"><ele>123.75</ele><time>2026-03-24T16:16:10.999Z</time></trkpt><trkpt lat="42.077354108347535" lon="11.964294189511419"><ele>123.5</ele><time>2026-03-24T16:16:11.999Z</time></trkpt><trkpt lat="42.077243703788824" lon="11.964168607684588"><ele>123.25</ele><time>2026-03-24T16:16:12.999Z</time></trkpt><trkpt lat="42.077127761643105" lon="11.964043296781915"><ele>123.0</ele><time>2026-03-24T16:16:13.999Z</time></trkpt><trkpt lat="42.07701472238767" lon="11.963922101092901"><ele>123.0</ele><time>2026-03-24T16:16:14.999Z</time></trkpt><trkpt lat="42.07690109871598" lon="11.96380060059756"><ele>123.0</ele><time>2026-03-24T16:16:15.999Z</time></trkpt><trkpt lat="42.07679465289507" lon="11.963672858796441"><ele>123.0</ele><time>2026-03-24T16:16:16.999Z</time></trkpt><trkpt lat="42.07669439114951" lon="11.963538193683462"><ele>123.0</ele><time>2026-03-24T16:16:17.999Z</time></trkpt><trkpt lat="42.0765936027105" lon="11.963401440628674"><ele>123.25</ele><time>2026-03-24T16:16:18.999Z</time></trkpt><trkpt lat="42.07649066055626" lon="11.963266152897019"><ele>123.5</ele><time>2026-03-24T16:16:19.999Z</time></trkpt><trkpt lat="42.076385618182975" lon="11.963141280670822"><ele>123.75</ele><time>2026-03-24T16:16:20.999Z</time></trkpt><trkpt lat="42.0762682899801" lon="11.963044891612215"><ele>124.0</ele><time>2026-03-24T16:16:21.999Z</time></trkpt><trkpt lat="42.07614849258044" lon="11.96296375924832"><ele>124.0</ele><time>2026-03-24T16:16:22.999Z</time></trkpt><trkpt lat="42.076030978281935" lon="11.962886936503411"><ele>124.0</ele><time>2026-03-24T16:16:23.999Z</time></trkpt><trkpt lat="42.07592129349618" lon="11.96280331425809"><ele>124.0</ele><time>2026-03-24T16:16:24.999Z</time></trkpt><trkpt lat="42.075830283158574" lon="11.962704587147513"><ele>124.0</ele><time>2026-03-24T16:16:25.999Z</time></trkpt><trkpt lat="42.07574720398732" lon="11.96259134083863"><ele>125.25</ele><time>2026-03-24T16:16:26.999Z</time></trkpt><trkpt lat="42.07567151976465" lon="11.962471398660938"><ele>126.5</ele><time>2026-03-24T16:16:27.999Z</time></trkpt><trkpt lat="42.0755933236359" lon="11.962363385398959"><ele>127.75</ele><time>2026-03-24T16:16:28.999Z</time></trkpt><trkpt lat="42.07549572424622" lon="11.96228745736132"><ele>129.0</ele><time>2026-03-24T16:16:29.999Z</time></trkpt><trkpt lat="42.07539041973518" lon="11.962241097182709"><ele>129.0</ele><time>2026-03-24T16:16:30.999Z</time></trkpt><trkpt lat="42.07528358472168" lon="11.962204975091367"><ele>129.0</ele><time>2026-03-24T16:16:31.999Z</time></trkpt><trkpt lat="42.0751787349826" lon="11.962155487204528"><ele>129.0</ele><time>2026-03-24T16:16:32.999Z</time></trkpt><trkpt lat="42.075082057851866" lon="11.962082587188029"><ele>129.0</ele><time>2026-03-24T16:16:33.999Z</time></trkpt><trkpt lat="42.07499163984672" lon="11.96198286909657"><ele>129.0</ele><time>2026-03-24T16:16:34.999Z</time></trkpt><trkpt lat="42.074908948367586" lon="11.96185566984372"><ele>126.25</ele><time>2026-03-24T16:16:35.999Z</time></trkpt><trkpt lat="42.07482352213159" lon="11.961715967039247"><ele>123.5</ele><time>2026-03-24T16:16:36.999Z</time></trkpt><trkpt lat="42.074729079175256" lon="11.961574684749367"><ele>120.75</ele><time>2026-03-24T16:16:37.999Z</time></trkpt><trkpt lat="42.074633232034905" lon="11.96143363013923"><ele>118.0</ele><time>2026-03-24T16:16:38.999Z</time></trkpt><trkpt lat="42.07454592914155" lon="11.961302286982306"><ele>118.0</ele><time>2026-03-24T16:16:39.999Z</time></trkpt><trkpt lat="42.07447701312132" lon="11.961178426218721"><ele>118.00000000000001</ele><time>2026-03-24T16:16:40.999Z</time></trkpt><trkpt lat="42.0744315450077" lon="11.961057360852617"><ele>118.00000000000001</ele><time>2026-03-24T16:16:41.999Z</time></trkpt><trkpt lat="42.07441781645073" lon="11.96093633542017"><ele>118.0</ele><time>2026-03-24T16:16:42.999Z</time></trkpt><trkpt lat="42.07440816994321" lon="11.960811609536051"><ele>118.0</ele><time>2026-03-24T16:16:43.999Z</time></trkpt><trkpt lat="42.07438302316478" lon="11.960687515791284"><ele>119.80000000000001</ele><time>2026-03-24T16:16:44.999Z</time></trkpt><trkpt lat="42.07433549299685" lon="11.960574359123367"><ele>121.60000000000001</ele><time>2026-03-24T16:16:45.999Z</time></trkpt><trkpt lat="42.07426630419492" lon="11.960471104394793"><ele>123.39999999999999</ele><time>2026-03-24T16:16:46.999Z</time></trkpt><trkpt lat="42.074191220854686" lon="11.960370242998293"><ele>125.19999999999999</ele><time>2026-03-24T16:16:47.999Z</time></trkpt><trkpt lat="42.0741106953541" lon="11.9602595522008"><ele>127.0</ele><time>2026-03-24T16:16:48.999Z</time></trkpt><trkpt lat="42.07402170917502" lon="11.960146646596815"><ele>124.0</ele><time>2026-03-24T16:16:49.999Z</time></trkpt><trkpt lat="42.073931059724046" lon="11.960023911195293"><ele>121.0</ele><time>2026-03-24T16:16:50.999Z</time></trkpt><trkpt lat="42.073841912344314" lon="11.959894743186933"><ele>118.0</ele><time>2026-03-24T16:16:51.999Z</time></trkpt><trkpt lat="42.073750507176975" lon="11.959761877970529"><ele>115.0</ele><time>2026-03-24T16:16:52.999Z</time></trkpt><trkpt lat="42.07365792703584" lon="11.95962568231915"><ele>115.0</ele><time>2026-03-24T16:16:53.999Z</time></trkpt><trkpt lat="42.07356610872402" lon="11.959481885366827"><ele>115.0</ele><time>2026-03-24T16:16:54.999Z</time></trkpt><trkpt lat="42.07347607937767" lon="11.959330390104185"><ele>115.0</ele><time>2026-03-24T16:16:55.999Z</time></trkpt><trkpt lat="42.07339227003635" lon="11.959173937081374"><ele>115.0</ele><time>2026-03-24T16:16:56.999Z</time></trkpt><trkpt lat="42.07331037489058" lon="11.959022182961567"><ele>113.75</ele><time>2026-03-24T16:16:57.999Z</time></trkpt><trkpt lat="42.073226418873205" lon="11.958874089773621"><ele>112.5</ele><time>2026-03-24T16:16:58.999Z</time></trkpt><trkpt lat="42.07313698285028" lon="11.958735507561217"><ele>111.25</ele><time>2026-03-24T16:16:59.999Z</time></trkpt><trkpt lat="42.07304379795952" lon="11.958605891018015"><ele>110.0</ele><time>2026-03-24T16:17:00.999Z</time></trkpt><trkpt lat="42.07294840592995" lon="11.958483365558386"><ele>114.25</ele><time>2026-03-24T16:17:01.999Z</time></trkpt><trkpt lat="42.0728483171802" lon="11.958364854146717"><ele>118.5</ele><time>2026-03-24T16:17:02.999Z</time></trkpt><trkpt lat="42.07275257745306" lon="11.958242846170503"><ele>122.75</ele><time>2026-03-24T16:17:03.999Z</time></trkpt><trkpt lat="42.07265380294906" lon="11.958121818925708"><ele>127.0</ele><time>2026-03-24T16:17:04.999Z</time></trkpt><trkpt lat="42.0725523047952" lon="11.958000883328847"><ele>127.0</ele><time>2026-03-24T16:17:05.999Z</time></trkpt><trkpt lat="42.07244834571989" lon="11.957878490664598"><ele>127.0</ele><time>2026-03-24T16:17:06.999Z</time></trkpt><trkpt lat="42.072343712991525" lon="11.957755924448017"><ele>127.0</ele><time>2026-03-24T16:17:08Z</time></trkpt><trkpt lat="42.072242157502224" lon="11.957631900339424"><ele>127.0</ele><time>2026-03-24T16:17:09Z</time></trkpt><trkpt lat="42.072148197365024" lon="11.957502150788557"><ele>125.5</ele><time>2026-03-24T16:17:10Z</time></trkpt><trkpt lat="42.07205731032617" lon="11.957353560450937"><ele>124.0</ele><time>2026-03-24T16:17:11Z</time></trkpt><trkpt lat="42.07197708528306" lon="11.957198069551126"><ele>122.5</ele><time>2026-03-24T16:17:12Z</time></trkpt><trkpt lat="42.07191026673703" lon="11.957032299450674"><ele>121.0</ele><time>2026-03-24T16:17:13Z</time></trkpt><trkpt lat="42.07184904310908" lon="11.95686855661675"><ele>121.0</ele><time>2026-03-24T16:17:14Z</time></trkpt><trkpt lat="42.07177900331219" lon="11.956715419694508"><ele>121.0</ele><time>2026-03-24T16:17:15Z</time></trkpt><trkpt lat="42.07169710489661" lon="11.956571476447905"><ele>121.0</ele><time>2026-03-24T16:17:16Z</time></trkpt><trkpt lat="42.0716030619328" lon="11.95643485660085"><ele>121.0</ele><time>2026-03-24T16:17:17Z</time></trkpt><trkpt lat="42.07150219156954" lon="11.956301325316295"><ele>118.0</ele><time>2026-03-24T16:17:18Z</time></trkpt><trkpt lat="42.07139561978785" lon="11.95616384223925"><ele>115.0</ele><time>2026-03-24T16:17:19Z</time></trkpt><trkpt lat="42.07128939540189" lon="11.956020834863603"><ele>112.0</ele><time>2026-03-24T16:17:20Z</time></trkpt><trkpt lat="42.07118211156131" lon="11.955873986017984"><ele>116.0</ele><time>2026-03-24T16:17:21Z</time></trkpt><trkpt lat="42.07107189211705" lon="11.955728456591677"><ele>120.0</ele><time>2026-03-24T16:17:22Z</time></trkpt><trkpt lat="42.07096124607987" lon="11.955577641892727"><ele>124.0</ele><time>2026-03-24T16:17:23Z</time></trkpt><trkpt lat="42.07084819151164" lon="11.955425326912676"><ele>121.33333333333334</ele><time>2026-03-24T16:17:24Z</time></trkpt><trkpt lat="42.07073198561504" lon="11.955272334436573"><ele>118.66666666666666</ele><time>2026-03-24T16:17:25Z</time></trkpt><trkpt lat="42.07061604295062" lon="11.955123414664712"><ele>116.0</ele><time>2026-03-24T16:17:26Z</time></trkpt><trkpt lat="42.07050780177384" lon="11.954980594665157"><ele>116.0</ele><time>2026-03-24T16:17:27Z</time></trkpt><trkpt lat="42.07040879601569" lon="11.954846098440472"><ele>116.0</ele><time>2026-03-24T16:17:28Z</time></trkpt><trkpt lat="42.07031607364804" lon="11.954716656312335"><ele>116.0</ele><time>2026-03-24T16:17:29Z</time></trkpt><trkpt lat="42.07023464425063" lon="11.954587534894591"><ele>116.0</ele><time>2026-03-24T16:17:30Z</time></trkpt><trkpt lat="42.07016194154534" lon="11.954465535035343"><ele>116.0</ele><time>2026-03-24T16:17:31Z</time></trkpt><trkpt lat="42.07009131936851" lon="11.954353134341149"><ele>116.0</ele><time>2026-03-24T16:17:32Z</time></trkpt><trkpt lat="42.07000229242595" lon="11.954257869373427"><ele>116.0</ele><time>2026-03-24T16:17:33Z</time></trkpt><trkpt lat="42.0699010227174" lon="11.954182601704579"><ele>116.0</ele><time>2026-03-24T16:17:34Z</time></trkpt><trkpt lat="42.06979139651231" lon="11.954121314022233"><ele>114.75</ele><time>2026-03-24T16:17:35Z</time></trkpt><trkpt lat="42.069674554761" lon="11.954065495301839"><ele>113.5</ele><time>2026-03-24T16:17:36Z</time></trkpt><trkpt lat="42.069552180020565" lon="11.954012014171411"><ele>112.25</ele><time>2026-03-24T16:17:37Z</time></trkpt><trkpt lat="42.069426380785686" lon="11.953959413733582"><ele>111.0</ele><time>2026-03-24T16:17:38Z</time></trkpt><trkpt lat="42.069300767388256" lon="11.953905200627952"><ele>111.0</ele><time>2026-03-24T16:17:39Z</time></trkpt><trkpt lat="42.069182031464955" lon="11.953844923551339"><ele>111.0</ele><time>2026-03-24T16:17:40Z</time></trkpt><trkpt lat="42.06907913435371" lon="11.953772424684773"><ele>111.0</ele><time>2026-03-24T16:17:41Z</time></trkpt><trkpt lat="42.06898750318628" lon="11.953678664498"><ele>111.0</ele><time>2026-03-24T16:17:42Z</time></trkpt><trkpt lat="42.06890734266194" lon="11.953562198817462"><ele>109.0</ele><time>2026-03-24T16:17:43Z</time></trkpt><trkpt lat="42.06882558134524" lon="11.953433194608062"><ele>107.0</ele><time>2026-03-24T16:17:44Z</time></trkpt><trkpt lat="42.06874401508534" lon="11.953307843411354"><ele>105.0</ele><time>2026-03-24T16:17:45Z</time></trkpt><trkpt lat="42.068672854431384" lon="11.953185621786414"><ele>103.0</ele><time>2026-03-24T16:17:46Z</time></trkpt><trkpt lat="42.06862165836734" lon="11.953059211895921"><ele>103.0</ele><time>2026-03-24T16:17:47Z</time></trkpt><trkpt lat="42.06859076845258" lon="11.952922792448394"><ele>103.0</ele><time>2026-03-24T16:17:47.999Z</time></trkpt><trkpt lat="42.06857986307926" lon="11.95278042477581"><ele>103.0</ele><time>2026-03-24T16:17:48.999Z</time></trkpt><trkpt lat="42.06857661278558" lon="11.952639719231948"><ele>103.0</ele><time>2026-03-24T16:17:49.999Z</time></trkpt><trkpt lat="42.06857170113161" lon="11.952508423914812"><ele>103.0</ele><time>2026-03-24T16:17:50.999Z</time></trkpt><trkpt lat="42.06854859872799" lon="11.952376764990586"><ele>104.2</ele><time>2026-03-24T16:17:51.999Z</time></trkpt><trkpt lat="42.06850024261399" lon="11.952247514571347"><ele>105.4</ele><time>2026-03-24T16:17:52.999Z</time></trkpt><trkpt lat="42.06843714161696" lon="11.952127086840783"><ele>106.60000000000001</ele><time>2026-03-24T16:17:53.999Z</time></trkpt><trkpt lat="42.068365997188344" lon="11.95201009414042"><ele>107.80000000000001</ele><time>2026-03-24T16:17:54.999Z</time></trkpt><trkpt lat="42.06828234109785" lon="11.95191064000774"><ele>109.0</ele><time>2026-03-24T16:17:55.999Z</time></trkpt><trkpt lat="42.0681820417576" lon="11.951847571996693"><ele>106.0</ele><time>2026-03-24T16:17:56.999Z</time></trkpt><trkpt lat="42.06807185266632" lon="11.951812396420332"><ele>103.0</ele><time>2026-03-24T16:17:57.999Z</time></trkpt><trkpt lat="42.06795089504341" lon="11.951805649102443"><ele>100.0</ele><time>2026-03-24T16:17:58.999Z</time></trkpt><trkpt lat="42.067822866250985" lon="11.95180359074838"><ele>97.0</ele><time>2026-03-24T16:17:59.999Z</time></trkpt><trkpt lat="42.067687455515546" lon="11.951798146988478"><ele>97.0</ele><time>2026-03-24T16:18:00.999Z</time></trkpt><trkpt lat="42.06754720636371" lon="11.951787639273903"><ele>97.0</ele><time>2026-03-24T16:18:01.999Z</time></trkpt><trkpt lat="42.06740107192855" lon="11.951779378412237"><ele>97.0</ele><time>2026-03-24T16:18:02.999Z</time></trkpt><trkpt lat="42.067250557708284" lon="11.951771727500414"><ele>97.0</ele><time>2026-03-24T16:18:03.999Z</time></trkpt><trkpt lat="42.06709998303565" lon="11.951764407428353"><ele>94.0</ele><time>2026-03-24T16:18:04.999Z</time></trkpt><trkpt lat="42.0669495435295" lon="11.951757352517129"><ele>91.0</ele><time>2026-03-24T16:18:05.999Z</time></trkpt><trkpt lat="42.06679875874089" lon="11.951750725699863"><ele>88.0</ele><time>2026-03-24T16:18:06.999Z</time></trkpt><trkpt lat="42.06665220745746" lon="11.951745026284566"><ele>85.0</ele><time>2026-03-24T16:18:07.999Z</time></trkpt><trkpt lat="42.066511691569815" lon="11.951738715914955"><ele>85.25</ele><time>2026-03-24T16:18:08.999Z</time></trkpt><trkpt lat="42.06638229226521" lon="11.95172746419674"><ele>85.5</ele><time>2026-03-24T16:18:09.999Z</time></trkpt><trkpt lat="42.06626578113111" lon="11.951702942034801"><ele>85.75</ele><time>2026-03-24T16:18:10.999Z</time></trkpt><trkpt lat="42.066165497856126" lon="11.951649923328711"><ele>86.0</ele><time>2026-03-24T16:18:11.999Z</time></trkpt><trkpt lat="42.06607062806806" lon="11.951567969650016"><ele>86.0</ele><time>2026-03-24T16:18:12.999Z</time></trkpt><trkpt lat="42.065987633224985" lon="11.95145630916188"><ele>86.0</ele><time>2026-03-24T16:18:13.999Z</time></trkpt><trkpt lat="42.06591219833118" lon="11.951331162922946"><ele>86.0</ele><time>2026-03-24T16:18:14.999Z</time></trkpt><trkpt lat="42.06583119820623" lon="11.951199397385077"><ele>86.0</ele><time>2026-03-24T16:18:15.999Z</time></trkpt><trkpt lat="42.06575348929673" lon="11.95107907034113"><ele>86.4</ele><time>2026-03-24T16:18:16.999Z</time></trkpt><trkpt lat="42.065674059821035" lon="11.950974562013782"><ele>86.8</ele><time>2026-03-24T16:18:17.999Z</time></trkpt><trkpt lat="42.06558733451925" lon="11.95089169678064"><ele>87.2</ele><time>2026-03-24T16:18:18.999Z</time></trkpt><trkpt lat="42.06548402390733" lon="11.95083958072003"><ele>87.60000000000001</ele><time>2026-03-24T16:18:19.999Z</time></trkpt><trkpt lat="42.0653726940027" lon="11.950817584867107"><ele>88.0</ele><time>2026-03-24T16:18:20.999Z</time></trkpt><trkpt lat="42.065254571900816" lon="11.950817542122314"><ele>88.0</ele><time>2026-03-24T16:18:21.999Z</time></trkpt><trkpt lat="42.06513344898351" lon="11.950826610698241"><ele>88.0</ele><time>2026-03-24T16:18:22.999Z</time></trkpt><trkpt lat="42.06501145334217" lon="11.95084591158258"><ele>88.0</ele><time>2026-03-24T16:18:23.999Z</time></trkpt><trkpt lat="42.06488718336152" lon="11.95085987460344"><ele>88.0</ele><time>2026-03-24T16:18:24.999Z</time></trkpt><trkpt lat="42.064756479741106" lon="11.950874078398556"><ele>86.25</ele><time>2026-03-24T16:18:25.999Z</time></trkpt><trkpt lat="42.06462148407625" lon="11.950884718841742"><ele>84.5</ele><time>2026-03-24T16:18:26.999Z</time></trkpt><trkpt lat="42.06448401950572" lon="11.95087797748903"><ele>82.75</ele><time>2026-03-24T16:18:27.999Z</time></trkpt><trkpt lat="42.064344702801826" lon="11.950849243789863"><ele>81.0</ele><time>2026-03-24T16:18:28.999Z</time></trkpt><trkpt lat="42.0642060156114" lon="11.950806316812589"><ele>80.25</ele><time>2026-03-24T16:18:29.999Z</time></trkpt><trkpt lat="42.06406642264684" lon="11.950760155928373"><ele>79.5</ele><time>2026-03-24T16:18:30.999Z</time></trkpt><trkpt lat="42.06392895257389" lon="11.950711809475873"><ele>78.75</ele><time>2026-03-24T16:18:31.999Z</time></trkpt><trkpt lat="42.0637969560579" lon="11.950660857994212"><ele>78.0</ele><time>2026-03-24T16:18:32.999Z</time></trkpt><trkpt lat="42.063671783189136" lon="11.950596797273507"><ele>78.0</ele><time>2026-03-24T16:18:33.999Z</time></trkpt><trkpt lat="42.063553981730514" lon="11.950524844815849"><ele>78.0</ele><time>2026-03-24T16:18:34.999Z</time></trkpt><trkpt lat="42.06344569472374" lon="11.950461122797652"><ele>78.0</ele><time>2026-03-24T16:18:35.999Z</time></trkpt><trkpt lat="42.06334452989089" lon="11.950413407574274"><ele>78.0</ele><time>2026-03-24T16:18:36.999Z</time></trkpt><trkpt lat="42.06324159365208" lon="11.950388456656407"><ele>78.0</ele><time>2026-03-24T16:18:37.999Z</time></trkpt><trkpt lat="42.063141320349395" lon="11.950395843429494"><ele>78.0</ele><time>2026-03-24T16:18:38.999Z</time></trkpt><trkpt lat="42.0630467895643" lon="11.950434979538066"><ele>78.0</ele><time>2026-03-24T16:18:39.999Z</time></trkpt><trkpt lat="42.06296362753875" lon="11.950502424495035"><ele>78.0</ele><time>2026-03-24T16:18:40.999Z</time></trkpt><trkpt lat="42.06288337841265" lon="11.950586612340151"><ele>78.0</ele><time>2026-03-24T16:18:41.999Z</time></trkpt><trkpt lat="42.062800654611216" lon="11.950664501882736"><ele>78.0</ele><time>2026-03-24T16:18:42.999Z</time></trkpt><trkpt lat="42.06271111405255" lon="11.950720397990064"><ele>78.0</ele><time>2026-03-24T16:18:43.999Z</time></trkpt><trkpt lat="42.06261145687061" lon="11.950754402926636"><ele>78.0</ele><time>2026-03-24T16:18:44.999Z</time></trkpt><trkpt lat="42.06251051202359" lon="11.950764659090867"><ele>78.0</ele><time>2026-03-24T16:18:45.999Z</time></trkpt><trkpt lat="42.06241428610831" lon="11.950743003876756"><ele>78.0</ele><time>2026-03-24T16:18:46.999Z</time></trkpt><trkpt lat="42.06232139950396" lon="11.95068878458366"><ele>77.0</ele><time>2026-03-24T16:18:47.999Z</time></trkpt><trkpt lat="42.06222783949753" lon="11.950617354743272"><ele>76.0</ele><time>2026-03-24T16:18:48.999Z</time></trkpt><trkpt lat="42.06213534372823" lon="11.95053448902388"><ele>75.0</ele><time>2026-03-24T16:18:49.999Z</time></trkpt><trkpt lat="42.06204468922512" lon="11.950454319160201"><ele>74.0</ele><time>2026-03-24T16:18:50.999Z</time></trkpt><trkpt lat="42.06194824644725" lon="11.950383832617987"><ele>73.0</ele><time>2026-03-24T16:18:51.999Z</time></trkpt><trkpt lat="42.061843207210956" lon="11.950347514436874"><ele>73.0</ele><time>2026-03-24T16:18:52.999Z</time></trkpt><trkpt lat="42.0617380042105" lon="11.95034637846481"><ele>73.0</ele><time>2026-03-24T16:18:53.999Z</time></trkpt><trkpt lat="42.06162954646005" lon="11.950373880455116"><ele>73.0</ele><time>2026-03-24T16:18:54.999Z</time></trkpt><trkpt lat="42.06151995551826" lon="11.95041050137557"><ele>73.0</ele><time>2026-03-24T16:18:55.999Z</time></trkpt><trkpt lat="42.06141109499466" lon="11.950445769374973"><ele>73.0</ele><time>2026-03-24T16:18:56.999Z</time></trkpt><trkpt lat="42.06130060780171" lon="11.950478705192047"><ele>72.0</ele><time>2026-03-24T16:18:57.999Z</time></trkpt><trkpt lat="42.06119299619352" lon="11.95051198005977"><ele>71.0</ele><time>2026-03-24T16:18:58.999Z</time></trkpt><trkpt lat="42.06108860120456" lon="11.950542767388558"><ele>70.0</ele><time>2026-03-24T16:18:59.999Z</time></trkpt><trkpt lat="42.060992159913795" lon="11.950558625779903"><ele>69.0</ele><time>2026-03-24T16:19:00.999Z</time></trkpt><trkpt lat="42.060897442557746" lon="11.950545654885959"><ele>68.0</ele><time>2026-03-24T16:19:01.999Z</time></trkpt><trkpt lat="42.060804587807134" lon="11.950498662585515"><ele>66.2</ele><time>2026-03-24T16:19:02.999Z</time></trkpt><trkpt lat="42.060719818773926" lon="11.95041788995812"><ele>64.4</ele><time>2026-03-24T16:19:03.999Z</time></trkpt><trkpt lat="42.06063518996844" lon="11.950320763932547"><ele>62.60000000000001</ele><time>2026-03-24T16:19:04.999Z</time></trkpt><trkpt lat="42.060555990509506" lon="11.950217354598939"><ele>60.800000000000004</ele><time>2026-03-24T16:19:05.999Z</time></trkpt><trkpt lat="42.060493707855166" lon="11.950103930964042"><ele>59.0</ele><time>2026-03-24T16:19:06.999Z</time></trkpt><trkpt lat="42.0604541521348" lon="11.949978552670267"><ele>59.0</ele><time>2026-03-24T16:19:07.999Z</time></trkpt><trkpt lat="42.06043795729866" lon="11.949838192755465"><ele>59.00000000000001</ele><time>2026-03-24T16:19:08.999Z</time></trkpt><trkpt lat="42.06044235620241" lon="11.949683653819838"><ele>59.00000000000001</ele><time>2026-03-24T16:19:09.999Z</time></trkpt><trkpt lat="42.06044239374757" lon="11.949525546107859"><ele>59.0</ele><time>2026-03-24T16:19:10.999Z</time></trkpt><trkpt lat="42.06043714249625" lon="11.949379986719125"><ele>59.0</ele><time>2026-03-24T16:19:11.998Z</time></trkpt><trkpt lat="42.06040780735746" lon="11.949241585616033"><ele>60.5</ele><time>2026-03-24T16:19:12.998Z</time></trkpt><trkpt lat="42.06036106232307" lon="11.949109044463842"><ele>62.0</ele><time>2026-03-24T16:19:13.999Z</time></trkpt><trkpt lat="42.06030306847483" lon="11.94897598434306"><ele>63.5</ele><time>2026-03-24T16:19:14.999Z</time></trkpt><trkpt lat="42.06023599883449" lon="11.948841095750963"><ele>65.0</ele><time>2026-03-24T16:19:15.999Z</time></trkpt><trkpt lat="42.06016641361822" lon="11.948699353065734"><ele>65.0</ele><time>2026-03-24T16:19:16.999Z</time></trkpt><trkpt lat="42.06009751651355" lon="11.948558948493021"><ele>65.0</ele><time>2026-03-24T16:19:17.999Z</time></trkpt><trkpt lat="42.0600327195906" lon="11.948424564566446"><ele>65.0</ele><time>2026-03-24T16:19:18.999Z</time></trkpt><trkpt lat="42.05996967198539" lon="11.948287037551449"><ele>65.0</ele><time>2026-03-24T16:19:19.999Z</time></trkpt><trkpt lat="42.05991077152211" lon="11.948149959174112"><ele>62.6</ele><time>2026-03-24T16:19:20.999Z</time></trkpt><trkpt lat="42.059859265215266" lon="11.948011535294421"><ele>60.2</ele><time>2026-03-24T16:19:21.999Z</time></trkpt><trkpt lat="42.059818438117624" lon="11.947873824062201"><ele>57.8</ele><time>2026-03-24T16:19:22.999Z</time></trkpt><trkpt lat="42.059806056392624" lon="11.947740328838654"><ele>55.4</ele><time>2026-03-24T16:19:23.999Z</time></trkpt><trkpt lat="42.05982362456326" lon="11.947605452158635"><ele>53.0</ele><time>2026-03-24T16:19:24.999Z</time></trkpt><trkpt lat="42.059844418853" lon="11.94746565062224"><ele>53.0</ele><time>2026-03-24T16:19:25.999Z</time></trkpt><trkpt lat="42.05986095791988" lon="11.947315886899302"><ele>53.0</ele><time>2026-03-24T16:19:26.999Z</time></trkpt><trkpt lat="42.059870705456355" lon="11.947165784460818"><ele>53.0</ele><time>2026-03-24T16:19:27.999Z</time></trkpt><trkpt lat="42.05986102319369" lon="11.94701211578817"><ele>53.0</ele><time>2026-03-24T16:19:28.999Z</time></trkpt><trkpt lat="42.059828456453815" lon="11.94685511172323"><ele>52.75</ele><time>2026-03-24T16:19:29.999Z</time></trkpt><trkpt lat="42.05978285728763" lon="11.946698545656124"><ele>52.5</ele><time>2026-03-24T16:19:30.999Z</time></trkpt><trkpt lat="42.05974057009624" lon="11.946539454202297"><ele>52.25</ele><time>2026-03-24T16:19:31.999Z</time></trkpt><trkpt lat="42.05970099596551" lon="11.946378046942527"><ele>52.0</ele><time>2026-03-24T16:19:32.999Z</time></trkpt><trkpt lat="42.059684667609105" lon="11.946202833258072"><ele>52.0</ele><time>2026-03-24T16:19:33.999Z</time></trkpt><trkpt lat="42.05967679489556" lon="11.94601752632094"><ele>52.0</ele><time>2026-03-24T16:19:34.999Z</time></trkpt><trkpt lat="42.05966695396989" lon="11.945821657865796"><ele>52.0</ele><time>2026-03-24T16:19:35.999Z</time></trkpt><trkpt lat="42.05965533760451" lon="11.945614622568383"><ele>52.0</ele><time>2026-03-24T16:19:36.999Z</time></trkpt><trkpt lat="42.05964369091309" lon="11.945403659839567"><ele>51.666666666666664</ele><time>2026-03-24T16:19:37.999Z</time></trkpt><trkpt lat="42.05962833095739" lon="11.945187960914867"><ele>51.33333333333333</ele><time>2026-03-24T16:19:38.999Z</time></trkpt><trkpt lat="42.05960987377429" lon="11.94497560544285"><ele>51.0</ele><time>2026-03-24T16:19:39.999Z</time></trkpt><trkpt lat="42.059585427202435" lon="11.944768581942688"><ele>50.0</ele><time>2026-03-24T16:19:40.999Z</time></trkpt><trkpt lat="42.05955907660223" lon="11.944562886168502"><ele>49.0</ele><time>2026-03-24T16:19:41.999Z</time></trkpt><trkpt lat="42.05952899191206" lon="11.944359486954284"><ele>48.0</ele><time>2026-03-24T16:19:42.999Z</time></trkpt><trkpt lat="42.059501717183366" lon="11.944156550210632"><ele>47.333333333333336</ele><time>2026-03-24T16:19:43.999Z</time></trkpt><trkpt lat="42.059479198296984" lon="11.943955583646957"><ele>46.66666666666667</ele><time>2026-03-24T16:19:44.999Z</time></trkpt><trkpt lat="42.05945864212535" lon="11.943756330397138"><ele>46.0</ele><time>2026-03-24T16:19:45.999Z</time></trkpt><trkpt lat="42.059434991612264" lon="11.9435565829781"><ele>45.5</ele><time>2026-03-24T16:19:46.999Z</time></trkpt><trkpt lat="42.05940899895799" lon="11.94335568350474"><ele>45.0</ele><time>2026-03-24T16:19:47.999Z</time></trkpt><trkpt lat="42.05937561763777" lon="11.943161301874962"><ele>44.5</ele><time>2026-03-24T16:19:48.999Z</time></trkpt><trkpt lat="42.059339038425286" lon="11.942970272175511"><ele>44.0</ele><time>2026-03-24T16:19:49.999Z</time></trkpt><trkpt lat="42.05930175546358" lon="11.942777136077392"><ele>44.0</ele><time>2026-03-24T16:19:50.999Z</time></trkpt><trkpt lat="42.05926943674747" lon="11.942597078590813"><ele>44.0</ele><time>2026-03-24T16:19:51.999Z</time></trkpt><trkpt lat="42.059229586248414" lon="11.942425506957736"><ele>44.0</ele><time>2026-03-24T16:19:52.999Z</time></trkpt><trkpt lat="42.0591905435053" lon="11.942254288875812"><ele>44.0</ele><time>2026-03-24T16:19:53.999Z</time></trkpt><trkpt lat="42.05914195306185" lon="11.942092152268907"><ele>42.800000000000004</ele><time>2026-03-24T16:19:54.999Z</time></trkpt><trkpt lat="42.0590900364239" lon="11.941953734896787"><ele>41.6</ele><time>2026-03-24T16:19:55.999Z</time></trkpt><trkpt lat="42.059037789603956" lon="11.941838607411505"><ele>40.4</ele><time>2026-03-24T16:19:56.999Z</time></trkpt><trkpt lat="42.05897548731283" lon="11.941743667067351"><ele>39.2</ele><time>2026-03-24T16:19:57.999Z</time></trkpt><trkpt lat="42.05890169618559" lon="11.941676961112552"><ele>38.0</ele><time>2026-03-24T16:19:58.999Z</time></trkpt><trkpt lat="42.05881528183242" lon="11.941638696486805"><ele>38.0</ele><time>2026-03-24T16:19:59.999Z</time></trkpt><trkpt lat="42.05871852225125" lon="11.941634446505468"><ele>38.0</ele><time>2026-03-24T16:20:00.999Z</time></trkpt><trkpt lat="42.05862111182728" lon="11.941666006752287"><ele>38.0</ele><time>2026-03-24T16:20:01.999Z</time></trkpt><trkpt lat="42.05852591658227" lon="11.941728867130555"><ele>38.0</ele><time>2026-03-24T16:20:02.999Z</time></trkpt><trkpt lat="42.05844787196621" lon="11.94182004863286"><ele>38.0</ele><time>2026-03-24T16:20:03.999Z</time></trkpt><trkpt lat="42.058380057321955" lon="11.941919399759177"><ele>38.0</ele><time>2026-03-24T16:20:04.999Z</time></trkpt><trkpt lat="42.05831492362916" lon="11.942015110627475"><ele>38.0</ele><time>2026-03-24T16:20:05.999Z</time></trkpt><trkpt lat="42.05824814661613" lon="11.942104651411597"><ele>38.0</ele><time>2026-03-24T16:20:06.999Z</time></trkpt><trkpt lat="42.05817603619042" lon="11.942184257302953"><ele>38.0</ele><time>2026-03-24T16:20:07.999Z</time></trkpt><trkpt lat="42.058093048306596" lon="11.942239076443654"><ele>38.0</ele><time>2026-03-24T16:20:08.999Z</time></trkpt><trkpt lat="42.05799423371476" lon="11.942267831843061"><ele>39.2</ele><time>2026-03-24T16:20:09.999Z</time></trkpt><trkpt lat="42.057893549538015" lon="11.942272088183865"><ele>40.4</ele><time>2026-03-24T16:20:10.999Z</time></trkpt><trkpt lat="42.05779582181846" lon="11.942242059977174"><ele>41.6</ele><time>2026-03-24T16:20:11.999Z</time></trkpt><trkpt lat="42.057700268914445" lon="11.942183860948997"><ele>42.800000000000004</ele><time>2026-03-24T16:20:12.999Z</time></trkpt><trkpt lat="42.05760290131037" lon="11.9421083276984"><ele>44.0</ele><time>2026-03-24T16:20:13.999Z</time></trkpt><trkpt lat="42.05749887910138" lon="11.9420317932573"><ele>44.5</ele><time>2026-03-24T16:20:14.999Z</time></trkpt><trkpt lat="42.057387306516155" lon="11.941957632440426"><ele>45.0</ele><time>2026-03-24T16:20:15.999Z</time></trkpt><trkpt lat="42.05727518091956" lon="11.941881297879892"><ele>45.5</ele><time>2026-03-24T16:20:16.999Z</time></trkpt><trkpt lat="42.05716496493001" lon="11.941799585840922"><ele>46.0</ele><time>2026-03-24T16:20:17.999Z</time></trkpt><trkpt lat="42.05705594215551" lon="11.94170693650313"><ele>46.0</ele><time>2026-03-24T16:20:18.999Z</time></trkpt><trkpt lat="42.05694762983384" lon="11.941605180521472"><ele>46.0</ele><time>2026-03-24T16:20:19.999Z</time></trkpt><trkpt lat="42.056843405441526" lon="11.941496647514136"><ele>46.0</ele><time>2026-03-24T16:20:20.999Z</time></trkpt><trkpt lat="42.05673768087726" lon="11.94138767672761"><ele>46.0</ele><time>2026-03-24T16:20:21.999Z</time></trkpt><trkpt lat="42.05663239330481" lon="11.941275627026558"><ele>48.0</ele><time>2026-03-24T16:20:22.999Z</time></trkpt><trkpt lat="42.05653079494681" lon="11.941164584436452"><ele>50.0</ele><time>2026-03-24T16:20:23.999Z</time></trkpt><trkpt lat="42.05642954442224" lon="11.94106347899709"><ele>52.0</ele><time>2026-03-24T16:20:24.999Z</time></trkpt><trkpt lat="42.05632691175327" lon="11.940960337156884"><ele>54.0</ele><time>2026-03-24T16:20:25.999Z</time></trkpt><trkpt lat="42.05623081546367" lon="11.940843158952065"><ele>54.0</ele><time>2026-03-24T16:20:26.999Z</time></trkpt><trkpt lat="42.05614335188281" lon="11.940715233466499"><ele>54.0</ele><time>2026-03-24T16:20:27.999Z</time></trkpt><trkpt lat="42.056068853063" lon="11.940565351761823"><ele>54.0</ele><time>2026-03-24T16:20:28.999Z</time></trkpt><trkpt lat="42.05600659561323" lon="11.940411044111192"><ele>54.0</ele><time>2026-03-24T16:20:29.999Z</time></trkpt><trkpt lat="42.05594337329393" lon="11.940248761879987"><ele>54.0</ele><time>2026-03-24T16:20:30.999Z</time></trkpt><trkpt lat="42.05588416529137" lon="11.940082667304871"><ele>54.0</ele><time>2026-03-24T16:20:31.999Z</time></trkpt><trkpt lat="42.055823568872356" lon="11.939909461921324"><ele>54.0</ele><time>2026-03-24T16:20:32.999Z</time></trkpt><trkpt lat="42.0557609714214" lon="11.939733097906062"><ele>54.0</ele><time>2026-03-24T16:20:33.999Z</time></trkpt><trkpt lat="42.0556992843692" lon="11.939561414326983"><ele>54.75</ele><time>2026-03-24T16:20:34.999Z</time></trkpt><trkpt lat="42.05563947674103" lon="11.939390118816965"><ele>55.5</ele><time>2026-03-24T16:20:35.999Z</time></trkpt><trkpt lat="42.055582307796534" lon="11.939226049685331"><ele>56.25</ele><time>2026-03-24T16:20:36.999Z</time></trkpt><trkpt lat="42.05552612269163" lon="11.939073212652508"><ele>57.0</ele><time>2026-03-24T16:20:37.999Z</time></trkpt><trkpt lat="42.05547813133478" lon="11.938935567967043"><ele>55.8</ele><time>2026-03-24T16:20:38.999Z</time></trkpt><trkpt lat="42.055435075288685" lon="11.938811404881598"><ele>54.6</ele><time>2026-03-24T16:20:39.999Z</time></trkpt><trkpt lat="42.055386784947636" lon="11.938704070807995"><ele>53.4</ele><time>2026-03-24T16:20:40.999Z</time></trkpt><trkpt lat="42.05532082526256" lon="11.938617446742981"><ele>52.199999999999996</ele><time>2026-03-24T16:20:41.999Z</time></trkpt><trkpt lat="42.05523629392737" lon="11.938557885785427"><ele>51.0</ele><time>2026-03-24T16:20:42.999Z</time></trkpt><trkpt lat="42.055139942251046" lon="11.938526742472263"><ele>51.0</ele><time>2026-03-24T16:20:43.999Z</time></trkpt><trkpt lat="42.05503751380416" lon="11.93850659903911"><ele>51.0</ele><time>2026-03-24T16:20:44.999Z</time></trkpt><trkpt lat="42.054938377380985" lon="11.93848800803902"><ele>51.0</ele><time>2026-03-24T16:20:45.999Z</time></trkpt><trkpt lat="42.054840782399964" lon="11.938466950175009"><ele>51.0</ele><time>2026-03-24T16:20:46.999Z</time></trkpt><trkpt lat="42.05474666097209" lon="11.938447445858678"><ele>51.0</ele><time>2026-03-24T16:20:47.999Z</time></trkpt><trkpt lat="42.05465009762114" lon="11.938425898373401"><ele>52.8</ele><time>2026-03-24T16:20:48.999Z</time></trkpt><trkpt lat="42.05455128519305" lon="11.938405859245274"><ele>54.599999999999994</ele><time>2026-03-24T16:20:49.999Z</time></trkpt><trkpt lat="42.054446724635376" lon="11.93838370804036"><ele>56.4</ele><time>2026-03-24T16:20:50.999Z</time></trkpt><trkpt lat="42.054343827067946" lon="11.938363352938413"><ele>58.2</ele><time>2026-03-24T16:20:51.999Z</time></trkpt><trkpt lat="42.054238715596966" lon="11.938334442957945"><ele>60.0</ele><time>2026-03-24T16:20:52.999Z</time></trkpt><trkpt lat="42.05413707216162" lon="11.938307418546504"><ele>57.8</ele><time>2026-03-24T16:20:53.999Z</time></trkpt><trkpt lat="42.05403331406139" lon="11.93827783974033"><ele>55.6</ele><time>2026-03-24T16:20:54.999Z</time></trkpt><trkpt lat="42.05393188860532" lon="11.938238818892884"><ele>53.400000000000006</ele><time>2026-03-24T16:20:55.999Z</time></trkpt><trkpt lat="42.053834766739215" lon="11.938171164451154"><ele>51.2</ele><time>2026-03-24T16:20:56.999Z</time></trkpt><trkpt lat="42.05373724312183" lon="11.938079158446715"><ele>49.0</ele><time>2026-03-24T16:20:57.999Z</time></trkpt><trkpt lat="42.053636437302536" lon="11.937984198934265"><ele>49.0</ele><time>2026-03-24T16:20:58.999Z</time></trkpt><trkpt lat="42.05353481644143" lon="11.937895570631921"><ele>49.0</ele><time>2026-03-24T16:20:59.999Z</time></trkpt><trkpt lat="42.053430805022664" lon="11.937798600719837"><ele>49.0</ele><time>2026-03-24T16:21:00.999Z</time></trkpt><trkpt lat="42.0533174386502" lon="11.937704866285534"><ele>49.0</ele><time>2026-03-24T16:21:01.999Z</time></trkpt><trkpt lat="42.053193133095235" lon="11.937617781383993"><ele>48.5</ele><time>2026-03-24T16:21:02.999Z</time></trkpt><trkpt lat="42.05305923301167" lon="11.937547915977161"><ele>48.0</ele><time>2026-03-24T16:21:03.999Z</time></trkpt><trkpt lat="42.05291232949788" lon="11.937480156349585"><ele>47.5</ele><time>2026-03-24T16:21:04.999Z</time></trkpt><trkpt lat="42.052772728387964" lon="11.937410114701162"><ele>47.0</ele><time>2026-03-24T16:21:05.999Z</time></trkpt><trkpt lat="42.05264816522221" lon="11.937329278572502"><ele>47.0</ele><time>2026-03-24T16:21:06.999Z</time></trkpt><trkpt lat="42.05253561094843" lon="11.937227565695713"><ele>47.0</ele><time>2026-03-24T16:21:07.999Z</time></trkpt><trkpt lat="42.05243125001634" lon="11.937093316678757"><ele>47.0</ele><time>2026-03-24T16:21:08.999Z</time></trkpt><trkpt lat="42.05231901267507" lon="11.936956630667032"><ele>47.0</ele><time>2026-03-24T16:21:09.999Z</time></trkpt><trkpt lat="42.05219800061299" lon="11.936823636842062"><ele>45.33333333333333</ele><time>2026-03-24T16:21:10.998Z</time></trkpt><trkpt lat="42.05207681156774" lon="11.936691709482949"><ele>43.666666666666664</ele><time>2026-03-24T16:21:11.998Z</time></trkpt><trkpt lat="42.051954161791876" lon="11.936554770482024"><ele>42.0</ele><time>2026-03-24T16:21:12.998Z</time></trkpt><trkpt lat="42.05183523946829" lon="11.936425899031184"><ele>42.0</ele><time>2026-03-24T16:21:13.998Z</time></trkpt><trkpt lat="42.051714798851535" lon="11.93629633677814"><ele>42.0</ele><time>2026-03-24T16:21:14.998Z</time></trkpt><trkpt lat="42.05159219198021" lon="11.936168875214484"><ele>42.0</ele><time>2026-03-24T16:21:15.998Z</time></trkpt><trkpt lat="42.05147118962732" lon="11.936038516936303"><ele>41.666666666666664</ele><time>2026-03-24T16:21:16.998Z</time></trkpt><trkpt lat="42.05134376109697" lon="11.935915502127582"><ele>41.33333333333333</ele><time>2026-03-24T16:21:17.998Z</time></trkpt><trkpt lat="42.05122261074586" lon="11.935790326708036"><ele>41.0</ele><time>2026-03-24T16:21:18.998Z</time></trkpt><trkpt lat="42.05110683478614" lon="11.935672594630866"><ele>41.0</ele><time>2026-03-24T16:21:19.999Z</time></trkpt><trkpt lat="42.051000175237924" lon="11.935569853744532"><ele>41.0</ele><time>2026-03-24T16:21:20.999Z</time></trkpt><trkpt lat="42.050889308745" lon="11.93546979508076"><ele>41.0</ele><time>2026-03-24T16:21:21.999Z</time></trkpt><trkpt lat="42.05078017591863" lon="11.93539859729916"><ele>41.0</ele><time>2026-03-24T16:21:22.999Z</time></trkpt><trkpt lat="42.05065859412271" lon="11.935356162715705"><ele>40.5</ele><time>2026-03-24T16:21:23.999Z</time></trkpt><trkpt lat="42.05052658862842" lon="11.935345821974405"><ele>40.0</ele><time>2026-03-24T16:21:24.999Z</time></trkpt><trkpt lat="42.050383899649916" lon="11.93535338241286"><ele>39.5</ele><time>2026-03-24T16:21:25.999Z</time></trkpt><trkpt lat="42.050231502704015" lon="11.93536714229468"><ele>39.0</ele><time>2026-03-24T16:21:26.999Z</time></trkpt><trkpt lat="42.05007667241054" lon="11.935378911299555"><ele>39.333333333333336</ele><time>2026-03-24T16:21:27.999Z</time></trkpt><trkpt lat="42.04991883925776" lon="11.935385570745945"><ele>39.66666666666667</ele><time>2026-03-24T16:21:28.999Z</time></trkpt><trkpt lat="42.04976011083228" lon="11.935393667139635"><ele>40.0</ele><time>2026-03-24T16:21:29.999Z</time></trkpt><trkpt lat="42.04959614272508" lon="11.935403831528628"><ele>40.0</ele><time>2026-03-24T16:21:30.999Z</time></trkpt><trkpt lat="42.049429823118075" lon="11.935409729887674"><ele>40.0</ele><time>2026-03-24T16:21:31.999Z</time></trkpt><trkpt lat="42.04926835146045" lon="11.935416454915735"><ele>40.0</ele><time>2026-03-24T16:21:32.999Z</time></trkpt><trkpt lat="42.04911205785108" lon="11.93544300559126"><ele>37.333333333333336</ele><time>2026-03-24T16:21:33.999Z</time></trkpt><trkpt lat="42.04895525047629" lon="11.93549474130752"><ele>34.666666666666664</ele><time>2026-03-24T16:21:34.999Z</time></trkpt><trkpt lat="42.04880378264851" lon="11.93556711036033"><ele>32.0</ele><time>2026-03-24T16:21:35.999Z</time></trkpt><trkpt lat="42.048638731833215" lon="11.935628866954268"><ele>32.0</ele><time>2026-03-24T16:21:36.999Z</time></trkpt><trkpt lat="42.04847574976942" lon="11.93568713400035"><ele>32.0</ele><time>2026-03-24T16:21:37.999Z</time></trkpt><trkpt lat="42.04831474922687" lon="11.935743191225216"><ele>32.0</ele><time>2026-03-24T16:21:38.999Z</time></trkpt><trkpt lat="42.048147079141344" lon="11.935796143259171"><ele>30.333333333333332</ele><time>2026-03-24T16:21:39.999Z</time></trkpt><trkpt lat="42.047973755350995" lon="11.93584423794311"><ele>28.666666666666664</ele><time>2026-03-24T16:21:40.999Z</time></trkpt><trkpt lat="42.047798452311184" lon="11.935898856353521"><ele>27.0</ele><time>2026-03-24T16:21:41.999Z</time></trkpt><trkpt lat="42.04761901299952" lon="11.935952921834405"><ele>29.333333333333336</ele><time>2026-03-24T16:21:42.999Z</time></trkpt><trkpt lat="42.04744500678738" lon="11.936004342768241"><ele>31.666666666666668</ele><time>2026-03-24T16:21:43.999Z</time></trkpt><trkpt lat="42.047267623065245" lon="11.936054656859374"><ele>34.0</ele><time>2026-03-24T16:21:44.999Z</time></trkpt><trkpt lat="42.04708823465838" lon="11.936105695342965"><ele>34.0</ele><time>2026-03-24T16:21:45.999Z</time></trkpt><trkpt lat="42.04690953260654" lon="11.936159973416723"><ele>34.0</ele><time>2026-03-24T16:21:46.999Z</time></trkpt><trkpt lat="42.04672916170327" lon="11.936212254716514"><ele>34.0</ele><time>2026-03-24T16:21:47.999Z</time></trkpt><trkpt lat="42.046544840801005" lon="11.936265947530135"><ele>31.333333333333336</ele><time>2026-03-24T16:21:48.999Z</time></trkpt><trkpt lat="42.04636847483588" lon="11.936316656313814"><ele>28.666666666666664</ele><time>2026-03-24T16:21:49.999Z</time></trkpt><trkpt lat="42.046197802688894" lon="11.936367908911961"><ele>26.0</ele><time>2026-03-24T16:21:50.999Z</time></trkpt><trkpt lat="42.046030466304394" lon="11.936418020702325"><ele>26.0</ele><time>2026-03-24T16:21:51.999Z</time></trkpt><trkpt lat="42.04586501562385" lon="11.936470726039556"><ele>26.0</ele><time>2026-03-24T16:21:52.999Z</time></trkpt><trkpt lat="42.04570220482778" lon="11.936518941234082"><ele>26.0</ele><time>2026-03-24T16:21:53.999Z</time></trkpt><trkpt lat="42.04553809331304" lon="11.936566229948793"><ele>24.666666666666664</ele><time>2026-03-24T16:21:54.999Z</time></trkpt><trkpt lat="42.04537264383781" lon="11.936614431905534"><ele>23.333333333333332</ele><time>2026-03-24T16:21:55.999Z</time></trkpt><trkpt lat="42.045203397754264" lon="11.936664113380724"><ele>22.0</ele><time>2026-03-24T16:21:56.999Z</time></trkpt><trkpt lat="42.04503611067035" lon="11.936715178310372"><ele>23.666666666666664</ele><time>2026-03-24T16:21:57.999Z</time></trkpt><trkpt lat="42.04487004240304" lon="11.936765561249432"><ele>25.333333333333332</ele><time>2026-03-24T16:21:58.999Z</time></trkpt><trkpt lat="42.044701135585626" lon="11.936815349282925"><ele>27.0</ele><time>2026-03-24T16:21:59.999Z</time></trkpt><trkpt lat="42.04453271664947" lon="11.936862373681087"><ele>27.0</ele><time>2026-03-24T16:22:00.999Z</time></trkpt><trkpt lat="42.04436566820621" lon="11.936910854092224"><ele>27.0</ele><time>2026-03-24T16:22:01.999Z</time></trkpt><trkpt lat="42.04420080983428" lon="11.936958904883069"><ele>27.0</ele><time>2026-03-24T16:22:02.999Z</time></trkpt><trkpt lat="42.044040688890796" lon="11.937010008004712"><ele>28.333333333333336</ele><time>2026-03-24T16:22:03.999Z</time></trkpt><trkpt lat="42.04388149194402" lon="11.937053295180581"><ele>29.666666666666668</ele><time>2026-03-24T16:22:04.999Z</time></trkpt><trkpt lat="42.04372499756636" lon="11.937095665067993"><ele>31.0</ele><time>2026-03-24T16:22:05.999Z</time></trkpt><trkpt lat="42.04357159477506" lon="11.93713762520865"><ele>31.0</ele><time>2026-03-24T16:22:06.999Z</time></trkpt><trkpt lat="42.043420642738724" lon="11.937178620532276"><ele>31.0</ele><time>2026-03-24T16:22:07.999Z</time></trkpt><trkpt lat="42.04327267560324" lon="11.937221948191292"><ele>31.0</ele><time>2026-03-24T16:22:08.999Z</time></trkpt><trkpt lat="42.043126530377315" lon="11.937266045008675"><ele>31.333333333333336</ele><time>2026-03-24T16:22:09.999Z</time></trkpt><trkpt lat="42.0429788864841" lon="11.937309513019576"><ele>31.666666666666664</ele><time>2026-03-24T16:22:10.999Z</time></trkpt><trkpt lat="42.04282918510173" lon="11.937361377733582"><ele>32.0</ele><time>2026-03-24T16:22:11.999Z</time></trkpt><trkpt lat="42.042679835577275" lon="11.937423542842087"><ele>32.0</ele><time>2026-03-24T16:22:12.999Z</time></trkpt><trkpt lat="42.04253128522013" lon="11.937495863406072"><ele>32.0</ele><time>2026-03-24T16:22:13.999Z</time></trkpt><trkpt lat="42.04237522706615" lon="11.937576969167198"><ele>32.0</ele><time>2026-03-24T16:22:14.999Z</time></trkpt><trkpt lat="42.0422214650436" lon="11.937656575377718"><ele>31.666666666666664</ele><time>2026-03-24T16:22:15.999Z</time></trkpt><trkpt lat="42.0420654419316" lon="11.93773922403914"><ele>31.333333333333336</ele><time>2026-03-24T16:22:16.999Z</time></trkpt><trkpt lat="42.04191083396923" lon="11.937822346293657"><ele>31.0</ele><time>2026-03-24T16:22:17.999Z</time></trkpt><trkpt lat="42.041757691473315" lon="11.93790207880101"><ele>30.333333333333336</ele><time>2026-03-24T16:22:18.999Z</time></trkpt><trkpt lat="42.04160722076577" lon="11.937985650315865"><ele>29.666666666666664</ele><time>2026-03-24T16:22:19.999Z</time></trkpt><trkpt lat="42.04145524890461" lon="11.938063243397766"><ele>29.0</ele><time>2026-03-24T16:22:20.999Z</time></trkpt><trkpt lat="42.041304152448554" lon="11.938140584909494"><ele>29.0</ele><time>2026-03-24T16:22:21.999Z</time></trkpt><trkpt lat="42.041154842401546" lon="11.938218530968971"><ele>29.0</ele><time>2026-03-24T16:22:22.999Z</time></trkpt><trkpt lat="42.04100823648231" lon="11.938295144356315"><ele>29.0</ele><time>2026-03-24T16:22:23.999Z</time></trkpt><trkpt lat="42.040861325978774" lon="11.93837353170766"><ele>27.666666666666664</ele><time>2026-03-24T16:22:24.999Z</time></trkpt><trkpt lat="42.040712879230824" lon="11.938451579496112"><ele>26.333333333333336</ele><time>2026-03-24T16:22:25.999Z</time></trkpt><trkpt lat="42.04056169821823" lon="11.938531214442465"><ele>25.0</ele><time>2026-03-24T16:22:26.999Z</time></trkpt><trkpt lat="42.04040848255613" lon="11.938612437065816"><ele>25.0</ele><time>2026-03-24T16:22:27.999Z</time></trkpt><trkpt lat="42.040258601500675" lon="11.93869415255302"><ele>25.0</ele><time>2026-03-24T16:22:28.999Z</time></trkpt><trkpt lat="42.040109672728306" lon="11.938774378290853"><ele>25.0</ele><time>2026-03-24T16:22:29.999Z</time></trkpt><trkpt lat="42.0399626585361" lon="11.93885391992083"><ele>24.333333333333336</ele><time>2026-03-24T16:22:30.999Z</time></trkpt><trkpt lat="42.03981724354694" lon="11.938931363731971"><ele>23.666666666666668</ele><time>2026-03-24T16:22:31.999Z</time></trkpt><trkpt lat="42.03967491647066" lon="11.939006385440724"><ele>23.0</ele><time>2026-03-24T16:22:32.999Z</time></trkpt><trkpt lat="42.03953781203589" lon="11.939081012712865"><ele>23.0</ele><time>2026-03-24T16:22:33.999Z</time></trkpt><trkpt lat="42.039411311967946" lon="11.939149738649595"><ele>23.0</ele><time>2026-03-24T16:22:34.999Z</time></trkpt><trkpt lat="42.03929451720458" lon="11.93921262538787"><ele>23.0</ele><time>2026-03-24T16:22:35.999Z</time></trkpt><trkpt lat="42.03918226017384" lon="11.939287424727288"><ele>23.0</ele><time>2026-03-24T16:22:36.999Z</time></trkpt><trkpt lat="42.039079049447906" lon="11.939376638687119"><ele>24.25</ele><time>2026-03-24T16:22:37.999Z</time></trkpt><trkpt lat="42.038984640695894" lon="11.939484921744343"><ele>25.5</ele><time>2026-03-24T16:22:38.999Z</time></trkpt><trkpt lat="42.03890228901267" lon="11.939612846318587"><ele>26.75</ele><time>2026-03-24T16:22:39.999Z</time></trkpt><trkpt lat="42.03882825163843" lon="11.939754450418501"><ele>28.0</ele><time>2026-03-24T16:22:40.999Z</time></trkpt><trkpt lat="42.038759475272514" lon="11.939895504504888"><ele>28.0</ele><time>2026-03-24T16:22:41.999Z</time></trkpt><trkpt lat="42.03868654635305" lon="11.940022491756443"><ele>28.0</ele><time>2026-03-24T16:22:42.999Z</time></trkpt><trkpt lat="42.03860861237187" lon="11.940133294611869"><ele>28.0</ele><time>2026-03-24T16:22:43.999Z</time></trkpt><trkpt lat="42.0385213897996" lon="11.94021872888227"><ele>28.0</ele><time>2026-03-24T16:22:44.999Z</time></trkpt><trkpt lat="42.038417617794366" lon="11.940291202038432"><ele>28.0</ele><time>2026-03-24T16:22:45.999Z</time></trkpt><trkpt lat="42.03830645498764" lon="11.9403399702476"><ele>28.0</ele><time>2026-03-24T16:22:46.999Z</time></trkpt><trkpt lat="42.03819103721877" lon="11.94036525742115"><ele>28.0</ele><time>2026-03-24T16:22:47.999Z</time></trkpt><trkpt lat="42.03807013233962" lon="11.94035864054136"><ele>28.0</ele><time>2026-03-24T16:22:48.999Z</time></trkpt><trkpt lat="42.03795103709202" lon="11.940322516695298"><ele>28.0</ele><time>2026-03-24T16:22:49.999Z</time></trkpt><trkpt lat="42.037841171289166" lon="11.940256317959756"><ele>28.0</ele><time>2026-03-24T16:22:50.999Z</time></trkpt><trkpt lat="42.03773423677006" lon="11.940168121472468"><ele>28.0</ele><time>2026-03-24T16:22:51.999Z</time></trkpt><trkpt lat="42.037625235899846" lon="11.940073751498142"><ele>28.0</ele><time>2026-03-24T16:22:52.999Z</time></trkpt><trkpt lat="42.037506590167276" lon="11.939980614013928"><ele>27.75</ele><time>2026-03-24T16:22:53.999Z</time></trkpt><trkpt lat="42.03738599806298" lon="11.939887215275585"><ele>27.5</ele><time>2026-03-24T16:22:54.999Z</time></trkpt><trkpt lat="42.037268416837136" lon="11.939800104337408"><ele>27.25</ele><time>2026-03-24T16:22:55.999Z</time></trkpt><trkpt lat="42.0371440383257" lon="11.93970885683014"><ele>27.0</ele><time>2026-03-24T16:22:56.999Z</time></trkpt><trkpt lat="42.037012514272426" lon="11.939608809866902"><ele>27.0</ele><time>2026-03-24T16:22:57.999Z</time></trkpt><trkpt lat="42.03687685131249" lon="11.939504031710461"><ele>27.0</ele><time>2026-03-24T16:22:58.999Z</time></trkpt><trkpt lat="42.0367365583649" lon="11.939395069863368"><ele>27.0</ele><time>2026-03-24T16:22:59.999Z</time></trkpt><trkpt lat="42.036598446673935" lon="11.93928592166434"><ele>26.333333333333336</ele><time>2026-03-24T16:23:00.999Z</time></trkpt><trkpt lat="42.03645692998288" lon="11.939171073633245"><ele>25.666666666666668</ele><time>2026-03-24T16:23:01.999Z</time></trkpt><trkpt lat="42.036316816995004" lon="11.939062538964057"><ele>25.0</ele><time>2026-03-24T16:23:02.999Z</time></trkpt><trkpt lat="42.036171413507695" lon="11.938975462828163"><ele>25.0</ele><time>2026-03-24T16:23:03.999Z</time></trkpt><trkpt lat="42.036019661974095" lon="11.938902111976795"><ele>25.0</ele><time>2026-03-24T16:23:04.999Z</time></trkpt><trkpt lat="42.03586678519112" lon="11.938849154743522"><ele>25.0</ele><time>2026-03-24T16:23:05.999Z</time></trkpt><trkpt lat="42.03571722315285" lon="11.9388124802434"><ele>24.25</ele><time>2026-03-24T16:23:06.999Z</time></trkpt><trkpt lat="42.035574013604915" lon="11.938796575968547"><ele>23.5</ele><time>2026-03-24T16:23:07.999Z</time></trkpt><trkpt lat="42.035430021128796" lon="11.938800085884875"><ele>22.75</ele><time>2026-03-24T16:23:08.999Z</time></trkpt><trkpt lat="42.03528576180458" lon="11.938822991406074"><ele>22.0</ele><time>2026-03-24T16:23:09.999Z</time></trkpt><trkpt lat="42.035140324203724" lon="11.938847977860053"><ele>22.0</ele><time>2026-03-24T16:23:10.999Z</time></trkpt><trkpt lat="42.03499696008262" lon="11.938872228517841"><ele>22.0</ele><time>2026-03-24T16:23:11.999Z</time></trkpt><trkpt lat="42.03485690998596" lon="11.938895640276591"><ele>22.0</ele><time>2026-03-24T16:23:12.999Z</time></trkpt><trkpt lat="42.034732795878504" lon="11.938915585368653"><ele>22.0</ele><time>2026-03-24T16:23:13.999Z</time></trkpt><trkpt lat="42.03462467548025" lon="11.938931668107895"><ele>21.833333333333332</ele><time>2026-03-24T16:23:14.999Z</time></trkpt><trkpt lat="42.0345227335626" lon="11.938955934289377"><ele>21.666666666666664</ele><time>2026-03-24T16:23:15.999Z</time></trkpt><trkpt lat="42.03442870748302" lon="11.938986230810055"><ele>21.5</ele><time>2026-03-24T16:23:16.999Z</time></trkpt><trkpt lat="42.034345951763875" lon="11.939016601158103"><ele>21.333333333333332</ele><time>2026-03-24T16:23:17.999Z</time></trkpt><trkpt lat="42.034271201992745" lon="11.939053954234367"><ele>21.166666666666668</ele><time>2026-03-24T16:23:18.999Z</time></trkpt><trkpt lat="42.03421059329189" lon="11.939090152435538"><ele>21.0</ele><time>2026-03-24T16:23:19.999Z</time></trkpt><trkpt lat="42.03413827830319" lon="11.939138438528751"><ele>21.0</ele><time>2026-03-24T16:23:21.999Z</time></trkpt><trkpt lat="42.03408052205348" lon="11.939185994170986"><ele>21.0</ele><time>2026-03-24T16:23:24.999Z</time></trkpt><trkpt lat="42.03409809425603" lon="11.939442840790573"><ele>21.0</ele><time>2026-03-24T16:23:34.999Z</time></trkpt><trkpt lat="42.03415058077112" lon="11.939497516217475"><ele>21.0</ele><time>2026-03-24T16:23:35.999Z</time></trkpt><trkpt lat="42.03420367933073" lon="11.939582455933737"><ele>21.0</ele><time>2026-03-24T16:23:36.999Z</time></trkpt><trkpt lat="42.0342562399152" lon="11.939697648807684"><ele>21.0</ele><time>2026-03-24T16:23:37.999Z</time></trkpt><trkpt lat="42.034316406310275" lon="11.939793775325276"><ele>21.0</ele><time>2026-03-24T16:23:38.999Z</time></trkpt><trkpt lat="42.034381138101274" lon="11.939900811683195"><ele>21.0</ele><time>2026-03-24T16:23:39.999Z</time></trkpt><trkpt lat="42.03445476558709" lon="11.940025765057891"><ele>21.0</ele><time>2026-03-24T16:23:40.999Z</time></trkpt><trkpt lat="42.03453775286751" lon="11.940167495747952"><ele>21.0</ele><time>2026-03-24T16:23:41.999Z</time></trkpt><trkpt lat="42.0346279114664" lon="11.940316912560837"><ele>21.0</ele><time>2026-03-24T16:23:42.999Z</time></trkpt><trkpt lat="42.03471748169031" lon="11.940473381816513"><ele>21.0</ele><time>2026-03-24T16:23:43.999Z</time></trkpt><trkpt lat="42.03480370588919" lon="11.94062389990758"><ele>21.0</ele><time>2026-03-24T16:23:44.999Z</time></trkpt><trkpt lat="42.03489463854196" lon="11.940780441542623"><ele>21.0</ele><time>2026-03-24T16:23:45.999Z</time></trkpt><trkpt lat="42.03498917036881" lon="11.940936084439148"><ele>21.0</ele><time>2026-03-24T16:23:46.999Z</time></trkpt><trkpt lat="42.0350843624385" lon="11.94108450475051"><ele>21.0</ele><time>2026-03-24T16:23:47.999Z</time></trkpt><trkpt lat="42.03518256621341" lon="11.94122846837662"><ele>21.0</ele><time>2026-03-24T16:23:48.999Z</time></trkpt><trkpt lat="42.03528580213885" lon="11.94136431350387"><ele>21.0</ele><time>2026-03-24T16:23:49.999Z</time></trkpt><trkpt lat="42.0353965920086" lon="11.941492583525674"><ele>21.0</ele><time>2026-03-24T16:23:50.999Z</time></trkpt><trkpt lat="42.03551489520568" lon="11.941611960095608"><ele>21.0</ele><time>2026-03-24T16:23:51.999Z</time></trkpt><trkpt lat="42.035643496649925" lon="11.941718969076076"><ele>21.0</ele><time>2026-03-24T16:23:52.999Z</time></trkpt><trkpt lat="42.03577079096085" lon="11.941826834070659"><ele>21.0</ele><time>2026-03-24T16:23:53.999Z</time></trkpt><trkpt lat="42.035900389661464" lon="11.941932163001182"><ele>22.75</ele><time>2026-03-24T16:23:54.999Z</time></trkpt><trkpt lat="42.03603116559411" lon="11.942034079511282"><ele>24.5</ele><time>2026-03-24T16:23:55.999Z</time></trkpt><trkpt lat="42.03616281206454" lon="11.942130014325366"><ele>26.25</ele><time>2026-03-24T16:23:56.999Z</time></trkpt><trkpt lat="42.03629004814872" lon="11.942228709478549"><ele>28.0</ele><time>2026-03-24T16:23:57.999Z</time></trkpt><trkpt lat="42.03641688770552" lon="11.94232131783015"><ele>28.0</ele><time>2026-03-24T16:23:58.999Z</time></trkpt><trkpt lat="42.03653949953314" lon="11.942408592037626"><ele>28.0</ele><time>2026-03-24T16:23:59.999Z</time></trkpt><trkpt lat="42.03665646046048" lon="11.94249498368984"><ele>28.0</ele><time>2026-03-24T16:24:00.999Z</time></trkpt><trkpt lat="42.03676893899229" lon="11.942578895532387"><ele>28.0</ele><time>2026-03-24T16:24:01.999Z</time></trkpt><trkpt lat="42.03687869358826" lon="11.942661728789343"><ele>28.2</ele><time>2026-03-24T16:24:02.999Z</time></trkpt><trkpt lat="42.03698402845429" lon="11.942739238293017"><ele>28.4</ele><time>2026-03-24T16:24:03.999Z</time></trkpt><trkpt lat="42.03707933532681" lon="11.942817399635082"><ele>28.599999999999998</ele><time>2026-03-24T16:24:04.999Z</time></trkpt><trkpt lat="42.037158822726376" lon="11.942900570756512"><ele>28.799999999999997</ele><time>2026-03-24T16:24:05.999Z</time></trkpt><trkpt lat="42.03722016382452" lon="11.943002303176762"><ele>29.0</ele><time>2026-03-24T16:24:06.999Z</time></trkpt><trkpt lat="42.03726009762647" lon="11.94312378902813"><ele>29.0</ele><time>2026-03-24T16:24:07.999Z</time></trkpt><trkpt lat="42.03727529590413" lon="11.943252436115921"><ele>29.0</ele><time>2026-03-24T16:24:08.999Z</time></trkpt><trkpt lat="42.037260454106374" lon="11.94338743290235"><ele>29.0</ele><time>2026-03-24T16:24:09.999Z</time></trkpt><trkpt lat="42.037222508965705" lon="11.94351271948024"><ele>29.0</ele><time>2026-03-24T16:24:10.999Z</time></trkpt><trkpt lat="42.03716186141857" lon="11.943618608728245"><ele>29.0</ele><time>2026-03-24T16:24:11.999Z</time></trkpt><trkpt lat="42.03707613936537" lon="11.943704112729536"><ele>28.6</ele><time>2026-03-24T16:24:12.999Z</time></trkpt><trkpt lat="42.036976459925526" lon="11.943757509012"><ele>28.2</ele><time>2026-03-24T16:24:13.999Z</time></trkpt><trkpt lat="42.03687039164966" lon="11.94378284233568"><ele>27.800000000000004</ele><time>2026-03-24T16:24:14.999Z</time></trkpt><trkpt lat="42.03676184185654" lon="11.943753839820566"><ele>27.400000000000002</ele><time>2026-03-24T16:24:15.999Z</time></trkpt><trkpt lat="42.036661996827945" lon="11.943691456974475"><ele>27.0</ele><time>2026-03-24T16:24:16.999Z</time></trkpt><trkpt lat="42.036580604346454" lon="11.943588194957528"><ele>26.0</ele><time>2026-03-24T16:24:17.999Z</time></trkpt><trkpt lat="42.03652644742577" lon="11.943459114046474"><ele>25.0</ele><time>2026-03-24T16:24:18.999Z</time></trkpt><trkpt lat="42.03649825087893" lon="11.943310339118"><ele>24.0</ele><time>2026-03-24T16:24:19.999Z</time></trkpt><trkpt lat="42.03651442235697" lon="11.943139554596128"><ele>23.0</ele><time>2026-03-24T16:24:20.999Z</time></trkpt><trkpt lat="42.03653163047991" lon="11.942977584803794"><ele>23.0</ele><time>2026-03-24T16:24:21.999Z</time></trkpt><trkpt lat="42.03657012048647" lon="11.94281172538093"><ele>23.0</ele><time>2026-03-24T16:24:22.999Z</time></trkpt><trkpt lat="42.03662116006582" lon="11.942643149119185"><ele>23.0</ele><time>2026-03-24T16:24:23.999Z</time></trkpt><trkpt lat="42.03670226742528" lon="11.942475823345974"><ele>23.0</ele><time>2026-03-24T16:24:24.999Z</time></trkpt><trkpt lat="42.03678887597849" lon="11.942290956073197"><ele>24.666666666666668</ele><time>2026-03-24T16:24:25.999Z</time></trkpt><trkpt lat="42.03687746932543" lon="11.942095978255168"><ele>26.333333333333336</ele><time>2026-03-24T16:24:26.999Z</time></trkpt><trkpt lat="42.036954583245056" lon="11.941894412964475"><ele>28.0</ele><time>2026-03-24T16:24:27.999Z</time></trkpt><trkpt lat="42.03704296146677" lon="11.941668758076336"><ele>28.0</ele><time>2026-03-24T16:24:28.999Z</time></trkpt><trkpt lat="42.03713729200434" lon="11.94143713639288"><ele>28.0</ele><time>2026-03-24T16:24:29.999Z</time></trkpt><trkpt lat="42.03723683682316" lon="11.941190510887921"><ele>28.0</ele><time>2026-03-24T16:24:30.999Z</time></trkpt><trkpt lat="42.037339289454295" lon="11.94093629257678"><ele>28.0</ele><time>2026-03-24T16:24:31.999Z</time></trkpt><trkpt lat="42.03744515130961" lon="11.940669610584349"><ele>28.0</ele><time>2026-03-24T16:24:32.999Z</time></trkpt><trkpt lat="42.03755924413193" lon="11.940393930794718"><ele>28.0</ele><time>2026-03-24T16:24:33.999Z</time></trkpt><trkpt lat="42.03767589037788" lon="11.940114151446553"><ele>28.0</ele><time>2026-03-24T16:24:34.999Z</time></trkpt><trkpt lat="42.037797561158754" lon="11.939823566598323"><ele>28.0</ele><time>2026-03-24T16:24:35.999Z</time></trkpt><trkpt lat="42.03791601823506" lon="11.93954187548357"><ele>28.0</ele><time>2026-03-24T16:24:36.999Z</time></trkpt><trkpt lat="42.0380396041753" lon="11.93925376164278"><ele>26.5</ele><time>2026-03-24T16:24:37.999Z</time></trkpt><trkpt lat="42.03816618005725" lon="11.938958031544887"><ele>25.0</ele><time>2026-03-24T16:24:38.999Z</time></trkpt><trkpt lat="42.03829581536752" lon="11.938655951644227"><ele>24.0</ele><time>2026-03-24T16:24:39.999Z</time></trkpt><trkpt lat="42.03842689621316" lon="11.938346745392781"><ele>23.0</ele><time>2026-03-24T16:24:40.999Z</time></trkpt><trkpt lat="42.038557684465864" lon="11.93803045320439"><ele>23.0</ele><time>2026-03-24T16:24:41.999Z</time></trkpt><trkpt lat="42.038691631009236" lon="11.937709079359703"><ele>23.0</ele><time>2026-03-24T16:24:42.999Z</time></trkpt><trkpt lat="42.038828306828556" lon="11.937386402366803"><ele>21.5</ele><time>2026-03-24T16:24:43.999Z</time></trkpt><trkpt lat="42.03896763662117" lon="11.937058762292509"><ele>20.0</ele><time>2026-03-24T16:24:44.999Z</time></trkpt><trkpt lat="42.03911107386176" lon="11.936725421779524"><ele>20.5</ele><time>2026-03-24T16:24:45.999Z</time></trkpt><trkpt lat="42.03925483628368" lon="11.936383015299551"><ele>21.0</ele><time>2026-03-24T16:24:46.999Z</time></trkpt><trkpt lat="42.03939495031989" lon="11.936042577117743"><ele>20.5</ele><time>2026-03-24T16:24:47.999Z</time></trkpt><trkpt lat="42.03953363646222" lon="11.935715271970476"><ele>20.0</ele><time>2026-03-24T16:24:48.999Z</time></trkpt><trkpt lat="42.03967078200416" lon="11.935393798363835"><ele>20.0</ele><time>2026-03-24T16:24:49.999Z</time></trkpt><trkpt lat="42.03980435998748" lon="11.935076738271693"><ele>20.0</ele><time>2026-03-24T16:24:50.999Z</time></trkpt><trkpt lat="42.03993673393915" lon="11.934764753201492"><ele>21.0</ele><time>2026-03-24T16:24:51.999Z</time></trkpt><trkpt lat="42.040072563589035" lon="11.934451164101603"><ele>22.0</ele><time>2026-03-24T16:24:52.999Z</time></trkpt><trkpt lat="42.04020838652819" lon="11.93412617497634"><ele>22.0</ele><time>2026-03-24T16:24:53.999Z</time></trkpt><trkpt lat="42.040340748999974" lon="11.93378712014412"><ele>22.0</ele><time>2026-03-24T16:24:54.999Z</time></trkpt><trkpt lat="42.040474897174846" lon="11.933442080669991"><ele>21.0</ele><time>2026-03-24T16:24:55.999Z</time></trkpt><trkpt lat="42.04061572944412" lon="11.933095383048881"><ele>20.0</ele><time>2026-03-24T16:24:56.999Z</time></trkpt><trkpt lat="42.04076192002002" lon="11.932744946240929"><ele>16.5</ele><time>2026-03-24T16:24:57.999Z</time></trkpt><trkpt lat="42.04090775260785" lon="11.932397837626654"><ele>13.0</ele><time>2026-03-24T16:24:58.999Z</time></trkpt><trkpt lat="42.041054603039555" lon="11.932053289850147"><ele>12.0</ele><time>2026-03-24T16:24:59.999Z</time></trkpt><trkpt lat="42.04120427967345" lon="11.931705714600719"><ele>11.0</ele><time>2026-03-24T16:25:00.999Z</time></trkpt><trkpt lat="42.0413533155164" lon="11.931354807317136"><ele>11.0</ele><time>2026-03-24T16:25:01.999Z</time></trkpt><trkpt lat="42.041502359278354" lon="11.931002666343831"><ele>11.0</ele><time>2026-03-24T16:25:02.999Z</time></trkpt><trkpt lat="42.041652610964235" lon="11.93064948428664"><ele>11.5</ele><time>2026-03-24T16:25:03.999Z</time></trkpt><trkpt lat="42.04180172072486" lon="11.930295266834767"><ele>12.0</ele><time>2026-03-24T16:25:04.999Z</time></trkpt><trkpt lat="42.041950510851045" lon="11.929942867584009"><ele>12.0</ele><time>2026-03-24T16:25:05.999Z</time></trkpt><trkpt lat="42.042100241163915" lon="11.92959135295293"><ele>12.0</ele><time>2026-03-24T16:25:06.999Z</time></trkpt><trkpt lat="42.042249410883464" lon="11.92924065707954"><ele>11.5</ele><time>2026-03-24T16:25:07.999Z</time></trkpt><trkpt lat="42.04239973504996" lon="11.928891594742092"><ele>11.0</ele><time>2026-03-24T16:25:08.999Z</time></trkpt><trkpt lat="42.04254685382954" lon="11.928542032639845"><ele>12.5</ele><time>2026-03-24T16:25:09.999Z</time></trkpt><trkpt lat="42.042693778773625" lon="11.928195138853543"><ele>14.0</ele><time>2026-03-24T16:25:10.999Z</time></trkpt><trkpt lat="42.04283956382054" lon="11.927848332478906"><ele>14.5</ele><time>2026-03-24T16:25:11.999Z</time></trkpt><trkpt lat="42.04297898056037" lon="11.927500341556076"><ele>15.0</ele><time>2026-03-24T16:25:12.999Z</time></trkpt><trkpt lat="42.04311276888094" lon="11.927149693404674"><ele>15.0</ele><time>2026-03-24T16:25:13.999Z</time></trkpt><trkpt lat="42.04323639669353" lon="11.926793608428389"><ele>15.0</ele><time>2026-03-24T16:25:14.999Z</time></trkpt><trkpt lat="42.043352508141226" lon="11.926434011661343"><ele>17.0</ele><time>2026-03-24T16:25:15.999Z</time></trkpt><trkpt lat="42.043456452632" lon="11.926069154129786"><ele>19.0</ele><time>2026-03-24T16:25:16.999Z</time></trkpt><trkpt lat="42.04355079814461" lon="11.925701121498918"><ele>19.5</ele><time>2026-03-24T16:25:17.999Z</time></trkpt><trkpt lat="42.043635341810464" lon="11.925325561607817"><ele>20.0</ele><time>2026-03-24T16:25:18.999Z</time></trkpt><trkpt lat="42.04370647297526" lon="11.924943611641114"><ele>19.5</ele><time>2026-03-24T16:25:19.999Z</time></trkpt><trkpt lat="42.04376686743224" lon="11.924557487730967"><ele>19.0</ele><time>2026-03-24T16:25:20.999Z</time></trkpt><trkpt lat="42.043815200254734" lon="11.92416657139043"><ele>19.0</ele><time>2026-03-24T16:25:21.999Z</time></trkpt><trkpt lat="42.043852955873184" lon="11.923771158433004"><ele>19.0</ele><time>2026-03-24T16:25:22.999Z</time></trkpt><trkpt lat="42.04387811710566" lon="11.923369768733993"><ele>18.5</ele><time>2026-03-24T16:25:23.999Z</time></trkpt><trkpt lat="42.043892448231816" lon="11.922964775936292"><ele>18.0</ele><time>2026-03-24T16:25:24.999Z</time></trkpt><trkpt lat="42.043901367806036" lon="11.922557052775758"><ele>18.0</ele><time>2026-03-24T16:25:25.999Z</time></trkpt><trkpt lat="42.04390361849846" lon="11.92214609348324"><ele>18.0</ele><time>2026-03-24T16:25:26.999Z</time></trkpt><trkpt lat="42.043902409717845" lon="11.921731673550862"><ele>18.0</ele><time>2026-03-24T16:25:27.999Z</time></trkpt><trkpt lat="42.04389761328186" lon="11.921315069104777"><ele>18.0</ele><time>2026-03-24T16:25:28.999Z</time></trkpt><trkpt lat="42.043891736736754" lon="11.92089650627577"><ele>17.0</ele><time>2026-03-24T16:25:29.999Z</time></trkpt><trkpt lat="42.04388734899577" lon="11.920475998181415"><ele>16.0</ele><time>2026-03-24T16:25:30.999Z</time></trkpt><trkpt lat="42.04388276458741" lon="11.920051789497217"><ele>15.0</ele><time>2026-03-24T16:25:32Z</time></trkpt><trkpt lat="42.043880244113" lon="11.919626498423268"><ele>14.0</ele><time>2026-03-24T16:25:33Z</time></trkpt><trkpt lat="42.04387920533515" lon="11.919199859134533"><ele>13.5</ele><time>2026-03-24T16:25:34Z</time></trkpt><trkpt lat="42.04387541300007" lon="11.918770720422085"><ele>13.0</ele><time>2026-03-24T16:25:35Z</time></trkpt><trkpt lat="42.04387083371809" lon="11.91834099063956"><ele>13.0</ele><time>2026-03-24T16:25:36Z</time></trkpt><trkpt lat="42.04386695644231" lon="11.917909600826134"><ele>13.0</ele><time>2026-03-24T16:25:37Z</time></trkpt><trkpt lat="42.043862120745565" lon="11.917479246296649"><ele>14.5</ele><time>2026-03-24T16:25:38Z</time></trkpt><trkpt lat="42.04385796040693" lon="11.91704803959792"><ele>16.0</ele><time>2026-03-24T16:25:39Z</time></trkpt><trkpt lat="42.043856211240154" lon="11.916617125118293"><ele>17.0</ele><time>2026-03-24T16:25:40Z</time></trkpt><trkpt lat="42.043854715131026" lon="11.91618530198985"><ele>18.0</ele><time>2026-03-24T16:25:41Z</time></trkpt><trkpt lat="42.04385028242143" lon="11.915752619025666"><ele>20.0</ele><time>2026-03-24T16:25:42Z</time></trkpt><trkpt lat="42.043849129436374" lon="11.915318410562042"><ele>22.0</ele><time>2026-03-24T16:25:43Z</time></trkpt><trkpt lat="42.04384738907679" lon="11.9148850938821"><ele>24.5</ele><time>2026-03-24T16:25:44Z</time></trkpt><trkpt lat="42.043844712182945" lon="11.914451345922696"><ele>27.0</ele><time>2026-03-24T16:25:45Z</time></trkpt><trkpt lat="42.043840840671955" lon="11.914017312979324"><ele>28.5</ele><time>2026-03-24T16:25:46Z</time></trkpt><trkpt lat="42.043837419998276" lon="11.913582933833382"><ele>30.0</ele><time>2026-03-24T16:25:47Z</time></trkpt><trkpt lat="42.043835030998096" lon="11.91314868173542"><ele>30.0</ele><time>2026-03-24T16:25:48Z</time></trkpt><trkpt lat="42.04383352593615" lon="11.912714053744043"><ele>30.0</ele><time>2026-03-24T16:25:49Z</time></trkpt><trkpt lat="42.043829257501415" lon="11.912278804679286"><ele>31.0</ele><time>2026-03-24T16:25:50Z</time></trkpt><trkpt lat="42.04382280838624" lon="11.91184336055236"><ele>32.0</ele><time>2026-03-24T16:25:51Z</time></trkpt><trkpt lat="42.04381865421781" lon="11.911406541472791"><ele>32.5</ele><time>2026-03-24T16:25:52Z</time></trkpt><trkpt lat="42.04381498939193" lon="11.910967481898924"><ele>33.0</ele><time>2026-03-24T16:25:53Z</time></trkpt><trkpt lat="42.043812097604786" lon="11.910529777672378"><ele>33.0</ele><time>2026-03-24T16:25:54Z</time></trkpt><trkpt lat="42.04380810737042" lon="11.910092176033617"><ele>33.0</ele><time>2026-03-24T16:25:55Z</time></trkpt><trkpt lat="42.04380424956439" lon="11.909653527639279"><ele>32.5</ele><time>2026-03-24T16:25:56Z</time></trkpt><trkpt lat="42.043799234384025" lon="11.909212991505344"><ele>32.0</ele><time>2026-03-24T16:25:57Z</time></trkpt><trkpt lat="42.04379534241426" lon="11.908771385475335"><ele>30.5</ele><time>2026-03-24T16:25:58Z</time></trkpt><trkpt lat="42.043790137262135" lon="11.908328241027515"><ele>29.0</ele><time>2026-03-24T16:25:59Z</time></trkpt><trkpt lat="42.04378426665152" lon="11.907884154212601"><ele>27.5</ele><time>2026-03-24T16:26:00Z</time></trkpt><trkpt lat="42.04377802743985" lon="11.907439286751375"><ele>26.0</ele><time>2026-03-24T16:26:01Z</time></trkpt><trkpt lat="42.043772512354515" lon="11.906993054542756"><ele>25.5</ele><time>2026-03-24T16:26:02Z</time></trkpt><trkpt lat="42.0437704825466" lon="11.90654728732841"><ele>25.0</ele><time>2026-03-24T16:26:03Z</time></trkpt><trkpt lat="42.04377410670666" lon="11.9061018308076"><ele>25.5</ele><time>2026-03-24T16:26:04Z</time></trkpt><trkpt lat="42.04378375800544" lon="11.905654523330968"><ele>26.0</ele><time>2026-03-24T16:26:05Z</time></trkpt><trkpt lat="42.04379513719056" lon="11.905209595590012"><ele>27.0</ele><time>2026-03-24T16:26:06Z</time></trkpt><trkpt lat="42.043806258733646" lon="11.904765183672886"><ele>28.0</ele><time>2026-03-24T16:26:07Z</time></trkpt><trkpt lat="42.04381878230055" lon="11.904320205244392"><ele>29.0</ele><time>2026-03-24T16:26:08Z</time></trkpt><trkpt lat="42.04383515366206" lon="11.903878258703845"><ele>30.0</ele><time>2026-03-24T16:26:09Z</time></trkpt><trkpt lat="42.04385386632171" lon="11.903438112279483"><ele>30.5</ele><time>2026-03-24T16:26:10Z</time></trkpt><trkpt lat="42.043876831040464" lon="11.90299933038506"><ele>31.0</ele><time>2026-03-24T16:26:11Z</time></trkpt><trkpt lat="42.04390432440276" lon="11.902561797701038"><ele>32.5</ele><time>2026-03-24T16:26:12Z</time></trkpt><trkpt lat="42.04393282948992" lon="11.902125145481188"><ele>34.0</ele><time>2026-03-24T16:26:13Z</time></trkpt><trkpt lat="42.04396719089948" lon="11.901689440168772"><ele>35.5</ele><time>2026-03-24T16:26:14Z</time></trkpt><trkpt lat="42.04400877838817" lon="11.901255647137798"><ele>37.0</ele><time>2026-03-24T16:26:15Z</time></trkpt><trkpt lat="42.04405305089984" lon="11.900823279827566"><ele>37.0</ele><time>2026-03-24T16:26:16Z</time></trkpt><trkpt lat="42.04409716521675" lon="11.900392737156393"><ele>37.0</ele><time>2026-03-24T16:26:16.999Z</time></trkpt><trkpt lat="42.04414091596345" lon="11.899963777443308"><ele>38.0</ele><time>2026-03-24T16:26:17.999Z</time></trkpt><trkpt lat="42.04418458426794" lon="11.899535311182108"><ele>39.0</ele><time>2026-03-24T16:26:18.999Z</time></trkpt><trkpt lat="42.04423132571279" lon="11.89910765700651"><ele>39.0</ele><time>2026-03-24T16:26:19.999Z</time></trkpt><trkpt lat="42.04427818319882" lon="11.898679777658977"><ele>39.0</ele><time>2026-03-24T16:26:20.999Z</time></trkpt><trkpt lat="42.044321984560945" lon="11.898252647213031"><ele>37.0</ele><time>2026-03-24T16:26:21.999Z</time></trkpt><trkpt lat="42.044365153235" lon="11.897826050104817"><ele>35.0</ele><time>2026-03-24T16:26:22.999Z</time></trkpt><trkpt lat="42.04440952283572" lon="11.897399296244945"><ele>33.0</ele><time>2026-03-24T16:26:23.999Z</time></trkpt><trkpt lat="42.04445389418393" lon="11.896973330079526"><ele>31.0</ele><time>2026-03-24T16:26:24.999Z</time></trkpt><trkpt lat="42.044497521712366" lon="11.896543344453061"><ele>29.0</ele><time>2026-03-24T16:26:25.999Z</time></trkpt><trkpt lat="42.04454107988784" lon="11.896113441741559"><ele>27.0</ele><time>2026-03-24T16:26:26.999Z</time></trkpt><trkpt lat="42.04458396202959" lon="11.895683574403668"><ele>27.0</ele><time>2026-03-24T16:26:27.999Z</time></trkpt><trkpt lat="42.04462783137947" lon="11.895253118395134"><ele>27.0</ele><time>2026-03-24T16:26:28.999Z</time></trkpt><trkpt lat="42.04467066501977" lon="11.894825567495621"><ele>27.0</ele><time>2026-03-24T16:26:29.999Z</time></trkpt><trkpt lat="42.04471140895465" lon="11.89440464255751"><ele>27.0</ele><time>2026-03-24T16:26:30.999Z</time></trkpt><trkpt lat="42.04475230980751" lon="11.893984197098067"><ele>26.5</ele><time>2026-03-24T16:26:31.999Z</time></trkpt><trkpt lat="42.044789593522474" lon="11.893561855905517"><ele>26.0</ele><time>2026-03-24T16:26:32.999Z</time></trkpt><trkpt lat="42.04481997431801" lon="11.893139630685315"><ele>26.0</ele><time>2026-03-24T16:26:33.999Z</time></trkpt><trkpt lat="42.044844404416736" lon="11.892714449557184"><ele>26.0</ele><time>2026-03-24T16:26:34.999Z</time></trkpt><trkpt lat="42.04486010705248" lon="11.892289264546378"><ele>25.0</ele><time>2026-03-24T16:26:35.999Z</time></trkpt><trkpt lat="42.04486819096289" lon="11.89186281790928"><ele>24.0</ele><time>2026-03-24T16:26:36.999Z</time></trkpt><trkpt lat="42.04487235739425" lon="11.891434062494216"><ele>21.5</ele><time>2026-03-24T16:26:37.999Z</time></trkpt><trkpt lat="42.04487328084963" lon="11.89100479993343"><ele>19.0</ele><time>2026-03-24T16:26:38.999Z</time></trkpt><trkpt lat="42.0448722449228" lon="11.890574991243053"><ele>16.5</ele><time>2026-03-24T16:26:39.999Z</time></trkpt><trkpt lat="42.044871651190434" lon="11.890144790511096"><ele>14.0</ele><time>2026-03-24T16:26:40.999Z</time></trkpt><trkpt lat="42.044873458970926" lon="11.889715191613833"><ele>14.0</ele><time>2026-03-24T16:26:41.999Z</time></trkpt><trkpt lat="42.044877638659756" lon="11.88928655936299"><ele>14.0</ele><time>2026-03-24T16:26:42.999Z</time></trkpt><trkpt lat="42.04488141971757" lon="11.88885702452696"><ele>15.5</ele><time>2026-03-24T16:26:43.999Z</time></trkpt><trkpt lat="42.04488287574118" lon="11.888428718338904"><ele>17.0</ele><time>2026-03-24T16:26:44.999Z</time></trkpt><trkpt lat="42.044887192761635" lon="11.888001533861251"><ele>21.0</ele><time>2026-03-24T16:26:45.999Z</time></trkpt><trkpt lat="42.04487826901266" lon="11.887573595094329"><ele>25.0</ele><time>2026-03-24T16:26:46.999Z</time></trkpt><trkpt lat="42.04486839242373" lon="11.887144141442583"><ele>24.5</ele><time>2026-03-24T16:26:47.999Z</time></trkpt><trkpt lat="42.04486278878509" lon="11.886718147278849"><ele>24.0</ele><time>2026-03-24T16:26:48.999Z</time></trkpt><trkpt lat="42.04486168142205" lon="11.886287528624575"><ele>21.5</ele><time>2026-03-24T16:26:49.999Z</time></trkpt><trkpt lat="42.04485978391487" lon="11.885859226350519"><ele>19.0</ele><time>2026-03-24T16:26:50.999Z</time></trkpt><trkpt lat="42.04485581973378" lon="11.885429537311554"><ele>16.0</ele><time>2026-03-24T16:26:51.999Z</time></trkpt><trkpt lat="42.04484966028858" lon="11.885000478830937"><ele>13.0</ele><time>2026-03-24T16:26:52.999Z</time></trkpt><trkpt lat="42.044844525552165" lon="11.88457024957577"><ele>11.5</ele><time>2026-03-24T16:26:53.999Z</time></trkpt><trkpt lat="42.044840056025166" lon="11.884138730080275"><ele>10.0</ele><time>2026-03-24T16:26:54.999Z</time></trkpt><trkpt lat="42.04483662100615" lon="11.883707295257743"><ele>10.0</ele><time>2026-03-24T16:26:55.999Z</time></trkpt><trkpt lat="42.04482925444927" lon="11.883271824660914"><ele>10.0</ele><time>2026-03-24T16:26:56.999Z</time></trkpt><trkpt lat="42.04482042478222" lon="11.882836156576316"><ele>10.5</ele><time>2026-03-24T16:26:57.999Z</time></trkpt><trkpt lat="42.044810798643944" lon="11.882401191496367"><ele>11.0</ele><time>2026-03-24T16:26:58.999Z</time></trkpt><trkpt lat="42.04479917673479" lon="11.88196478095804"><ele>13.0</ele><time>2026-03-24T16:26:59.999Z</time></trkpt><trkpt lat="42.044785121238945" lon="11.881529371707565"><ele>15.0</ele><time>2026-03-24T16:27:00.999Z</time></trkpt><trkpt lat="42.044771691175775" lon="11.881092518458507"><ele>19.0</ele><time>2026-03-24T16:27:01.999Z</time></trkpt><trkpt lat="42.04475733962843" lon="11.880656166176722"><ele>23.0</ele><time>2026-03-24T16:27:02.999Z</time></trkpt><trkpt lat="42.04474280159801" lon="11.880220099494002"><ele>25.5</ele><time>2026-03-24T16:27:03.999Z</time></trkpt><trkpt lat="42.044727341156644" lon="11.879784956764725"><ele>28.0</ele><time>2026-03-24T16:27:04.999Z</time></trkpt><trkpt lat="42.04470424371611" lon="11.87934995212477"><ele>28.5</ele><time>2026-03-24T16:27:05.999Z</time></trkpt><trkpt lat="42.04468298042176" lon="11.878914822215977"><ele>29.0</ele><time>2026-03-24T16:27:06.999Z</time></trkpt><trkpt lat="42.044662482657586" lon="11.878478759324869"><ele>27.5</ele><time>2026-03-24T16:27:07.999Z</time></trkpt><trkpt lat="42.04463862689946" lon="11.87804523244664"><ele>26.0</ele><time>2026-03-24T16:27:08.999Z</time></trkpt><trkpt lat="42.04460967859753" lon="11.87761276336618"><ele>25.0</ele><time>2026-03-24T16:27:09.999Z</time></trkpt><trkpt lat="42.04458004815332" lon="11.877180291202098"><ele>24.0</ele><time>2026-03-24T16:27:10.999Z</time></trkpt><trkpt lat="42.04455142275455" lon="11.876749230341959"><ele>24.0</ele><time>2026-03-24T16:27:11.999Z</time></trkpt><trkpt lat="42.04452239661352" lon="11.876320096572858"><ele>24.0</ele><time>2026-03-24T16:27:12.999Z</time></trkpt><trkpt lat="42.04449220191844" lon="11.875894009896388"><ele>25.5</ele><time>2026-03-24T16:27:13.999Z</time></trkpt><trkpt lat="42.044459011716334" lon="11.875469742191333"><ele>27.0</ele><time>2026-03-24T16:27:14.999Z</time></trkpt><trkpt lat="42.04442519467962" lon="11.875048047817575"><ele>29.0</ele><time>2026-03-24T16:27:15.999Z</time></trkpt><trkpt lat="42.04439054113688" lon="11.87462998466654"><ele>31.0</ele><time>2026-03-24T16:27:16.999Z</time></trkpt><trkpt lat="42.044355123819244" lon="11.874213538566421"><ele>33.0</ele><time>2026-03-24T16:27:17.999Z</time></trkpt><trkpt lat="42.04432042581885" lon="11.873800851071776"><ele>35.0</ele><time>2026-03-24T16:27:18.999Z</time></trkpt><trkpt lat="42.04428589825211" lon="11.873389462228738"><ele>36.0</ele><time>2026-03-24T16:27:19.999Z</time></trkpt><trkpt lat="42.04425205500929" lon="11.872979183244972"><ele>37.0</ele><time>2026-03-24T16:27:20.999Z</time></trkpt><trkpt lat="42.04421763999832" lon="11.872570018011823"><ele>37.0</ele><time>2026-03-24T16:27:21.999Z</time></trkpt><trkpt lat="42.04418469436217" lon="11.872162126436615"><ele>37.0</ele><time>2026-03-24T16:27:22.999Z</time></trkpt><trkpt lat="42.044153941458816" lon="11.871756506060699"><ele>35.0</ele><time>2026-03-24T16:27:23.999Z</time></trkpt><trkpt lat="42.04412079406711" lon="11.87135277091635"><ele>33.0</ele><time>2026-03-24T16:27:24.999Z</time></trkpt><trkpt lat="42.04408731965013" lon="11.870951725301289"><ele>35.5</ele><time>2026-03-24T16:27:25.999Z</time></trkpt><trkpt lat="42.044052500287016" lon="11.870551103580032"><ele>38.0</ele><time>2026-03-24T16:27:26.999Z</time></trkpt><trkpt lat="42.04401754017536" lon="11.870151196987132"><ele>36.0</ele><time>2026-03-24T16:27:27.999Z</time></trkpt><trkpt lat="42.043984586300944" lon="11.86975185065729"><ele>34.0</ele><time>2026-03-24T16:27:28.999Z</time></trkpt><trkpt lat="42.043952028625725" lon="11.869353399929322"><ele>33.0</ele><time>2026-03-24T16:27:29.999Z</time></trkpt><trkpt lat="42.04392031566526" lon="11.868956323973435"><ele>32.0</ele><time>2026-03-24T16:27:30.999Z</time></trkpt><trkpt lat="42.04388837239629" lon="11.868563447263043"><ele>37.5</ele><time>2026-03-24T16:27:31.999Z</time></trkpt><trkpt lat="42.04385740712116" lon="11.868174541816499"><ele>43.0</ele><time>2026-03-24T16:27:32.999Z</time></trkpt><trkpt lat="42.04382808420013" lon="11.867791761811166"><ele>48.0</ele><time>2026-03-24T16:27:33.999Z</time></trkpt><trkpt lat="42.043808083554794" lon="11.867415394351557"><ele>53.0</ele><time>2026-03-24T16:27:34.999Z</time></trkpt><trkpt lat="42.04379591262255" lon="11.867040855898344"><ele>56.0</ele><time>2026-03-24T16:27:35.999Z</time></trkpt><trkpt lat="42.04378035882046" lon="11.866667338807853"><ele>59.0</ele><time>2026-03-24T16:27:36.999Z</time></trkpt><trkpt lat="42.043756433183404" lon="11.866294719231878"><ele>64.0</ele><time>2026-03-24T16:27:38Z</time></trkpt><trkpt lat="42.04373002844287" lon="11.865925483915047"><ele>69.0</ele><time>2026-03-24T16:27:39Z</time></trkpt><trkpt lat="42.04370328717243" lon="11.865553429682253"><ele>69.0</ele><time>2026-03-24T16:27:40Z</time></trkpt><trkpt lat="42.04367344083593" lon="11.86518256210661"><ele>69.0</ele><time>2026-03-24T16:27:41Z</time></trkpt><trkpt lat="42.04364249819204" lon="11.864811482975547"><ele>74.5</ele><time>2026-03-24T16:27:42Z</time></trkpt><trkpt lat="42.04361190854107" lon="11.864439963982111"><ele>80.0</ele><time>2026-03-24T16:27:43Z</time></trkpt><trkpt lat="42.04358190908531" lon="11.864067896006468"><ele>86.0</ele><time>2026-03-24T16:27:44Z</time></trkpt><trkpt lat="42.04355112461897" lon="11.86369489658623"><ele>92.0</ele><time>2026-03-24T16:27:45Z</time></trkpt><trkpt lat="42.043520198846736" lon="11.863320263988387"><ele>94.5</ele><time>2026-03-24T16:27:46Z</time></trkpt><trkpt lat="42.043488078262875" lon="11.862943207204209"><ele>97.0</ele><time>2026-03-24T16:27:47Z</time></trkpt><trkpt lat="42.0434563187081" lon="11.862564594995904"><ele>92.0</ele><time>2026-03-24T16:27:48Z</time></trkpt><trkpt lat="42.043424206172574" lon="11.862183592440825"><ele>87.0</ele><time>2026-03-24T16:27:49Z</time></trkpt><trkpt lat="42.04339249645906" lon="11.861804750904852"><ele>82.0</ele><time>2026-03-24T16:27:50Z</time></trkpt><trkpt lat="42.043303031748124" lon="11.86145035763806"><ele>77.0</ele><time>2026-03-24T16:27:51Z</time></trkpt><trkpt lat="42.043303431622505" lon="11.861051906283262"><ele>69.5</ele><time>2026-03-24T16:27:52Z</time></trkpt><trkpt lat="42.04326703684366" lon="11.860685297864153"><ele>62.0</ele><time>2026-03-24T16:27:53Z</time></trkpt><trkpt lat="42.04322257007226" lon="11.860317921246898"><ele>61.0</ele><time>2026-03-24T16:27:54Z</time></trkpt><trkpt lat="42.04317750960508" lon="11.859953550791555"><ele>60.0</ele><time>2026-03-24T16:27:55Z</time></trkpt><trkpt lat="42.04313274892835" lon="11.859588566549803"><ele>60.5</ele><time>2026-03-24T16:27:56Z</time></trkpt><trkpt lat="42.04308106237636" lon="11.859227621720184"><ele>61.0</ele><time>2026-03-24T16:27:57Z</time></trkpt><trkpt lat="42.04302187769259" lon="11.858871182445599"><ele>61.0</ele><time>2026-03-24T16:27:58Z</time></trkpt><trkpt lat="42.04294805801254" lon="11.85852529649936"><ele>61.0</ele><time>2026-03-24T16:27:59Z</time></trkpt><trkpt lat="42.04286389691255" lon="11.858188422476228"><ele>61.5</ele><time>2026-03-24T16:28:00Z</time></trkpt><trkpt lat="42.042763145147674" lon="11.857856607206815"><ele>62.0</ele><time>2026-03-24T16:28:01Z</time></trkpt><trkpt lat="42.04264771375507" lon="11.857530828733875"><ele>62.0</ele><time>2026-03-24T16:28:02Z</time></trkpt><trkpt lat="42.04251712795189" lon="11.857213769484979"><ele>62.0</ele><time>2026-03-24T16:28:03Z</time></trkpt><trkpt lat="42.04237477533224" lon="11.856906110188563"><ele>68.5</ele><time>2026-03-24T16:28:04Z</time></trkpt><trkpt lat="42.042215746026486" lon="11.856611348058967"><ele>75.0</ele><time>2026-03-24T16:28:05Z</time></trkpt><trkpt lat="42.042047468856396" lon="11.856325768741712"><ele>75.0</ele><time>2026-03-24T16:28:06Z</time></trkpt><trkpt lat="42.04186961363895" lon="11.85604886747761"><ele>75.0</ele><time>2026-03-24T16:28:07Z</time></trkpt><trkpt lat="42.041686712574894" lon="11.855779136229458"><ele>75.0</ele><time>2026-03-24T16:28:08Z</time></trkpt><trkpt lat="42.04150066259567" lon="11.85551148457723"><ele>75.0</ele><time>2026-03-24T16:28:09Z</time></trkpt><trkpt lat="42.04131366244659" lon="11.855247087575549"><ele>77.5</ele><time>2026-03-24T16:28:10Z</time></trkpt><trkpt lat="42.04112701191128" lon="11.854988766359318"><ele>80.0</ele><time>2026-03-24T16:28:11Z</time></trkpt><trkpt lat="42.040941788820156" lon="11.854731838058386"><ele>76.5</ele><time>2026-03-24T16:28:12Z</time></trkpt><trkpt lat="42.040757085811556" lon="11.854472782673732"><ele>73.0</ele><time>2026-03-24T16:28:13Z</time></trkpt><trkpt lat="42.04057428320788" lon="11.854208687643151"><ele>72.0</ele><time>2026-03-24T16:28:14Z</time></trkpt><trkpt lat="42.040402668545866" lon="11.853938202997732"><ele>71.0</ele><time>2026-03-24T16:28:15Z</time></trkpt><trkpt lat="42.04024200864612" lon="11.853658724851435"><ele>69.5</ele><time>2026-03-24T16:28:16Z</time></trkpt><trkpt lat="42.04009250783001" lon="11.85337068556702"><ele>68.0</ele><time>2026-03-24T16:28:17Z</time></trkpt><trkpt lat="42.03995860965969" lon="11.853071534792893"><ele>68.0</ele><time>2026-03-24T16:28:18Z</time></trkpt><trkpt lat="42.03984334524658" lon="11.852763868767159"><ele>68.0</ele><time>2026-03-24T16:28:19Z</time></trkpt><trkpt lat="42.03973957960375" lon="11.852452302610875"><ele>68.0</ele><time>2026-03-24T16:28:20Z</time></trkpt><trkpt lat="42.039664458642356" lon="11.85213165677082"><ele>68.0</ele><time>2026-03-24T16:28:21Z</time></trkpt><trkpt lat="42.0396162420255" lon="11.851812278213982"><ele>68.0</ele><time>2026-03-24T16:28:22Z</time></trkpt><trkpt lat="42.03957023960294" lon="11.851493405613793"><ele>68.0</ele><time>2026-03-24T16:28:23Z</time></trkpt><trkpt lat="42.039544981605026" lon="11.851170051547474"><ele>65.0</ele><time>2026-03-24T16:28:24Z</time></trkpt><trkpt lat="42.03952949401876" lon="11.850844313075887"><ele>62.0</ele><time>2026-03-24T16:28:25Z</time></trkpt><trkpt lat="42.039529549032686" lon="11.850509178063934"><ele>62.0</ele><time>2026-03-24T16:28:26Z</time></trkpt><trkpt lat="42.03955249041079" lon="11.85016593328028"><ele>62.0</ele><time>2026-03-24T16:28:27Z</time></trkpt><trkpt lat="42.039598198781064" lon="11.84982446766157"><ele>55.0</ele><time>2026-03-24T16:28:28Z</time></trkpt><trkpt lat="42.03966585352581" lon="11.849484114438473"><ele>48.0</ele><time>2026-03-24T16:28:29Z</time></trkpt><trkpt lat="42.039761646506385" lon="11.849152081854694"><ele>51.5</ele><time>2026-03-24T16:28:30Z</time></trkpt><trkpt lat="42.03986521399457" lon="11.848822343266084"><ele>55.0</ele><time>2026-03-24T16:28:31Z</time></trkpt><trkpt lat="42.03998678038205" lon="11.848495843151536"><ele>50.5</ele><time>2026-03-24T16:28:32Z</time></trkpt><trkpt lat="42.0401258207845" lon="11.848179014287691"><ele>46.0</ele><time>2026-03-24T16:28:33Z</time></trkpt><trkpt lat="42.04028540707961" lon="11.847875211314687"><ele>41.5</ele><time>2026-03-24T16:28:34Z</time></trkpt><trkpt lat="42.040456666868344" lon="11.84757746495352"><ele>37.0</ele><time>2026-03-24T16:28:35Z</time></trkpt><trkpt lat="42.0406296559191" lon="11.8472848190548"><ele>36.5</ele><time>2026-03-24T16:28:36Z</time></trkpt><trkpt lat="42.04080147934543" lon="11.846990285008204"><ele>36.0</ele><time>2026-03-24T16:28:37Z</time></trkpt><trkpt lat="42.04098221488098" lon="11.84669732702903"><ele>36.0</ele><time>2026-03-24T16:28:38Z</time></trkpt><trkpt lat="42.04116421553017" lon="11.846408558053959"><ele>36.0</ele><time>2026-03-24T16:28:39Z</time></trkpt><trkpt lat="42.04134172127671" lon="11.846100213855232"><ele>35.5</ele><time>2026-03-24T16:28:40Z</time></trkpt><trkpt lat="42.04152591549952" lon="11.845798235792655"><ele>35.0</ele><time>2026-03-24T16:28:41Z</time></trkpt><trkpt lat="42.04171275132959" lon="11.845502906644393"><ele>35.0</ele><time>2026-03-24T16:28:42Z</time></trkpt><trkpt lat="42.04189131471536" lon="11.845201255989366"><ele>35.0</ele><time>2026-03-24T16:28:43Z</time></trkpt><trkpt lat="42.04207479919635" lon="11.844900823678227"><ele>35.5</ele><time>2026-03-24T16:28:44Z</time></trkpt><trkpt lat="42.042255203138524" lon="11.844599435040248"><ele>36.0</ele><time>2026-03-24T16:28:45Z</time></trkpt><trkpt lat="42.04243552047842" lon="11.844295567352383"><ele>37.5</ele><time>2026-03-24T16:28:46Z</time></trkpt><trkpt lat="42.04261834603847" lon="11.843993607243252"><ele>39.0</ele><time>2026-03-24T16:28:47Z</time></trkpt><trkpt lat="42.04280131281352" lon="11.843687618724502"><ele>38.5</ele><time>2026-03-24T16:28:48Z</time></trkpt><trkpt lat="42.042984040229875" lon="11.843385544483699"><ele>38.0</ele><time>2026-03-24T16:28:49Z</time></trkpt><trkpt lat="42.043167157598354" lon="11.843081697554817"><ele>39.0</ele><time>2026-03-24T16:28:50Z</time></trkpt><trkpt lat="42.043347757584314" lon="11.842776895049662"><ele>40.0</ele><time>2026-03-24T16:28:51Z</time></trkpt><trkpt lat="42.04352363161867" lon="11.842466787023607"><ele>40.0</ele><time>2026-03-24T16:28:52Z</time></trkpt><trkpt lat="42.043701645607385" lon="11.842152691716377"><ele>40.0</ele><time>2026-03-24T16:28:53Z</time></trkpt><trkpt lat="42.04388379744813" lon="11.841842135016542"><ele>39.5</ele><time>2026-03-24T16:28:54Z</time></trkpt><trkpt lat="42.04406659854596" lon="11.84152920532731"><ele>39.0</ele><time>2026-03-24T16:28:55Z</time></trkpt><trkpt lat="42.04425120266529" lon="11.841220518353117"><ele>36.5</ele><time>2026-03-24T16:28:56Z</time></trkpt><trkpt lat="42.044435532271336" lon="11.840912467054563"><ele>34.0</ele><time>2026-03-24T16:28:57Z</time></trkpt><trkpt lat="42.04462191503015" lon="11.840605771627379"><ele>34.0</ele><time>2026-03-24T16:28:58Z</time></trkpt><trkpt lat="42.04480883766449" lon="11.840297513625021"><ele>34.0</ele><time>2026-03-24T16:28:59Z</time></trkpt><trkpt lat="42.04499487597298" lon="11.839989106101696"><ele>34.0</ele><time>2026-03-24T16:29:00Z</time></trkpt><trkpt lat="42.04517858479659" lon="11.839682895687284"><ele>34.0</ele><time>2026-03-24T16:29:01Z</time></trkpt><trkpt lat="42.04535980367159" lon="11.839376162632782"><ele>33.0</ele><time>2026-03-24T16:29:02Z</time></trkpt><trkpt lat="42.04553834341026" lon="11.839068117834225"><ele>32.0</ele><time>2026-03-24T16:29:03Z</time></trkpt><trkpt lat="42.045722192563545" lon="11.838761284855499"><ele>33.5</ele><time>2026-03-24T16:29:04Z</time></trkpt><trkpt lat="42.0459072809843" lon="11.838458666581843"><ele>35.0</ele><time>2026-03-24T16:29:05Z</time></trkpt><trkpt lat="42.04609324156482" lon="11.838154727643753"><ele>35.0</ele><time>2026-03-24T16:29:06Z</time></trkpt><trkpt lat="42.04628116621771" lon="11.837846941767067"><ele>35.0</ele><time>2026-03-24T16:29:07Z</time></trkpt><trkpt lat="42.04646888499202" lon="11.837534113170843"><ele>34.0</ele><time>2026-03-24T16:29:08Z</time></trkpt><trkpt lat="42.04665461276695" lon="11.837225214801274"><ele>33.0</ele><time>2026-03-24T16:29:09Z</time></trkpt><trkpt lat="42.046835790463206" lon="11.836925018562223"><ele>32.0</ele><time>2026-03-24T16:29:10Z</time></trkpt><trkpt lat="42.04701945979428" lon="11.836619703443827"><ele>31.0</ele><time>2026-03-24T16:29:11Z</time></trkpt><trkpt lat="42.04720624537658" lon="11.836312516886256"><ele>31.0</ele><time>2026-03-24T16:29:12Z</time></trkpt><trkpt lat="42.047395169517095" lon="11.836000490437389"><ele>31.0</ele><time>2026-03-24T16:29:12.999Z</time></trkpt><trkpt lat="42.04758496480983" lon="11.835684991577414"><ele>30.0</ele><time>2026-03-24T16:29:13.999Z</time></trkpt><trkpt lat="42.0477744204528" lon="11.835373919413307"><ele>29.0</ele><time>2026-03-24T16:29:14.999Z</time></trkpt><trkpt lat="42.047966823039665" lon="11.835066588086319"><ele>28.0</ele><time>2026-03-24T16:29:15.999Z</time></trkpt><trkpt lat="42.04816077698744" lon="11.834759178215865"><ele>27.0</ele><time>2026-03-24T16:29:16.999Z</time></trkpt><trkpt lat="42.048354961165124" lon="11.834451194112505"><ele>31.0</ele><time>2026-03-24T16:29:17.999Z</time></trkpt><trkpt lat="42.048548384907185" lon="11.834142083687965"><ele>35.0</ele><time>2026-03-24T16:29:18.999Z</time></trkpt><trkpt lat="42.048740833298076" lon="11.833831377981229"><ele>35.0</ele><time>2026-03-24T16:29:19.999Z</time></trkpt><trkpt lat="42.04893269314031" lon="11.833518690251914"><ele>35.0</ele><time>2026-03-24T16:29:20.999Z</time></trkpt><trkpt lat="42.049123450494726" lon="11.83320538416581"><ele>35.5</ele><time>2026-03-24T16:29:21.999Z</time></trkpt><trkpt lat="42.04931196453595" lon="11.832890694712622"><ele>36.0</ele><time>2026-03-24T16:29:22.999Z</time></trkpt><trkpt lat="42.049500774269795" lon="11.83257764786744"><ele>36.0</ele><time>2026-03-24T16:29:23.999Z</time></trkpt><trkpt lat="42.04968826840105" lon="11.832263770693707"><ele>36.0</ele><time>2026-03-24T16:29:24.999Z</time></trkpt><trkpt lat="42.049876008080815" lon="11.831950498446362"><ele>40.5</ele><time>2026-03-24T16:29:25.999Z</time></trkpt><trkpt lat="42.0500648200071" lon="11.831637247896737"><ele>45.0</ele><time>2026-03-24T16:29:26.999Z</time></trkpt><trkpt lat="42.050253766561205" lon="11.8313228574469"><ele>45.0</ele><time>2026-03-24T16:29:27.999Z</time></trkpt><trkpt lat="42.05043964935216" lon="11.831013543155342"><ele>45.0</ele><time>2026-03-24T16:29:28.999Z</time></trkpt><trkpt lat="42.05062567153185" lon="11.830705590301697"><ele>47.5</ele><time>2026-03-24T16:29:29.999Z</time></trkpt><trkpt lat="42.05081145491365" lon="11.830399994152414"><ele>50.0</ele><time>2026-03-24T16:29:30.999Z</time></trkpt><trkpt lat="42.05099410025475" lon="11.830096117251967"><ele>45.0</ele><time>2026-03-24T16:29:31.999Z</time></trkpt><trkpt lat="42.05117689592606" lon="11.829794355721358"><ele>40.0</ele><time>2026-03-24T16:29:32.999Z</time></trkpt><trkpt lat="42.051357155352314" lon="11.829498930529436"><ele>38.5</ele><time>2026-03-24T16:29:33.999Z</time></trkpt><trkpt lat="42.051535911816025" lon="11.82920722703471"><ele>37.0</ele><time>2026-03-24T16:29:34.999Z</time></trkpt><trkpt lat="42.051717511214804" lon="11.828926342544472"><ele>37.0</ele><time>2026-03-24T16:29:35.999Z</time></trkpt><trkpt lat="42.05190190956577" lon="11.828660168042742"><ele>37.0</ele><time>2026-03-24T16:29:36.999Z</time></trkpt><trkpt lat="42.052092537445326" lon="11.828406700693481"><ele>37.0</ele><time>2026-03-24T16:29:37.999Z</time></trkpt><trkpt lat="42.052285166117926" lon="11.828154658936308"><ele>37.0</ele><time>2026-03-24T16:29:38.999Z</time></trkpt><trkpt lat="42.05248587597019" lon="11.827910005728539"><ele>37.5</ele><time>2026-03-24T16:29:39.999Z</time></trkpt><trkpt lat="42.05268986334606" lon="11.827676250111233"><ele>38.0</ele><time>2026-03-24T16:29:40.999Z</time></trkpt><trkpt lat="42.05289454665708" lon="11.82745048048015"><ele>36.5</ele><time>2026-03-24T16:29:41.999Z</time></trkpt><trkpt lat="42.05310284488754" lon="11.827236000207568"><ele>35.0</ele><time>2026-03-24T16:29:42.999Z</time></trkpt><trkpt lat="42.05331361672554" lon="11.827033686365027"><ele>35.0</ele><time>2026-03-24T16:29:44Z</time></trkpt><trkpt lat="42.053527398986255" lon="11.82684639181777"><ele>35.0</ele><time>2026-03-24T16:29:45Z</time></trkpt><trkpt lat="42.05374047444705" lon="11.826671378157261"><ele>35.0</ele><time>2026-03-24T16:29:46Z</time></trkpt><trkpt lat="42.05395289819743" lon="11.826506008594338"><ele>35.0</ele><time>2026-03-24T16:29:47Z</time></trkpt><trkpt lat="42.05416875330137" lon="11.826346453824879"><ele>35.0</ele><time>2026-03-24T16:29:48Z</time></trkpt><trkpt lat="42.05438840910004" lon="11.826195650874169"><ele>35.0</ele><time>2026-03-24T16:29:49Z</time></trkpt><trkpt lat="42.05461145736611" lon="11.826051188200507"><ele>33.5</ele><time>2026-03-24T16:29:50Z</time></trkpt><trkpt lat="42.054838623292866" lon="11.825913550287659"><ele>32.0</ele><time>2026-03-24T16:29:51Z</time></trkpt><trkpt lat="42.05507242533061" lon="11.825787545622925"><ele>32.0</ele><time>2026-03-24T16:29:52Z</time></trkpt><trkpt lat="42.055309067086206" lon="11.825670236612801"><ele>32.0</ele><time>2026-03-24T16:29:53Z</time></trkpt><trkpt lat="42.055545305820964" lon="11.825559894656552"><ele>32.0</ele><time>2026-03-24T16:29:54Z</time></trkpt><trkpt lat="42.055781889132994" lon="11.825455700268355"><ele>32.0</ele><time>2026-03-24T16:29:55Z</time></trkpt><trkpt lat="42.05602009642546" lon="11.825357873302517"><ele>29.0</ele><time>2026-03-24T16:29:56Z</time></trkpt><trkpt lat="42.0562591313189" lon="11.825266810661185"><ele>26.0</ele><time>2026-03-24T16:29:57Z</time></trkpt><trkpt lat="42.05649869264758" lon="11.825184734282638"><ele>23.0</ele><time>2026-03-24T16:29:58Z</time></trkpt><trkpt lat="42.05673596944058" lon="11.825107366398948"><ele>20.0</ele><time>2026-03-24T16:29:59Z</time></trkpt><trkpt lat="42.05695845719935" lon="11.825032472828317"><ele>20.0</ele><time>2026-03-24T16:30:00Z</time></trkpt><trkpt lat="42.05716910379837" lon="11.824962700597686"><ele>20.0</ele><time>2026-03-24T16:30:01Z</time></trkpt><trkpt lat="42.05736473901632" lon="11.824897238774241"><ele>20.0</ele><time>2026-03-24T16:30:02Z</time></trkpt><trkpt lat="42.05755041285345" lon="11.824837877602258"><ele>20.0</ele><time>2026-03-24T16:30:03Z</time></trkpt><trkpt lat="42.05773154781756" lon="11.824780172654549"><ele>20.0</ele><time>2026-03-24T16:30:04Z</time></trkpt><trkpt lat="42.057909295017964" lon="11.824722513693137"><ele>20.0</ele><time>2026-03-24T16:30:05Z</time></trkpt><trkpt lat="42.05806934069737" lon="11.824668460494307"><ele>20.0</ele><time>2026-03-24T16:30:06Z</time></trkpt><trkpt lat="42.05822144311195" lon="11.824615990321576"><ele>20.0</ele><time>2026-03-24T16:30:07Z</time></trkpt><trkpt lat="42.05836284290164" lon="11.824565998419478"><ele>20.0</ele><time>2026-03-24T16:30:08Z</time></trkpt><trkpt lat="42.05849030326475" lon="11.824520963796392"><ele>20.0</ele><time>2026-03-24T16:30:09Z</time></trkpt><trkpt lat="42.05861119543571" lon="11.824478443960963"><ele>19.8</ele><time>2026-03-24T16:30:10Z</time></trkpt><trkpt lat="42.05872010747967" lon="11.824438799228057"><ele>19.6</ele><time>2026-03-24T16:30:11Z</time></trkpt><trkpt lat="42.05881630532543" lon="11.824403797684122"><ele>19.4</ele><time>2026-03-24T16:30:12Z</time></trkpt><trkpt lat="42.058905195831635" lon="11.824372485193676"><ele>19.2</ele><time>2026-03-24T16:30:13Z</time></trkpt><trkpt lat="42.058987167187354" lon="11.824345273953783"><ele>19.0</ele><time>2026-03-24T16:30:14Z</time></trkpt><trkpt lat="42.059058131139416" lon="11.824324718520781"><ele>18.833333333333332</ele><time>2026-03-24T16:30:15Z</time></trkpt><trkpt lat="42.05912318789881" lon="11.8243065180239"><ele>18.666666666666664</ele><time>2026-03-24T16:30:16Z</time></trkpt><trkpt lat="42.05919988651861" lon="11.824385621057605"><ele>18.5</ele><time>2026-03-24T16:30:17Z</time></trkpt><trkpt lat="42.05928171235528" lon="11.824367335594536"><ele>18.333333333333332</ele><time>2026-03-24T16:30:18Z</time></trkpt><trkpt lat="42.059362838186466" lon="11.824340979303113"><ele>18.166666666666668</ele><time>2026-03-24T16:30:19Z</time></trkpt><trkpt lat="42.059456543517456" lon="11.824302837234839"><ele>18.0</ele><time>2026-03-24T16:30:20Z</time></trkpt><trkpt lat="42.05956433929154" lon="11.82425398816212"><ele>18.0</ele><time>2026-03-24T16:30:21Z</time></trkpt><trkpt lat="42.05968337458811" lon="11.824196778732633"><ele>18.0</ele><time>2026-03-24T16:30:22Z</time></trkpt><trkpt lat="42.059817353076845" lon="11.824130686351706"><ele>18.0</ele><time>2026-03-24T16:30:23Z</time></trkpt><trkpt lat="42.059963757569655" lon="11.824067706875752"><ele>18.0</ele><time>2026-03-24T16:30:24Z</time></trkpt><trkpt lat="42.06012545181039" lon="11.824020433624398"><ele>16.333333333333332</ele><time>2026-03-24T16:30:25Z</time></trkpt><trkpt lat="42.060297838689124" lon="11.823969126341698"><ele>14.666666666666666</ele><time>2026-03-24T16:30:26Z</time></trkpt><trkpt lat="42.06046691666392" lon="11.823919034193853"><ele>13.0</ele><time>2026-03-24T16:30:27Z</time></trkpt><trkpt lat="42.0606468302961" lon="11.823867620207285"><ele>13.0</ele><time>2026-03-24T16:30:28Z</time></trkpt><trkpt lat="42.060834458242965" lon="11.823816042464724"><ele>13.0</ele><time>2026-03-24T16:30:29Z</time></trkpt><trkpt lat="42.061027503959956" lon="11.82376344980836"><ele>13.0</ele><time>2026-03-24T16:30:30Z</time></trkpt><trkpt lat="42.061227068870004" lon="11.82370617315392"><ele>13.0</ele><time>2026-03-24T16:30:31Z</time></trkpt><trkpt lat="42.061431563053034" lon="11.823639963735404"><ele>13.0</ele><time>2026-03-24T16:30:32Z</time></trkpt><trkpt lat="42.061641598438435" lon="11.823569601878514"><ele>13.0</ele><time>2026-03-24T16:30:33Z</time></trkpt><trkpt lat="42.061855419898635" lon="11.823501431600524"><ele>18.0</ele><time>2026-03-24T16:30:34Z</time></trkpt><trkpt lat="42.062075973666055" lon="11.823434574579354"><ele>23.0</ele><time>2026-03-24T16:30:35Z</time></trkpt><trkpt lat="42.06230274307852" lon="11.82336310674189"><ele>26.5</ele><time>2026-03-24T16:30:36Z</time></trkpt><trkpt lat="42.06253345367627" lon="11.823288771509501"><ele>30.0</ele><time>2026-03-24T16:30:37Z</time></trkpt><trkpt lat="42.06276252751026" lon="11.82321524131145"><ele>30.0</ele><time>2026-03-24T16:30:38Z</time></trkpt><trkpt lat="42.06299140500379" lon="11.823141209038592"><ele>30.0</ele><time>2026-03-24T16:30:39Z</time></trkpt><trkpt lat="42.06322541707512" lon="11.823064692444422"><ele>32.5</ele><time>2026-03-24T16:30:40Z</time></trkpt><trkpt lat="42.06346245061865" lon="11.822987190134057"><ele>35.0</ele><time>2026-03-24T16:30:41Z</time></trkpt><trkpt lat="42.063702404231584" lon="11.82291173146962"><ele>35.0</ele><time>2026-03-24T16:30:42Z</time></trkpt><trkpt lat="42.06394549867189" lon="11.822834794253032"><ele>35.0</ele><time>2026-03-24T16:30:43Z</time></trkpt><trkpt lat="42.06419337121892" lon="11.822759480379048"><ele>34.0</ele><time>2026-03-24T16:30:44Z</time></trkpt><trkpt lat="42.064444859072225" lon="11.82268855746447"><ele>33.0</ele><time>2026-03-24T16:30:45Z</time></trkpt><trkpt lat="42.06470055127928" lon="11.822625456801235"><ele>34.0</ele><time>2026-03-24T16:30:46Z</time></trkpt><trkpt lat="42.06496115904502" lon="11.822571825736242"><ele>35.0</ele><time>2026-03-24T16:30:47Z</time></trkpt><trkpt lat="42.06522580250589" lon="11.822524470358768"><ele>35.0</ele><time>2026-03-24T16:30:48Z</time></trkpt><trkpt lat="42.06549352429663" lon="11.822487857102592"><ele>35.0</ele><time>2026-03-24T16:30:49Z</time></trkpt><trkpt lat="42.06576462425914" lon="11.822459881741183"><ele>35.0</ele><time>2026-03-24T16:30:50Z</time></trkpt><trkpt lat="42.06603772257123" lon="11.822446810824689"><ele>35.0</ele><time>2026-03-24T16:30:51Z</time></trkpt><trkpt lat="42.06631200602327" lon="11.822444668726842"><ele>35.0</ele><time>2026-03-24T16:30:52Z</time></trkpt><trkpt lat="42.066587611615816" lon="11.822452498241157"><ele>35.0</ele><time>2026-03-24T16:30:53Z</time></trkpt><trkpt lat="42.066864374967714" lon="11.822470902457825"><ele>36.0</ele><time>2026-03-24T16:30:54Z</time></trkpt><trkpt lat="42.0671418960032" lon="11.822505953363356"><ele>37.0</ele><time>2026-03-24T16:30:55Z</time></trkpt><trkpt lat="42.067420859186896" lon="11.822542931695915"><ele>34.0</ele><time>2026-03-24T16:30:56Z</time></trkpt><trkpt lat="42.06770126252875" lon="11.822582150252947"><ele>31.0</ele><time>2026-03-24T16:30:57Z</time></trkpt><trkpt lat="42.06798197068739" lon="11.822629032965127"><ele>32.5</ele><time>2026-03-24T16:30:58Z</time></trkpt><trkpt lat="42.06826422904927" lon="11.822681075299219"><ele>34.0</ele><time>2026-03-24T16:30:59Z</time></trkpt><trkpt lat="42.068547475850465" lon="11.822732349670243"><ele>34.0</ele><time>2026-03-24T16:31:00Z</time></trkpt><trkpt lat="42.06883065131714" lon="11.822779909220898"><ele>34.0</ele><time>2026-03-24T16:31:01Z</time></trkpt><trkpt lat="42.069115310319795" lon="11.822823444831885"><ele>32.0</ele><time>2026-03-24T16:31:02Z</time></trkpt><trkpt lat="42.06940057062136" lon="11.822866767722697"><ele>30.0</ele><time>2026-03-24T16:31:03Z</time></trkpt><trkpt lat="42.069687479434265" lon="11.822911154905949"><ele>32.5</ele><time>2026-03-24T16:31:04Z</time></trkpt><trkpt lat="42.06997502515298" lon="11.822956717150854"><ele>35.0</ele><time>2026-03-24T16:31:05Z</time></trkpt><trkpt lat="42.07026382627625" lon="11.822999672010598"><ele>35.0</ele><time>2026-03-24T16:31:06Z</time></trkpt><trkpt lat="42.07055269295763" lon="11.823040474010678"><ele>35.0</ele><time>2026-03-24T16:31:07Z</time></trkpt><trkpt lat="42.07084169161221" lon="11.823080279046719"><ele>36.0</ele><time>2026-03-24T16:31:08Z</time></trkpt><trkpt lat="42.07112975073317" lon="11.823120732992239"><ele>37.0</ele><time>2026-03-24T16:31:09Z</time></trkpt><trkpt lat="42.07141755412689" lon="11.823163837751078"><ele>41.5</ele><time>2026-03-24T16:31:10Z</time></trkpt><trkpt lat="42.07170377795229" lon="11.823207974468241"><ele>46.0</ele><time>2026-03-24T16:31:11Z</time></trkpt><trkpt lat="42.07198902418465" lon="11.82325015316182"><ele>46.0</ele><time>2026-03-24T16:31:12Z</time></trkpt><trkpt lat="42.07227320551545" lon="11.82328897660489"><ele>46.0</ele><time>2026-03-24T16:31:13Z</time></trkpt><trkpt lat="42.07255648157329" lon="11.823328964593424"><ele>46.0</ele><time>2026-03-24T16:31:14Z</time></trkpt><trkpt lat="42.07283920355139" lon="11.823367019253576"><ele>46.0</ele><time>2026-03-24T16:31:15Z</time></trkpt><trkpt lat="42.073120923953354" lon="11.823405554990833"><ele>45.0</ele><time>2026-03-24T16:31:16Z</time></trkpt><trkpt lat="42.07340070982541" lon="11.823446748039428"><ele>44.0</ele><time>2026-03-24T16:31:17Z</time></trkpt><trkpt lat="42.07368054821408" lon="11.823488639808165"><ele>48.0</ele><time>2026-03-24T16:31:18Z</time></trkpt><trkpt lat="42.07396025605684" lon="11.82353269004814"><ele>52.0</ele><time>2026-03-24T16:31:19Z</time></trkpt><trkpt lat="42.074239321662134" lon="11.823579915594749"><ele>52.0</ele><time>2026-03-24T16:31:20Z</time></trkpt><trkpt lat="42.074517469152724" lon="11.823630031378935"><ele>52.0</ele><time>2026-03-24T16:31:21Z</time></trkpt><trkpt lat="42.07479422937956" lon="11.823682892899342"><ele>57.5</ele><time>2026-03-24T16:31:22Z</time></trkpt><trkpt lat="42.075070726631175" lon="11.82374082425571"><ele>63.0</ele><time>2026-03-24T16:31:23Z</time></trkpt><trkpt lat="42.075346201683104" lon="11.823803638605858"><ele>63.0</ele><time>2026-03-24T16:31:24Z</time></trkpt><trkpt lat="42.07562060917941" lon="11.82387229607994"><ele>63.0</ele><time>2026-03-24T16:31:25Z</time></trkpt><trkpt lat="42.075896625542825" lon="11.82394712897872"><ele>67.5</ele><time>2026-03-24T16:31:26Z</time></trkpt><trkpt lat="42.076171469154744" lon="11.824028960090855"><ele>72.0</ele><time>2026-03-24T16:31:27Z</time></trkpt><trkpt lat="42.07644585918407" lon="11.824115857855874"><ele>72.5</ele><time>2026-03-24T16:31:28Z</time></trkpt><trkpt lat="42.07672023893417" lon="11.824209954258945"><ele>73.0</ele><time>2026-03-24T16:31:29Z</time></trkpt><trkpt lat="42.07699369520099" lon="11.824312142858002"><ele>74.5</ele><time>2026-03-24T16:31:30Z</time></trkpt><trkpt lat="42.077267628382025" lon="11.824415494681105"><ele>76.0</ele><time>2026-03-24T16:31:31Z</time></trkpt><trkpt lat="42.077542241960955" lon="11.824519181429261"><ele>76.0</ele><time>2026-03-24T16:31:32Z</time></trkpt><trkpt lat="42.077818168744585" lon="11.824624099629004"><ele>76.0</ele><time>2026-03-24T16:31:33Z</time></trkpt><trkpt lat="42.07809512600424" lon="11.824728702907485"><ele>76.0</ele><time>2026-03-24T16:31:34Z</time></trkpt><trkpt lat="42.07837135975891" lon="11.82482869951826"><ele>76.0</ele><time>2026-03-24T16:31:35Z</time></trkpt><trkpt lat="42.07865018525558" lon="11.824926203576759"><ele>76.0</ele><time>2026-03-24T16:31:36Z</time></trkpt><trkpt lat="42.07892921843729" lon="11.825029147682182"><ele>76.0</ele><time>2026-03-24T16:31:37Z</time></trkpt><trkpt lat="42.07920844936813" lon="11.825134497228685"><ele>78.0</ele><time>2026-03-24T16:31:38Z</time></trkpt><trkpt lat="42.079487581945735" lon="11.825241476342255"><ele>80.0</ele><time>2026-03-24T16:31:38.999Z</time></trkpt><trkpt lat="42.079767340869275" lon="11.82534571697826"><ele>81.5</ele><time>2026-03-24T16:31:39.999Z</time></trkpt><trkpt lat="42.08004729740167" lon="11.825452674286716"><ele>83.0</ele><time>2026-03-24T16:31:40.999Z</time></trkpt><trkpt lat="42.08032488962456" lon="11.82555959869193"><ele>83.0</ele><time>2026-03-24T16:31:41.999Z</time></trkpt><trkpt lat="42.08060253623394" lon="11.825665723778698"><ele>83.0</ele><time>2026-03-24T16:31:42.999Z</time></trkpt><trkpt lat="42.08087874438304" lon="11.825774925736274"><ele>85.0</ele><time>2026-03-24T16:31:43.999Z</time></trkpt><trkpt lat="42.081154863510136" lon="11.825884047143616"><ele>87.0</ele><time>2026-03-24T16:31:44.999Z</time></trkpt><trkpt lat="42.08143035343825" lon="11.82599196537919"><ele>90.0</ele><time>2026-03-24T16:31:45.999Z</time></trkpt><trkpt lat="42.08170594621492" lon="11.826099104753776"><ele>93.0</ele><time>2026-03-24T16:31:46.999Z</time></trkpt><trkpt lat="42.081980691805974" lon="11.826206038017112"><ele>93.0</ele><time>2026-03-24T16:31:47.999Z</time></trkpt><trkpt lat="42.08225526827433" lon="11.826313170321937"><ele>93.0</ele><time>2026-03-24T16:31:48.999Z</time></trkpt><trkpt lat="42.08252972360386" lon="11.826419483220219"><ele>91.5</ele><time>2026-03-24T16:31:50Z</time></trkpt><trkpt lat="42.08280370400601" lon="11.826527610081213"><ele>90.0</ele><time>2026-03-24T16:31:51Z</time></trkpt><trkpt lat="42.08307532132722" lon="11.826637562807267"><ele>87.0</ele><time>2026-03-24T16:31:52Z</time></trkpt><trkpt lat="42.083345072211614" lon="11.82674851090692"><ele>84.0</ele><time>2026-03-24T16:31:53Z</time></trkpt><trkpt lat="42.08361303603031" lon="11.8268580916915"><ele>84.0</ele><time>2026-03-24T16:31:54Z</time></trkpt><trkpt lat="42.08388013250454" lon="11.826965054999208"><ele>84.0</ele><time>2026-03-24T16:31:55Z</time></trkpt><trkpt lat="42.08414822243427" lon="11.827072421179473"><ele>78.5</ele><time>2026-03-24T16:31:56Z</time></trkpt><trkpt lat="42.0844154574336" lon="11.827180843699503"><ele>73.0</ele><time>2026-03-24T16:31:57Z</time></trkpt><trkpt lat="42.08468221535456" lon="11.82728807102458"><ele>81.5</ele><time>2026-03-24T16:31:58Z</time></trkpt><trkpt lat="42.084950138439794" lon="11.827393905496898"><ele>90.0</ele><time>2026-03-24T16:31:59Z</time></trkpt><trkpt lat="42.085216976291804" lon="11.827495539181134"><ele>90.0</ele><time>2026-03-24T16:32:00Z</time></trkpt><trkpt lat="42.08548315837793" lon="11.827599475915969"><ele>90.0</ele><time>2026-03-24T16:32:01Z</time></trkpt><trkpt lat="42.08574835666342" lon="11.82770456761788"><ele>101.0</ele><time>2026-03-24T16:32:02Z</time></trkpt><trkpt lat="42.08601415140443" lon="11.82780572484176"><ele>112.0</ele><time>2026-03-24T16:32:03Z</time></trkpt><trkpt lat="42.08627898548767" lon="11.827905821137097"><ele>112.0</ele><time>2026-03-24T16:32:04Z</time></trkpt><trkpt lat="42.08654333396722" lon="11.82800496863292"><ele>112.0</ele><time>2026-03-24T16:32:05Z</time></trkpt><trkpt lat="42.08680789252118" lon="11.828103848520096"><ele>116.5</ele><time>2026-03-24T16:32:06Z</time></trkpt><trkpt lat="42.08707266696322" lon="11.828197753435028"><ele>121.0</ele><time>2026-03-24T16:32:07Z</time></trkpt><trkpt lat="42.087340471975075" lon="11.828286126925118"><ele>119.5</ele><time>2026-03-24T16:32:08Z</time></trkpt><trkpt lat="42.08760919655861" lon="11.828365330827028"><ele>118.0</ele><time>2026-03-24T16:32:09Z</time></trkpt><trkpt lat="42.0878783446528" lon="11.828435988021276"><ele>121.5</ele><time>2026-03-24T16:32:10Z</time></trkpt><trkpt lat="42.08814967097245" lon="11.828502196902424"><ele>125.0</ele><time>2026-03-24T16:32:11Z</time></trkpt><trkpt lat="42.08842296689288" lon="11.828560475585697"><ele>125.0</ele><time>2026-03-24T16:32:12Z</time></trkpt><trkpt lat="42.08870075566627" lon="11.828607210267126"><ele>125.0</ele><time>2026-03-24T16:32:13Z</time></trkpt><trkpt lat="42.08897782834284" lon="11.828648915127681"><ele>129.0</ele><time>2026-03-24T16:32:14Z</time></trkpt><trkpt lat="42.08925780931319" lon="11.828680092968465"><ele>133.0</ele><time>2026-03-24T16:32:15Z</time></trkpt><trkpt lat="42.08953809270044" lon="11.828701681276616"><ele>133.0</ele><time>2026-03-24T16:32:16Z</time></trkpt><trkpt lat="42.08981979640717" lon="11.828723060982673"><ele>133.0</ele><time>2026-03-24T16:32:17Z</time></trkpt><trkpt lat="42.09010292407764" lon="11.828734675455644"><ele>134.5</ele><time>2026-03-24T16:32:18Z</time></trkpt><trkpt lat="42.090387776068646" lon="11.828738199274449"><ele>136.0</ele><time>2026-03-24T16:32:19Z</time></trkpt><trkpt lat="42.0906725509502" lon="11.828733990748784"><ele>132.0</ele><time>2026-03-24T16:32:20Z</time></trkpt><trkpt lat="42.09095893079459" lon="11.82872709315828"><ele>128.0</ele><time>2026-03-24T16:32:21Z</time></trkpt><trkpt lat="42.091247124741926" lon="11.828715484479568"><ele>128.0</ele><time>2026-03-24T16:32:22Z</time></trkpt><trkpt lat="42.09153828310458" lon="11.82870153731611"><ele>128.0</ele><time>2026-03-24T16:32:23Z</time></trkpt><trkpt lat="42.09182913165159" lon="11.828691348398797"><ele>121.5</ele><time>2026-03-24T16:32:24Z</time></trkpt><trkpt lat="42.092120161786134" lon="11.828680956316546"><ele>115.0</ele><time>2026-03-24T16:32:25Z</time></trkpt><trkpt lat="42.092413612123075" lon="11.828670160656353"><ele>109.0</ele><time>2026-03-24T16:32:26Z</time></trkpt><trkpt lat="42.09270582977609" lon="11.82865714273502"><ele>103.0</ele><time>2026-03-24T16:32:27Z</time></trkpt><trkpt lat="42.09299814770378" lon="11.828643063658895"><ele>110.5</ele><time>2026-03-24T16:32:28Z</time></trkpt><trkpt lat="42.09328900821699" lon="11.82862517333817"><ele>118.0</ele><time>2026-03-24T16:32:29Z</time></trkpt><trkpt lat="42.09357637175406" lon="11.828604666434197"><ele>118.0</ele><time>2026-03-24T16:32:30Z</time></trkpt><trkpt lat="42.09386357067579" lon="11.82858719595841"><ele>118.0</ele><time>2026-03-24T16:32:31Z</time></trkpt><trkpt lat="42.09415048801577" lon="11.828574267099969"><ele>125.5</ele><time>2026-03-24T16:32:32Z</time></trkpt><trkpt lat="42.09443855105185" lon="11.828558807131918"><ele>133.0</ele><time>2026-03-24T16:32:33Z</time></trkpt><trkpt lat="42.094726307695616" lon="11.82854661784531"><ele>123.5</ele><time>2026-03-24T16:32:34Z</time></trkpt><trkpt lat="42.09501597244488" lon="11.828532850498735"><ele>114.0</ele><time>2026-03-24T16:32:35Z</time></trkpt><trkpt lat="42.095305836044794" lon="11.828521417501005"><ele>114.0</ele><time>2026-03-24T16:32:36Z</time></trkpt><trkpt lat="42.09559693676131" lon="11.828511494149412"><ele>114.0</ele><time>2026-03-24T16:32:37Z</time></trkpt><trkpt lat="42.095888350949984" lon="11.82850161599735"><ele>104.5</ele><time>2026-03-24T16:32:38Z</time></trkpt><trkpt lat="42.096180926056945" lon="11.82849262419231"><ele>95.0</ele><time>2026-03-24T16:32:39Z</time></trkpt><trkpt lat="42.09647558128787" lon="11.828485619943798"><ele>102.5</ele><time>2026-03-24T16:32:40Z</time></trkpt><trkpt lat="42.09677098855742" lon="11.828476980503977"><ele>110.0</ele><time>2026-03-24T16:32:41Z</time></trkpt><trkpt lat="42.09706733846282" lon="11.828467903334994"><ele>113.5</ele><time>2026-03-24T16:32:42Z</time></trkpt><trkpt lat="42.09736538993347" lon="11.82846074080094"><ele>117.0</ele><time>2026-03-24T16:32:43Z</time></trkpt><trkpt lat="42.097662636333645" lon="11.828454280114737"><ele>128.0</ele><time>2026-03-24T16:32:44Z</time></trkpt><trkpt lat="42.09796049860468" lon="11.828453922489448"><ele>139.0</ele><time>2026-03-24T16:32:45Z</time></trkpt><trkpt lat="42.0982562979692" lon="11.828440623468884"><ele>145.0</ele><time>2026-03-24T16:32:46Z</time></trkpt><trkpt lat="42.09854779334199" lon="11.828418061952272"><ele>151.0</ele><time>2026-03-24T16:32:47Z</time></trkpt><trkpt lat="42.09883515203762" lon="11.828388974724"><ele>155.0</ele><time>2026-03-24T16:32:48Z</time></trkpt><trkpt lat="42.09911800268181" lon="11.828348530504543"><ele>159.0</ele><time>2026-03-24T16:32:49Z</time></trkpt><trkpt lat="42.09939894942182" lon="11.82830009998083"><ele>159.0</ele><time>2026-03-24T16:32:50Z</time></trkpt><trkpt lat="42.09967966787535" lon="11.828244857637912"><ele>159.0</ele><time>2026-03-24T16:32:51Z</time></trkpt><trkpt lat="42.09995853406615" lon="11.8281864198524"><ele>162.0</ele><time>2026-03-24T16:32:52Z</time></trkpt><trkpt lat="42.100232083788725" lon="11.828120515511381"><ele>165.0</ele><time>2026-03-24T16:32:53Z</time></trkpt><trkpt lat="42.100504289993516" lon="11.828052957433904"><ele>166.0</ele><time>2026-03-24T16:32:54Z</time></trkpt><trkpt lat="42.100769831502184" lon="11.827976863160039"><ele>167.0</ele><time>2026-03-24T16:32:55Z</time></trkpt><trkpt lat="42.101031932911276" lon="11.827899433275503"><ele>167.0</ele><time>2026-03-24T16:32:56Z</time></trkpt><trkpt lat="42.10128831494749" lon="11.82782004593675"><ele>167.0</ele><time>2026-03-24T16:32:57Z</time></trkpt><trkpt lat="42.101538344087906" lon="11.827740333975335"><ele>165.0</ele><time>2026-03-24T16:32:58Z</time></trkpt><trkpt lat="42.10178158832336" lon="11.827660854967622"><ele>163.0</ele><time>2026-03-24T16:32:59Z</time></trkpt><trkpt lat="42.102019185997364" lon="11.827581177867183"><ele>162.5</ele><time>2026-03-24T16:33:00Z</time></trkpt><trkpt lat="42.10225067165352" lon="11.82750478013321"><ele>162.0</ele><time>2026-03-24T16:33:01Z</time></trkpt><trkpt lat="42.1024780534068" lon="11.827429568456038"><ele>164.0</ele><time>2026-03-24T16:33:02Z</time></trkpt><trkpt lat="42.102698798308495" lon="11.82735575986326"><ele>166.0</ele><time>2026-03-24T16:33:03Z</time></trkpt><trkpt lat="42.102916329416026" lon="11.827283420706332"><ele>166.0</ele><time>2026-03-24T16:33:04Z</time></trkpt><trkpt lat="42.10312964059046" lon="11.827211775787047"><ele>166.0</ele><time>2026-03-24T16:33:05Z</time></trkpt><trkpt lat="42.10333670217192" lon="11.82714261321017"><ele>166.0</ele><time>2026-03-24T16:33:06Z</time></trkpt><trkpt lat="42.103541283733456" lon="11.827075423751598"><ele>165.66666666666669</ele><time>2026-03-24T16:33:07Z</time></trkpt><trkpt lat="42.10374122223428" lon="11.827007823063063"><ele>165.33333333333334</ele><time>2026-03-24T16:33:08Z</time></trkpt><trkpt lat="42.1039372086423" lon="11.826942734482012"><ele>165.0</ele><time>2026-03-24T16:33:09Z</time></trkpt><trkpt lat="42.10412960676981" lon="11.826879364688706"><ele>165.0</ele><time>2026-03-24T16:33:10Z</time></trkpt><trkpt lat="42.104320309895364" lon="11.82681782796838"><ele>165.0</ele><time>2026-03-24T16:33:11Z</time></trkpt><trkpt lat="42.104510129347986" lon="11.826757009502842"><ele>165.0</ele><time>2026-03-24T16:33:12Z</time></trkpt><trkpt lat="42.10470102016016" lon="11.826698201807336"><ele>164.0</ele><time>2026-03-24T16:33:13Z</time></trkpt><trkpt lat="42.10489416304718" lon="11.826644259137495"><ele>163.0</ele><time>2026-03-24T16:33:14Z</time></trkpt><trkpt lat="42.10508585125247" lon="11.826594241309628"><ele>162.0</ele><time>2026-03-24T16:33:15Z</time></trkpt><trkpt lat="42.10528099255084" lon="11.826554196278698"><ele>162.0</ele><time>2026-03-24T16:33:16Z</time></trkpt><trkpt lat="42.10547822036297" lon="11.826520632895152"><ele>162.0</ele><time>2026-03-24T16:33:17Z</time></trkpt><trkpt lat="42.105679193479126" lon="11.826500234443127"><ele>162.0</ele><time>2026-03-24T16:33:18Z</time></trkpt><trkpt lat="42.10587853331177" lon="11.826486512190003"><ele>161.33333333333334</ele><time>2026-03-24T16:33:19Z</time></trkpt><trkpt lat="42.10607440244632" lon="11.826475991641413"><ele>160.66666666666669</ele><time>2026-03-24T16:33:20Z</time></trkpt><trkpt lat="42.10626646389819" lon="11.826473546735548"><ele>160.0</ele><time>2026-03-24T16:33:21Z</time></trkpt><trkpt lat="42.106454143540326" lon="11.826479780674575"><ele>160.66666666666669</ele><time>2026-03-24T16:33:22Z</time></trkpt><trkpt lat="42.106632082315976" lon="11.826494150582768"><ele>161.33333333333334</ele><time>2026-03-24T16:33:23Z</time></trkpt><trkpt lat="42.10680210721021" lon="11.82651070064603"><ele>162.0</ele><time>2026-03-24T16:33:24Z</time></trkpt><trkpt lat="42.106961263001935" lon="11.826534945325738"><ele>162.0</ele><time>2026-03-24T16:33:25Z</time></trkpt><trkpt lat="42.10711044586272" lon="11.826563470608487"><ele>162.0</ele><time>2026-03-24T16:33:26Z</time></trkpt><trkpt lat="42.10725231220775" lon="11.82661383180384"><ele>162.0</ele><time>2026-03-24T16:33:27Z</time></trkpt><trkpt lat="42.10738722010161" lon="11.826684153775796"><ele>162.0</ele><time>2026-03-24T16:33:28Z</time></trkpt><trkpt lat="42.10750757215531" lon="11.826776939273065"><ele>162.75</ele><time>2026-03-24T16:33:29Z</time></trkpt><trkpt lat="42.10761587946667" lon="11.826888201817894"><ele>163.5</ele><time>2026-03-24T16:33:30Z</time></trkpt><trkpt lat="42.107711803710394" lon="11.827021474778313"><ele>164.25</ele><time>2026-03-24T16:33:31Z</time></trkpt><trkpt lat="42.10779624827085" lon="11.827168793920158"><ele>165.0</ele><time>2026-03-24T16:33:32Z</time></trkpt><trkpt lat="42.107880610892344" lon="11.827317711890808"><ele>165.0</ele><time>2026-03-24T16:33:33Z</time></trkpt><trkpt lat="42.10796485289085" lon="11.827453375361845"><ele>165.0</ele><time>2026-03-24T16:33:34Z</time></trkpt><trkpt lat="42.108053598951514" lon="11.827572977271336"><ele>165.0</ele><time>2026-03-24T16:33:35Z</time></trkpt><trkpt lat="42.108148497465116" lon="11.827675174629393"><ele>165.0</ele><time>2026-03-24T16:33:36Z</time></trkpt><trkpt lat="42.10825016204685" lon="11.827743627647713"><ele>165.5</ele><time>2026-03-24T16:33:37Z</time></trkpt><trkpt lat="42.10836251722993" lon="11.827785322101343"><ele>166.0</ele><time>2026-03-24T16:33:38Z</time></trkpt><trkpt lat="42.10847865097455" lon="11.827795206294466"><ele>166.5</ele><time>2026-03-24T16:33:39Z</time></trkpt><trkpt lat="42.10859355589912" lon="11.827770723866426"><ele>167.0</ele><time>2026-03-24T16:33:40Z</time></trkpt><trkpt lat="42.10870450159337" lon="11.827716051551223"><ele>165.0</ele><time>2026-03-24T16:33:41Z</time></trkpt><trkpt lat="42.10880258372311" lon="11.82762728914378"><ele>163.0</ele><time>2026-03-24T16:33:42Z</time></trkpt><trkpt lat="42.108883709223434" lon="11.827515670002299"><ele>161.0</ele><time>2026-03-24T16:33:43Z</time></trkpt><trkpt lat="42.10894690766597" lon="11.827382730109987"><ele>159.0</ele><time>2026-03-24T16:33:44Z</time></trkpt><trkpt lat="42.108991676863255" lon="11.82723170993236"><ele>159.0</ele><time>2026-03-24T16:33:45Z</time></trkpt><trkpt lat="42.109030397238804" lon="11.827076752595895"><ele>159.0</ele><time>2026-03-24T16:33:46Z</time></trkpt><trkpt lat="42.109064282189905" lon="11.826926601136046"><ele>159.0</ele><time>2026-03-24T16:33:47Z</time></trkpt><trkpt lat="42.10909431883237" lon="11.826781690266083"><ele>159.0</ele><time>2026-03-24T16:33:48Z</time></trkpt><trkpt lat="42.109118013303906" lon="11.826652566098174"><ele>159.0</ele><time>2026-03-24T16:33:49Z</time></trkpt><trkpt lat="42.1091542519968" lon="11.826508294893653"><ele>157.8</ele><time>2026-03-24T16:33:50Z</time></trkpt><trkpt lat="42.10916437222116" lon="11.82636804832221"><ele>156.60000000000002</ele><time>2026-03-24T16:33:51Z</time></trkpt><trkpt lat="42.10915489912161" lon="11.826228037184476"><ele>155.4</ele><time>2026-03-24T16:33:52Z</time></trkpt><trkpt lat="42.109129326737275" lon="11.826084223517476"><ele>154.20000000000002</ele><time>2026-03-24T16:33:53Z</time></trkpt><trkpt lat="42.1090850122657" lon="11.82594345276621"><ele>153.0</ele><time>2026-03-24T16:33:54Z</time></trkpt><trkpt lat="42.109022673219386" lon="11.82580871941656"><ele>152.75</ele><time>2026-03-24T16:33:55.001Z</time></trkpt><trkpt lat="42.10894192404571" lon="11.825689576883331"><ele>152.5</ele><time>2026-03-24T16:33:56.001Z</time></trkpt><trkpt lat="42.10884483820926" lon="11.825593539920572"><ele>152.25</ele><time>2026-03-24T16:33:57.001Z</time></trkpt><trkpt lat="42.10873473841616" lon="11.825519298746267"><ele>152.0</ele><time>2026-03-24T16:33:58.001Z</time></trkpt><trkpt lat="42.10861480627742" lon="11.82544939111474"><ele>152.0</ele><time>2026-03-24T16:33:59.001Z</time></trkpt><trkpt lat="42.10849079287365" lon="11.825373827519739"><ele>152.0</ele><time>2026-03-24T16:34:00.001Z</time></trkpt><trkpt lat="42.10836725399961" lon="11.825295619175115"><ele>152.0</ele><time>2026-03-24T16:34:01.001Z</time></trkpt><trkpt lat="42.108245953255626" lon="11.825218441949051"><ele>152.0</ele><time>2026-03-24T16:34:02.001Z</time></trkpt><trkpt lat="42.1081296515361" lon="11.82514088931813"><ele>151.25</ele><time>2026-03-24T16:34:03.001Z</time></trkpt><trkpt lat="42.10801767454899" lon="11.825067729296883"><ele>150.5</ele><time>2026-03-24T16:34:04.001Z</time></trkpt><trkpt lat="42.107902028000865" lon="11.824993037378032"><ele>149.75</ele><time>2026-03-24T16:34:05.001Z</time></trkpt><trkpt lat="42.10779459796652" lon="11.8249226670222"><ele>149.0</ele><time>2026-03-24T16:34:06.001Z</time></trkpt><trkpt lat="42.10768741450976" lon="11.824853416289038"><ele>149.0</ele><time>2026-03-24T16:34:07.001Z</time></trkpt><trkpt lat="42.10757883109369" lon="11.824782974741797"><ele>149.0</ele><time>2026-03-24T16:34:08.001Z</time></trkpt><trkpt lat="42.107467537041074" lon="11.824714185394354"><ele>149.0</ele><time>2026-03-24T16:34:09.001Z</time></trkpt><trkpt lat="42.107356923004495" lon="11.824644705683065"><ele>149.0</ele><time>2026-03-24T16:34:10.001Z</time></trkpt><trkpt lat="42.10724236760288" lon="11.82457879742177"><ele>149.75</ele><time>2026-03-24T16:34:11.001Z</time></trkpt><trkpt lat="42.107126387633045" lon="11.824517130174872"><ele>150.5</ele><time>2026-03-24T16:34:12.001Z</time></trkpt><trkpt lat="42.10700675738293" lon="11.824460912698559"><ele>151.25</ele><time>2026-03-24T16:34:13.001Z</time></trkpt><trkpt lat="42.106888051314314" lon="11.82441419941272"><ele>152.0</ele><time>2026-03-24T16:34:14.001Z</time></trkpt><trkpt lat="42.106770511266944" lon="11.824368577385092"><ele>152.0</ele><time>2026-03-24T16:34:15.001Z</time></trkpt><trkpt lat="42.10665704240106" lon="11.824326287500368"><ele>152.0</ele><time>2026-03-24T16:34:16.001Z</time></trkpt><trkpt lat="42.10654171141652" lon="11.82428737543237"><ele>152.0</ele><time>2026-03-24T16:34:17.001Z</time></trkpt><trkpt lat="42.106439630592334" lon="11.82425340801072"><ele>152.0</ele><time>2026-03-24T16:34:18.001Z</time></trkpt><trkpt lat="42.10635035360858" lon="11.82421989216849"><ele>152.0</ele><time>2026-03-24T16:34:19.001Z</time></trkpt><trkpt lat="42.106261891547774" lon="11.824181224150722"><ele>151.0</ele><time>2026-03-24T16:34:20.001Z</time></trkpt><trkpt lat="42.106175341941814" lon="11.82413902261384"><ele>150.0</ele><time>2026-03-24T16:34:21.001Z</time></trkpt><trkpt lat="42.10608524843837" lon="11.824090773428631"><ele>149.0</ele><time>2026-03-24T16:34:22.001Z</time></trkpt><trkpt lat="42.10600035415443" lon="11.824037435553853"><ele>148.0</ele><time>2026-03-24T16:34:23.001Z</time></trkpt><trkpt lat="42.105908904837364" lon="11.823980612705178"><ele>147.0</ele><time>2026-03-24T16:34:24.001Z</time></trkpt><trkpt lat="42.10581623256733" lon="11.823915171405503"><ele>147.33333333333334</ele><time>2026-03-24T16:34:25.001Z</time></trkpt><trkpt lat="42.10572750506578" lon="11.823845170496181"><ele>147.66666666666666</ele><time>2026-03-24T16:34:26.001Z</time></trkpt><trkpt lat="42.10564635785722" lon="11.823776585021449"><ele>148.0</ele><time>2026-03-24T16:34:27Z</time></trkpt><trkpt lat="42.105577336302986" lon="11.823714338068674"><ele>148.33333333333331</ele><time>2026-03-24T16:34:28Z</time></trkpt><trkpt lat="42.10552547182542" lon="11.82366198744058"><ele>148.66666666666666</ele><time>2026-03-24T16:34:29Z</time></trkpt><trkpt lat="42.10547736684511" lon="11.823607168144587"><ele>149.0</ele><time>2026-03-24T16:34:30Z</time></trkpt><trkpt lat="42.105406667214176" lon="11.82351199800075"><ele>148.16666666666666</ele><time>2026-03-24T16:34:32Z</time></trkpt><trkpt lat="42.10535702054179" lon="11.823412941271625"><ele>147.33333333333331</ele><time>2026-03-24T16:34:35Z</time></trkpt><trkpt lat="42.10532408951886" lon="11.82327938822842"><ele>146.5</ele><time>2026-03-24T16:34:37Z</time></trkpt><trkpt lat="42.105317104996786" lon="11.82318877747241"><ele>145.66666666666666</ele><time>2026-03-24T16:34:38Z</time></trkpt><trkpt lat="42.105317761406056" lon="11.823101771502397"><ele>144.83333333333334</ele><time>2026-03-24T16:34:39Z</time></trkpt><trkpt lat="42.10532572385998" lon="11.822943480434315"><ele>144.0</ele><time>2026-03-24T16:34:41Z</time></trkpt><trkpt lat="42.10533833934075" lon="11.822782946260451"><ele>144.0</ele><time>2026-03-24T16:34:43Z</time></trkpt><trkpt lat="42.105341769055975" lon="11.822681516583527"><ele>144.0</ele><time>2026-03-24T16:34:44Z</time></trkpt><trkpt lat="42.105346105083626" lon="11.822569116867635"><ele>144.0</ele><time>2026-03-24T16:34:45Z</time></trkpt><trkpt lat="42.10535113229433" lon="11.822452053742163"><ele>144.0</ele><time>2026-03-24T16:34:46Z</time></trkpt><trkpt lat="42.10535924985335" lon="11.822320148871421"><ele>144.0</ele><time>2026-03-24T16:34:47Z</time></trkpt><trkpt lat="42.10537188826842" lon="11.822170980381614"><ele>143.0</ele><time>2026-03-24T16:34:48Z</time></trkpt><trkpt lat="42.10538803067358" lon="11.822011273050471"><ele>142.0</ele><time>2026-03-24T16:34:49Z</time></trkpt><trkpt lat="42.10540784979714" lon="11.821841322379456"><ele>141.0</ele><time>2026-03-24T16:34:50Z</time></trkpt><trkpt lat="42.10543013239514" lon="11.821665300327643"><ele>140.0</ele><time>2026-03-24T16:34:51Z</time></trkpt><trkpt lat="42.105453961416366" lon="11.821492658158867"><ele>139.5</ele><time>2026-03-24T16:34:52Z</time></trkpt><trkpt lat="42.10547943582103" lon="11.821323158948776"><ele>139.0</ele><time>2026-03-24T16:34:53Z</time></trkpt><trkpt lat="42.10550494985839" lon="11.821153626416065"><ele>138.5</ele><time>2026-03-24T16:34:54Z</time></trkpt><trkpt lat="42.10552497283727" lon="11.82098599730032"><ele>138.0</ele><time>2026-03-24T16:34:55Z</time></trkpt><trkpt lat="42.105537067080185" lon="11.820817741103875"><ele>137.0</ele><time>2026-03-24T16:34:56Z</time></trkpt><trkpt lat="42.10553925451813" lon="11.820649379145037"><ele>136.0</ele><time>2026-03-24T16:34:57Z</time></trkpt><trkpt lat="42.1055262597397" lon="11.820485712418105"><ele>135.0</ele><time>2026-03-24T16:34:58Z</time></trkpt><trkpt lat="42.10549944173043" lon="11.8203214662772"><ele>134.0</ele><time>2026-03-24T16:34:59Z</time></trkpt><trkpt lat="42.10546494478806" lon="11.820161659846743"><ele>133.25</ele><time>2026-03-24T16:35:00Z</time></trkpt><trkpt lat="42.10542838336819" lon="11.820002936995817"><ele>132.5</ele><time>2026-03-24T16:35:01Z</time></trkpt><trkpt lat="42.10539107531395" lon="11.819842891719537"><ele>131.75</ele><time>2026-03-24T16:35:02Z</time></trkpt><trkpt lat="42.10535976476132" lon="11.81968361487065"><ele>131.0</ele><time>2026-03-24T16:35:03Z</time></trkpt><trkpt lat="42.10533049575123" lon="11.81952676988015"><ele>131.0</ele><time>2026-03-24T16:35:04Z</time></trkpt><trkpt lat="42.10531853515367" lon="11.819381843853604"><ele>131.0</ele><time>2026-03-24T16:35:05Z</time></trkpt><trkpt lat="42.1053293715245" lon="11.819227490816045"><ele>131.0</ele><time>2026-03-24T16:35:06Z</time></trkpt><trkpt lat="42.105356646861885" lon="11.819078585240966"><ele>131.0</ele><time>2026-03-24T16:35:07Z</time></trkpt><trkpt lat="42.10539771414461" lon="11.81893170039018"><ele>130.75</ele><time>2026-03-24T16:35:08Z</time></trkpt><trkpt lat="42.10544662409081" lon="11.818783766485058"><ele>130.5</ele><time>2026-03-24T16:35:09Z</time></trkpt><trkpt lat="42.105496854597945" lon="11.818635171491069"><ele>130.25</ele><time>2026-03-24T16:35:10Z</time></trkpt><trkpt lat="42.105547774608056" lon="11.818478449523196"><ele>130.0</ele><time>2026-03-24T16:35:11Z</time></trkpt><trkpt lat="42.10559607561197" lon="11.818326140314497"><ele>130.0</ele><time>2026-03-24T16:35:12Z</time></trkpt><trkpt lat="42.1056440685842" lon="11.818173552143033"><ele>130.0</ele><time>2026-03-24T16:35:13Z</time></trkpt><trkpt lat="42.105695813778695" lon="11.818025858877638"><ele>130.0</ele><time>2026-03-24T16:35:14Z</time></trkpt><trkpt lat="42.105752580963276" lon="11.817888736488369"><ele>130.0</ele><time>2026-03-24T16:35:15Z</time></trkpt><trkpt lat="42.10581029919429" lon="11.81775529576904"><ele>129.6</ele><time>2026-03-24T16:35:16Z</time></trkpt><trkpt lat="42.105865398606554" lon="11.81763130725147"><ele>129.2</ele><time>2026-03-24T16:35:17Z</time></trkpt><trkpt lat="42.10590925140877" lon="11.817498448985813"><ele>128.8</ele><time>2026-03-24T16:35:18Z</time></trkpt><trkpt lat="42.10594817079918" lon="11.817357602642247"><ele>128.4</ele><time>2026-03-24T16:35:19Z</time></trkpt><trkpt lat="42.10597778594449" lon="11.817208561164225"><ele>128.0</ele><time>2026-03-24T16:35:20Z</time></trkpt><trkpt lat="42.10599390630921" lon="11.817048488511878"><ele>128.0</ele><time>2026-03-24T16:35:21Z</time></trkpt><trkpt lat="42.10599701921659" lon="11.816883859203847"><ele>128.0</ele><time>2026-03-24T16:35:22Z</time></trkpt><trkpt lat="42.10599826148509" lon="11.816709445423225"><ele>128.0</ele><time>2026-03-24T16:35:23Z</time></trkpt><trkpt lat="42.10599709697578" lon="11.816533342544226"><ele>128.0</ele><time>2026-03-24T16:35:24Z</time></trkpt><trkpt lat="42.10600006109886" lon="11.816350952106045"><ele>126.25</ele><time>2026-03-24T16:35:25Z</time></trkpt><trkpt lat="42.106001473153334" lon="11.816163351521807"><ele>124.5</ele><time>2026-03-24T16:35:26Z</time></trkpt><trkpt lat="42.10600119835668" lon="11.815971194543346"><ele>122.75</ele><time>2026-03-24T16:35:27Z</time></trkpt><trkpt lat="42.10600109700756" lon="11.81578666397385"><ele>121.0</ele><time>2026-03-24T16:35:28Z</time></trkpt><trkpt lat="42.10599881341823" lon="11.815610187055487"><ele>119.0</ele><time>2026-03-24T16:35:29Z</time></trkpt><trkpt lat="42.1059926194039" lon="11.815446657648758"><ele>117.0</ele><time>2026-03-24T16:35:30Z</time></trkpt><trkpt lat="42.10597639473673" lon="11.815293664408982"><ele>115.0</ele><time>2026-03-24T16:35:31Z</time></trkpt><trkpt lat="42.105939893170344" lon="11.815136063032135"><ele>113.0</ele><time>2026-03-24T16:35:32Z</time></trkpt><trkpt lat="42.105885732276164" lon="11.814988911623734"><ele>112.0</ele><time>2026-03-24T16:35:33Z</time></trkpt><trkpt lat="42.105821094736946" lon="11.814839747676075"><ele>111.0</ele><time>2026-03-24T16:35:34Z</time></trkpt><trkpt lat="42.10575258374466" lon="11.814690914907855"><ele>110.0</ele><time>2026-03-24T16:35:35Z</time></trkpt><trkpt lat="42.105683699392884" lon="11.81453368896268"><ele>109.0</ele><time>2026-03-24T16:35:36Z</time></trkpt><trkpt lat="42.10561655838989" lon="11.814370107267155"><ele>106.5</ele><time>2026-03-24T16:35:37Z</time></trkpt><trkpt lat="42.10554867662549" lon="11.81419973658241"><ele>104.0</ele><time>2026-03-24T16:35:38Z</time></trkpt><trkpt lat="42.105482601037686" lon="11.814027009636183"><ele>101.5</ele><time>2026-03-24T16:35:39Z</time></trkpt><trkpt lat="42.10542655604032" lon="11.813851480844997"><ele>99.0</ele><time>2026-03-24T16:35:40Z</time></trkpt><trkpt lat="42.10537679712071" lon="11.813667906172604"><ele>97.25</ele><time>2026-03-24T16:35:41Z</time></trkpt><trkpt lat="42.10531938459516" lon="11.813484063161084"><ele>95.5</ele><time>2026-03-24T16:35:42Z</time></trkpt><trkpt lat="42.105253906752225" lon="11.813301337606752"><ele>93.75</ele><time>2026-03-24T16:35:43Z</time></trkpt><trkpt lat="42.105176255108" lon="11.813127207528428"><ele>92.0</ele><time>2026-03-24T16:35:44Z</time></trkpt><trkpt lat="42.105087216968926" lon="11.812962901339736"><ele>92.0</ele><time>2026-03-24T16:35:45Z</time></trkpt><trkpt lat="42.105003970757814" lon="11.812811144125453"><ele>92.0</ele><time>2026-03-24T16:35:46Z</time></trkpt><trkpt lat="42.104926910182854" lon="11.812671167433367"><ele>92.0</ele><time>2026-03-24T16:35:47Z</time></trkpt><trkpt lat="42.10485397906949" lon="11.812539221982112"><ele>92.0</ele><time>2026-03-24T16:35:48Z</time></trkpt><trkpt lat="42.10478350433367" lon="11.812409137389471"><ele>91.0</ele><time>2026-03-24T16:35:49Z</time></trkpt><trkpt lat="42.10471171299874" lon="11.812270569688197"><ele>90.0</ele><time>2026-03-24T16:35:50Z</time></trkpt><trkpt lat="42.10464697773987" lon="11.81214666706865"><ele>89.0</ele><time>2026-03-24T16:35:51Z</time></trkpt><trkpt lat="42.10457967991355" lon="11.812018840879892"><ele>88.0</ele><time>2026-03-24T16:35:52Z</time></trkpt><trkpt lat="42.10451693967433" lon="11.81188722201605"><ele>86.5</ele><time>2026-03-24T16:35:53Z</time></trkpt><trkpt lat="42.10445899985606" lon="11.811750601808424"><ele>85.0</ele><time>2026-03-24T16:35:54Z</time></trkpt><trkpt lat="42.10440028935622" lon="11.811609883290219"><ele>83.5</ele><time>2026-03-24T16:35:55Z</time></trkpt><trkpt lat="42.10433990402545" lon="11.811471985864628"><ele>82.0</ele><time>2026-03-24T16:35:56Z</time></trkpt><trkpt lat="42.10428051763487" lon="11.811326116512902"><ele>82.0</ele><time>2026-03-24T16:35:57Z</time></trkpt><trkpt lat="42.104222628383255" lon="11.811177602124832"><ele>82.0</ele><time>2026-03-24T16:35:58Z</time></trkpt><trkpt lat="42.10416673895718" lon="11.811023913180259"><ele>82.0</ele><time>2026-03-24T16:35:59Z</time></trkpt><trkpt lat="42.1041105065238" lon="11.810864202372336"><ele>82.0</ele><time>2026-03-24T16:36:00Z</time></trkpt><trkpt lat="42.10405293429308" lon="11.810700709763159"><ele>80.75</ele><time>2026-03-24T16:36:01.001Z</time></trkpt><trkpt lat="42.10399284709488" lon="11.810534886580637"><ele>79.5</ele><time>2026-03-24T16:36:02.001Z</time></trkpt><trkpt lat="42.103930146044746" lon="11.810366888139825"><ele>78.25</ele><time>2026-03-24T16:36:03.001Z</time></trkpt><trkpt lat="42.103866449138046" lon="11.810201285449676"><ele>77.0</ele><time>2026-03-24T16:36:04.001Z</time></trkpt><trkpt lat="42.103797483890844" lon="11.810033307924217"><ele>76.25</ele><time>2026-03-24T16:36:05.001Z</time></trkpt><trkpt lat="42.1037319270005" lon="11.809867541343618"><ele>75.5</ele><time>2026-03-24T16:36:06.001Z</time></trkpt><trkpt lat="42.10366885202231" lon="11.80971179063396"><ele>74.75</ele><time>2026-03-24T16:36:07.001Z</time></trkpt><trkpt lat="42.103614281533595" lon="11.80956903804777"><ele>74.0</ele><time>2026-03-24T16:36:08.001Z</time></trkpt><trkpt lat="42.10356233814184" lon="11.809429324295582"><ele>73.60000000000001</ele><time>2026-03-24T16:36:09.001Z</time></trkpt><trkpt lat="42.10351415917862" lon="11.809289504223425"><ele>73.2</ele><time>2026-03-24T16:36:10.001Z</time></trkpt><trkpt lat="42.10346668408446" lon="11.809167704255255"><ele>72.80000000000001</ele><time>2026-03-24T16:36:11.001Z</time></trkpt><trkpt lat="42.10341435191562" lon="11.809037140677255"><ele>72.4</ele><time>2026-03-24T16:36:12.001Z</time></trkpt><trkpt lat="42.10336312945779" lon="11.808909359533132"><ele>72.0</ele><time>2026-03-24T16:36:13.001Z</time></trkpt><trkpt lat="42.103315735199345" lon="11.808780475905301"><ele>72.0</ele><time>2026-03-24T16:36:14.001Z</time></trkpt><trkpt lat="42.103275275505425" lon="11.80866890806515"><ele>72.0</ele><time>2026-03-24T16:36:15.001Z</time></trkpt><trkpt lat="42.10324316093629" lon="11.808570687231127"><ele>72.0</ele><time>2026-03-24T16:36:16.001Z</time></trkpt><trkpt lat="42.10322047590951" lon="11.808490511344061"><ele>72.0</ele><time>2026-03-24T16:36:17.001Z</time></trkpt><trkpt lat="42.10319463487765" lon="11.808377636253631"><ele>72.0</ele><time>2026-03-24T16:36:19.001Z</time></trkpt><trkpt lat="42.10316767155667" lon="11.80822496625584"><ele>72.0</ele><time>2026-03-24T16:36:21.001Z</time></trkpt><trkpt lat="42.103153682525154" lon="11.80812799738939"><ele>71.4</ele><time>2026-03-24T16:36:22.001Z</time></trkpt><trkpt lat="42.10313628834592" lon="11.808017137702384"><ele>70.80000000000001</ele><time>2026-03-24T16:36:23.001Z</time></trkpt><trkpt lat="42.103109425887894" lon="11.807897272689925"><ele>70.2</ele><time>2026-03-24T16:36:24.001Z</time></trkpt><trkpt lat="42.10307508316509" lon="11.807780181723073"><ele>69.60000000000001</ele><time>2026-03-24T16:36:25.001Z</time></trkpt><trkpt lat="42.103035886055906" lon="11.807668071684153"><ele>69.0</ele><time>2026-03-24T16:36:26.001Z</time></trkpt><trkpt lat="42.102996962124976" lon="11.80755654736854"><ele>68.83333333333333</ele><time>2026-03-24T16:36:27.001Z</time></trkpt><trkpt lat="42.10295619349533" lon="11.807446756361431"><ele>68.66666666666667</ele><time>2026-03-24T16:36:28.001Z</time></trkpt><trkpt lat="42.10291600423166" lon="11.807345369549326"><ele>68.5</ele><time>2026-03-24T16:36:29.001Z</time></trkpt><trkpt lat="42.102880062098635" lon="11.807254073851835"><ele>68.33333333333334</ele><time>2026-03-24T16:36:30.001Z</time></trkpt><trkpt lat="42.10284447790652" lon="11.807166429460555"><ele>68.16666666666667</ele><time>2026-03-24T16:36:31.001Z</time></trkpt><trkpt lat="42.10281120390007" lon="11.807080113537914"><ele>68.0</ele><time>2026-03-24T16:36:32.001Z</time></trkpt><trkpt lat="42.102778991133945" lon="11.806996463128367"><ele>68.0</ele><time>2026-03-24T16:36:33.001Z</time></trkpt><trkpt lat="42.10274581627007" lon="11.806911738314993"><ele>68.0</ele><time>2026-03-24T16:36:34.001Z</time></trkpt><trkpt lat="42.102709565767675" lon="11.806821844690516"><ele>68.0</ele><time>2026-03-24T16:36:35.001Z</time></trkpt><trkpt lat="42.10267188957655" lon="11.806728749293324"><ele>68.0</ele><time>2026-03-24T16:36:36.001Z</time></trkpt><trkpt lat="42.10263222879087" lon="11.806630428575152"><ele>68.0</ele><time>2026-03-24T16:36:37.001Z</time></trkpt><trkpt lat="42.10258997877203" lon="11.806527661272819"><ele>68.0</ele><time>2026-03-24T16:36:38.001Z</time></trkpt><trkpt lat="42.10254367232862" lon="11.806416537897311"><ele>67.6</ele><time>2026-03-24T16:36:39.001Z</time></trkpt><trkpt lat="42.102499404796625" lon="11.806310019156843"><ele>67.19999999999999</ele><time>2026-03-24T16:36:40.001Z</time></trkpt><trkpt lat="42.10245071961148" lon="11.806194004257819"><ele>66.8</ele><time>2026-03-24T16:36:41.001Z</time></trkpt><trkpt lat="42.10240333639993" lon="11.806079876942363"><ele>66.39999999999999</ele><time>2026-03-24T16:36:42.001Z</time></trkpt><trkpt lat="42.102356028311185" lon="11.805967521486396"><ele>66.0</ele><time>2026-03-24T16:36:43.001Z</time></trkpt><trkpt lat="42.10230994592648" lon="11.805857476017314"><ele>65.33333333333333</ele><time>2026-03-24T16:36:44.001Z</time></trkpt><trkpt lat="42.102268581761784" lon="11.80575615194129"><ele>64.66666666666667</ele><time>2026-03-24T16:36:45.001Z</time></trkpt><trkpt lat="42.1022322278636" lon="11.80566764203378"><ele>64.0</ele><time>2026-03-24T16:36:46.001Z</time></trkpt><trkpt lat="42.1022027183518" lon="11.805592245042318"><ele>63.333333333333336</ele><time>2026-03-24T16:36:47.001Z</time></trkpt><trkpt lat="42.10216825806875" lon="11.80551638071157"><ele>62.66666666666667</ele><time>2026-03-24T16:36:49Z</time></trkpt><trkpt lat="42.10212141830613" lon="11.80539802091736"><ele>62.0</ele><time>2026-03-24T16:36:52Z</time></trkpt><trkpt lat="42.10207153935835" lon="11.80527456614588"><ele>62.00000000000001</ele><time>2026-03-24T16:36:54Z</time></trkpt><trkpt lat="42.10204051684781" lon="11.805193219058337"><ele>62.0</ele><time>2026-03-24T16:36:55Z</time></trkpt><trkpt lat="42.10200613160769" lon="11.805105954349507"><ele>62.0</ele><time>2026-03-24T16:36:56Z</time></trkpt><trkpt lat="42.101971017096744" lon="11.805018352855992"><ele>62.0</ele><time>2026-03-24T16:36:57Z</time></trkpt><trkpt lat="42.1019319910853" lon="11.804919912549009"><ele>62.00000000000001</ele><time>2026-03-24T16:36:58Z</time></trkpt><trkpt lat="42.1018880678943" lon="11.804814620870879"><ele>62.0</ele><time>2026-03-24T16:36:59Z</time></trkpt><trkpt lat="42.10184272184891" lon="11.804705802725955"><ele>61.6</ele><time>2026-03-24T16:37:00Z</time></trkpt><trkpt lat="42.10179567657962" lon="11.804588977050297"><ele>61.2</ele><time>2026-03-24T16:37:01Z</time></trkpt><trkpt lat="42.1017513727376" lon="11.804477164612424"><ele>60.8</ele><time>2026-03-24T16:37:02Z</time></trkpt><trkpt lat="42.101705912122206" lon="11.804360606867485"><ele>60.4</ele><time>2026-03-24T16:37:03Z</time></trkpt><trkpt lat="42.10165606875574" lon="11.80423527707092"><ele>60.0</ele><time>2026-03-24T16:37:04Z</time></trkpt><trkpt lat="42.101608079237145" lon="11.804116161871285"><ele>59.0</ele><time>2026-03-24T16:37:05Z</time></trkpt><trkpt lat="42.10155831027356" lon="11.80399197514998"><ele>58.0</ele><time>2026-03-24T16:37:06Z</time></trkpt><trkpt lat="42.10150695149029" lon="11.803863311104045"><ele>57.0</ele><time>2026-03-24T16:37:07Z</time></trkpt><trkpt lat="42.10145752594881" lon="11.803741902074032"><ele>56.0</ele><time>2026-03-24T16:37:08Z</time></trkpt><trkpt lat="42.101406104994325" lon="11.80361826160953"><ele>55.0</ele><time>2026-03-24T16:37:09Z</time></trkpt><trkpt lat="42.10135525375901" lon="11.803493773760106"><ele>55.0</ele><time>2026-03-24T16:37:10Z</time></trkpt><trkpt lat="42.101305080884366" lon="11.803367544963779"><ele>55.0</ele><time>2026-03-24T16:37:11Z</time></trkpt><trkpt lat="42.1012519194282" lon="11.803245025336707"><ele>55.0</ele><time>2026-03-24T16:37:12Z</time></trkpt><trkpt lat="42.101196790018825" lon="11.803123571226115"><ele>55.0</ele><time>2026-03-24T16:37:13Z</time></trkpt><trkpt lat="42.1011384117676" lon="11.803001779407989"><ele>55.0</ele><time>2026-03-24T16:37:14Z</time></trkpt><trkpt lat="42.101078541931685" lon="11.802884056484595"><ele>55.0</ele><time>2026-03-24T16:37:15Z</time></trkpt><trkpt lat="42.10101730638218" lon="11.802770138691141"><ele>55.0</ele><time>2026-03-24T16:37:16Z</time></trkpt><trkpt lat="42.100956431392454" lon="11.80266074063865"><ele>55.0</ele><time>2026-03-24T16:37:17Z</time></trkpt><trkpt lat="42.10089724924911" lon="11.802555193574678"><ele>55.0</ele><time>2026-03-24T16:37:18Z</time></trkpt><trkpt lat="42.100840296987656" lon="11.802456560888421"><ele>55.0</ele><time>2026-03-24T16:37:19Z</time></trkpt><trkpt lat="42.100784137858966" lon="11.802357850868894"><ele>53.49999999999999</ele><time>2026-03-24T16:37:20Z</time></trkpt><trkpt lat="42.100726669541494" lon="11.802259871173792"><ele>52.0</ele><time>2026-03-24T16:37:21Z</time></trkpt><trkpt lat="42.100665965724744" lon="11.802171064820064"><ele>50.5</ele><time>2026-03-24T16:37:22Z</time></trkpt><trkpt lat="42.1006081411032" lon="11.802081056312703"><ele>49.0</ele><time>2026-03-24T16:37:23Z</time></trkpt><trkpt lat="42.100548988206256" lon="11.801986689586634"><ele>47.5</ele><time>2026-03-24T16:37:24Z</time></trkpt><trkpt lat="42.10049378419082" lon="11.801903801193857"><ele>46.0</ele><time>2026-03-24T16:37:25Z</time></trkpt><trkpt lat="42.10043708220739" lon="11.801816850371347"><ele>45.5</ele><time>2026-03-24T16:37:26Z</time></trkpt><trkpt lat="42.100385423191476" lon="11.801727050758616"><ele>45.0</ele><time>2026-03-24T16:37:27Z</time></trkpt><trkpt lat="42.100333534386394" lon="11.801639045164624"><ele>44.5</ele><time>2026-03-24T16:37:28Z</time></trkpt><trkpt lat="42.10028299571953" lon="11.801549440122704"><ele>44.0</ele><time>2026-03-24T16:37:29Z</time></trkpt><trkpt lat="42.1002323239999" lon="11.80145957994292"><ele>43.5</ele><time>2026-03-24T16:37:30Z</time></trkpt><trkpt lat="42.10018448900435" lon="11.801369781810484"><ele>43.0</ele><time>2026-03-24T16:37:31Z</time></trkpt><trkpt lat="42.10014179572163" lon="11.80129902954757"><ele>43.0</ele><time>2026-03-24T16:37:32Z</time></trkpt><trkpt lat="42.10006785700447" lon="11.801178287427204"><ele>43.0</ele><time>2026-03-24T16:37:34Z</time></trkpt><trkpt lat="42.100029741851955" lon="11.801107417899367"><ele>43.0</ele><time>2026-03-24T16:37:35Z</time></trkpt><trkpt lat="42.099986914188534" lon="11.801027760614577"><ele>43.0</ele><time>2026-03-24T16:37:36Z</time></trkpt><trkpt lat="42.09993801946582" lon="11.800942800212702"><ele>43.0</ele><time>2026-03-24T16:37:37Z</time></trkpt><trkpt lat="42.09989141913559" lon="11.800853747380984"><ele>43.0</ele><time>2026-03-24T16:37:38Z</time></trkpt><trkpt lat="42.099843833497935" lon="11.80076441243483"><ele>42.5</ele><time>2026-03-24T16:37:39Z</time></trkpt><trkpt lat="42.09979754198994" lon="11.80067694940638"><ele>42.0</ele><time>2026-03-24T16:37:40Z</time></trkpt><trkpt lat="42.09974767933942" lon="11.80058885427074"><ele>41.5</ele><time>2026-03-24T16:37:41Z</time></trkpt><trkpt lat="42.09969641283175" lon="11.800498498904368"><ele>41.0</ele><time>2026-03-24T16:37:42Z</time></trkpt><trkpt lat="42.09964650010469" lon="11.800408311861124"><ele>40.5</ele><time>2026-03-24T16:37:43Z</time></trkpt><trkpt lat="42.09959724131318" lon="11.800317089690592"><ele>40.0</ele><time>2026-03-24T16:37:44Z</time></trkpt><trkpt lat="42.09955154390332" lon="11.800235073470295"><ele>39.66666666666667</ele><time>2026-03-24T16:37:45Z</time></trkpt><trkpt lat="42.09951179737542" lon="11.800163787841942"><ele>39.333333333333336</ele><time>2026-03-24T16:37:46Z</time></trkpt><trkpt lat="42.09944327376118" lon="11.800054960097045"><ele>39.0</ele><time>2026-03-24T16:37:48Z</time></trkpt><trkpt lat="42.09938651096651" lon="11.799961726654015"><ele>38.666666666666664</ele><time>2026-03-24T16:37:50Z</time></trkpt><trkpt lat="42.099335081450185" lon="11.799877812727097"><ele>38.33333333333333</ele><time>2026-03-24T16:37:52Z</time></trkpt><trkpt lat="42.09929015073174" lon="11.799803268377065"><ele>38.0</ele><time>2026-03-24T16:37:54Z</time></trkpt><trkpt lat="42.09925807338964" lon="11.799690011302967"><ele>38.0</ele><time>2026-03-24T16:37:57Z</time></trkpt><trkpt lat="42.099277439447356" lon="11.799592934013145"><ele>38.0</ele><time>2026-03-24T16:37:59Z</time></trkpt><trkpt lat="42.09930068447504" lon="11.79949346512561"><ele>38.0</ele><time>2026-03-24T16:38:01Z</time></trkpt><trkpt lat="42.09932046434458" lon="11.799388530401265"><ele>38.0</ele><time>2026-03-24T16:38:03Z</time></trkpt><trkpt lat="42.099345838816255" lon="11.799255415795686"><ele>38.0</ele><time>2026-03-24T16:38:05Z</time></trkpt><trkpt lat="42.09936004988424" lon="11.799171206451685"><ele>38.0</ele><time>2026-03-24T16:38:06Z</time></trkpt><trkpt lat="42.09937608466342" lon="11.799082022466344"><ele>37.199999999999996</ele><time>2026-03-24T16:38:07.001Z</time></trkpt><trkpt lat="42.099393521955015" lon="11.798973772541904"><ele>36.4</ele><time>2026-03-24T16:38:08.001Z</time></trkpt><trkpt lat="42.099410392320074" lon="11.798852420323755"><ele>35.599999999999994</ele><time>2026-03-24T16:38:09.001Z</time></trkpt><trkpt lat="42.09942542077924" lon="11.79871510923799"><ele>34.8</ele><time>2026-03-24T16:38:10.001Z</time></trkpt><trkpt lat="42.09943705590983" lon="11.798564542113233"><ele>34.0</ele><time>2026-03-24T16:38:11.001Z</time></trkpt><trkpt lat="42.09945132502891" lon="11.798407673508295"><ele>34.0</ele><time>2026-03-24T16:38:12.001Z</time></trkpt><trkpt lat="42.09947375845997" lon="11.798240665331578"><ele>34.0</ele><time>2026-03-24T16:38:13.001Z</time></trkpt><trkpt lat="42.099501680523055" lon="11.798066482327293"><ele>34.0</ele><time>2026-03-24T16:38:14.001Z</time></trkpt><trkpt lat="42.0995354113692" lon="11.797890336723668"><ele>34.0</ele><time>2026-03-24T16:38:15.001Z</time></trkpt><trkpt lat="42.0995713090573" lon="11.797713821615089"><ele>33.5</ele><time>2026-03-24T16:38:16.001Z</time></trkpt><trkpt lat="42.099611034642244" lon="11.7975315918959"><ele>33.0</ele><time>2026-03-24T16:38:17.001Z</time></trkpt><trkpt lat="42.09966043326548" lon="11.79734478224297"><ele>32.5</ele><time>2026-03-24T16:38:18.001Z</time></trkpt><trkpt lat="42.099718802190964" lon="11.797159113943403"><ele>32.0</ele><time>2026-03-24T16:38:19.001Z</time></trkpt><trkpt lat="42.09976000406374" lon="11.796960785462844"><ele>31.333333333333332</ele><time>2026-03-24T16:38:20.001Z</time></trkpt><trkpt lat="42.099830207115666" lon="11.79676958656687"><ele>30.666666666666664</ele><time>2026-03-24T16:38:21.001Z</time></trkpt><trkpt lat="42.099906938524725" lon="11.796583531796875"><ele>30.0</ele><time>2026-03-24T16:38:22.001Z</time></trkpt><trkpt lat="42.09998943690067" lon="11.796411663888822"><ele>30.0</ele><time>2026-03-24T16:38:23.001Z</time></trkpt><trkpt lat="42.100078614934745" lon="11.796252634106342"><ele>30.0</ele><time>2026-03-24T16:38:24.001Z</time></trkpt><trkpt lat="42.100165730839755" lon="11.796104406029153"><ele>30.0</ele><time>2026-03-24T16:38:25.001Z</time></trkpt><trkpt lat="42.10024979626252" lon="11.795970790461766"><ele>30.0</ele><time>2026-03-24T16:38:26.001Z</time></trkpt><trkpt lat="42.100332028585534" lon="11.795845581989859"><ele>29.5</ele><time>2026-03-24T16:38:27.001Z</time></trkpt><trkpt lat="42.100407703100736" lon="11.795747378521352"><ele>29.0</ele><time>2026-03-24T16:38:28.001Z</time></trkpt><trkpt lat="42.10047638162039" lon="11.795670622247496"><ele>28.5</ele><time>2026-03-24T16:38:29.001Z</time></trkpt><trkpt lat="42.1005361691987" lon="11.795593265445039"><ele>28.0</ele><time>2026-03-24T16:38:30.001Z</time></trkpt><trkpt lat="42.10059139991301" lon="11.795513389966661"><ele>27.5</ele><time>2026-03-24T16:38:31.001Z</time></trkpt><trkpt lat="42.10064647029507" lon="11.795441298626121"><ele>27.0</ele><time>2026-03-24T16:38:32.001Z</time></trkpt><trkpt lat="42.100730801819836" lon="11.795334334043144"><ele>27.200000000000003</ele><time>2026-03-24T16:38:34.001Z</time></trkpt><trkpt lat="42.10079672462643" lon="11.795281674407585"><ele>27.400000000000002</ele><time>2026-03-24T16:38:36.001Z</time></trkpt><trkpt lat="42.10089717526427" lon="11.795227994028457"><ele>27.599999999999998</ele><time>2026-03-24T16:38:39.001Z</time></trkpt><trkpt lat="42.10096404068847" lon="11.795171040038946"><ele>27.799999999999997</ele><time>2026-03-24T16:38:41Z</time></trkpt><trkpt lat="42.10101739366674" lon="11.795015946063803"><ele>28.0</ele><time>2026-03-24T16:38:43Z</time></trkpt><trkpt lat="42.10105764526788" lon="11.794932100831097"><ele>27.4</ele><time>2026-03-24T16:38:44Z</time></trkpt><trkpt lat="42.101112601245894" lon="11.794849853066443"><ele>26.799999999999997</ele><time>2026-03-24T16:38:45Z</time></trkpt><trkpt lat="42.10118415197173" lon="11.79477020464979"><ele>26.2</ele><time>2026-03-24T16:38:46Z</time></trkpt><trkpt lat="42.101259739671704" lon="11.794682773229018"><ele>25.6</ele><time>2026-03-24T16:38:47Z</time></trkpt><trkpt lat="42.10133916275472" lon="11.794586383555712"><ele>25.0</ele><time>2026-03-24T16:38:48Z</time></trkpt><trkpt lat="42.10142294316675" lon="11.79448323005633"><ele>25.0</ele><time>2026-03-24T16:38:48.999Z</time></trkpt><trkpt lat="42.101506530090425" lon="11.794384195993363"><ele>25.0</ele><time>2026-03-24T16:38:49.999Z</time></trkpt><trkpt lat="42.10159284042223" lon="11.79428646194516"><ele>25.0</ele><time>2026-03-24T16:38:50.999Z</time></trkpt><trkpt lat="42.10168406935388" lon="11.794187281182577"><ele>25.0</ele><time>2026-03-24T16:38:51.999Z</time></trkpt><trkpt lat="42.10177409366185" lon="11.794088543332208"><ele>24.6</ele><time>2026-03-24T16:38:52.999Z</time></trkpt><trkpt lat="42.10186522337932" lon="11.793992205768355"><ele>24.2</ele><time>2026-03-24T16:38:53.999Z</time></trkpt><trkpt lat="42.10194883802672" lon="11.793902638562654"><ele>23.799999999999997</ele><time>2026-03-24T16:38:54.999Z</time></trkpt><trkpt lat="42.1020233310761" lon="11.793824747979427"><ele>23.4</ele><time>2026-03-24T16:38:55.999Z</time></trkpt><trkpt lat="42.10209222196706" lon="11.793758089398912"><ele>23.0</ele><time>2026-03-24T16:38:56.999Z</time></trkpt><trkpt lat="42.1021535720057" lon="11.79369964531278"><ele>23.0</ele><time>2026-03-24T16:38:57.999Z</time></trkpt><trkpt lat="42.102213015977156" lon="11.793648298211568"><ele>23.0</ele><time>2026-03-24T16:38:58.999Z</time></trkpt><trkpt lat="42.102281286419824" lon="11.79360701328586"><ele>23.0</ele><time>2026-03-24T16:38:59.999Z</time></trkpt><trkpt lat="42.10234197461074" lon="11.79353856462049"><ele>23.0</ele><time>2026-03-24T16:39:00.999Z</time></trkpt><trkpt lat="42.10242663866718" lon="11.793493725783152"><ele>23.0</ele><time>2026-03-24T16:39:01.999Z</time></trkpt><trkpt lat="42.10249082606258" lon="11.793403826154961"><ele>23.0</ele><time>2026-03-24T16:39:02.999Z</time></trkpt><trkpt lat="42.10255719641987" lon="11.793310919070725"><ele>22.75</ele><time>2026-03-24T16:39:03.999Z</time></trkpt><trkpt lat="42.10264698333452" lon="11.793225544330964"><ele>22.5</ele><time>2026-03-24T16:39:04.999Z</time></trkpt><trkpt lat="42.102742692112535" lon="11.793137921845586"><ele>22.25</ele><time>2026-03-24T16:39:05.999Z</time></trkpt><trkpt lat="42.102846551186744" lon="11.793041001644939"><ele>22.0</ele><time>2026-03-24T16:39:06.999Z</time></trkpt><trkpt lat="42.10295796672362" lon="11.792934243046709"><ele>22.0</ele><time>2026-03-24T16:39:07.999Z</time></trkpt><trkpt lat="42.10307897527574" lon="11.792816339840527"><ele>22.0</ele><time>2026-03-24T16:39:08.999Z</time></trkpt><trkpt lat="42.103200622751565" lon="11.792698376414195"><ele>22.0</ele><time>2026-03-24T16:39:09.999Z</time></trkpt><trkpt lat="42.10332900424709" lon="11.792582648285965"><ele>21.666666666666664</ele><time>2026-03-24T16:39:10.999Z</time></trkpt><trkpt lat="42.10345741441676" lon="11.792459595034984"><ele>21.333333333333332</ele><time>2026-03-24T16:39:11.999Z</time></trkpt><trkpt lat="42.10358669125187" lon="11.792335001100575"><ele>21.0</ele><time>2026-03-24T16:39:12.999Z</time></trkpt><trkpt lat="42.10372137246184" lon="11.792200250588149"><ele>21.0</ele><time>2026-03-24T16:39:13.999Z</time></trkpt><trkpt lat="42.103857992382025" lon="11.792062943785897"><ele>21.0</ele><time>2026-03-24T16:39:14.999Z</time></trkpt><trkpt lat="42.10399575615173" lon="11.791933141289562"><ele>21.0</ele><time>2026-03-24T16:39:15.999Z</time></trkpt><trkpt lat="42.104135959324374" lon="11.791798765905359"><ele>19.333333333333332</ele><time>2026-03-24T16:39:16.999Z</time></trkpt><trkpt lat="42.104273050893575" lon="11.791665761194265"><ele>17.666666666666664</ele><time>2026-03-24T16:39:17.999Z</time></trkpt><trkpt lat="42.10441052023148" lon="11.791530953126587"><ele>16.0</ele><time>2026-03-24T16:39:18.999Z</time></trkpt><trkpt lat="42.10454829080983" lon="11.791393693949516"><ele>16.0</ele><time>2026-03-24T16:39:19.999Z</time></trkpt><trkpt lat="42.10468552365247" lon="11.791259364098574"><ele>16.0</ele><time>2026-03-24T16:39:20.999Z</time></trkpt><trkpt lat="42.104821677652666" lon="11.791125563777591"><ele>16.0</ele><time>2026-03-24T16:39:21.999Z</time></trkpt><trkpt lat="42.104955881971485" lon="11.790994099648405"><ele>14.0</ele><time>2026-03-24T16:39:22.999Z</time></trkpt><trkpt lat="42.10508628048427" lon="11.790863816319657"><ele>12.0</ele><time>2026-03-24T16:39:23.999Z</time></trkpt><trkpt lat="42.10521518161063" lon="11.790733364503742"><ele>10.0</ele><time>2026-03-24T16:39:24.999Z</time></trkpt><trkpt lat="42.105344030783925" lon="11.790603765402674"><ele>10.0</ele><time>2026-03-24T16:39:25.999Z</time></trkpt><trkpt lat="42.10546783042353" lon="11.790474464915798"><ele>10.0</ele><time>2026-03-24T16:39:26.999Z</time></trkpt><trkpt lat="42.105586986240326" lon="11.790351363643348"><ele>10.0</ele><time>2026-03-24T16:39:27.999Z</time></trkpt><trkpt lat="42.10570375781016" lon="11.790224522921285"><ele>9.75</ele><time>2026-03-24T16:39:28.999Z</time></trkpt><trkpt lat="42.10581709971547" lon="11.790102371756241"><ele>9.5</ele><time>2026-03-24T16:39:29.999Z</time></trkpt><trkpt lat="42.105926247832116" lon="11.789976684726353"><ele>9.25</ele><time>2026-03-24T16:39:30.999Z</time></trkpt><trkpt lat="42.10603930897685" lon="11.789851700613882"><ele>9.0</ele><time>2026-03-24T16:39:31.999Z</time></trkpt><trkpt lat="42.106148079734886" lon="11.789730060384608"><ele>9.0</ele><time>2026-03-24T16:39:32.999Z</time></trkpt><trkpt lat="42.1062447196333" lon="11.78959984699835"><ele>9.0</ele><time>2026-03-24T16:39:33.999Z</time></trkpt><trkpt lat="42.10634740547172" lon="11.78949886553325"><ele>9.0</ele><time>2026-03-24T16:39:34.999Z</time></trkpt><trkpt lat="42.106439588564754" lon="11.789387841086237"><ele>9.0</ele><time>2026-03-24T16:39:35.999Z</time></trkpt><trkpt lat="42.10652319469279" lon="11.789284395611304"><ele>12.0</ele><time>2026-03-24T16:39:36.999Z</time></trkpt><trkpt lat="42.10660214590455" lon="11.789188548123477"><ele>15.0</ele><time>2026-03-24T16:39:37.999Z</time></trkpt><trkpt lat="42.106682066659324" lon="11.789093039560676"><ele>18.0</ele><time>2026-03-24T16:39:38.999Z</time></trkpt><trkpt lat="42.10675291799371" lon="11.789004640123284"><ele>21.0</ele><time>2026-03-24T16:39:39.999Z</time></trkpt><trkpt lat="42.10681555326826" lon="11.788924282076119"><ele>24.0</ele><time>2026-03-24T16:39:40.999Z</time></trkpt><trkpt lat="42.10686955840506" lon="11.788858635595037"><ele>24.0</ele><time>2026-03-24T16:39:41.999Z</time></trkpt><trkpt lat="42.106943054326116" lon="11.788769256842077"><ele>24.0</ele><time>2026-03-24T16:39:43.999Z</time></trkpt><trkpt lat="42.10700357651287" lon="11.788698712313067"><ele>24.0</ele><time>2026-03-24T16:39:45.999Z</time></trkpt><trkpt lat="42.10706144520012" lon="11.788617095191817"><ele>24.0</ele><time>2026-03-24T16:39:47.999Z</time></trkpt><trkpt lat="42.10712560494626" lon="11.788492925652514"><ele>24.0</ele><time>2026-03-24T16:39:49.999Z</time></trkpt><trkpt lat="42.10716316207589" lon="11.788416193006494"><ele>24.0</ele><time>2026-03-24T16:39:50.999Z</time></trkpt><trkpt lat="42.10721011473186" lon="11.788325937774797"><ele>24.0</ele><time>2026-03-24T16:39:51.999Z</time></trkpt><trkpt lat="42.1072662176498" lon="11.788226484661912"><ele>24.0</ele><time>2026-03-24T16:39:52.999Z</time></trkpt><trkpt lat="42.107333754264886" lon="11.788115695724553"><ele>24.0</ele><time>2026-03-24T16:39:53.999Z</time></trkpt><trkpt lat="42.107401504045875" lon="11.788013303219248"><ele>24.0</ele><time>2026-03-24T16:39:54.999Z</time></trkpt><trkpt lat="42.107476104776936" lon="11.787905416962332"><ele>24.0</ele><time>2026-03-24T16:39:55.999Z</time></trkpt><trkpt lat="42.10755468832182" lon="11.787787602677728"><ele>23.0</ele><time>2026-03-24T16:39:56.999Z</time></trkpt><trkpt lat="42.10763709381592" lon="11.787668812615973"><ele>22.0</ele><time>2026-03-24T16:39:57.999Z</time></trkpt><trkpt lat="42.1077204732957" lon="11.787546965031972"><ele>21.0</ele><time>2026-03-24T16:39:58.999Z</time></trkpt><trkpt lat="42.10780525835851" lon="11.787426609282326"><ele>20.0</ele><time>2026-03-24T16:39:59.999Z</time></trkpt><trkpt lat="42.10789553972939" lon="11.787304755545781"><ele>20.0</ele><time>2026-03-24T16:40:00.999Z</time></trkpt><trkpt lat="42.107993668562536" lon="11.787175907336255"><ele>20.0</ele><time>2026-03-24T16:40:01.999Z</time></trkpt><trkpt lat="42.108098285374496" lon="11.787043599054925"><ele>20.0</ele><time>2026-03-24T16:40:02.999Z</time></trkpt><trkpt lat="42.108206561588716" lon="11.786908778695583"><ele>20.0</ele><time>2026-03-24T16:40:03.999Z</time></trkpt><trkpt lat="42.10831092167176" lon="11.786783223067399"><ele>19.5</ele><time>2026-03-24T16:40:04.999Z</time></trkpt><trkpt lat="42.10841280014453" lon="11.786656464822423"><ele>19.0</ele><time>2026-03-24T16:40:05.999Z</time></trkpt><trkpt lat="42.10851617121338" lon="11.786535574491872"><ele>18.5</ele><time>2026-03-24T16:40:06.999Z</time></trkpt><trkpt lat="42.10861822974471" lon="11.786416762811875"><ele>18.0</ele><time>2026-03-24T16:40:07.999Z</time></trkpt><trkpt lat="42.108729823259836" lon="11.786294505122356"><ele>18.0</ele><time>2026-03-24T16:40:08.999Z</time></trkpt><trkpt lat="42.1088460510074" lon="11.786170482552071"><ele>18.0</ele><time>2026-03-24T16:40:09.999Z</time></trkpt><trkpt lat="42.10897009539325" lon="11.7860365052255"><ele>18.0</ele><time>2026-03-24T16:40:10.999Z</time></trkpt><trkpt lat="42.10909434217011" lon="11.785903396190585"><ele>18.666666666666668</ele><time>2026-03-24T16:40:11.999Z</time></trkpt><trkpt lat="42.10921860875145" lon="11.785770233957079"><ele>19.333333333333336</ele><time>2026-03-24T16:40:13Z</time></trkpt><trkpt lat="42.10935145126964" lon="11.785630644785854"><ele>20.0</ele><time>2026-03-24T16:40:14Z</time></trkpt><trkpt lat="42.10949096358201" lon="11.785470644758936"><ele>20.0</ele><time>2026-03-24T16:40:15Z</time></trkpt><trkpt lat="42.109635955845974" lon="11.78529562380294"><ele>20.0</ele><time>2026-03-24T16:40:16Z</time></trkpt><trkpt lat="42.109785611262424" lon="11.785106816153446"><ele>20.0</ele><time>2026-03-24T16:40:17Z</time></trkpt><trkpt lat="42.10993676808894" lon="11.78491634978436"><ele>20.666666666666668</ele><time>2026-03-24T16:40:18Z</time></trkpt><trkpt lat="42.110086625382905" lon="11.784729338002188"><ele>21.333333333333332</ele><time>2026-03-24T16:40:19Z</time></trkpt><trkpt lat="42.11023896851076" lon="11.78453648879395"><ele>22.0</ele><time>2026-03-24T16:40:20Z</time></trkpt><trkpt lat="42.110393939307414" lon="11.78434164597937"><ele>22.0</ele><time>2026-03-24T16:40:21Z</time></trkpt><trkpt lat="42.110548822353024" lon="11.784148447282417"><ele>22.0</ele><time>2026-03-24T16:40:22Z</time></trkpt><trkpt lat="42.11070468196888" lon="11.783953402462194"><ele>22.0</ele><time>2026-03-24T16:40:23Z</time></trkpt><trkpt lat="42.110863367759954" lon="11.783756973827531"><ele>21.666666666666664</ele><time>2026-03-24T16:40:24Z</time></trkpt><trkpt lat="42.111023645895486" lon="11.783566925990195"><ele>21.333333333333332</ele><time>2026-03-24T16:40:25Z</time></trkpt><trkpt lat="42.111178498565025" lon="11.783371695864945"><ele>21.0</ele><time>2026-03-24T16:40:26Z</time></trkpt><trkpt lat="42.111333689302086" lon="11.783176178696571"><ele>21.0</ele><time>2026-03-24T16:40:27Z</time></trkpt><trkpt lat="42.11148697342955" lon="11.782981892059347"><ele>21.0</ele><time>2026-03-24T16:40:28Z</time></trkpt><trkpt lat="42.11163903829706" lon="11.782787054064078"><ele>21.0</ele><time>2026-03-24T16:40:29Z</time></trkpt><trkpt lat="42.11179216293524" lon="11.782590374752827"><ele>20.0</ele><time>2026-03-24T16:40:30Z</time></trkpt><trkpt lat="42.111943530553525" lon="11.782391834903363"><ele>19.0</ele><time>2026-03-24T16:40:31Z</time></trkpt><trkpt lat="42.112096289087305" lon="11.782196388668027"><ele>18.0</ele><time>2026-03-24T16:40:32Z</time></trkpt><trkpt lat="42.11225091135921" lon="11.781998486818456"><ele>18.0</ele><time>2026-03-24T16:40:33Z</time></trkpt><trkpt lat="42.112403644543406" lon="11.781796265006394"><ele>18.0</ele><time>2026-03-24T16:40:34Z</time></trkpt><trkpt lat="42.112558283092056" lon="11.781589449319283"><ele>18.0</ele><time>2026-03-24T16:40:35Z</time></trkpt><trkpt lat="42.11271297858393" lon="11.781376724090384"><ele>18.0</ele><time>2026-03-24T16:40:36Z</time></trkpt><trkpt lat="42.11286905019703" lon="11.781165818486878"><ele>18.0</ele><time>2026-03-24T16:40:37Z</time></trkpt><trkpt lat="42.11302284248834" lon="11.7809637307709"><ele>18.0</ele><time>2026-03-24T16:40:38Z</time></trkpt><trkpt lat="42.1131744655376" lon="11.78076202765252"><ele>16.666666666666668</ele><time>2026-03-24T16:40:39Z</time></trkpt><trkpt lat="42.11333048652224" lon="11.780574692523688"><ele>15.333333333333334</ele><time>2026-03-24T16:40:40Z</time></trkpt><trkpt lat="42.11348857214926" lon="11.780396124644565"><ele>14.0</ele><time>2026-03-24T16:40:41Z</time></trkpt><trkpt lat="42.11365554493719" lon="11.780231268693665"><ele>13.0</ele><time>2026-03-24T16:40:42Z</time></trkpt><trkpt lat="42.11382732265199" lon="11.780075297263501"><ele>12.0</ele><time>2026-03-24T16:40:43Z</time></trkpt><trkpt lat="42.11401021217406" lon="11.779933976563045"><ele>11.0</ele><time>2026-03-24T16:40:44Z</time></trkpt><trkpt lat="42.114202803562335" lon="11.77980415120059"><ele>11.0</ele><time>2026-03-24T16:40:45Z</time></trkpt><trkpt lat="42.11439273297894" lon="11.779676226380918"><ele>11.0</ele><time>2026-03-24T16:40:46Z</time></trkpt><trkpt lat="42.11458306251348" lon="11.779553167681348"><ele>11.0</ele><time>2026-03-24T16:40:47Z</time></trkpt><trkpt lat="42.11476900130339" lon="11.7794324440881"><ele>11.666666666666666</ele><time>2026-03-24T16:40:48Z</time></trkpt><trkpt lat="42.11495303692444" lon="11.77932285830445"><ele>12.333333333333332</ele><time>2026-03-24T16:40:49Z</time></trkpt><trkpt lat="42.11512465112829" lon="11.779241881685994"><ele>13.0</ele><time>2026-03-24T16:40:50Z</time></trkpt><trkpt lat="42.11528692960947" lon="11.779175552770441"><ele>13.0</ele><time>2026-03-24T16:40:51Z</time></trkpt><trkpt lat="42.115436165496064" lon="11.779121976761592"><ele>13.0</ele><time>2026-03-24T16:40:52Z</time></trkpt><trkpt lat="42.11557379331075" lon="11.779084259770531"><ele>13.0</ele><time>2026-03-24T16:40:53Z</time></trkpt><trkpt lat="42.11569699823932" lon="11.77905041814158"><ele>13.0</ele><time>2026-03-24T16:40:54Z</time></trkpt><trkpt lat="42.11580260032787" lon="11.779024720288524"><ele>13.999999999999998</ele><time>2026-03-24T16:40:55Z</time></trkpt><trkpt lat="42.11589044501785" lon="11.779012320536792"><ele>15.0</ele><time>2026-03-24T16:40:56Z</time></trkpt><trkpt lat="42.115965910442135" lon="11.779004820558653"><ele>16.0</ele><time>2026-03-24T16:40:57Z</time></trkpt><trkpt lat="42.116039093496546" lon="11.779009594166611"><ele>17.0</ele><time>2026-03-24T16:40:58Z</time></trkpt><trkpt lat="42.11611709482014" lon="11.779019925933413"><ele>18.0</ele><time>2026-03-24T16:40:58.999Z</time></trkpt><trkpt lat="42.11620341252895" lon="11.779022467786275"><ele>19.0</ele><time>2026-03-24T16:40:59.999Z</time></trkpt><trkpt lat="42.11629574360754" lon="11.77904841503573"><ele>19.0</ele><time>2026-03-24T16:41:00.999Z</time></trkpt><trkpt lat="42.116402637178766" lon="11.778968212904374"><ele>19.0</ele><time>2026-03-24T16:41:01.999Z</time></trkpt><trkpt lat="42.116519457486355" lon="11.778930126439061"><ele>19.0</ele><time>2026-03-24T16:41:02.999Z</time></trkpt><trkpt lat="42.1166465502315" lon="11.778890488952111"><ele>19.0</ele><time>2026-03-24T16:41:03.999Z</time></trkpt><trkpt lat="42.11679067572421" lon="11.778864337282258"><ele>19.666666666666664</ele><time>2026-03-24T16:41:04.999Z</time></trkpt><trkpt lat="42.116933251257976" lon="11.778849518742765"><ele>20.333333333333332</ele><time>2026-03-24T16:41:05.999Z</time></trkpt><trkpt lat="42.1170836022912" lon="11.778829545511348"><ele>21.0</ele><time>2026-03-24T16:41:06.999Z</time></trkpt><trkpt lat="42.11724200903547" lon="11.77881154386375"><ele>20.666666666666668</ele><time>2026-03-24T16:41:07.999Z</time></trkpt><trkpt lat="42.117406326374756" lon="11.77879901576644"><ele>20.333333333333336</ele><time>2026-03-24T16:41:08.999Z</time></trkpt><trkpt lat="42.117572814577166" lon="11.778786202000108"><ele>20.0</ele><time>2026-03-24T16:41:09.999Z</time></trkpt><trkpt lat="42.117739892976864" lon="11.778771089626714"><ele>20.0</ele><time>2026-03-24T16:41:10.999Z</time></trkpt><trkpt lat="42.117907440721645" lon="11.778755745826665"><ele>20.0</ele><time>2026-03-24T16:41:11.999Z</time></trkpt><trkpt lat="42.11807559994841" lon="11.778736262251574"><ele>20.0</ele><time>2026-03-24T16:41:12.999Z</time></trkpt><trkpt lat="42.1182422959826" lon="11.778717994530831"><ele>20.666666666666668</ele><time>2026-03-24T16:41:13.999Z</time></trkpt><trkpt lat="42.11840885215283" lon="11.77870119317353"><ele>21.333333333333332</ele><time>2026-03-24T16:41:14.999Z</time></trkpt><trkpt lat="42.11857162914217" lon="11.778686818862349"><ele>22.0</ele><time>2026-03-24T16:41:15.999Z</time></trkpt><trkpt lat="42.11873271301478" lon="11.778668520493499"><ele>22.0</ele><time>2026-03-24T16:41:16.999Z</time></trkpt><trkpt lat="42.11888779890182" lon="11.778650173069092"><ele>22.0</ele><time>2026-03-24T16:41:17.999Z</time></trkpt><trkpt lat="42.11903632764216" lon="11.778631836150106"><ele>22.0</ele><time>2026-03-24T16:41:18.999Z</time></trkpt><trkpt lat="42.119178211862724" lon="11.778616208473103"><ele>22.0</ele><time>2026-03-24T16:41:19.999Z</time></trkpt><trkpt lat="42.119309849157396" lon="11.778606531827432"><ele>22.6</ele><time>2026-03-24T16:41:20.999Z</time></trkpt><trkpt lat="42.1194298997223" lon="11.778603308144243"><ele>23.200000000000003</ele><time>2026-03-24T16:41:21.999Z</time></trkpt><trkpt lat="42.11953618735676" lon="11.778609652875609"><ele>23.8</ele><time>2026-03-24T16:41:22.999Z</time></trkpt><trkpt lat="42.119626757763" lon="11.778618816484954"><ele>24.4</ele><time>2026-03-24T16:41:23.999Z</time></trkpt><trkpt lat="42.11970551946183" lon="11.77863333924263"><ele>25.0</ele><time>2026-03-24T16:41:24.999Z</time></trkpt><trkpt lat="42.11977720476278" lon="11.778653395648728"><ele>25.000000000000004</ele><time>2026-03-24T16:41:25.999Z</time></trkpt><trkpt lat="42.11984975003335" lon="11.778682655707538"><ele>25.0</ele><time>2026-03-24T16:41:26.999Z</time></trkpt><trkpt lat="42.11992353190511" lon="11.778716450780145"><ele>25.0</ele><time>2026-03-24T16:41:27.999Z</time></trkpt><trkpt lat="42.11999098914994" lon="11.77874621148557"><ele>25.0</ele><time>2026-03-24T16:41:28.999Z</time></trkpt><trkpt lat="42.12003805331072" lon="11.778808984339566"><ele>25.000000000000004</ele><time>2026-03-24T16:41:29.999Z</time></trkpt><trkpt lat="42.120184747369045" lon="11.778834130352312"><ele>25.0</ele><time>2026-03-24T16:41:31.999Z</time></trkpt><trkpt lat="42.12025197102374" lon="11.778815509771885"><ele>25.000000000000004</ele><time>2026-03-24T16:41:32.999Z</time></trkpt><trkpt lat="42.120319239465694" lon="11.77876789695684"><ele>25.0</ele><time>2026-03-24T16:41:33.999Z</time></trkpt><trkpt lat="42.120377139623415" lon="11.778690420301244"><ele>25.0</ele><time>2026-03-24T16:41:34.999Z</time></trkpt><trkpt lat="42.1204164178828" lon="11.77859680073876"><ele>25.0</ele><time>2026-03-24T16:41:35.999Z</time></trkpt><trkpt lat="42.12044839693407" lon="11.77851693211927"><ele>25.000000000000004</ele><time>2026-03-24T16:41:36.999Z</time></trkpt><trkpt lat="42.12047898464699" lon="11.77844053836088"><ele>25.0</ele><time>2026-03-24T16:41:37.999Z</time></trkpt><trkpt lat="42.12040870248297" lon="11.7782825767213"><ele>25.0</ele><time>2026-03-24T16:41:38.999Z</time></trkpt><trkpt lat="42.12035302489649" lon="11.778187707536164"><ele>25.0</ele><time>2026-03-24T16:41:39.999Z</time></trkpt><trkpt lat="42.120306575475276" lon="11.778080020802776"><ele>25.0</ele><time>2026-03-24T16:41:40.999Z</time></trkpt><trkpt lat="42.120251764450835" lon="11.77796795736149"><ele>25.0</ele><time>2026-03-24T16:41:41.999Z</time></trkpt><trkpt lat="42.120203962590566" lon="11.7778488456282"><ele>25.0</ele><time>2026-03-24T16:41:42.999Z</time></trkpt><trkpt lat="42.120168130302304" lon="11.777729169598256"><ele>24.000000000000004</ele><time>2026-03-24T16:41:43.999Z</time></trkpt><trkpt lat="42.120141302136275" lon="11.777610408959767"><ele>23.0</ele><time>2026-03-24T16:41:44.999Z</time></trkpt><trkpt lat="42.12012273153235" lon="11.777499534990152"><ele>22.0</ele><time>2026-03-24T16:41:45.999Z</time></trkpt><trkpt lat="42.12010108813885" lon="11.777391215097824"><ele>21.0</ele><time>2026-03-24T16:41:46.999Z</time></trkpt><trkpt lat="42.12009688043472" lon="11.777294191756969"><ele>20.0</ele><time>2026-03-24T16:41:47.999Z</time></trkpt><trkpt lat="42.120087499037695" lon="11.777204970524046"><ele>19.0</ele><time>2026-03-24T16:41:48.999Z</time></trkpt><trkpt lat="42.12008747810468" lon="11.777104745244724"><ele>19.0</ele><time>2026-03-24T16:41:50.999Z</time></trkpt><trkpt lat="42.120104774892305" lon="11.777013866917715"><ele>19.0</ele><time>2026-03-24T16:41:54.999Z</time></trkpt><trkpt lat="42.120157833307054" lon="11.776957844528654"><ele>19.0</ele><time>2026-03-24T16:42:00.999Z</time></trkpt><trkpt lat="42.12022110497688" lon="11.776952200427411"><ele>19.0</ele><time>2026-03-24T16:42:02.999Z</time></trkpt><trkpt lat="42.12029083051775" lon="11.776952405405057"><ele>19.0</ele><time>2026-03-24T16:42:04.999Z</time></trkpt><trkpt lat="42.12038726795726" lon="11.776936451579676"><ele>19.0</ele><time>2026-03-24T16:42:06.999Z</time></trkpt><trkpt lat="42.12047577762069" lon="11.776928243518858"><ele>19.0</ele><time>2026-03-24T16:42:08.999Z</time></trkpt><trkpt lat="42.120541959944994" lon="11.776950167790506"><ele>19.0</ele><time>2026-03-24T16:44:53Z</time></trkpt><trkpt lat="42.120605202502254" lon="11.776928001689779"><ele>19.0</ele><time>2026-03-24T16:44:59Z</time></trkpt><trkpt lat="42.12066201749364" lon="11.776976447165683"><ele>19.0</ele><time>2026-03-24T16:45:17.999Z</time></trkpt><trkpt lat="42.120707552555245" lon="11.77712283570334"><ele>19.0</ele><time>2026-03-24T16:45:39.999Z</time></trkpt><trkpt lat="42.120747752605844" lon="11.777195437792999"><ele>19.0</ele><time>2026-03-24T16:46:10.999Z</time></trkpt><trkpt lat="42.12070969581767" lon="11.777118191505027"><ele>19.0</ele><time>2026-03-24T16:46:54Z</time></trkpt><trkpt lat="42.120690397107936" lon="11.777032179317303"><ele>19.0</ele><time>2026-03-24T16:47:03Z</time></trkpt><trkpt lat="42.12063002606762" lon="11.776994995174359"><ele>19.0</ele><time>2026-03-24T16:47:12Z</time></trkpt><trkpt lat="42.120625978008306" lon="11.776899137152942"><ele>19.0</ele><time>2026-03-24T16:47:23.999Z</time></trkpt><trkpt lat="42.120676997310426" lon="11.776962041364166"><ele>19.0</ele><time>2026-03-24T16:47:35.999Z</time></trkpt><trkpt lat="42.12069059336556" lon="11.777047181317227"><ele>19.0</ele><time>2026-03-24T16:47:42.999Z</time></trkpt><trkpt lat="42.12068949449826" lon="11.777141415453995"><ele>19.0</ele><time>2026-03-24T16:47:50.999Z</time></trkpt><trkpt lat="42.12074683689562" lon="11.777192901517878"><ele>19.0</ele><time>2026-03-24T16:47:59.999Z</time></trkpt><trkpt lat="42.12082333026498" lon="11.777258441474144"><ele>19.0</ele><time>2026-03-24T16:48:27.999Z</time></trkpt><trkpt lat="42.12076097200269" lon="11.777216695056241"><ele>19.0</ele><time>2026-03-24T16:48:37Z</time></trkpt><trkpt lat="42.12070116741221" lon="11.777182036262131"><ele>19.0</ele><time>2026-03-24T16:48:48Z</time></trkpt><trkpt lat="42.12082020288126" lon="11.777193535093335"><ele>19.0</ele><time>2026-03-24T16:49:03Z</time></trkpt><trkpt lat="42.12080228582565" lon="11.7770991097278"><ele>19.0</ele><time>2026-03-24T16:49:28.999Z</time></trkpt><trkpt lat="42.12091936833194" lon="11.777057694121291"><ele>19.0</ele><time>2026-03-24T16:49:30.999Z</time></trkpt><trkpt lat="42.12087207473527" lon="11.777118417399496"><ele>19.0</ele><time>2026-03-24T16:51:00Z</time></trkpt><trkpt lat="42.120818653965216" lon="11.777021386458937"><ele>19.0</ele><time>2026-03-24T16:51:16Z</time></trkpt><trkpt lat="42.12075152987619" lon="11.77705297596996"><ele>19.0</ele><time>2026-03-24T16:51:24Z</time></trkpt><trkpt lat="42.12069153726939" lon="11.777017389733325"><ele>19.0</ele><time>2026-03-24T16:52:21.999Z</time></trkpt><trkpt lat="42.12064502754316" lon="11.776954080027384"><ele>19.0</ele><time>2026-03-24T16:52:26.999Z</time></trkpt><trkpt lat="42.1205820954926" lon="11.776964061842634"><ele>19.0</ele><time>2026-03-24T16:52:42.999Z</time></trkpt><trkpt lat="42.120517478340126" lon="11.776972294281533"><ele>19.0</ele><time>2026-03-24T16:52:48Z</time></trkpt><trkpt lat="42.12044412917201" lon="11.776974367050537"><ele>19.0</ele><time>2026-03-24T16:52:53Z</time></trkpt><trkpt lat="42.12037889040395" lon="11.776996966143482"><ele>19.0</ele><time>2026-03-24T16:52:57Z</time></trkpt><trkpt lat="42.12044502229064" lon="11.776962330154113"><ele>19.0</ele><time>2026-03-24T16:53:09Z</time></trkpt><trkpt lat="42.12052234697869" lon="11.776978540678082"><ele>19.0</ele><time>2026-03-24T16:53:14Z</time></trkpt><trkpt lat="42.12059364578805" lon="11.776960460917035"><ele>19.0</ele><time>2026-03-24T16:53:21Z</time></trkpt><trkpt lat="42.12051560623357" lon="11.776967925856159"><ele>19.0</ele><time>2026-03-24T16:53:41Z</time></trkpt><trkpt lat="42.120600286548665" lon="11.77698161000041"><ele>19.0</ele><time>2026-03-24T16:55:19Z</time></trkpt><trkpt lat="42.120533442068854" lon="11.77697785547384"><ele>19.0</ele><time>2026-03-24T16:55:25Z</time></trkpt><trkpt lat="42.1204679367622" lon="11.77699794863283"><ele>19.0</ele><time>2026-03-24T16:55:29Z</time></trkpt><trkpt lat="42.12038705903538" lon="11.777007631127193"><ele>19.0</ele><time>2026-03-24T16:55:33Z</time></trkpt><trkpt lat="42.12032277042035" lon="11.777011622272042"><ele>19.0</ele><time>2026-03-24T16:55:36Z</time></trkpt><trkpt lat="42.12025853566215" lon="11.777012158283462"><ele>19.0</ele><time>2026-03-24T16:55:44.999Z</time></trkpt><trkpt lat="42.120180555877894" lon="11.776990544003793"><ele>19.0</ele><time>2026-03-24T16:56:06.999Z</time></trkpt><trkpt lat="42.120114637491774" lon="11.776987395784746"><ele>19.0</ele><time>2026-03-24T16:56:19.999Z</time></trkpt><trkpt lat="42.12008424534073" lon="11.776883160008342"><ele>19.0</ele><time>2026-03-24T16:56:25.999Z</time></trkpt><trkpt lat="42.12007238074331" lon="11.776755114187155"><ele>19.0</ele><time>2026-03-24T16:56:27.999Z</time></trkpt><trkpt lat="42.120062941709904" lon="11.77666846461239"><ele>19.0</ele><time>2026-03-24T16:56:28.999Z</time></trkpt><trkpt lat="42.12005465498503" lon="11.776578000480317"><ele>19.0</ele><time>2026-03-24T16:56:29.999Z</time></trkpt><trkpt lat="42.12004484362415" lon="11.77648177827874"><ele>19.0</ele><time>2026-03-24T16:56:30.999Z</time></trkpt><trkpt lat="42.12003457078093" lon="11.776377259806209"><ele>18.8</ele><time>2026-03-24T16:56:31.999Z</time></trkpt><trkpt lat="42.12002421739772" lon="11.776258997053981"><ele>18.599999999999998</ele><time>2026-03-24T16:56:32.999Z</time></trkpt><trkpt lat="42.120005956889244" lon="11.77613296988637"><ele>18.4</ele><time>2026-03-24T16:56:33.999Z</time></trkpt><trkpt lat="42.11999344321083" lon="11.776003392812"><ele>18.2</ele><time>2026-03-24T16:56:34.999Z</time></trkpt><trkpt lat="42.11998239882474" lon="11.775870579666842"><ele>18.0</ele><time>2026-03-24T16:56:35.999Z</time></trkpt><trkpt lat="42.119971161563925" lon="11.775744758444038"><ele>18.0</ele><time>2026-03-24T16:56:36.999Z</time></trkpt><trkpt lat="42.119959762158935" lon="11.77561967978352"><ele>18.0</ele><time>2026-03-24T16:56:37.999Z</time></trkpt><trkpt lat="42.11994753306513" lon="11.77549518622122"><ele>18.0</ele><time>2026-03-24T16:56:38.999Z</time></trkpt><trkpt lat="42.1199359595799" lon="11.775367562139099"><ele>18.0</ele><time>2026-03-24T16:56:39.999Z</time></trkpt><trkpt lat="42.119922146955766" lon="11.775240482917383"><ele>18.0</ele><time>2026-03-24T16:56:40.999Z</time></trkpt><trkpt lat="42.1199086560436" lon="11.77511302443878"><ele>17.4</ele><time>2026-03-24T16:56:41.999Z</time></trkpt><trkpt lat="42.119893947676296" lon="11.774984153955545"><ele>16.8</ele><time>2026-03-24T16:56:42.999Z</time></trkpt><trkpt lat="42.11988035590325" lon="11.774848995090068"><ele>16.2</ele><time>2026-03-24T16:56:43.999Z</time></trkpt><trkpt lat="42.119865373661504" lon="11.77471577130508"><ele>15.6</ele><time>2026-03-24T16:56:44.999Z</time></trkpt><trkpt lat="42.11984870172992" lon="11.774581250396425"><ele>15.0</ele><time>2026-03-24T16:56:45.999Z</time></trkpt><trkpt lat="42.11983149301451" lon="11.774441851849645"><ele>15.0</ele><time>2026-03-24T16:56:46.999Z</time></trkpt><trkpt lat="42.11981107392289" lon="11.774297783705281"><ele>15.0</ele><time>2026-03-24T16:56:47.999Z</time></trkpt><trkpt lat="42.11979202593743" lon="11.774150835483537"><ele>15.0</ele><time>2026-03-24T16:56:48.999Z</time></trkpt><trkpt lat="42.11976856782534" lon="11.773998814790797"><ele>15.0</ele><time>2026-03-24T16:56:49.999Z</time></trkpt><trkpt lat="42.11974323048543" lon="11.77383997136382"><ele>15.0</ele><time>2026-03-24T16:56:50.999Z</time></trkpt><trkpt lat="42.11971643986578" lon="11.77368282863268"><ele>15.0</ele><time>2026-03-24T16:56:51.999Z</time></trkpt><trkpt lat="42.11969107283494" lon="11.773527466840232"><ele>15.0</ele><time>2026-03-24T16:56:52.999Z</time></trkpt><trkpt lat="42.119650694092165" lon="11.773378819373331"><ele>15.0</ele><time>2026-03-24T16:56:53.999Z</time></trkpt><trkpt lat="42.1196545773583" lon="11.773211563482676"><ele>15.25</ele><time>2026-03-24T16:56:54.999Z</time></trkpt><trkpt lat="42.11964195926569" lon="11.773042483797086"><ele>15.5</ele><time>2026-03-24T16:56:55.999Z</time></trkpt><trkpt lat="42.119632757963615" lon="11.772867597941941"><ele>15.75</ele><time>2026-03-24T16:56:56.999Z</time></trkpt><trkpt lat="42.11962852186677" lon="11.772700987573696"><ele>16.0</ele><time>2026-03-24T16:56:57.999Z</time></trkpt><trkpt lat="42.11963423722824" lon="11.772547403254352"><ele>15.666666666666666</ele><time>2026-03-24T16:56:58.999Z</time></trkpt><trkpt lat="42.11964208964073" lon="11.772411387556716"><ele>15.333333333333332</ele><time>2026-03-24T16:57:00Z</time></trkpt><trkpt lat="42.11964938565904" lon="11.772288206993647"><ele>15.0</ele><time>2026-03-24T16:57:01Z</time></trkpt><trkpt lat="42.11965309412631" lon="11.772175617719567"><ele>14.666666666666668</ele><time>2026-03-24T16:57:02Z</time></trkpt><trkpt lat="42.11963966440706" lon="11.772066144953802"><ele>14.333333333333334</ele><time>2026-03-24T16:57:03Z</time></trkpt><trkpt lat="42.119606859813345" lon="11.771960723933992"><ele>14.0</ele><time>2026-03-24T16:57:04Z</time></trkpt><trkpt lat="42.11955309642866" lon="11.771870250383088"><ele>14.000000000000002</ele><time>2026-03-24T16:57:05Z</time></trkpt><trkpt lat="42.11947937127568" lon="11.771802044055047"><ele>14.0</ele><time>2026-03-24T16:57:06Z</time></trkpt><trkpt lat="42.11939649974526" lon="11.77177390566918"><ele>14.0</ele><time>2026-03-24T16:57:07Z</time></trkpt><trkpt lat="42.11931265756123" lon="11.771767745776076"><ele>14.0</ele><time>2026-03-24T16:57:08Z</time></trkpt><trkpt lat="42.11923038171585" lon="11.771800874449033"><ele>14.000000000000002</ele><time>2026-03-24T16:57:09Z</time></trkpt><trkpt lat="42.11915893068155" lon="11.771858384507176"><ele>14.0</ele><time>2026-03-24T16:57:10Z</time></trkpt><trkpt lat="42.1190971371202" lon="11.771941622142755"><ele>14.0</ele><time>2026-03-24T16:57:11Z</time></trkpt><trkpt lat="42.11905224640395" lon="11.772042369382115"><ele>13.999999999999998</ele><time>2026-03-24T16:57:12Z</time></trkpt><trkpt lat="42.1190303178163" lon="11.772158795536981"><ele>13.999999999999998</ele><time>2026-03-24T16:57:13Z</time></trkpt><trkpt lat="42.11903621706766" lon="11.772281289960652"><ele>14.0</ele><time>2026-03-24T16:57:14Z</time></trkpt><trkpt lat="42.119066872729974" lon="11.772405312362016"><ele>14.0</ele><time>2026-03-24T16:57:15Z</time></trkpt><trkpt lat="42.119107444302166" lon="11.77253551336076"><ele>14.0</ele><time>2026-03-24T16:57:16Z</time></trkpt><trkpt lat="42.11915872635697" lon="11.772663493124076"><ele>13.999999999999998</ele><time>2026-03-24T16:57:17Z</time></trkpt><trkpt lat="42.11921172692753" lon="11.772793277256481"><ele>13.999999999999998</ele><time>2026-03-24T16:57:18Z</time></trkpt><trkpt lat="42.11926104669041" lon="11.772931680222609"><ele>14.0</ele><time>2026-03-24T16:57:19Z</time></trkpt><trkpt lat="42.11930773245956" lon="11.773072590161632"><ele>14.0</ele><time>2026-03-24T16:57:20Z</time></trkpt><trkpt lat="42.11935455798854" lon="11.77321384703414"><ele>14.25</ele><time>2026-03-24T16:57:21Z</time></trkpt><trkpt lat="42.11940400318567" lon="11.773356186715233"><ele>14.5</ele><time>2026-03-24T16:57:22Z</time></trkpt><trkpt lat="42.11945138803307" lon="11.773494994336941"><ele>14.75</ele><time>2026-03-24T16:57:23Z</time></trkpt><trkpt lat="42.11949857933595" lon="11.773633012575164"><ele>15.0</ele><time>2026-03-24T16:57:24Z</time></trkpt><trkpt lat="42.119542809304505" lon="11.773772698883676"><ele>15.0</ele><time>2026-03-24T16:57:25Z</time></trkpt><trkpt lat="42.119585758256115" lon="11.773899815762322"><ele>15.0</ele><time>2026-03-24T16:57:26Z</time></trkpt><trkpt lat="42.11963893548067" lon="11.774017530717153"><ele>15.0</ele><time>2026-03-24T16:57:27Z</time></trkpt><trkpt lat="42.119691069553056" lon="11.774159653602279"><ele>15.0</ele><time>2026-03-24T16:57:28Z</time></trkpt><trkpt lat="42.11971892316171" lon="11.77430557424777"><ele>15.0</ele><time>2026-03-24T16:57:29Z</time></trkpt><trkpt lat="42.119743640843005" lon="11.774452847695615"><ele>15.0</ele><time>2026-03-24T16:57:30Z</time></trkpt><trkpt lat="42.119765825362" lon="11.774600510797192"><ele>15.0</ele><time>2026-03-24T16:57:31Z</time></trkpt><trkpt lat="42.11977136858251" lon="11.774755129040308"><ele>15.0</ele><time>2026-03-24T16:57:32Z</time></trkpt><trkpt lat="42.11980078689779" lon="11.77491127092578"><ele>15.0</ele><time>2026-03-24T16:57:33Z</time></trkpt><trkpt lat="42.119820345693526" lon="11.77507533595492"><ele>15.5</ele><time>2026-03-24T16:57:34Z</time></trkpt><trkpt lat="42.11984148210047" lon="11.775246495525392"><ele>16.0</ele><time>2026-03-24T16:57:35Z</time></trkpt><trkpt lat="42.11985866628836" lon="11.775422280088632"><ele>16.5</ele><time>2026-03-24T16:57:36Z</time></trkpt><trkpt lat="42.11987171712428" lon="11.775593101293904"><ele>17.0</ele><time>2026-03-24T16:57:37Z</time></trkpt><trkpt lat="42.119885464778406" lon="11.77575915923267"><ele>17.25</ele><time>2026-03-24T16:57:38Z</time></trkpt><trkpt lat="42.11990106426804" lon="11.775923390248094"><ele>17.5</ele><time>2026-03-24T16:57:39Z</time></trkpt><trkpt lat="42.11991640706682" lon="11.776085026302468"><ele>17.75</ele><time>2026-03-24T16:57:40Z</time></trkpt><trkpt lat="42.11992966670529" lon="11.776246995321896"><ele>18.0</ele><time>2026-03-24T16:57:41Z</time></trkpt><trkpt lat="42.11994408109381" lon="11.776407680939258"><ele>18.0</ele><time>2026-03-24T16:57:42Z</time></trkpt><trkpt lat="42.119958770580176" lon="11.776566913786189"><ele>18.0</ele><time>2026-03-24T16:57:43Z</time></trkpt><trkpt lat="42.119970993148335" lon="11.776721345734561"><ele>18.0</ele><time>2026-03-24T16:57:44Z</time></trkpt><trkpt lat="42.11998379265262" lon="11.77687307608725"><ele>18.0</ele><time>2026-03-24T16:57:45Z</time></trkpt><trkpt lat="42.119999117588485" lon="11.777019054282745"><ele>18.2</ele><time>2026-03-24T16:57:46Z</time></trkpt><trkpt lat="42.12001444766155" lon="11.777162695608986"><ele>18.4</ele><time>2026-03-24T16:57:47Z</time></trkpt><trkpt lat="42.12002877299641" lon="11.777300954133253"><ele>18.599999999999998</ele><time>2026-03-24T16:57:48Z</time></trkpt><trkpt lat="42.1200398565188" lon="11.777433202481472"><ele>18.8</ele><time>2026-03-24T16:57:49Z</time></trkpt><trkpt lat="42.12004922095859" lon="11.777564639227643"><ele>19.0</ele><time>2026-03-24T16:57:50Z</time></trkpt><trkpt lat="42.12005304744289" lon="11.777692515658988"><ele>19.6</ele><time>2026-03-24T16:57:51Z</time></trkpt><trkpt lat="42.1200428955934" lon="11.777812408327506"><ele>20.2</ele><time>2026-03-24T16:57:52Z</time></trkpt><trkpt lat="42.12001294487504" lon="11.777932186277122"><ele>20.8</ele><time>2026-03-24T16:57:53Z</time></trkpt><trkpt lat="42.1200015257053" lon="11.778052707836084"><ele>21.400000000000002</ele><time>2026-03-24T16:57:54Z</time></trkpt><trkpt lat="42.11991586786109" lon="11.778151683333546"><ele>22.0</ele><time>2026-03-24T16:57:55Z</time></trkpt><trkpt lat="42.1198486976439" lon="11.778249561011155"><ele>22.0</ele><time>2026-03-24T16:57:56Z</time></trkpt><trkpt lat="42.11976806154601" lon="11.778327231445711"><ele>22.0</ele><time>2026-03-24T16:57:56.999Z</time></trkpt><trkpt lat="42.119682483504185" lon="11.77839067072566"><ele>22.0</ele><time>2026-03-24T16:57:57.999Z</time></trkpt><trkpt lat="42.11958133179972" lon="11.778430919348256"><ele>22.0</ele><time>2026-03-24T16:57:58.999Z</time></trkpt><trkpt lat="42.11946968895366" lon="11.77845419508604"><ele>22.0</ele><time>2026-03-24T16:57:59.999Z</time></trkpt><trkpt lat="42.11935025364946" lon="11.778470307833945"><ele>22.0</ele><time>2026-03-24T16:58:00.999Z</time></trkpt><trkpt lat="42.11922506937331" lon="11.778483373662297"><ele>22.0</ele><time>2026-03-24T16:58:01.999Z</time></trkpt><trkpt lat="42.119095699521274" lon="11.778493584525426"><ele>22.0</ele><time>2026-03-24T16:58:02.999Z</time></trkpt><trkpt lat="42.11896368303548" lon="11.778504290542799"><ele>22.0</ele><time>2026-03-24T16:58:03.999Z</time></trkpt><trkpt lat="42.11882899262685" lon="11.778517145105667"><ele>22.0</ele><time>2026-03-24T16:58:04.999Z</time></trkpt><trkpt lat="42.11869409450721" lon="11.77853326108818"><ele>22.0</ele><time>2026-03-24T16:58:05.999Z</time></trkpt><trkpt lat="42.11855994489634" lon="11.778552763404669"><ele>22.0</ele><time>2026-03-24T16:58:06.999Z</time></trkpt><trkpt lat="42.11842469951111" lon="11.778572430341715"><ele>22.0</ele><time>2026-03-24T16:58:07.999Z</time></trkpt><trkpt lat="42.11828754055656" lon="11.778590929935799"><ele>21.5</ele><time>2026-03-24T16:58:08.999Z</time></trkpt><trkpt lat="42.118149708310426" lon="11.778610534943171"><ele>21.0</ele><time>2026-03-24T16:58:09.999Z</time></trkpt><trkpt lat="42.11801033872194" lon="11.778630331607927"><ele>20.5</ele><time>2026-03-24T16:58:10.999Z</time></trkpt><trkpt lat="42.11787155239525" lon="11.778648120418946"><ele>20.0</ele><time>2026-03-24T16:58:11.999Z</time></trkpt><trkpt lat="42.117735283667436" lon="11.778664637432621"><ele>20.0</ele><time>2026-03-24T16:58:12.999Z</time></trkpt><trkpt lat="42.11760153300679" lon="11.778679337006773"><ele>20.0</ele><time>2026-03-24T16:58:13.999Z</time></trkpt><trkpt lat="42.11747074176676" lon="11.778693135084914"><ele>20.0</ele><time>2026-03-24T16:58:14.999Z</time></trkpt><trkpt lat="42.11734209071779" lon="11.778705882547417"><ele>20.0</ele><time>2026-03-24T16:58:15.999Z</time></trkpt><trkpt lat="42.11721439619089" lon="11.77871641064339"><ele>20.25</ele><time>2026-03-24T16:58:16.999Z</time></trkpt><trkpt lat="42.117090769023065" lon="11.778725926533529"><ele>20.5</ele><time>2026-03-24T16:58:17.999Z</time></trkpt><trkpt lat="42.11696815959216" lon="11.778736585322225"><ele>20.75</ele><time>2026-03-24T16:58:18.999Z</time></trkpt><trkpt lat="42.11684616673169" lon="11.77874769011376"><ele>21.0</ele><time>2026-03-24T16:58:19.999Z</time></trkpt><trkpt lat="42.11672701032209" lon="11.778756692134507"><ele>21.0</ele><time>2026-03-24T16:58:20.999Z</time></trkpt><trkpt lat="42.11661585207379" lon="11.778763494092063"><ele>21.0</ele><time>2026-03-24T16:58:21.999Z</time></trkpt><trkpt lat="42.116507593307524" lon="11.778766269125857"><ele>21.0</ele><time>2026-03-24T16:58:22.999Z</time></trkpt><trkpt lat="42.116398959165515" lon="11.77876213841858"><ele>21.0</ele><time>2026-03-24T16:58:23.999Z</time></trkpt><trkpt lat="42.11629038288807" lon="11.778788542537196"><ele>21.0</ele><time>2026-03-24T16:58:24.999Z</time></trkpt><trkpt lat="42.116169090980684" lon="11.778746955890709"><ele>20.5</ele><time>2026-03-24T16:58:25.999Z</time></trkpt><trkpt lat="42.11605465339" lon="11.778802949072942"><ele>20.0</ele><time>2026-03-24T16:58:26.999Z</time></trkpt><trkpt lat="42.11593028010878" lon="11.77884378227163"><ele>19.5</ele><time>2026-03-24T16:58:27.999Z</time></trkpt><trkpt lat="42.11579823233413" lon="11.778885075093015"><ele>19.0</ele><time>2026-03-24T16:58:28.999Z</time></trkpt><trkpt lat="42.115656896705815" lon="11.778928818327406"><ele>17.0</ele><time>2026-03-24T16:58:29.999Z</time></trkpt><trkpt lat="42.11551067710467" lon="11.778973276647452"><ele>15.0</ele><time>2026-03-24T16:58:30.999Z</time></trkpt><trkpt lat="42.1153615150757" lon="11.779024386962762"><ele>13.0</ele><time>2026-03-24T16:58:31.999Z</time></trkpt><trkpt lat="42.11521097626978" lon="11.779081826308968"><ele>13.0</ele><time>2026-03-24T16:58:32.999Z</time></trkpt><trkpt lat="42.115064042357396" lon="11.779145183822214"><ele>13.0</ele><time>2026-03-24T16:58:33.999Z</time></trkpt><trkpt lat="42.11491756061666" lon="11.77921528299135"><ele>13.0</ele><time>2026-03-24T16:58:34.999Z</time></trkpt><trkpt lat="42.11477304345982" lon="11.779292155710587"><ele>12.333333333333332</ele><time>2026-03-24T16:58:35.999Z</time></trkpt><trkpt lat="42.114626845462894" lon="11.779375810712784"><ele>11.666666666666666</ele><time>2026-03-24T16:58:36.999Z</time></trkpt><trkpt lat="42.11447907859912" lon="11.779465712153547"><ele>11.0</ele><time>2026-03-24T16:58:37.999Z</time></trkpt><trkpt lat="42.114328382099515" lon="11.779559487974373"><ele>11.0</ele><time>2026-03-24T16:58:38.999Z</time></trkpt><trkpt lat="42.1141793188616" lon="11.779662841372522"><ele>11.0</ele><time>2026-03-24T16:58:39.999Z</time></trkpt><trkpt lat="42.114030376373535" lon="11.779775201680039"><ele>11.0</ele><time>2026-03-24T16:58:40.999Z</time></trkpt><trkpt lat="42.11388517222275" lon="11.779893640082603"><ele>10.333333333333332</ele><time>2026-03-24T16:58:41.999Z</time></trkpt><trkpt lat="42.11374100732487" lon="11.780019326671427"><ele>9.666666666666666</ele><time>2026-03-24T16:58:42.999Z</time></trkpt><trkpt lat="42.11359911377161" lon="11.780153650992942"><ele>9.0</ele><time>2026-03-24T16:58:43.999Z</time></trkpt><trkpt lat="42.11346004970787" lon="11.780295337514067"><ele>10.333333333333332</ele><time>2026-03-24T16:58:44.999Z</time></trkpt><trkpt lat="42.113322787227155" lon="11.78044508075178"><ele>11.666666666666666</ele><time>2026-03-24T16:58:45.999Z</time></trkpt><trkpt lat="42.113188585184865" lon="11.780601106262338"><ele>13.0</ele><time>2026-03-24T16:58:46.999Z</time></trkpt><trkpt lat="42.113055866711335" lon="11.780760439164151"><ele>13.0</ele><time>2026-03-24T16:58:47.999Z</time></trkpt><trkpt lat="42.112924272298635" lon="11.780924180419994"><ele>13.0</ele><time>2026-03-24T16:58:48.999Z</time></trkpt><trkpt lat="42.112794064638635" lon="11.781091735004576"><ele>13.0</ele><time>2026-03-24T16:58:49.999Z</time></trkpt><trkpt lat="42.112667617402344" lon="11.781256688424804"><ele>14.333333333333332</ele><time>2026-03-24T16:58:50.999Z</time></trkpt><trkpt lat="42.112537355728634" lon="11.781426027703754"><ele>15.666666666666668</ele><time>2026-03-24T16:58:51.999Z</time></trkpt><trkpt lat="42.11240665424656" lon="11.781602317083552"><ele>17.0</ele><time>2026-03-24T16:58:52.999Z</time></trkpt><trkpt lat="42.112274579601355" lon="11.781782383134772"><ele>17.333333333333336</ele><time>2026-03-24T16:58:53.999Z</time></trkpt><trkpt lat="42.11214366425897" lon="11.781957303472181"><ele>17.666666666666668</ele><time>2026-03-24T16:58:54.999Z</time></trkpt><trkpt lat="42.112012689903175" lon="11.782128432455295"><ele>18.0</ele><time>2026-03-24T16:58:55.999Z</time></trkpt><trkpt lat="42.11187861059668" lon="11.782303588720056"><ele>18.0</ele><time>2026-03-24T16:58:56.999Z</time></trkpt><trkpt lat="42.111740288967205" lon="11.782480741647687"><ele>18.0</ele><time>2026-03-24T16:58:57.999Z</time></trkpt><trkpt lat="42.11160015308475" lon="11.782662581853495"><ele>18.0</ele><time>2026-03-24T16:58:58.999Z</time></trkpt><trkpt lat="42.111462200806244" lon="11.782842747577659"><ele>18.333333333333332</ele><time>2026-03-24T16:58:59.999Z</time></trkpt><trkpt lat="42.111326930362125" lon="11.78301878516209"><ele>18.666666666666664</ele><time>2026-03-24T16:59:00.999Z</time></trkpt><trkpt lat="42.11118894228358" lon="11.783198592153012"><ele>19.0</ele><time>2026-03-24T16:59:01.999Z</time></trkpt><trkpt lat="42.11104707053362" lon="11.783383177630153"><ele>19.666666666666664</ele><time>2026-03-24T16:59:02.999Z</time></trkpt><trkpt lat="42.110903669133215" lon="11.783570543506439"><ele>20.333333333333332</ele><time>2026-03-24T16:59:03.999Z</time></trkpt><trkpt lat="42.11075995200705" lon="11.783753602282601"><ele>21.0</ele><time>2026-03-24T16:59:04.999Z</time></trkpt><trkpt lat="42.110613075966675" lon="11.783936979669065"><ele>21.333333333333332</ele><time>2026-03-24T16:59:06Z</time></trkpt><trkpt lat="42.11046556032986" lon="11.784124799025305"><ele>21.666666666666664</ele><time>2026-03-24T16:59:07Z</time></trkpt><trkpt lat="42.11031482133762" lon="11.784316894526011"><ele>22.0</ele><time>2026-03-24T16:59:08Z</time></trkpt><trkpt lat="42.110161437317586" lon="11.7845123580825"><ele>23.0</ele><time>2026-03-24T16:59:09Z</time></trkpt><trkpt lat="42.110005985693725" lon="11.784710893590107"><ele>24.0</ele><time>2026-03-24T16:59:10Z</time></trkpt><trkpt lat="42.10984832006416" lon="11.784908776197346"><ele>25.0</ele><time>2026-03-24T16:59:11Z</time></trkpt><trkpt lat="42.109687434843636" lon="11.78510794856195"><ele>23.333333333333336</ele><time>2026-03-24T16:59:12Z</time></trkpt><trkpt lat="42.109527349494016" lon="11.78529917631301"><ele>21.666666666666668</ele><time>2026-03-24T16:59:13Z</time></trkpt><trkpt lat="42.10936539034801" lon="11.785483510835727"><ele>20.0</ele><time>2026-03-24T16:59:14Z</time></trkpt><trkpt lat="42.10919963077273" lon="11.785669284110616"><ele>19.333333333333336</ele><time>2026-03-24T16:59:15Z</time></trkpt><trkpt lat="42.10903376248758" lon="11.785847767724189"><ele>18.666666666666668</ele><time>2026-03-24T16:59:16Z</time></trkpt><trkpt lat="42.10887033799166" lon="11.78602411755724"><ele>18.0</ele><time>2026-03-24T16:59:17Z</time></trkpt><trkpt lat="42.10871225209739" lon="11.786203077537616"><ele>18.0</ele><time>2026-03-24T16:59:18Z</time></trkpt><trkpt lat="42.10856173843481" lon="11.7863780425328"><ele>18.0</ele><time>2026-03-24T16:59:19Z</time></trkpt><trkpt lat="42.10841138273365" lon="11.786549085446715"><ele>18.0</ele><time>2026-03-24T16:59:20Z</time></trkpt><trkpt lat="42.108267046257176" lon="11.786720328796912"><ele>18.666666666666668</ele><time>2026-03-24T16:59:21Z</time></trkpt><trkpt lat="42.108128264224604" lon="11.78689034483588"><ele>19.333333333333336</ele><time>2026-03-24T16:59:22Z</time></trkpt><trkpt lat="42.107997784801974" lon="11.787056820490164"><ele>20.0</ele><time>2026-03-24T16:59:23Z</time></trkpt><trkpt lat="42.107876804574744" lon="11.787220092549495"><ele>20.0</ele><time>2026-03-24T16:59:24Z</time></trkpt><trkpt lat="42.10776256325982" lon="11.787373626503982"><ele>20.0</ele><time>2026-03-24T16:59:25Z</time></trkpt><trkpt lat="42.10765237154539" lon="11.78752537895414"><ele>20.0</ele><time>2026-03-24T16:59:26Z</time></trkpt><trkpt lat="42.10754873854189" lon="11.787671928068448"><ele>20.75</ele><time>2026-03-24T16:59:27Z</time></trkpt><trkpt lat="42.10745134375024" lon="11.787811346852305"><ele>21.5</ele><time>2026-03-24T16:59:28Z</time></trkpt><trkpt lat="42.10736035757669" lon="11.78794052138618"><ele>22.25</ele><time>2026-03-24T16:59:29Z</time></trkpt><trkpt lat="42.107277034893855" lon="11.788054675838788"><ele>23.0</ele><time>2026-03-24T16:59:30Z</time></trkpt><trkpt lat="42.10720270499756" lon="11.78815377940562"><ele>23.0</ele><time>2026-03-24T16:59:31Z</time></trkpt><trkpt lat="42.10713530118814" lon="11.788241384362346"><ele>23.0</ele><time>2026-03-24T16:59:32Z</time></trkpt><trkpt lat="42.1070692846948" lon="11.788324481978723"><ele>23.0</ele><time>2026-03-24T16:59:33Z</time></trkpt><trkpt lat="42.107009098896405" lon="11.78840258557414"><ele>23.0</ele><time>2026-03-24T16:59:34Z</time></trkpt><trkpt lat="42.10695193840919" lon="11.788482916470972"><ele>23.0</ele><time>2026-03-24T16:59:35Z</time></trkpt><trkpt lat="42.10689312845682" lon="11.78857213098718"><ele>23.0</ele><time>2026-03-24T16:59:36Z</time></trkpt><trkpt lat="42.10682657266725" lon="11.788671215832267"><ele>23.25</ele><time>2026-03-24T16:59:37Z</time></trkpt><trkpt lat="42.10675187633336" lon="11.788775829141564"><ele>23.5</ele><time>2026-03-24T16:59:38Z</time></trkpt><trkpt lat="42.10667155946365" lon="11.788886463762362"><ele>23.75</ele><time>2026-03-24T16:59:39Z</time></trkpt><trkpt lat="42.10658538075539" lon="11.78899926277043"><ele>24.0</ele><time>2026-03-24T16:59:40Z</time></trkpt><trkpt lat="42.106490862472754" lon="11.789122517856304"><ele>21.75</ele><time>2026-03-24T16:59:41Z</time></trkpt><trkpt lat="42.10638914390096" lon="11.789250911877039"><ele>19.5</ele><time>2026-03-24T16:59:42Z</time></trkpt><trkpt lat="42.106281902410345" lon="11.789383537325302"><ele>17.25</ele><time>2026-03-24T16:59:43Z</time></trkpt><trkpt lat="42.10616842836502" lon="11.789521746245095"><ele>15.0</ele><time>2026-03-24T16:59:44Z</time></trkpt><trkpt lat="42.10605001096498" lon="11.78966622602921"><ele>13.0</ele><time>2026-03-24T16:59:45Z</time></trkpt><trkpt lat="42.10592967253178" lon="11.78981485660062"><ele>11.0</ele><time>2026-03-24T16:59:46Z</time></trkpt><trkpt lat="42.105805017101844" lon="11.789959627397598"><ele>9.0</ele><time>2026-03-24T16:59:47Z</time></trkpt><trkpt lat="42.105676319687" lon="11.790102036618197"><ele>9.333333333333334</ele><time>2026-03-24T16:59:48Z</time></trkpt><trkpt lat="42.1055374239565" lon="11.790246881973573"><ele>9.666666666666668</ele><time>2026-03-24T16:59:48.999Z</time></trkpt><trkpt lat="42.10540093450357" lon="11.79039205835416"><ele>10.0</ele><time>2026-03-24T16:59:49.999Z</time></trkpt><trkpt lat="42.105259348206076" lon="11.790537606629503"><ele>10.0</ele><time>2026-03-24T16:59:50.999Z</time></trkpt><trkpt lat="42.105117263648516" lon="11.790683722954117"><ele>10.0</ele><time>2026-03-24T16:59:51.999Z</time></trkpt><trkpt lat="42.104973235252395" lon="11.790828047048354"><ele>10.0</ele><time>2026-03-24T16:59:52.999Z</time></trkpt><trkpt lat="42.104823752782224" lon="11.790976666571698"><ele>12.0</ele><time>2026-03-24T16:59:53.999Z</time></trkpt><trkpt lat="42.1046730225316" lon="11.791126943977316"><ele>14.0</ele><time>2026-03-24T16:59:54.999Z</time></trkpt><trkpt lat="42.10451931944532" lon="11.791277598736228"><ele>16.0</ele><time>2026-03-24T16:59:55.999Z</time></trkpt><trkpt lat="42.10436057673577" lon="11.79143380744904"><ele>16.0</ele><time>2026-03-24T16:59:56.999Z</time></trkpt><trkpt lat="42.10420008284515" lon="11.79159183254285"><ele>16.0</ele><time>2026-03-24T16:59:57.999Z</time></trkpt><trkpt lat="42.10403671818654" lon="11.791754948995047"><ele>16.0</ele><time>2026-03-24T16:59:58.999Z</time></trkpt><trkpt lat="42.10386899337516" lon="11.791922346751868"><ele>17.666666666666664</ele><time>2026-03-24T16:59:59.999Z</time></trkpt><trkpt lat="42.10370468849243" lon="11.792089400764766"><ele>19.333333333333332</ele><time>2026-03-24T17:00:00.999Z</time></trkpt><trkpt lat="42.10353924329541" lon="11.792248300060402"><ele>21.0</ele><time>2026-03-24T17:00:01.999Z</time></trkpt><trkpt lat="42.10337719551807" lon="11.792403268924968"><ele>21.333333333333332</ele><time>2026-03-24T17:00:02.999Z</time></trkpt><trkpt lat="42.10321827325095" lon="11.792556756811937"><ele>21.666666666666664</ele><time>2026-03-24T17:00:03.999Z</time></trkpt><trkpt lat="42.1030671585946" lon="11.79270066865044"><ele>22.0</ele><time>2026-03-24T17:00:04.999Z</time></trkpt><trkpt lat="42.10292530270874" lon="11.792833769848919"><ele>22.0</ele><time>2026-03-24T17:00:05.999Z</time></trkpt><trkpt lat="42.10279563459359" lon="11.79295619165688"><ele>22.0</ele><time>2026-03-24T17:00:06.999Z</time></trkpt><trkpt lat="42.10267714272969" lon="11.793063886968227"><ele>22.0</ele><time>2026-03-24T17:00:07.999Z</time></trkpt><trkpt lat="42.10256871039037" lon="11.793157013040103"><ele>22.0</ele><time>2026-03-24T17:00:08.999Z</time></trkpt><trkpt lat="42.10246726216779" lon="11.793228501784194"><ele>22.0</ele><time>2026-03-24T17:00:09.999Z</time></trkpt><trkpt lat="42.10237156425986" lon="11.79328776710983"><ele>22.0</ele><time>2026-03-24T17:00:10.999Z</time></trkpt><trkpt lat="42.102282414188096" lon="11.79334212558083"><ele>22.0</ele><time>2026-03-24T17:00:11.999Z</time></trkpt><trkpt lat="42.102203327470505" lon="11.79343200645323"><ele>22.0</ele><time>2026-03-24T17:00:12.999Z</time></trkpt><trkpt lat="42.10212218029217" lon="11.793537621192602"><ele>22.0</ele><time>2026-03-24T17:00:13.999Z</time></trkpt><trkpt lat="42.10202882344164" lon="11.793638949086207"><ele>22.25</ele><time>2026-03-24T17:00:14.999Z</time></trkpt><trkpt lat="42.101927400747506" lon="11.793735697880573"><ele>22.5</ele><time>2026-03-24T17:00:15.999Z</time></trkpt><trkpt lat="42.101825673685106" lon="11.79384122245797"><ele>22.75</ele><time>2026-03-24T17:00:16.999Z</time></trkpt><trkpt lat="42.10172297482106" lon="11.793951994279398"><ele>23.0</ele><time>2026-03-24T17:00:17.999Z</time></trkpt><trkpt lat="42.10162181722891" lon="11.794064877833895"><ele>22.75</ele><time>2026-03-24T17:00:18.999Z</time></trkpt><trkpt lat="42.101524365030315" lon="11.79417695798626"><ele>22.5</ele><time>2026-03-24T17:00:19.999Z</time></trkpt><trkpt lat="42.10143261501575" lon="11.794284844082325"><ele>22.25</ele><time>2026-03-24T17:00:20.999Z</time></trkpt><trkpt lat="42.10134541376957" lon="11.794389724795359"><ele>22.0</ele><time>2026-03-24T17:00:21.999Z</time></trkpt><trkpt lat="42.10126649091486" lon="11.794489485080021"><ele>22.5</ele><time>2026-03-24T17:00:22.999Z</time></trkpt><trkpt lat="42.101201202128586" lon="11.794576796353047"><ele>23.0</ele><time>2026-03-24T17:00:23.999Z</time></trkpt><trkpt lat="42.10115020282688" lon="11.794648072058179"><ele>23.5</ele><time>2026-03-24T17:00:24.999Z</time></trkpt><trkpt lat="42.10109191292462" lon="11.794726647898912"><ele>24.0</ele><time>2026-03-24T17:00:26.999Z</time></trkpt><trkpt lat="42.101028059334816" lon="11.794807796054858"><ele>24.500000000000004</ele><time>2026-03-24T17:00:31.999Z</time></trkpt><trkpt lat="42.100964035297125" lon="11.79486070390993"><ele>25.0</ele><time>2026-03-24T17:00:33.999Z</time></trkpt><trkpt lat="42.10087017988622" lon="11.794904916195229"><ele>25.000000000000004</ele><time>2026-03-24T17:00:35.999Z</time></trkpt><trkpt lat="42.10076584635011" lon="11.794936993376862"><ele>25.0</ele><time>2026-03-24T17:00:37.999Z</time></trkpt><trkpt lat="42.10068861130851" lon="11.795062016127225"><ele>25.0</ele><time>2026-03-24T17:00:39.999Z</time></trkpt><trkpt lat="42.10067447877471" lon="11.795154269398456"><ele>25.0</ele><time>2026-03-24T17:00:40.999Z</time></trkpt><trkpt lat="42.10066532820073" lon="11.795254064340902"><ele>25.000000000000004</ele><time>2026-03-24T17:00:41.999Z</time></trkpt><trkpt lat="42.100634749365305" lon="11.795340537252498"><ele>25.0</ele><time>2026-03-24T17:00:42.999Z</time></trkpt><trkpt lat="42.10058049127132" lon="11.795419441856753"><ele>25.4</ele><time>2026-03-24T17:00:43.999Z</time></trkpt><trkpt lat="42.100516755518505" lon="11.795486853506954"><ele>25.8</ele><time>2026-03-24T17:00:44.999Z</time></trkpt><trkpt lat="42.10044404974489" lon="11.795568449492771"><ele>26.200000000000003</ele><time>2026-03-24T17:00:45.999Z</time></trkpt><trkpt lat="42.100369144298725" lon="11.795665883967626"><ele>26.6</ele><time>2026-03-24T17:00:46.999Z</time></trkpt><trkpt lat="42.10029074072725" lon="11.795772778487468"><ele>27.0</ele><time>2026-03-24T17:00:47.999Z</time></trkpt><trkpt lat="42.10021010601752" lon="11.795889626043728"><ele>27.25</ele><time>2026-03-24T17:00:48.999Z</time></trkpt><trkpt lat="42.100128907127406" lon="11.796018467996838"><ele>27.5</ele><time>2026-03-24T17:00:49.999Z</time></trkpt><trkpt lat="42.10004851631255" lon="11.796157255078072"><ele>27.75</ele><time>2026-03-24T17:00:50.999Z</time></trkpt><trkpt lat="42.09997176307249" lon="11.796299165186486"><ele>28.0</ele><time>2026-03-24T17:00:51.999Z</time></trkpt><trkpt lat="42.09989820057554" lon="11.79644744984523"><ele>28.0</ele><time>2026-03-24T17:00:52.999Z</time></trkpt><trkpt lat="42.09982800158882" lon="11.79660022498079"><ele>28.0</ele><time>2026-03-24T17:00:53.999Z</time></trkpt><trkpt lat="42.09976423831029" lon="11.796749478852204"><ele>28.0</ele><time>2026-03-24T17:00:54.999Z</time></trkpt><trkpt lat="42.099706770923696" lon="11.79689487378271"><ele>28.0</ele><time>2026-03-24T17:00:55.999Z</time></trkpt><trkpt lat="42.0996552902492" lon="11.797037045156811"><ele>28.799999999999997</ele><time>2026-03-24T17:00:56.999Z</time></trkpt><trkpt lat="42.09961090578973" lon="11.797171562203642"><ele>29.599999999999998</ele><time>2026-03-24T17:00:57.999Z</time></trkpt><trkpt lat="42.0995740539637" lon="11.7972935726232"><ele>30.400000000000002</ele><time>2026-03-24T17:00:58.999Z</time></trkpt><trkpt lat="42.099541640626" lon="11.797411381645531"><ele>31.200000000000003</ele><time>2026-03-24T17:00:59.999Z</time></trkpt><trkpt lat="42.09951282291183" lon="11.79752346498913"><ele>32.0</ele><time>2026-03-24T17:01:00.999Z</time></trkpt><trkpt lat="42.09948727223357" lon="11.797629345629096"><ele>32.285714285714285</ele><time>2026-03-24T17:01:01.999Z</time></trkpt><trkpt lat="42.099464890252996" lon="11.797728664703499"><ele>32.57142857142857</ele><time>2026-03-24T17:01:02.999Z</time></trkpt><trkpt lat="42.09944516583119" lon="11.79782416419922"><ele>32.857142857142854</ele><time>2026-03-24T17:01:03.999Z</time></trkpt><trkpt lat="42.09942781054404" lon="11.797922041715921"><ele>33.14285714285714</ele><time>2026-03-24T17:01:04.999Z</time></trkpt><trkpt lat="42.0994136376232" lon="11.798016923355213"><ele>33.42857142857143</ele><time>2026-03-24T17:01:05.999Z</time></trkpt><trkpt lat="42.099400729417894" lon="11.798107939955548"><ele>33.71428571428571</ele><time>2026-03-24T17:01:06.999Z</time></trkpt><trkpt lat="42.09938852783412" lon="11.798195512259728"><ele>34.0</ele><time>2026-03-24T17:01:07.999Z</time></trkpt><trkpt lat="42.099368097322596" lon="11.798345669936774"><ele>34.0</ele><time>2026-03-24T17:01:09.999Z</time></trkpt><trkpt lat="42.09934924201844" lon="11.79847991163753"><ele>34.0</ele><time>2026-03-24T17:01:12Z</time></trkpt><trkpt lat="42.09932625590376" lon="11.79859434356209"><ele>34.0</ele><time>2026-03-24T17:01:14Z</time></trkpt><trkpt lat="42.09929108312125" lon="11.7986785482165"><ele>34.0</ele><time>2026-03-24T17:01:16Z</time></trkpt><trkpt lat="42.09924402673692" lon="11.79875512231605"><ele>34.0</ele><time>2026-03-24T17:01:21Z</time></trkpt><trkpt lat="42.099197285686266" lon="11.798812245542358"><ele>34.0</ele><time>2026-03-24T17:01:23Z</time></trkpt><trkpt lat="42.09912764136087" lon="11.79887267248582"><ele>34.0</ele><time>2026-03-24T17:01:25Z</time></trkpt><trkpt lat="42.09903107771553" lon="11.798926527249405"><ele>34.0</ele><time>2026-03-24T17:01:27Z</time></trkpt><trkpt lat="42.09893369254091" lon="11.798982681433825"><ele>34.0</ele><time>2026-03-24T17:01:29Z</time></trkpt><trkpt lat="42.09886927455129" lon="11.799072146961823"><ele>34.0</ele><time>2026-03-24T17:01:31Z</time></trkpt><trkpt lat="42.09884301221066" lon="11.799210543345168"><ele>34.0</ele><time>2026-03-24T17:01:33Z</time></trkpt><trkpt lat="42.09888405686254" lon="11.79934220639367"><ele>34.333333333333336</ele><time>2026-03-24T17:01:35Z</time></trkpt><trkpt lat="42.09894709289619" lon="11.799428118777199"><ele>34.66666666666667</ele><time>2026-03-24T17:01:37Z</time></trkpt><trkpt lat="42.09900236988538" lon="11.799502211985113"><ele>35.0</ele><time>2026-03-24T17:01:39Z</time></trkpt><trkpt lat="42.09905896144479" lon="11.799582556024685"><ele>35.333333333333336</ele><time>2026-03-24T17:01:41Z</time></trkpt><trkpt lat="42.09911757116211" lon="11.799670439798534"><ele>35.666666666666664</ele><time>2026-03-24T17:01:43Z</time></trkpt><trkpt lat="42.099169984609034" lon="11.799758175521747"><ele>36.0</ele><time>2026-03-24T17:01:45Z</time></trkpt><trkpt lat="42.099236304209825" lon="11.79987720013469"><ele>36.28571428571429</ele><time>2026-03-24T17:01:47Z</time></trkpt><trkpt lat="42.099276806505465" lon="11.799944724990363"><ele>36.57142857142857</ele><time>2026-03-24T17:01:48Z</time></trkpt><trkpt lat="42.099319314972306" lon="11.800016126041086"><ele>36.85714285714286</ele><time>2026-03-24T17:01:49Z</time></trkpt><trkpt lat="42.09936264964073" lon="11.800093989753021"><ele>37.142857142857146</ele><time>2026-03-24T17:01:50Z</time></trkpt><trkpt lat="42.09941171379153" lon="11.80017350026774"><ele>37.42857142857143</ele><time>2026-03-24T17:01:51Z</time></trkpt><trkpt lat="42.09946001522988" lon="11.800256098455947"><ele>37.714285714285715</ele><time>2026-03-24T17:01:52Z</time></trkpt><trkpt lat="42.09950927315792" lon="11.800336271979402"><ele>38.0</ele><time>2026-03-24T17:01:53Z</time></trkpt><trkpt lat="42.0995546095407" lon="11.800412913426971"><ele>38.285714285714285</ele><time>2026-03-24T17:01:54Z</time></trkpt><trkpt lat="42.09959754680082" lon="11.800487655796488"><ele>38.57142857142858</ele><time>2026-03-24T17:01:55Z</time></trkpt><trkpt lat="42.099641194209525" lon="11.800563854010322"><ele>38.85714285714286</ele><time>2026-03-24T17:01:56Z</time></trkpt><trkpt lat="42.09968794701719" lon="11.800643510134009"><ele>39.14285714285714</ele><time>2026-03-24T17:01:57Z</time></trkpt><trkpt lat="42.0997348650783" lon="11.800725331910755"><ele>39.42857142857143</ele><time>2026-03-24T17:01:58Z</time></trkpt><trkpt lat="42.09978092285526" lon="11.800807783320943"><ele>39.714285714285715</ele><time>2026-03-24T17:01:59Z</time></trkpt><trkpt lat="42.09982714700223" lon="11.800888440815983"><ele>40.0</ele><time>2026-03-24T17:02:00Z</time></trkpt><trkpt lat="42.09987739075515" lon="11.800974302890811"><ele>40.5</ele><time>2026-03-24T17:02:01Z</time></trkpt><trkpt lat="42.099931888080626" lon="11.801060730217552"><ele>41.0</ele><time>2026-03-24T17:02:02Z</time></trkpt><trkpt lat="42.09998586069495" lon="11.801149384806775"><ele>41.5</ele><time>2026-03-24T17:02:03Z</time></trkpt><trkpt lat="42.10004161192884" lon="11.801240249319527"><ele>42.0</ele><time>2026-03-24T17:02:04Z</time></trkpt><trkpt lat="42.10009402962931" lon="11.801326778428926"><ele>42.5</ele><time>2026-03-24T17:02:05Z</time></trkpt><trkpt lat="42.100148379487" lon="11.801417380756028"><ele>43.0</ele><time>2026-03-24T17:02:06Z</time></trkpt><trkpt lat="42.10020516664576" lon="11.801515015201195"><ele>43.0</ele><time>2026-03-24T17:02:07Z</time></trkpt><trkpt lat="42.10026675078251" lon="11.801618944514084"><ele>43.0</ele><time>2026-03-24T17:02:08Z</time></trkpt><trkpt lat="42.100330540039245" lon="11.80172969238897"><ele>43.0</ele><time>2026-03-24T17:02:09Z</time></trkpt><trkpt lat="42.10039559459403" lon="11.801839790667403"><ele>43.0</ele><time>2026-03-24T17:02:10Z</time></trkpt><trkpt lat="42.10045985422675" lon="11.801952405235129"><ele>43.0</ele><time>2026-03-24T17:02:11Z</time></trkpt><trkpt lat="42.10052637693027" lon="11.802066324572825"><ele>43.599999999999994</ele><time>2026-03-24T17:02:12Z</time></trkpt><trkpt lat="42.10059262545604" lon="11.802181046780268"><ele>44.199999999999996</ele><time>2026-03-24T17:02:13Z</time></trkpt><trkpt lat="42.100659953962705" lon="11.802296619491525"><ele>44.8</ele><time>2026-03-24T17:02:14Z</time></trkpt><trkpt lat="42.10072796387242" lon="11.802413241481164"><ele>45.4</ele><time>2026-03-24T17:02:15Z</time></trkpt><trkpt lat="42.10079560004503" lon="11.802527448095283"><ele>46.0</ele><time>2026-03-24T17:02:16Z</time></trkpt><trkpt lat="42.10086234996109" lon="11.802640773786647"><ele>47.8</ele><time>2026-03-24T17:02:17Z</time></trkpt><trkpt lat="42.100929083746166" lon="11.80275601269254"><ele>49.599999999999994</ele><time>2026-03-24T17:02:18Z</time></trkpt><trkpt lat="42.10099353370153" lon="11.802872189617366"><ele>51.4</ele><time>2026-03-24T17:02:19Z</time></trkpt><trkpt lat="42.101054058043985" lon="11.802984241241642"><ele>53.2</ele><time>2026-03-24T17:02:20Z</time></trkpt><trkpt lat="42.1011090275648" lon="11.803091212863846"><ele>55.0</ele><time>2026-03-24T17:02:21Z</time></trkpt><trkpt lat="42.10116012138142" lon="11.803197546431646"><ele>54.99999999999999</ele><time>2026-03-24T17:02:22Z</time></trkpt><trkpt lat="42.10120583901421" lon="11.80329938156892"><ele>55.0</ele><time>2026-03-24T17:02:23Z</time></trkpt><trkpt lat="42.101250791219975" lon="11.803403369685721"><ele>55.0</ele><time>2026-03-24T17:02:24Z</time></trkpt><trkpt lat="42.101297024692606" lon="11.803509443149684"><ele>55.0</ele><time>2026-03-24T17:02:25Z</time></trkpt><trkpt lat="42.10134199202056" lon="11.803613789375582"><ele>54.99999999999999</ele><time>2026-03-24T17:02:26Z</time></trkpt><trkpt lat="42.10138212047351" lon="11.803710476589941"><ele>55.0</ele><time>2026-03-24T17:02:27Z</time></trkpt><trkpt lat="42.10142191991536" lon="11.80380774492627"><ele>54.99999999999999</ele><time>2026-03-24T17:02:27.999Z</time></trkpt><trkpt lat="42.101464398628146" lon="11.803908662495836"><ele>55.0</ele><time>2026-03-24T17:02:28.999Z</time></trkpt><trkpt lat="42.10150670511548" lon="11.80401265039237"><ele>55.0</ele><time>2026-03-24T17:02:29.999Z</time></trkpt><trkpt lat="42.10154844563759" lon="11.804112994020578"><ele>55.0</ele><time>2026-03-24T17:02:30.999Z</time></trkpt><trkpt lat="42.10158952285476" lon="11.804212438300185"><ele>54.99999999999999</ele><time>2026-03-24T17:02:31.999Z</time></trkpt><trkpt lat="42.10163232408237" lon="11.804315829596433"><ele>55.0</ele><time>2026-03-24T17:02:32.999Z</time></trkpt><trkpt lat="42.10167151453076" lon="11.804412985291066"><ele>55.83333333333333</ele><time>2026-03-24T17:02:33.999Z</time></trkpt><trkpt lat="42.10170989562613" lon="11.804509876852956"><ele>56.666666666666664</ele><time>2026-03-24T17:02:34.999Z</time></trkpt><trkpt lat="42.10174577609601" lon="11.80460115695838"><ele>57.5</ele><time>2026-03-24T17:02:35.999Z</time></trkpt><trkpt lat="42.10178428046612" lon="11.804697281279731"><ele>58.33333333333333</ele><time>2026-03-24T17:02:36.999Z</time></trkpt><trkpt lat="42.10182372556055" lon="11.804795439495315"><ele>59.166666666666664</ele><time>2026-03-24T17:02:37.999Z</time></trkpt><trkpt lat="42.10186211975657" lon="11.804891744523792"><ele>60.0</ele><time>2026-03-24T17:02:38.999Z</time></trkpt><trkpt lat="42.1018991923026" lon="11.80498439480193"><ele>60.0</ele><time>2026-03-24T17:02:39.999Z</time></trkpt><trkpt lat="42.10193463490573" lon="11.805072504191594"><ele>60.0</ele><time>2026-03-24T17:02:40.999Z</time></trkpt><trkpt lat="42.10196912668223" lon="11.805159623350107"><ele>60.0</ele><time>2026-03-24T17:02:41.999Z</time></trkpt><trkpt lat="42.10200544998576" lon="11.805249816314895"><ele>60.0</ele><time>2026-03-24T17:02:42.999Z</time></trkpt><trkpt lat="42.10204065863806" lon="11.805338676413216"><ele>60.0</ele><time>2026-03-24T17:02:43.999Z</time></trkpt><trkpt lat="42.10207731467128" lon="11.80543063302353"><ele>60.0</ele><time>2026-03-24T17:02:44.999Z</time></trkpt><trkpt lat="42.10211835739726" lon="11.805530650183277"><ele>60.333333333333336</ele><time>2026-03-24T17:02:45.999Z</time></trkpt><trkpt lat="42.10216005897202" lon="11.805632577242552"><ele>60.66666666666667</ele><time>2026-03-24T17:02:46.999Z</time></trkpt><trkpt lat="42.10220367347968" lon="11.805736828294332"><ele>61.0</ele><time>2026-03-24T17:02:47.999Z</time></trkpt><trkpt lat="42.10224785968035" lon="11.805842048152643"><ele>61.333333333333336</ele><time>2026-03-24T17:02:48.999Z</time></trkpt><trkpt lat="42.10229042210288" lon="11.805943896683806"><ele>61.66666666666667</ele><time>2026-03-24T17:02:49.999Z</time></trkpt><trkpt lat="42.102334234026124" lon="11.806048994769125"><ele>62.0</ele><time>2026-03-24T17:02:50.999Z</time></trkpt><trkpt lat="42.10237886335366" lon="11.80615724556269"><ele>62.66666666666667</ele><time>2026-03-24T17:02:51.999Z</time></trkpt><trkpt lat="42.102423271213276" lon="11.806266800523106"><ele>63.333333333333336</ele><time>2026-03-24T17:02:52.999Z</time></trkpt><trkpt lat="42.10246780998352" lon="11.806373944971291"><ele>64.0</ele><time>2026-03-24T17:02:53.999Z</time></trkpt><trkpt lat="42.10250704996207" lon="11.806472294081019"><ele>64.66666666666667</ele><time>2026-03-24T17:02:54.999Z</time></trkpt><trkpt lat="42.102542583609335" lon="11.806560779717293"><ele>65.33333333333333</ele><time>2026-03-24T17:02:55.999Z</time></trkpt><trkpt lat="42.10257674649168" lon="11.80664398671092"><ele>66.0</ele><time>2026-03-24T17:02:56.999Z</time></trkpt><trkpt lat="42.10260934942446" lon="11.8067224553509"><ele>66.39999999999999</ele><time>2026-03-24T17:02:57.999Z</time></trkpt><trkpt lat="42.102665726897065" lon="11.806854928152928"><ele>66.8</ele><time>2026-03-24T17:02:59.999Z</time></trkpt><trkpt lat="42.10272216299962" lon="11.806988173494448"><ele>67.19999999999999</ele><time>2026-03-24T17:03:01.999Z</time></trkpt><trkpt lat="42.10278165121239" lon="11.807136575099813"><ele>67.6</ele><time>2026-03-24T17:03:03.999Z</time></trkpt><trkpt lat="42.102812941958774" lon="11.807219810962502"><ele>68.0</ele><time>2026-03-24T17:03:04.999Z</time></trkpt><trkpt lat="42.10284435655283" lon="11.807305853845937"><ele>67.99999999999999</ele><time>2026-03-24T17:03:05.999Z</time></trkpt><trkpt lat="42.10287575383662" lon="11.807393317716446"><ele>68.0</ele><time>2026-03-24T17:03:06.999Z</time></trkpt><trkpt lat="42.102907028527255" lon="11.807478000252182"><ele>68.0</ele><time>2026-03-24T17:03:07.999Z</time></trkpt><trkpt lat="42.10293711879712" lon="11.807557688452661"><ele>68.0</ele><time>2026-03-24T17:03:08.999Z</time></trkpt><trkpt lat="42.102967802920766" lon="11.807637418303603"><ele>68.0</ele><time>2026-03-24T17:03:09.999Z</time></trkpt><trkpt lat="42.10299824317875" lon="11.807718495660476"><ele>67.99999999999999</ele><time>2026-03-24T17:03:10.999Z</time></trkpt><trkpt lat="42.10302645466468" lon="11.807801143049293"><ele>68.0</ele><time>2026-03-24T17:03:11.999Z</time></trkpt><trkpt lat="42.10304996511566" lon="11.807885528702469"><ele>68.2</ele><time>2026-03-24T17:03:12.999Z</time></trkpt><trkpt lat="42.10307384130156" lon="11.808014609279779"><ele>68.4</ele><time>2026-03-24T17:03:14.999Z</time></trkpt><trkpt lat="42.10306811832066" lon="11.808146485696213"><ele>68.60000000000001</ele><time>2026-03-24T17:03:18Z</time></trkpt><trkpt lat="42.1030566496325" lon="11.808264876142673"><ele>68.8</ele><time>2026-03-24T17:03:20Z</time></trkpt><trkpt lat="42.10309413453" lon="11.808393855676938"><ele>69.0</ele><time>2026-03-24T17:03:22Z</time></trkpt><trkpt lat="42.103165787141954" lon="11.808529861847196"><ele>69.16666666666667</ele><time>2026-03-24T17:03:24Z</time></trkpt><trkpt lat="42.103201392996745" lon="11.808619819404111"><ele>69.33333333333333</ele><time>2026-03-24T17:03:25Z</time></trkpt><trkpt lat="42.103235004689395" lon="11.808711413826991"><ele>69.5</ele><time>2026-03-24T17:03:26Z</time></trkpt><trkpt lat="42.103271044774154" lon="11.808805705726472"><ele>69.66666666666666</ele><time>2026-03-24T17:03:27Z</time></trkpt><trkpt lat="42.10331062259876" lon="11.808906779719702"><ele>69.83333333333333</ele><time>2026-03-24T17:03:28Z</time></trkpt><trkpt lat="42.1033532777286" lon="11.80901845302132"><ele>70.0</ele><time>2026-03-24T17:03:29Z</time></trkpt><trkpt lat="42.10339885968463" lon="11.809137085084249"><ele>70.4</ele><time>2026-03-24T17:03:30Z</time></trkpt><trkpt lat="42.1034450902912" lon="11.809259210405878"><ele>70.8</ele><time>2026-03-24T17:03:31Z</time></trkpt><trkpt lat="42.10349400969769" lon="11.809386226446218"><ele>71.2</ele><time>2026-03-24T17:03:32Z</time></trkpt><trkpt lat="42.10354431743241" lon="11.809516226572594"><ele>71.6</ele><time>2026-03-24T17:03:33Z</time></trkpt><trkpt lat="42.103596270935284" lon="11.809648056550403"><ele>72.0</ele><time>2026-03-24T17:03:34Z</time></trkpt><trkpt lat="42.10364764520941" lon="11.809776792737628"><ele>72.4</ele><time>2026-03-24T17:03:35Z</time></trkpt><trkpt lat="42.10369982210218" lon="11.809904206953025"><ele>72.80000000000001</ele><time>2026-03-24T17:03:36Z</time></trkpt><trkpt lat="42.10375492048366" lon="11.810038034348267"><ele>73.2</ele><time>2026-03-24T17:03:37Z</time></trkpt><trkpt lat="42.103810364366936" lon="11.810171017206653"><ele>73.60000000000001</ele><time>2026-03-24T17:03:38Z</time></trkpt><trkpt lat="42.10386319460413" lon="11.810304721870192"><ele>74.0</ele><time>2026-03-24T17:03:39Z</time></trkpt><trkpt lat="42.103916351616235" lon="11.81044264813006"><ele>74.75</ele><time>2026-03-24T17:03:40Z</time></trkpt><trkpt lat="42.10396933650317" lon="11.810582142424684"><ele>75.5</ele><time>2026-03-24T17:03:41Z</time></trkpt><trkpt lat="42.10401730520672" lon="11.810717914545554"><ele>76.25</ele><time>2026-03-24T17:03:42Z</time></trkpt><trkpt lat="42.10406323273873" lon="11.810858838275642"><ele>77.0</ele><time>2026-03-24T17:03:43Z</time></trkpt><trkpt lat="42.1041089459921" lon="11.810999929355532"><ele>78.25</ele><time>2026-03-24T17:03:44Z</time></trkpt><trkpt lat="42.10415608855927" lon="11.811135944183821"><ele>79.5</ele><time>2026-03-24T17:03:45Z</time></trkpt><trkpt lat="42.10420730657957" lon="11.81126842745137"><ele>80.75</ele><time>2026-03-24T17:03:46Z</time></trkpt><trkpt lat="42.104262637558705" lon="11.811402952664011"><ele>82.0</ele><time>2026-03-24T17:03:47Z</time></trkpt><trkpt lat="42.10432151391608" lon="11.811537903912063"><ele>82.0</ele><time>2026-03-24T17:03:48Z</time></trkpt><trkpt lat="42.10438230546782" lon="11.811675136484107"><ele>82.0</ele><time>2026-03-24T17:03:49Z</time></trkpt><trkpt lat="42.10444400007692" lon="11.811815968557957"><ele>82.0</ele><time>2026-03-24T17:03:50Z</time></trkpt><trkpt lat="42.10450634628517" lon="11.811954237217273"><ele>82.0</ele><time>2026-03-24T17:03:51Z</time></trkpt><trkpt lat="42.104572622043435" lon="11.81209145062199"><ele>83.5</ele><time>2026-03-24T17:03:52Z</time></trkpt><trkpt lat="42.10463920661962" lon="11.81222989581025"><ele>85.0</ele><time>2026-03-24T17:03:53Z</time></trkpt><trkpt lat="42.10470655980761" lon="11.81236841167292"><ele>86.5</ele><time>2026-03-24T17:03:54Z</time></trkpt><trkpt lat="42.10477796021697" lon="11.812504916694431"><ele>88.0</ele><time>2026-03-24T17:03:55Z</time></trkpt><trkpt lat="42.10485220406466" lon="11.812642420929317"><ele>89.0</ele><time>2026-03-24T17:03:56Z</time></trkpt><trkpt lat="42.10492636213664" lon="11.812780803796747"><ele>90.0</ele><time>2026-03-24T17:03:57Z</time></trkpt><trkpt lat="42.10499911226011" lon="11.812914958496062"><ele>91.0</ele><time>2026-03-24T17:03:58Z</time></trkpt><trkpt lat="42.10506982192992" lon="11.813049329349795"><ele>92.0</ele><time>2026-03-24T17:03:59Z</time></trkpt><trkpt lat="42.10513533603851" lon="11.813178256853345"><ele>92.0</ele><time>2026-03-24T17:04:00Z</time></trkpt><trkpt lat="42.105191812562936" lon="11.813315633558178"><ele>92.0</ele><time>2026-03-24T17:04:01Z</time></trkpt><trkpt lat="42.10524314684922" lon="11.81345815235936"><ele>92.0</ele><time>2026-03-24T17:04:02Z</time></trkpt><trkpt lat="42.10529429323728" lon="11.813605193162442"><ele>92.0</ele><time>2026-03-24T17:04:03Z</time></trkpt><trkpt lat="42.10534232297437" lon="11.81375685809425"><ele>93.75</ele><time>2026-03-24T17:04:04Z</time></trkpt><trkpt lat="42.105391013798034" lon="11.813911149097306"><ele>95.5</ele><time>2026-03-24T17:04:05Z</time></trkpt><trkpt lat="42.105440254983506" lon="11.814066913603462"><ele>97.25</ele><time>2026-03-24T17:04:06Z</time></trkpt><trkpt lat="42.10549384164102" lon="11.814220716258028"><ele>99.0</ele><time>2026-03-24T17:04:07Z</time></trkpt><trkpt lat="42.10555185253536" lon="11.814369885758818"><ele>101.0</ele><time>2026-03-24T17:04:08Z</time></trkpt><trkpt lat="42.1056155789914" lon="11.814516195352981"><ele>103.0</ele><time>2026-03-24T17:04:09Z</time></trkpt><trkpt lat="42.10567797675922" lon="11.814654181237179"><ele>105.0</ele><time>2026-03-24T17:04:10Z</time></trkpt><trkpt lat="42.10574106888274" lon="11.814792625390012"><ele>107.0</ele><time>2026-03-24T17:04:11Z</time></trkpt><trkpt lat="42.10580635857485" lon="11.814927441012951"><ele>107.0</ele><time>2026-03-24T17:04:12Z</time></trkpt><trkpt lat="42.10586440907272" lon="11.815067782023446"><ele>107.0</ele><time>2026-03-24T17:04:13Z</time></trkpt><trkpt lat="42.10591038825856" lon="11.815216994384823"><ele>107.0</ele><time>2026-03-24T17:04:14Z</time></trkpt><trkpt lat="42.105942518010075" lon="11.815376567853919"><ele>107.0</ele><time>2026-03-24T17:04:15Z</time></trkpt><trkpt lat="42.10595619388067" lon="11.81553724308706"><ele>108.5</ele><time>2026-03-24T17:04:16Z</time></trkpt><trkpt lat="42.10596288467326" lon="11.815703544662846"><ele>110.0</ele><time>2026-03-24T17:04:17Z</time></trkpt><trkpt lat="42.10596198235782" lon="11.815873832458518"><ele>111.5</ele><time>2026-03-24T17:04:18Z</time></trkpt><trkpt lat="42.10596237846796" lon="11.816048312553592"><ele>113.0</ele><time>2026-03-24T17:04:19Z</time></trkpt><trkpt lat="42.10596177048117" lon="11.816223543394369"><ele>115.0</ele><time>2026-03-24T17:04:20Z</time></trkpt><trkpt lat="42.10596152602644" lon="11.816398013581455"><ele>117.0</ele><time>2026-03-24T17:04:21Z</time></trkpt><trkpt lat="42.105960700603696" lon="11.816568825472993"><ele>119.0</ele><time>2026-03-24T17:04:22Z</time></trkpt><trkpt lat="42.105960269821786" lon="11.816737057129268"><ele>121.0</ele><time>2026-03-24T17:04:23Z</time></trkpt><trkpt lat="42.10595719800442" lon="11.816893047466449"><ele>122.75</ele><time>2026-03-24T17:04:24Z</time></trkpt><trkpt lat="42.105954226827336" lon="11.817050766920136"><ele>124.5</ele><time>2026-03-24T17:04:25Z</time></trkpt><trkpt lat="42.10594339792822" lon="11.817208490559254"><ele>126.25</ele><time>2026-03-24T17:04:26Z</time></trkpt><trkpt lat="42.10591788370426" lon="11.817356841258244"><ele>128.0</ele><time>2026-03-24T17:04:27Z</time></trkpt><trkpt lat="42.10587748796841" lon="11.817497124414215"><ele>128.0</ele><time>2026-03-24T17:04:28Z</time></trkpt><trkpt lat="42.105822339119335" lon="11.817630360309863"><ele>128.0</ele><time>2026-03-24T17:04:29Z</time></trkpt><trkpt lat="42.10575986198536" lon="11.817766114761413"><ele>128.0</ele><time>2026-03-24T17:04:30Z</time></trkpt><trkpt lat="42.1056975831705" lon="11.817910245496167"><ele>128.0</ele><time>2026-03-24T17:04:31Z</time></trkpt><trkpt lat="42.10564164395106" lon="11.818060873723265"><ele>128.5</ele><time>2026-03-24T17:04:32Z</time></trkpt><trkpt lat="42.10559106721237" lon="11.818211173073603"><ele>129.0</ele><time>2026-03-24T17:04:33Z</time></trkpt><trkpt lat="42.10554120826651" lon="11.818361933271705"><ele>129.5</ele><time>2026-03-24T17:04:34Z</time></trkpt><trkpt lat="42.10548973759573" lon="11.818516161340408"><ele>130.0</ele><time>2026-03-24T17:04:35Z</time></trkpt><trkpt lat="42.10543971652542" lon="11.818670906632688"><ele>130.0</ele><time>2026-03-24T17:04:36Z</time></trkpt><trkpt lat="42.10539155979041" lon="11.818825261537295"><ele>130.0</ele><time>2026-03-24T17:04:37Z</time></trkpt><trkpt lat="42.10534694518539" lon="11.818973929019121"><ele>130.0</ele><time>2026-03-24T17:04:38Z</time></trkpt><trkpt lat="42.105308671924696" lon="11.819120501618512"><ele>130.0</ele><time>2026-03-24T17:04:39Z</time></trkpt><trkpt lat="42.105284241118916" lon="11.819271729610335"><ele>130.25</ele><time>2026-03-24T17:04:40Z</time></trkpt><trkpt lat="42.105279617652045" lon="11.819429023076303"><ele>130.5</ele><time>2026-03-24T17:04:41Z</time></trkpt><trkpt lat="42.10529544865575" lon="11.819597164334958"><ele>130.75</ele><time>2026-03-24T17:04:42Z</time></trkpt><trkpt lat="42.10533130685144" lon="11.819769834962617"><ele>131.0</ele><time>2026-03-24T17:04:43Z</time></trkpt><trkpt lat="42.10537073750752" lon="11.81993601810998"><ele>131.0</ele><time>2026-03-24T17:04:44Z</time></trkpt><trkpt lat="42.10541187522943" lon="11.820110090162956"><ele>131.0</ele><time>2026-03-24T17:04:45Z</time></trkpt><trkpt lat="42.10544871053592" lon="11.82028317792063"><ele>131.0</ele><time>2026-03-24T17:04:46Z</time></trkpt><trkpt lat="42.10548028603725" lon="11.820450640095013"><ele>131.0</ele><time>2026-03-24T17:04:47Z</time></trkpt><trkpt lat="42.105500255909774" lon="11.820623203203528"><ele>131.75</ele><time>2026-03-24T17:04:47.999Z</time></trkpt><trkpt lat="42.10550447290691" lon="11.82080129708601"><ele>132.5</ele><time>2026-03-24T17:04:48.999Z</time></trkpt><trkpt lat="42.10550074963851" lon="11.820983886716402"><ele>133.25</ele><time>2026-03-24T17:04:49.999Z</time></trkpt><trkpt lat="42.105483977219876" lon="11.82116350689634"><ele>134.0</ele><time>2026-03-24T17:04:50.999Z</time></trkpt><trkpt lat="42.10545694590715" lon="11.821332792705869"><ele>135.0</ele><time>2026-03-24T17:04:51.999Z</time></trkpt><trkpt lat="42.10542704250214" lon="11.821507411562429"><ele>136.0</ele><time>2026-03-24T17:04:52.999Z</time></trkpt><trkpt lat="42.105399205262174" lon="11.821687951593049"><ele>137.0</ele><time>2026-03-24T17:04:53.999Z</time></trkpt><trkpt lat="42.105373404396964" lon="11.821874439639872"><ele>138.0</ele><time>2026-03-24T17:04:54.999Z</time></trkpt><trkpt lat="42.10535165799878" lon="11.822054686078536"><ele>138.5</ele><time>2026-03-24T17:04:55.999Z</time></trkpt><trkpt lat="42.105333849335295" lon="11.822227459415316"><ele>139.0</ele><time>2026-03-24T17:04:56.999Z</time></trkpt><trkpt lat="42.105319034719" lon="11.822404585371299"><ele>139.5</ele><time>2026-03-24T17:04:57.999Z</time></trkpt><trkpt lat="42.105307763220765" lon="11.822574648970974"><ele>140.0</ele><time>2026-03-24T17:04:58.999Z</time></trkpt><trkpt lat="42.10529919494067" lon="11.82273758464514"><ele>140.8</ele><time>2026-03-24T17:04:59.999Z</time></trkpt><trkpt lat="42.105291137844084" lon="11.822896757104958"><ele>141.6</ele><time>2026-03-24T17:05:00.999Z</time></trkpt><trkpt lat="42.10528478268789" lon="11.823049057563503"><ele>142.4</ele><time>2026-03-24T17:05:01.999Z</time></trkpt><trkpt lat="42.105284206021196" lon="11.823195686731276"><ele>143.2</ele><time>2026-03-24T17:05:02.999Z</time></trkpt><trkpt lat="42.10528760162547" lon="11.823333408132989"><ele>144.0</ele><time>2026-03-24T17:05:03.999Z</time></trkpt><trkpt lat="42.10529723879973" lon="11.823457174821108"><ele>144.83333333333334</ele><time>2026-03-24T17:05:04.999Z</time></trkpt><trkpt lat="42.1053112102878" lon="11.823565460626083"><ele>145.66666666666666</ele><time>2026-03-24T17:05:05.999Z</time></trkpt><trkpt lat="42.10532826283938" lon="11.82366977205748"><ele>146.5</ele><time>2026-03-24T17:05:06.999Z</time></trkpt><trkpt lat="42.1053508576393" lon="11.823768661659322"><ele>147.33333333333331</ele><time>2026-03-24T17:05:07.999Z</time></trkpt><trkpt lat="42.10535402367417" lon="11.823872323467574"><ele>148.16666666666666</ele><time>2026-03-24T17:05:08.999Z</time></trkpt><trkpt lat="42.105371065073975" lon="11.82396748033672"><ele>149.0</ele><time>2026-03-24T17:05:09.999Z</time></trkpt><trkpt lat="42.10552039870334" lon="11.823965404467417"><ele>149.0</ele><time>2026-03-24T17:05:10.999Z</time></trkpt><trkpt lat="42.10561432749535" lon="11.8239945743307"><ele>149.0</ele><time>2026-03-24T17:05:11.999Z</time></trkpt><trkpt lat="42.10570307876789" lon="11.824029755817431"><ele>149.0</ele><time>2026-03-24T17:05:12.999Z</time></trkpt><trkpt lat="42.10579071062527" lon="11.82407082734954"><ele>149.0</ele><time>2026-03-24T17:05:13.999Z</time></trkpt><trkpt lat="42.10588187968403" lon="11.824113952235885"><ele>149.0</ele><time>2026-03-24T17:05:14.999Z</time></trkpt><trkpt lat="42.10597696107502" lon="11.82417274003764"><ele>148.5</ele><time>2026-03-24T17:05:15.999Z</time></trkpt><trkpt lat="42.10607735877342" lon="11.824237248858957"><ele>148.0</ele><time>2026-03-24T17:05:16.999Z</time></trkpt><trkpt lat="42.10614991403074" lon="11.824394269395498"><ele>147.5</ele><time>2026-03-24T17:05:17.999Z</time></trkpt><trkpt lat="42.106248898432256" lon="11.824498778031124"><ele>147.0</ele><time>2026-03-24T17:05:18.999Z</time></trkpt><trkpt lat="42.10635063554941" lon="11.824606380702207"><ele>148.0</ele><time>2026-03-24T17:05:19.999Z</time></trkpt><trkpt lat="42.106451974437185" lon="11.824712644992339"><ele>149.0</ele><time>2026-03-24T17:05:20.999Z</time></trkpt><trkpt lat="42.10655040153067" lon="11.824814362579762"><ele>150.0</ele><time>2026-03-24T17:05:21.999Z</time></trkpt><trkpt lat="42.106648108184636" lon="11.824915025170398"><ele>151.0</ele><time>2026-03-24T17:05:22.999Z</time></trkpt><trkpt lat="42.10674157093756" lon="11.825010434754466"><ele>151.2</ele><time>2026-03-24T17:05:24Z</time></trkpt><trkpt lat="42.10682885682845" lon="11.82509933267803"><ele>151.39999999999998</ele><time>2026-03-24T17:05:25Z</time></trkpt><trkpt lat="42.106907406764854" lon="11.825183599361957"><ele>151.6</ele><time>2026-03-24T17:05:26Z</time></trkpt><trkpt lat="42.106974199122206" lon="11.825273179489516"><ele>151.79999999999998</ele><time>2026-03-24T17:05:27Z</time></trkpt><trkpt lat="42.10702393748622" lon="11.825378038632605"><ele>152.0</ele><time>2026-03-24T17:05:28Z</time></trkpt><trkpt lat="42.10705606025287" lon="11.825501697073486"><ele>153.0</ele><time>2026-03-24T17:05:29Z</time></trkpt><trkpt lat="42.10705866267797" lon="11.825635615081467"><ele>154.0</ele><time>2026-03-24T17:05:30Z</time></trkpt><trkpt lat="42.10703640960264" lon="11.825769731010478"><ele>155.0</ele><time>2026-03-24T17:05:31Z</time></trkpt><trkpt lat="42.10699715784483" lon="11.825912809862741"><ele>156.0</ele><time>2026-03-24T17:05:32Z</time></trkpt><trkpt lat="42.106922150244074" lon="11.826022559599071"><ele>157.0</ele><time>2026-03-24T17:05:33Z</time></trkpt><trkpt lat="42.1068181813461" lon="11.826100179211334"><ele>157.75</ele><time>2026-03-24T17:05:34Z</time></trkpt><trkpt lat="42.10670275352516" lon="11.826137055472183"><ele>158.5</ele><time>2026-03-24T17:05:35Z</time></trkpt><trkpt lat="42.1065775459865" lon="11.826144689515761"><ele>159.25</ele><time>2026-03-24T17:05:36Z</time></trkpt><trkpt lat="42.106451591661504" lon="11.826162466979643"><ele>160.0</ele><time>2026-03-24T17:05:37Z</time></trkpt><trkpt lat="42.10631369128362" lon="11.826184983031101"><ele>160.0</ele><time>2026-03-24T17:05:38Z</time></trkpt><trkpt lat="42.1061759770166" lon="11.82620570328571"><ele>160.0</ele><time>2026-03-24T17:05:39Z</time></trkpt><trkpt lat="42.10602747049691" lon="11.826228530094314"><ele>160.0</ele><time>2026-03-24T17:05:40Z</time></trkpt><trkpt lat="42.105875405088966" lon="11.826252040533618"><ele>160.0</ele><time>2026-03-24T17:05:41Z</time></trkpt><trkpt lat="42.10571555242394" lon="11.826279845869182"><ele>160.66666666666669</ele><time>2026-03-24T17:05:42Z</time></trkpt><trkpt lat="42.1055474292254" lon="11.826311170050394"><ele>161.33333333333334</ele><time>2026-03-24T17:05:43Z</time></trkpt><trkpt lat="42.1053700928699" lon="11.826344837555814"><ele>162.0</ele><time>2026-03-24T17:05:44Z</time></trkpt><trkpt lat="42.10518652147746" lon="11.826384715623142"><ele>162.0</ele><time>2026-03-24T17:05:45Z</time></trkpt><trkpt lat="42.10499766605649" lon="11.826429689252828"><ele>162.0</ele><time>2026-03-24T17:05:46Z</time></trkpt><trkpt lat="42.104803953643994" lon="11.82647662876282"><ele>162.0</ele><time>2026-03-24T17:05:47Z</time></trkpt><trkpt lat="42.10461882770614" lon="11.826532839039723"><ele>162.0</ele><time>2026-03-24T17:05:48Z</time></trkpt><trkpt lat="42.104423879704534" lon="11.826586953927647"><ele>162.0</ele><time>2026-03-24T17:05:49Z</time></trkpt><trkpt lat="42.104227204239606" lon="11.82664761275702"><ele>162.0</ele><time>2026-03-24T17:05:50Z</time></trkpt><trkpt lat="42.10403935993546" lon="11.826727445169828"><ele>162.33333333333334</ele><time>2026-03-24T17:05:51Z</time></trkpt><trkpt lat="42.10384304351934" lon="11.826801322369928"><ele>162.66666666666669</ele><time>2026-03-24T17:05:52Z</time></trkpt><trkpt lat="42.10364206837049" lon="11.826874178383218"><ele>163.0</ele><time>2026-03-24T17:05:53Z</time></trkpt><trkpt lat="42.103436885825836" lon="11.82694515546035"><ele>164.0</ele><time>2026-03-24T17:05:54Z</time></trkpt><trkpt lat="42.103228186204674" lon="11.82701259599079"><ele>165.0</ele><time>2026-03-24T17:05:55Z</time></trkpt><trkpt lat="42.103018216742015" lon="11.827081608672009"><ele>166.0</ele><time>2026-03-24T17:05:56Z</time></trkpt><trkpt lat="42.102804849133136" lon="11.827152326806207"><ele>166.0</ele><time>2026-03-24T17:05:57Z</time></trkpt><trkpt lat="42.102589017859536" lon="11.827223636446252"><ele>166.0</ele><time>2026-03-24T17:05:58Z</time></trkpt><trkpt lat="42.10237658056861" lon="11.827291293202796"><ele>166.0</ele><time>2026-03-24T17:05:59Z</time></trkpt><trkpt lat="42.102154822727876" lon="11.827369359948904"><ele>164.0</ele><time>2026-03-24T17:06:00Z</time></trkpt><trkpt lat="42.10192470563906" lon="11.827445632457037"><ele>162.0</ele><time>2026-03-24T17:06:01Z</time></trkpt><trkpt lat="42.10169524884724" lon="11.827520759160148"><ele>164.0</ele><time>2026-03-24T17:06:02Z</time></trkpt><trkpt lat="42.101468066439594" lon="11.82759635714843"><ele>166.0</ele><time>2026-03-24T17:06:03Z</time></trkpt><trkpt lat="42.1012428429264" lon="11.827667371552167"><ele>166.5</ele><time>2026-03-24T17:06:04Z</time></trkpt><trkpt lat="42.101021029787525" lon="11.827734306940393"><ele>167.0</ele><time>2026-03-24T17:06:05Z</time></trkpt><trkpt lat="42.10079910100608" lon="11.827798636132588"><ele>166.0</ele><time>2026-03-24T17:06:06Z</time></trkpt><trkpt lat="42.1005776042373" lon="11.827860828666937"><ele>165.0</ele><time>2026-03-24T17:06:07Z</time></trkpt><trkpt lat="42.10035851022886" lon="11.827919559901364"><ele>165.0</ele><time>2026-03-24T17:06:08Z</time></trkpt><trkpt lat="42.10013989870638" lon="11.82797346941313"><ele>165.0</ele><time>2026-03-24T17:06:09Z</time></trkpt><trkpt lat="42.09992151561912" lon="11.828016646804777"><ele>165.0</ele><time>2026-03-24T17:06:10Z</time></trkpt><trkpt lat="42.09970429431764" lon="11.828058427201514"><ele>159.0</ele><time>2026-03-24T17:06:11Z</time></trkpt><trkpt lat="42.09948952574607" lon="11.828098481788302"><ele>159.0</ele><time>2026-03-24T17:06:12Z</time></trkpt></trkseg></trk></gpx>